<?xml version="1.0" encoding="UTF-8" standalone="no" ?>
<gpx xmlns="http://www.topografix.com/GPX/1/1" xmlns:xsi="http://www.w3.org/2001/XMLSchema-instance" xsi:schemaLocation="http://www.topografix.com/GPX/1/1 http://www.topografix.com/GPX/1/1/gpx.xsd" version="1.1" creator="VisuGPX - https://www.visugpx.com">
  <metadata>
    <name>Joigny_Boucle_2j</name>
    <desc><![CDATA[Ballade autour de joigny]]></desc>
  </metadata>
  <trk>
    <name><![CDATA[Jour_1]]></name>
    <desc><![CDATA[Collective Gilles Perier
Etappe1
11p]]></desc>
    <trkseg>
      <trkpt lat="47.97366" lon="3.39474">
        <ele>114.40000152588</ele>
        <time>2022-07-07T07:51:51Z</time>
      </trkpt>
      <trkpt lat="47.97347" lon="3.39479">
        <ele>114.40000152588</ele>
        <time>2022-07-07T07:51:52Z</time>
      </trkpt>
      <trkpt lat="47.97329" lon="3.39463">
        <ele>114.40000152588</ele>
        <time>2022-07-07T07:52:09Z</time>
      </trkpt>
      <trkpt lat="47.97328" lon="3.39444">
        <ele>115.40000152588</ele>
        <time>2022-07-07T07:52:27Z</time>
      </trkpt>
      <trkpt lat="47.97322" lon="3.39425">
        <ele>115.40000152588</ele>
        <time>2022-07-07T07:52:38Z</time>
      </trkpt>
      <trkpt lat="47.97318" lon="3.39402">
        <ele>115.19999694824</ele>
        <time>2022-07-07T07:52:48Z</time>
      </trkpt>
      <trkpt lat="47.97314" lon="3.39375">
        <ele>114.80000305176</ele>
        <time>2022-07-07T07:53:03Z</time>
      </trkpt>
      <trkpt lat="47.97314" lon="3.39357">
        <ele>115.19999694824</ele>
        <time>2022-07-07T07:53:14Z</time>
      </trkpt>
      <trkpt lat="47.97314" lon="3.39336">
        <ele>114.59999847412</ele>
        <time>2022-07-07T07:53:27Z</time>
      </trkpt>
      <trkpt lat="47.9732" lon="3.39283">
        <ele>115.19999694824</ele>
        <time>2022-07-07T07:53:52Z</time>
      </trkpt>
      <trkpt lat="47.97324" lon="3.39273">
        <ele>115.19999694824</ele>
        <time>2022-07-07T07:53:59Z</time>
      </trkpt>
      <trkpt lat="47.97326" lon="3.3924">
        <ele>115.59999847412</ele>
        <time>2022-07-07T07:54:20Z</time>
      </trkpt>
      <trkpt lat="47.9732" lon="3.39212">
        <ele>115.19999694824</ele>
        <time>2022-07-07T07:54:41Z</time>
      </trkpt>
      <trkpt lat="47.9732" lon="3.39189">
        <ele>115.19999694824</ele>
        <time>2022-07-07T07:54:56Z</time>
      </trkpt>
      <trkpt lat="47.97326" lon="3.39181">
        <ele>115.19999694824</ele>
        <time>2022-07-07T07:55:05Z</time>
      </trkpt>
      <trkpt lat="47.97324" lon="3.39162">
        <ele>114.80000305176</ele>
        <time>2022-07-07T07:55:16Z</time>
      </trkpt>
      <trkpt lat="47.97318" lon="3.39127">
        <ele>115</ele>
        <time>2022-07-07T07:55:31Z</time>
      </trkpt>
      <trkpt lat="47.97313" lon="3.39114">
        <ele>115</ele>
        <time>2022-07-07T07:55:39Z</time>
      </trkpt>
      <trkpt lat="47.97305" lon="3.39092">
        <ele>114.59999847412</ele>
        <time>2022-07-07T07:56:03Z</time>
      </trkpt>
      <trkpt lat="47.97302" lon="3.39096">
        <ele>115.80000305176</ele>
        <time>2022-07-07T07:56:43Z</time>
      </trkpt>
      <trkpt lat="47.97306" lon="3.39087">
        <ele>115.80000305176</ele>
        <time>2022-07-07T07:56:48Z</time>
      </trkpt>
      <trkpt lat="47.97307" lon="3.3909">
        <ele>115.80000305176</ele>
        <time>2022-07-07T07:56:49Z</time>
      </trkpt>
      <trkpt lat="47.97307" lon="3.39091">
        <ele>115.80000305176</ele>
        <time>2022-07-07T07:56:50Z</time>
      </trkpt>
      <trkpt lat="47.97308" lon="3.39092">
        <ele>115.80000305176</ele>
        <time>2022-07-07T07:56:51Z</time>
      </trkpt>
      <trkpt lat="47.97308" lon="3.39094">
        <ele>115.80000305176</ele>
        <time>2022-07-07T07:56:52Z</time>
      </trkpt>
      <trkpt lat="47.97311" lon="3.39111">
        <ele>114.59999847412</ele>
        <time>2022-07-07T07:57:08Z</time>
      </trkpt>
      <trkpt lat="47.97309" lon="3.39132">
        <ele>114.80000305176</ele>
        <time>2022-07-07T07:57:29Z</time>
      </trkpt>
      <trkpt lat="47.97322" lon="3.39137">
        <ele>114.80000305176</ele>
        <time>2022-07-07T07:57:48Z</time>
      </trkpt>
      <trkpt lat="47.973" lon="3.3915">
        <ele>115</ele>
        <time>2022-07-07T07:58:02Z</time>
      </trkpt>
      <trkpt lat="47.97299" lon="3.3915">
        <ele>115</ele>
        <time>2022-07-07T07:58:03Z</time>
      </trkpt>
      <trkpt lat="47.97287" lon="3.39131">
        <ele>113.19999694824</ele>
        <time>2022-07-07T07:58:19Z</time>
      </trkpt>
      <trkpt lat="47.97282" lon="3.39115">
        <ele>114.59999847412</ele>
        <time>2022-07-07T07:58:27Z</time>
      </trkpt>
      <trkpt lat="47.97275" lon="3.39095">
        <ele>114.59999847412</ele>
        <time>2022-07-07T07:58:39Z</time>
      </trkpt>
      <trkpt lat="47.97273" lon="3.39093">
        <ele>114.59999847412</ele>
        <time>2022-07-07T07:58:40Z</time>
      </trkpt>
      <trkpt lat="47.97272" lon="3.39091">
        <ele>114.80000305176</ele>
        <time>2022-07-07T07:58:41Z</time>
      </trkpt>
      <trkpt lat="47.97259" lon="3.39065">
        <ele>114.80000305176</ele>
        <time>2022-07-07T07:58:58Z</time>
      </trkpt>
      <trkpt lat="47.97251" lon="3.39046">
        <ele>115</ele>
        <time>2022-07-07T07:59:11Z</time>
      </trkpt>
      <trkpt lat="47.97251" lon="3.39044">
        <ele>115</ele>
        <time>2022-07-07T07:59:12Z</time>
      </trkpt>
      <trkpt lat="47.97248" lon="3.39038">
        <ele>113.80000305176</ele>
        <time>2022-07-07T07:59:17Z</time>
      </trkpt>
      <trkpt lat="47.97244" lon="3.39032">
        <ele>114.80000305176</ele>
        <time>2022-07-07T07:59:21Z</time>
      </trkpt>
      <trkpt lat="47.97243" lon="3.3903">
        <ele>115</ele>
        <time>2022-07-07T07:59:23Z</time>
      </trkpt>
      <trkpt lat="47.97238" lon="3.39023">
        <ele>115</ele>
        <time>2022-07-07T07:59:28Z</time>
      </trkpt>
      <trkpt lat="47.97236" lon="3.3902">
        <ele>115</ele>
        <time>2022-07-07T07:59:31Z</time>
      </trkpt>
      <trkpt lat="47.97233" lon="3.39017">
        <ele>115.19999694824</ele>
        <time>2022-07-07T07:59:33Z</time>
      </trkpt>
      <trkpt lat="47.97222" lon="3.39006">
        <ele>115.19999694824</ele>
        <time>2022-07-07T07:59:42Z</time>
      </trkpt>
      <trkpt lat="47.97214" lon="3.38995">
        <ele>115</ele>
        <time>2022-07-07T07:59:50Z</time>
      </trkpt>
      <trkpt lat="47.97213" lon="3.38994">
        <ele>115</ele>
        <time>2022-07-07T07:59:51Z</time>
      </trkpt>
      <trkpt lat="47.97211" lon="3.38991">
        <ele>115</ele>
        <time>2022-07-07T07:59:53Z</time>
      </trkpt>
      <trkpt lat="47.97209" lon="3.38985">
        <ele>115.40000152588</ele>
        <time>2022-07-07T07:59:56Z</time>
      </trkpt>
      <trkpt lat="47.97208" lon="3.38984">
        <ele>115.40000152588</ele>
        <time>2022-07-07T07:59:57Z</time>
      </trkpt>
      <trkpt lat="47.97206" lon="3.38984">
        <ele>115.40000152588</ele>
        <time>2022-07-07T07:59:58Z</time>
      </trkpt>
      <trkpt lat="47.97203" lon="3.38981">
        <ele>115</ele>
        <time>2022-07-07T08:00:01Z</time>
      </trkpt>
      <trkpt lat="47.97202" lon="3.3898">
        <ele>115</ele>
        <time>2022-07-07T08:00:02Z</time>
      </trkpt>
      <trkpt lat="47.97193" lon="3.38968">
        <ele>115</ele>
        <time>2022-07-07T08:00:13Z</time>
      </trkpt>
      <trkpt lat="47.97188" lon="3.38961">
        <ele>115.19999694824</ele>
        <time>2022-07-07T08:00:18Z</time>
      </trkpt>
      <trkpt lat="47.97187" lon="3.3896">
        <ele>115.40000152588</ele>
        <time>2022-07-07T08:00:19Z</time>
      </trkpt>
      <trkpt lat="47.97169" lon="3.38943">
        <ele>115.19999694824</ele>
        <time>2022-07-07T08:00:38Z</time>
      </trkpt>
      <trkpt lat="47.97168" lon="3.38941">
        <ele>115.19999694824</ele>
        <time>2022-07-07T08:00:39Z</time>
      </trkpt>
      <trkpt lat="47.97158" lon="3.38931">
        <ele>115.40000152588</ele>
        <time>2022-07-07T08:00:48Z</time>
      </trkpt>
      <trkpt lat="47.97156" lon="3.3893">
        <ele>115.40000152588</ele>
        <time>2022-07-07T08:00:49Z</time>
      </trkpt>
      <trkpt lat="47.97155" lon="3.38929">
        <ele>115.19999694824</ele>
        <time>2022-07-07T08:00:50Z</time>
      </trkpt>
      <trkpt lat="47.97154" lon="3.38927">
        <ele>115.19999694824</ele>
        <time>2022-07-07T08:00:51Z</time>
      </trkpt>
      <trkpt lat="47.97144" lon="3.38917">
        <ele>115.19999694824</ele>
        <time>2022-07-07T08:01:00Z</time>
      </trkpt>
      <trkpt lat="47.97131" lon="3.38905">
        <ele>114.80000305176</ele>
        <time>2022-07-07T08:01:14Z</time>
      </trkpt>
      <trkpt lat="47.97122" lon="3.38898">
        <ele>115</ele>
        <time>2022-07-07T08:01:21Z</time>
      </trkpt>
      <trkpt lat="47.9712" lon="3.38895">
        <ele>115</ele>
        <time>2022-07-07T08:01:23Z</time>
      </trkpt>
      <trkpt lat="47.97112" lon="3.38891">
        <ele>115.19999694824</ele>
        <time>2022-07-07T08:01:29Z</time>
      </trkpt>
      <trkpt lat="47.97111" lon="3.3889">
        <ele>115.19999694824</ele>
        <time>2022-07-07T08:01:30Z</time>
      </trkpt>
      <trkpt lat="47.97108" lon="3.38888">
        <ele>115.19999694824</ele>
        <time>2022-07-07T08:01:32Z</time>
      </trkpt>
      <trkpt lat="47.97106" lon="3.38887">
        <ele>115.19999694824</ele>
        <time>2022-07-07T08:01:33Z</time>
      </trkpt>
      <trkpt lat="47.97105" lon="3.38886">
        <ele>115.19999694824</ele>
        <time>2022-07-07T08:01:34Z</time>
      </trkpt>
      <trkpt lat="47.97104" lon="3.38885">
        <ele>115.19999694824</ele>
        <time>2022-07-07T08:01:35Z</time>
      </trkpt>
      <trkpt lat="47.97092" lon="3.38877">
        <ele>115</ele>
        <time>2022-07-07T08:01:46Z</time>
      </trkpt>
      <trkpt lat="47.9708" lon="3.38867">
        <ele>114.59999847412</ele>
        <time>2022-07-07T08:01:59Z</time>
      </trkpt>
      <trkpt lat="47.97065" lon="3.38856">
        <ele>114.40000152588</ele>
        <time>2022-07-07T08:02:10Z</time>
      </trkpt>
      <trkpt lat="47.9705" lon="3.38843">
        <ele>114.59999847412</ele>
        <time>2022-07-07T08:02:26Z</time>
      </trkpt>
      <trkpt lat="47.97026" lon="3.38827">
        <ele>114.59999847412</ele>
        <time>2022-07-07T08:02:46Z</time>
      </trkpt>
      <trkpt lat="47.97009" lon="3.38813">
        <ele>114.59999847412</ele>
        <time>2022-07-07T08:02:59Z</time>
      </trkpt>
      <trkpt lat="47.97008" lon="3.38812">
        <ele>114.59999847412</ele>
        <time>2022-07-07T08:03:00Z</time>
      </trkpt>
      <trkpt lat="47.96987" lon="3.38794">
        <ele>114.59999847412</ele>
        <time>2022-07-07T08:03:16Z</time>
      </trkpt>
      <trkpt lat="47.96964" lon="3.38779">
        <ele>114.80000305176</ele>
        <time>2022-07-07T08:03:34Z</time>
      </trkpt>
      <trkpt lat="47.96943" lon="3.38763">
        <ele>115</ele>
        <time>2022-07-07T08:03:51Z</time>
      </trkpt>
      <trkpt lat="47.96942" lon="3.38763">
        <ele>115</ele>
        <time>2022-07-07T08:03:52Z</time>
      </trkpt>
      <trkpt lat="47.9694" lon="3.38762">
        <ele>115</ele>
        <time>2022-07-07T08:03:53Z</time>
      </trkpt>
      <trkpt lat="47.96937" lon="3.38761">
        <ele>115</ele>
        <time>2022-07-07T08:03:55Z</time>
      </trkpt>
      <trkpt lat="47.96917" lon="3.38746">
        <ele>115</ele>
        <time>2022-07-07T08:04:12Z</time>
      </trkpt>
      <trkpt lat="47.96903" lon="3.38736">
        <ele>114.80000305176</ele>
        <time>2022-07-07T08:04:23Z</time>
      </trkpt>
      <trkpt lat="47.96885" lon="3.38723">
        <ele>114.80000305176</ele>
        <time>2022-07-07T08:04:38Z</time>
      </trkpt>
      <trkpt lat="47.96884" lon="3.38722">
        <ele>114.80000305176</ele>
        <time>2022-07-07T08:04:39Z</time>
      </trkpt>
      <trkpt lat="47.96872" lon="3.38714">
        <ele>115</ele>
        <time>2022-07-07T08:04:51Z</time>
      </trkpt>
      <trkpt lat="47.96871" lon="3.38712">
        <ele>115</ele>
        <time>2022-07-07T08:04:52Z</time>
      </trkpt>
      <trkpt lat="47.9687" lon="3.3871">
        <ele>115</ele>
        <time>2022-07-07T08:04:53Z</time>
      </trkpt>
      <trkpt lat="47.96869" lon="3.38708">
        <ele>115</ele>
        <time>2022-07-07T08:04:54Z</time>
      </trkpt>
      <trkpt lat="47.96868" lon="3.38707">
        <ele>114.80000305176</ele>
        <time>2022-07-07T08:04:55Z</time>
      </trkpt>
      <trkpt lat="47.96866" lon="3.38705">
        <ele>114.80000305176</ele>
        <time>2022-07-07T08:04:56Z</time>
      </trkpt>
      <trkpt lat="47.96865" lon="3.38705">
        <ele>114.80000305176</ele>
        <time>2022-07-07T08:04:57Z</time>
      </trkpt>
      <trkpt lat="47.96864" lon="3.38704">
        <ele>114.59999847412</ele>
        <time>2022-07-07T08:04:58Z</time>
      </trkpt>
      <trkpt lat="47.96853" lon="3.38682">
        <ele>114.80000305176</ele>
        <time>2022-07-07T08:05:14Z</time>
      </trkpt>
      <trkpt lat="47.96854" lon="3.38662">
        <ele>115</ele>
        <time>2022-07-07T08:05:24Z</time>
      </trkpt>
      <trkpt lat="47.96856" lon="3.3865">
        <ele>115</ele>
        <time>2022-07-07T08:05:30Z</time>
      </trkpt>
      <trkpt lat="47.96857" lon="3.38645">
        <ele>115</ele>
        <time>2022-07-07T08:05:33Z</time>
      </trkpt>
      <trkpt lat="47.96858" lon="3.38625">
        <ele>115</ele>
        <time>2022-07-07T08:05:46Z</time>
      </trkpt>
      <trkpt lat="47.9686" lon="3.38593">
        <ele>115</ele>
        <time>2022-07-07T08:06:02Z</time>
      </trkpt>
      <trkpt lat="47.9686" lon="3.38591">
        <ele>115.19999694824</ele>
        <time>2022-07-07T08:06:03Z</time>
      </trkpt>
      <trkpt lat="47.96857" lon="3.38581">
        <ele>115.40000152588</ele>
        <time>2022-07-07T08:06:12Z</time>
      </trkpt>
      <trkpt lat="47.96856" lon="3.38568">
        <ele>115.19999694824</ele>
        <time>2022-07-07T08:06:25Z</time>
      </trkpt>
      <trkpt lat="47.96855" lon="3.38554">
        <ele>115</ele>
        <time>2022-07-07T08:06:34Z</time>
      </trkpt>
      <trkpt lat="47.96856" lon="3.38551">
        <ele>115.19999694824</ele>
        <time>2022-07-07T08:06:36Z</time>
      </trkpt>
      <trkpt lat="47.96856" lon="3.38549">
        <ele>115.19999694824</ele>
        <time>2022-07-07T08:06:37Z</time>
      </trkpt>
      <trkpt lat="47.96854" lon="3.38537">
        <ele>115.40000152588</ele>
        <time>2022-07-07T08:06:44Z</time>
      </trkpt>
      <trkpt lat="47.96855" lon="3.38523">
        <ele>115</ele>
        <time>2022-07-07T08:06:51Z</time>
      </trkpt>
      <trkpt lat="47.96855" lon="3.38522">
        <ele>115</ele>
        <time>2022-07-07T08:06:52Z</time>
      </trkpt>
      <trkpt lat="47.96855" lon="3.38516">
        <ele>115</ele>
        <time>2022-07-07T08:06:56Z</time>
      </trkpt>
      <trkpt lat="47.96851" lon="3.38509">
        <ele>115</ele>
        <time>2022-07-07T08:07:01Z</time>
      </trkpt>
      <trkpt lat="47.96848" lon="3.385">
        <ele>115</ele>
        <time>2022-07-07T08:07:07Z</time>
      </trkpt>
      <trkpt lat="47.96848" lon="3.38498">
        <ele>115</ele>
        <time>2022-07-07T08:07:08Z</time>
      </trkpt>
      <trkpt lat="47.96848" lon="3.38495">
        <ele>115</ele>
        <time>2022-07-07T08:07:10Z</time>
      </trkpt>
      <trkpt lat="47.96847" lon="3.38488">
        <ele>114.80000305176</ele>
        <time>2022-07-07T08:07:15Z</time>
      </trkpt>
      <trkpt lat="47.96843" lon="3.38463">
        <ele>115</ele>
        <time>2022-07-07T08:07:29Z</time>
      </trkpt>
      <trkpt lat="47.96843" lon="3.3844">
        <ele>114.80000305176</ele>
        <time>2022-07-07T08:07:41Z</time>
      </trkpt>
      <trkpt lat="47.96842" lon="3.38423">
        <ele>115.19999694824</ele>
        <time>2022-07-07T08:07:51Z</time>
      </trkpt>
      <trkpt lat="47.96841" lon="3.38416">
        <ele>115</ele>
        <time>2022-07-07T08:07:55Z</time>
      </trkpt>
      <trkpt lat="47.96841" lon="3.3841">
        <ele>115.19999694824</ele>
        <time>2022-07-07T08:07:59Z</time>
      </trkpt>
      <trkpt lat="47.96839" lon="3.38398">
        <ele>115</ele>
        <time>2022-07-07T08:08:06Z</time>
      </trkpt>
      <trkpt lat="47.96839" lon="3.38393">
        <ele>115.19999694824</ele>
        <time>2022-07-07T08:08:09Z</time>
      </trkpt>
      <trkpt lat="47.96841" lon="3.38372">
        <ele>114.80000305176</ele>
        <time>2022-07-07T08:08:21Z</time>
      </trkpt>
      <trkpt lat="47.96847" lon="3.3834">
        <ele>115.19999694824</ele>
        <time>2022-07-07T08:08:37Z</time>
      </trkpt>
      <trkpt lat="47.96858" lon="3.38293">
        <ele>115.59999847412</ele>
        <time>2022-07-07T08:09:03Z</time>
      </trkpt>
      <trkpt lat="47.9687" lon="3.38275">
        <ele>115.80000305176</ele>
        <time>2022-07-07T08:09:17Z</time>
      </trkpt>
      <trkpt lat="47.96876" lon="3.38265">
        <ele>115.59999847412</ele>
        <time>2022-07-07T08:09:32Z</time>
      </trkpt>
      <trkpt lat="47.96887" lon="3.38252">
        <ele>116</ele>
        <time>2022-07-07T08:09:42Z</time>
      </trkpt>
      <trkpt lat="47.96888" lon="3.38252">
        <ele>116</ele>
        <time>2022-07-07T08:09:43Z</time>
      </trkpt>
      <trkpt lat="47.96892" lon="3.38247">
        <ele>116</ele>
        <time>2022-07-07T08:09:46Z</time>
      </trkpt>
      <trkpt lat="47.969" lon="3.38232">
        <ele>115.59999847412</ele>
        <time>2022-07-07T08:09:56Z</time>
      </trkpt>
      <trkpt lat="47.96912" lon="3.38206">
        <ele>115.40000152588</ele>
        <time>2022-07-07T08:10:12Z</time>
      </trkpt>
      <trkpt lat="47.96916" lon="3.38188">
        <ele>115.19999694824</ele>
        <time>2022-07-07T08:10:21Z</time>
      </trkpt>
      <trkpt lat="47.96921" lon="3.38177">
        <ele>115.19999694824</ele>
        <time>2022-07-07T08:10:27Z</time>
      </trkpt>
      <trkpt lat="47.96922" lon="3.38169">
        <ele>115</ele>
        <time>2022-07-07T08:10:31Z</time>
      </trkpt>
      <trkpt lat="47.96925" lon="3.38148">
        <ele>115</ele>
        <time>2022-07-07T08:10:46Z</time>
      </trkpt>
      <trkpt lat="47.9693" lon="3.38129">
        <ele>115.19999694824</ele>
        <time>2022-07-07T08:10:58Z</time>
      </trkpt>
      <trkpt lat="47.96936" lon="3.38112">
        <ele>115.59999847412</ele>
        <time>2022-07-07T08:11:09Z</time>
      </trkpt>
      <trkpt lat="47.96938" lon="3.38097">
        <ele>115.80000305176</ele>
        <time>2022-07-07T08:11:18Z</time>
      </trkpt>
      <trkpt lat="47.96933" lon="3.38083">
        <ele>116.19999694824</ele>
        <time>2022-07-07T08:11:29Z</time>
      </trkpt>
      <trkpt lat="47.96924" lon="3.38055">
        <ele>116.40000152588</ele>
        <time>2022-07-07T08:11:43Z</time>
      </trkpt>
      <trkpt lat="47.96921" lon="3.38047">
        <ele>116.40000152588</ele>
        <time>2022-07-07T08:11:47Z</time>
      </trkpt>
      <trkpt lat="47.96921" lon="3.38044">
        <ele>116.40000152588</ele>
        <time>2022-07-07T08:11:48Z</time>
      </trkpt>
      <trkpt lat="47.9692" lon="3.38042">
        <ele>116.40000152588</ele>
        <time>2022-07-07T08:11:49Z</time>
      </trkpt>
      <trkpt lat="47.9692" lon="3.38039">
        <ele>116.40000152588</ele>
        <time>2022-07-07T08:11:50Z</time>
      </trkpt>
      <trkpt lat="47.96919" lon="3.38035">
        <ele>116.59999847412</ele>
        <time>2022-07-07T08:11:51Z</time>
      </trkpt>
      <trkpt lat="47.96908" lon="3.38">
        <ele>116.19999694824</ele>
        <time>2022-07-07T08:12:09Z</time>
      </trkpt>
      <trkpt lat="47.96904" lon="3.3799">
        <ele>115.80000305176</ele>
        <time>2022-07-07T08:12:16Z</time>
      </trkpt>
      <trkpt lat="47.96901" lon="3.37979">
        <ele>116</ele>
        <time>2022-07-07T08:12:25Z</time>
      </trkpt>
      <trkpt lat="47.9689" lon="3.37948">
        <ele>116.19999694824</ele>
        <time>2022-07-07T08:12:45Z</time>
      </trkpt>
      <trkpt lat="47.96882" lon="3.37929">
        <ele>116.19999694824</ele>
        <time>2022-07-07T08:12:57Z</time>
      </trkpt>
      <trkpt lat="47.96873" lon="3.37911">
        <ele>116.19999694824</ele>
        <time>2022-07-07T08:13:08Z</time>
      </trkpt>
      <trkpt lat="47.96872" lon="3.37909">
        <ele>116.19999694824</ele>
        <time>2022-07-07T08:13:09Z</time>
      </trkpt>
      <trkpt lat="47.9687" lon="3.37904">
        <ele>116.19999694824</ele>
        <time>2022-07-07T08:13:12Z</time>
      </trkpt>
      <trkpt lat="47.96863" lon="3.37889">
        <ele>116.59999847412</ele>
        <time>2022-07-07T08:13:25Z</time>
      </trkpt>
      <trkpt lat="47.96858" lon="3.37879">
        <ele>116.40000152588</ele>
        <time>2022-07-07T08:13:32Z</time>
      </trkpt>
      <trkpt lat="47.9685" lon="3.37862">
        <ele>116.40000152588</ele>
        <time>2022-07-07T08:13:43Z</time>
      </trkpt>
      <trkpt lat="47.96847" lon="3.37858">
        <ele>116.59999847412</ele>
        <time>2022-07-07T08:13:47Z</time>
      </trkpt>
      <trkpt lat="47.96839" lon="3.37848">
        <ele>116.80000305176</ele>
        <time>2022-07-07T08:13:57Z</time>
      </trkpt>
      <trkpt lat="47.96806" lon="3.37792">
        <ele>117.59999847412</ele>
        <time>2022-07-07T08:14:38Z</time>
      </trkpt>
      <trkpt lat="47.96802" lon="3.3778">
        <ele>117.40000152588</ele>
        <time>2022-07-07T08:14:45Z</time>
      </trkpt>
      <trkpt lat="47.96798" lon="3.37772">
        <ele>117.59999847412</ele>
        <time>2022-07-07T08:14:50Z</time>
      </trkpt>
      <trkpt lat="47.96788" lon="3.37758">
        <ele>118</ele>
        <time>2022-07-07T08:15:01Z</time>
      </trkpt>
      <trkpt lat="47.96787" lon="3.37756">
        <ele>118</ele>
        <time>2022-07-07T08:15:03Z</time>
      </trkpt>
      <trkpt lat="47.96786" lon="3.37754">
        <ele>118</ele>
        <time>2022-07-07T08:15:04Z</time>
      </trkpt>
      <trkpt lat="47.96783" lon="3.37749">
        <ele>118.19999694824</ele>
        <time>2022-07-07T08:15:08Z</time>
      </trkpt>
      <trkpt lat="47.96781" lon="3.37745">
        <ele>118.40000152588</ele>
        <time>2022-07-07T08:15:11Z</time>
      </trkpt>
      <trkpt lat="47.96781" lon="3.37743">
        <ele>118.40000152588</ele>
        <time>2022-07-07T08:15:12Z</time>
      </trkpt>
      <trkpt lat="47.9678" lon="3.37742">
        <ele>118.40000152588</ele>
        <time>2022-07-07T08:15:13Z</time>
      </trkpt>
      <trkpt lat="47.96776" lon="3.37731">
        <ele>118.59999847412</ele>
        <time>2022-07-07T08:15:22Z</time>
      </trkpt>
      <trkpt lat="47.9677" lon="3.37716">
        <ele>118.40000152588</ele>
        <time>2022-07-07T08:15:31Z</time>
      </trkpt>
      <trkpt lat="47.96764" lon="3.37697">
        <ele>119</ele>
        <time>2022-07-07T08:15:43Z</time>
      </trkpt>
      <trkpt lat="47.96762" lon="3.37688">
        <ele>119.19999694824</ele>
        <time>2022-07-07T08:15:48Z</time>
      </trkpt>
      <trkpt lat="47.96761" lon="3.37683">
        <ele>119</ele>
        <time>2022-07-07T08:15:51Z</time>
      </trkpt>
      <trkpt lat="47.96759" lon="3.37676">
        <ele>119.40000152588</ele>
        <time>2022-07-07T08:15:55Z</time>
      </trkpt>
      <trkpt lat="47.96758" lon="3.37674">
        <ele>119.40000152588</ele>
        <time>2022-07-07T08:15:56Z</time>
      </trkpt>
      <trkpt lat="47.96756" lon="3.37666">
        <ele>119.59999847412</ele>
        <time>2022-07-07T08:16:01Z</time>
      </trkpt>
      <trkpt lat="47.96753" lon="3.37651">
        <ele>120.19999694824</ele>
        <time>2022-07-07T08:16:10Z</time>
      </trkpt>
      <trkpt lat="47.96749" lon="3.37612">
        <ele>120.59999847412</ele>
        <time>2022-07-07T08:16:30Z</time>
      </trkpt>
      <trkpt lat="47.96754" lon="3.3759">
        <ele>120.80000305176</ele>
        <time>2022-07-07T08:16:45Z</time>
      </trkpt>
      <trkpt lat="47.96754" lon="3.37586">
        <ele>121</ele>
        <time>2022-07-07T08:16:48Z</time>
      </trkpt>
      <trkpt lat="47.96754" lon="3.37578">
        <ele>121.19999694824</ele>
        <time>2022-07-07T08:16:52Z</time>
      </trkpt>
      <trkpt lat="47.96754" lon="3.37577">
        <ele>121</ele>
        <time>2022-07-07T08:16:53Z</time>
      </trkpt>
      <trkpt lat="47.96753" lon="3.37574">
        <ele>121</ele>
        <time>2022-07-07T08:16:55Z</time>
      </trkpt>
      <trkpt lat="47.96753" lon="3.37571">
        <ele>121</ele>
        <time>2022-07-07T08:16:57Z</time>
      </trkpt>
      <trkpt lat="47.9675" lon="3.37567">
        <ele>121.40000152588</ele>
        <time>2022-07-07T08:17:00Z</time>
      </trkpt>
      <trkpt lat="47.96745" lon="3.37553">
        <ele>121.80000305176</ele>
        <time>2022-07-07T08:17:08Z</time>
      </trkpt>
      <trkpt lat="47.96741" lon="3.37547">
        <ele>121.80000305176</ele>
        <time>2022-07-07T08:17:13Z</time>
      </trkpt>
      <trkpt lat="47.96737" lon="3.37538">
        <ele>122.19999694824</ele>
        <time>2022-07-07T08:17:20Z</time>
      </trkpt>
      <trkpt lat="47.96734" lon="3.3753">
        <ele>122.40000152588</ele>
        <time>2022-07-07T08:17:25Z</time>
      </trkpt>
      <trkpt lat="47.96727" lon="3.37512">
        <ele>122.80000305176</ele>
        <time>2022-07-07T08:17:36Z</time>
      </trkpt>
      <trkpt lat="47.96726" lon="3.37509">
        <ele>122.80000305176</ele>
        <time>2022-07-07T08:17:38Z</time>
      </trkpt>
      <trkpt lat="47.96725" lon="3.37508">
        <ele>122.80000305176</ele>
        <time>2022-07-07T08:17:39Z</time>
      </trkpt>
      <trkpt lat="47.96724" lon="3.37507">
        <ele>123</ele>
        <time>2022-07-07T08:17:40Z</time>
      </trkpt>
      <trkpt lat="47.96723" lon="3.37506">
        <ele>123</ele>
        <time>2022-07-07T08:17:41Z</time>
      </trkpt>
      <trkpt lat="47.96717" lon="3.37489">
        <ele>123.40000152588</ele>
        <time>2022-07-07T08:17:52Z</time>
      </trkpt>
      <trkpt lat="47.96716" lon="3.37487">
        <ele>123.40000152588</ele>
        <time>2022-07-07T08:17:53Z</time>
      </trkpt>
      <trkpt lat="47.96716" lon="3.37485">
        <ele>123.40000152588</ele>
        <time>2022-07-07T08:17:54Z</time>
      </trkpt>
      <trkpt lat="47.96714" lon="3.3748">
        <ele>123.40000152588</ele>
        <time>2022-07-07T08:17:57Z</time>
      </trkpt>
      <trkpt lat="47.96713" lon="3.37479">
        <ele>123.40000152588</ele>
        <time>2022-07-07T08:17:58Z</time>
      </trkpt>
      <trkpt lat="47.96711" lon="3.37476">
        <ele>123.40000152588</ele>
        <time>2022-07-07T08:18:00Z</time>
      </trkpt>
      <trkpt lat="47.9671" lon="3.37475">
        <ele>123.40000152588</ele>
        <time>2022-07-07T08:18:01Z</time>
      </trkpt>
      <trkpt lat="47.96709" lon="3.37474">
        <ele>123.40000152588</ele>
        <time>2022-07-07T08:18:02Z</time>
      </trkpt>
      <trkpt lat="47.96703" lon="3.37464">
        <ele>123.59999847412</ele>
        <time>2022-07-07T08:18:09Z</time>
      </trkpt>
      <trkpt lat="47.96701" lon="3.3746">
        <ele>123.40000152588</ele>
        <time>2022-07-07T08:18:12Z</time>
      </trkpt>
      <trkpt lat="47.96695" lon="3.3745">
        <ele>123.59999847412</ele>
        <time>2022-07-07T08:18:19Z</time>
      </trkpt>
      <trkpt lat="47.96695" lon="3.37448">
        <ele>123.59999847412</ele>
        <time>2022-07-07T08:18:20Z</time>
      </trkpt>
      <trkpt lat="47.96693" lon="3.37445">
        <ele>123.80000305176</ele>
        <time>2022-07-07T08:18:22Z</time>
      </trkpt>
      <trkpt lat="47.96687" lon="3.37437">
        <ele>123.59999847412</ele>
        <time>2022-07-07T08:18:30Z</time>
      </trkpt>
      <trkpt lat="47.96682" lon="3.37425">
        <ele>123.59999847412</ele>
        <time>2022-07-07T08:18:40Z</time>
      </trkpt>
      <trkpt lat="47.96681" lon="3.37409">
        <ele>123.59999847412</ele>
        <time>2022-07-07T08:18:52Z</time>
      </trkpt>
      <trkpt lat="47.96683" lon="3.37391">
        <ele>123.59999847412</ele>
        <time>2022-07-07T08:19:04Z</time>
      </trkpt>
      <trkpt lat="47.96686" lon="3.37371">
        <ele>124.19999694824</ele>
        <time>2022-07-07T08:19:14Z</time>
      </trkpt>
      <trkpt lat="47.9669" lon="3.37355">
        <ele>124.59999847412</ele>
        <time>2022-07-07T08:19:25Z</time>
      </trkpt>
      <trkpt lat="47.96691" lon="3.37349">
        <ele>124.59999847412</ele>
        <time>2022-07-07T08:19:29Z</time>
      </trkpt>
      <trkpt lat="47.96697" lon="3.37306">
        <ele>125.19999694824</ele>
        <time>2022-07-07T08:19:51Z</time>
      </trkpt>
      <trkpt lat="47.967" lon="3.37297">
        <ele>125.40000152588</ele>
        <time>2022-07-07T08:19:57Z</time>
      </trkpt>
      <trkpt lat="47.96705" lon="3.37284">
        <ele>125.80000305176</ele>
        <time>2022-07-07T08:20:05Z</time>
      </trkpt>
      <trkpt lat="47.96707" lon="3.3728">
        <ele>125.80000305176</ele>
        <time>2022-07-07T08:20:08Z</time>
      </trkpt>
      <trkpt lat="47.96708" lon="3.37275">
        <ele>125.80000305176</ele>
        <time>2022-07-07T08:20:11Z</time>
      </trkpt>
      <trkpt lat="47.96709" lon="3.3727">
        <ele>125.59999847412</ele>
        <time>2022-07-07T08:20:14Z</time>
      </trkpt>
      <trkpt lat="47.96712" lon="3.37262">
        <ele>125.80000305176</ele>
        <time>2022-07-07T08:20:19Z</time>
      </trkpt>
      <trkpt lat="47.96713" lon="3.37245">
        <ele>125.80000305176</ele>
        <time>2022-07-07T08:20:29Z</time>
      </trkpt>
      <trkpt lat="47.96715" lon="3.37232">
        <ele>125.80000305176</ele>
        <time>2022-07-07T08:20:36Z</time>
      </trkpt>
      <trkpt lat="47.96717" lon="3.37227">
        <ele>125.80000305176</ele>
        <time>2022-07-07T08:20:39Z</time>
      </trkpt>
      <trkpt lat="47.96718" lon="3.37224">
        <ele>126</ele>
        <time>2022-07-07T08:20:41Z</time>
      </trkpt>
      <trkpt lat="47.96721" lon="3.37216">
        <ele>126.19999694824</ele>
        <time>2022-07-07T08:20:46Z</time>
      </trkpt>
      <trkpt lat="47.96722" lon="3.37209">
        <ele>125.80000305176</ele>
        <time>2022-07-07T08:20:50Z</time>
      </trkpt>
      <trkpt lat="47.96726" lon="3.37187">
        <ele>126.40000152588</ele>
        <time>2022-07-07T08:21:02Z</time>
      </trkpt>
      <trkpt lat="47.96726" lon="3.37182">
        <ele>126.40000152588</ele>
        <time>2022-07-07T08:21:05Z</time>
      </trkpt>
      <trkpt lat="47.96727" lon="3.37177">
        <ele>126.40000152588</ele>
        <time>2022-07-07T08:21:08Z</time>
      </trkpt>
      <trkpt lat="47.96728" lon="3.37172">
        <ele>126.59999847412</ele>
        <time>2022-07-07T08:21:11Z</time>
      </trkpt>
      <trkpt lat="47.96728" lon="3.37171">
        <ele>126.80000305176</ele>
        <time>2022-07-07T08:21:12Z</time>
      </trkpt>
      <trkpt lat="47.96729" lon="3.37167">
        <ele>126.80000305176</ele>
        <time>2022-07-07T08:21:15Z</time>
      </trkpt>
      <trkpt lat="47.96731" lon="3.3716">
        <ele>127</ele>
        <time>2022-07-07T08:21:19Z</time>
      </trkpt>
      <trkpt lat="47.96734" lon="3.37146">
        <ele>127.19999694824</ele>
        <time>2022-07-07T08:21:27Z</time>
      </trkpt>
      <trkpt lat="47.96734" lon="3.37145">
        <ele>127.19999694824</ele>
        <time>2022-07-07T08:21:28Z</time>
      </trkpt>
      <trkpt lat="47.96739" lon="3.37127">
        <ele>127.59999847412</ele>
        <time>2022-07-07T08:21:39Z</time>
      </trkpt>
      <trkpt lat="47.96741" lon="3.3712">
        <ele>127.59999847412</ele>
        <time>2022-07-07T08:21:45Z</time>
      </trkpt>
      <trkpt lat="47.96742" lon="3.37119">
        <ele>127.59999847412</ele>
        <time>2022-07-07T08:21:46Z</time>
      </trkpt>
      <trkpt lat="47.96742" lon="3.37117">
        <ele>127.59999847412</ele>
        <time>2022-07-07T08:21:47Z</time>
      </trkpt>
      <trkpt lat="47.96749" lon="3.37091">
        <ele>128</ele>
        <time>2022-07-07T08:22:02Z</time>
      </trkpt>
      <trkpt lat="47.96751" lon="3.37077">
        <ele>128</ele>
        <time>2022-07-07T08:22:11Z</time>
      </trkpt>
      <trkpt lat="47.96753" lon="3.37067">
        <ele>127.80000305176</ele>
        <time>2022-07-07T08:22:16Z</time>
      </trkpt>
      <trkpt lat="47.96758" lon="3.37052">
        <ele>128</ele>
        <time>2022-07-07T08:22:24Z</time>
      </trkpt>
      <trkpt lat="47.96762" lon="3.37025">
        <ele>127.59999847412</ele>
        <time>2022-07-07T08:22:39Z</time>
      </trkpt>
      <trkpt lat="47.96764" lon="3.3701">
        <ele>128</ele>
        <time>2022-07-07T08:22:46Z</time>
      </trkpt>
      <trkpt lat="47.96772" lon="3.36974">
        <ele>128</ele>
        <time>2022-07-07T08:23:06Z</time>
      </trkpt>
      <trkpt lat="47.96773" lon="3.36966">
        <ele>128.19999694824</ele>
        <time>2022-07-07T08:23:11Z</time>
      </trkpt>
      <trkpt lat="47.96777" lon="3.36947">
        <ele>128.19999694824</ele>
        <time>2022-07-07T08:23:23Z</time>
      </trkpt>
      <trkpt lat="47.96778" lon="3.36942">
        <ele>128.39999389648</ele>
        <time>2022-07-07T08:23:26Z</time>
      </trkpt>
      <trkpt lat="47.96781" lon="3.36929">
        <ele>128</ele>
        <time>2022-07-07T08:23:33Z</time>
      </trkpt>
      <trkpt lat="47.96782" lon="3.36922">
        <ele>128.19999694824</ele>
        <time>2022-07-07T08:23:37Z</time>
      </trkpt>
      <trkpt lat="47.96783" lon="3.36915">
        <ele>128.19999694824</ele>
        <time>2022-07-07T08:23:41Z</time>
      </trkpt>
      <trkpt lat="47.96785" lon="3.3691">
        <ele>128.39999389648</ele>
        <time>2022-07-07T08:23:45Z</time>
      </trkpt>
      <trkpt lat="47.96786" lon="3.36901">
        <ele>128.39999389648</ele>
        <time>2022-07-07T08:23:50Z</time>
      </trkpt>
      <trkpt lat="47.96791" lon="3.36878">
        <ele>128.60000610352</ele>
        <time>2022-07-07T08:24:04Z</time>
      </trkpt>
      <trkpt lat="47.96792" lon="3.36872">
        <ele>128.39999389648</ele>
        <time>2022-07-07T08:24:07Z</time>
      </trkpt>
      <trkpt lat="47.96795" lon="3.36858">
        <ele>128.80000305176</ele>
        <time>2022-07-07T08:24:15Z</time>
      </trkpt>
      <trkpt lat="47.96796" lon="3.36855">
        <ele>128.60000610352</ele>
        <time>2022-07-07T08:24:17Z</time>
      </trkpt>
      <trkpt lat="47.968" lon="3.36844">
        <ele>128</ele>
        <time>2022-07-07T08:24:23Z</time>
      </trkpt>
      <trkpt lat="47.96802" lon="3.36835">
        <ele>128.19999694824</ele>
        <time>2022-07-07T08:24:29Z</time>
      </trkpt>
      <trkpt lat="47.96803" lon="3.36833">
        <ele>128.19999694824</ele>
        <time>2022-07-07T08:24:30Z</time>
      </trkpt>
      <trkpt lat="47.96805" lon="3.36816">
        <ele>127.59999847412</ele>
        <time>2022-07-07T08:24:39Z</time>
      </trkpt>
      <trkpt lat="47.96804" lon="3.36809">
        <ele>127.80000305176</ele>
        <time>2022-07-07T08:24:44Z</time>
      </trkpt>
      <trkpt lat="47.96788" lon="3.36797">
        <ele>128.19999694824</ele>
        <time>2022-07-07T08:24:57Z</time>
      </trkpt>
      <trkpt lat="47.96767" lon="3.36783">
        <ele>128.39999389648</ele>
        <time>2022-07-07T08:25:17Z</time>
      </trkpt>
      <trkpt lat="47.96761" lon="3.3678">
        <ele>128.80000305176</ele>
        <time>2022-07-07T08:25:22Z</time>
      </trkpt>
      <trkpt lat="47.96757" lon="3.36778">
        <ele>128.60000610352</ele>
        <time>2022-07-07T08:25:25Z</time>
      </trkpt>
      <trkpt lat="47.96742" lon="3.36761">
        <ele>129.39999389648</ele>
        <time>2022-07-07T08:25:43Z</time>
      </trkpt>
      <trkpt lat="47.96741" lon="3.36759">
        <ele>129.60000610352</ele>
        <time>2022-07-07T08:25:44Z</time>
      </trkpt>
      <trkpt lat="47.96739" lon="3.36759">
        <ele>129.60000610352</ele>
        <time>2022-07-07T08:25:45Z</time>
      </trkpt>
      <trkpt lat="47.96738" lon="3.36758">
        <ele>129.60000610352</ele>
        <time>2022-07-07T08:25:46Z</time>
      </trkpt>
      <trkpt lat="47.96735" lon="3.36755">
        <ele>129.19999694824</ele>
        <time>2022-07-07T08:25:49Z</time>
      </trkpt>
      <trkpt lat="47.96728" lon="3.36748">
        <ele>129.60000610352</ele>
        <time>2022-07-07T08:25:57Z</time>
      </trkpt>
      <trkpt lat="47.96719" lon="3.36743">
        <ele>129.80000305176</ele>
        <time>2022-07-07T08:26:07Z</time>
      </trkpt>
      <trkpt lat="47.96713" lon="3.36736">
        <ele>129.60000610352</ele>
        <time>2022-07-07T08:26:13Z</time>
      </trkpt>
      <trkpt lat="47.96704" lon="3.36726">
        <ele>130</ele>
        <time>2022-07-07T08:26:24Z</time>
      </trkpt>
      <trkpt lat="47.96699" lon="3.36723">
        <ele>130</ele>
        <time>2022-07-07T08:26:33Z</time>
      </trkpt>
      <trkpt lat="47.96689" lon="3.36716">
        <ele>130.19999694824</ele>
        <time>2022-07-07T08:26:45Z</time>
      </trkpt>
      <trkpt lat="47.96688" lon="3.36716">
        <ele>130.39999389648</ele>
        <time>2022-07-07T08:26:46Z</time>
      </trkpt>
      <trkpt lat="47.96685" lon="3.36715">
        <ele>130.39999389648</ele>
        <time>2022-07-07T08:26:48Z</time>
      </trkpt>
      <trkpt lat="47.9667" lon="3.36705">
        <ele>130.60000610352</ele>
        <time>2022-07-07T08:27:01Z</time>
      </trkpt>
      <trkpt lat="47.96653" lon="3.36695">
        <ele>130.60000610352</ele>
        <time>2022-07-07T08:27:15Z</time>
      </trkpt>
      <trkpt lat="47.96648" lon="3.36691">
        <ele>130.80000305176</ele>
        <time>2022-07-07T08:27:19Z</time>
      </trkpt>
      <trkpt lat="47.96638" lon="3.36683">
        <ele>130.80000305176</ele>
        <time>2022-07-07T08:27:28Z</time>
      </trkpt>
      <trkpt lat="47.96626" lon="3.36676">
        <ele>131</ele>
        <time>2022-07-07T08:27:39Z</time>
      </trkpt>
      <trkpt lat="47.96625" lon="3.36675">
        <ele>131</ele>
        <time>2022-07-07T08:27:40Z</time>
      </trkpt>
      <trkpt lat="47.96618" lon="3.36675">
        <ele>131.19999694824</ele>
        <time>2022-07-07T08:27:46Z</time>
      </trkpt>
      <trkpt lat="47.96604" lon="3.36664">
        <ele>131.39999389648</ele>
        <time>2022-07-07T08:27:56Z</time>
      </trkpt>
      <trkpt lat="47.96593" lon="3.36655">
        <ele>131.80000305176</ele>
        <time>2022-07-07T08:28:08Z</time>
      </trkpt>
      <trkpt lat="47.96581" lon="3.36647">
        <ele>131.60000610352</ele>
        <time>2022-07-07T08:28:17Z</time>
      </trkpt>
      <trkpt lat="47.9658" lon="3.36646">
        <ele>131.60000610352</ele>
        <time>2022-07-07T08:28:18Z</time>
      </trkpt>
      <trkpt lat="47.96579" lon="3.36645">
        <ele>131.60000610352</ele>
        <time>2022-07-07T08:28:19Z</time>
      </trkpt>
      <trkpt lat="47.96577" lon="3.36645">
        <ele>131.80000305176</ele>
        <time>2022-07-07T08:28:20Z</time>
      </trkpt>
      <trkpt lat="47.96574" lon="3.36643">
        <ele>132</ele>
        <time>2022-07-07T08:28:23Z</time>
      </trkpt>
      <trkpt lat="47.96572" lon="3.36643">
        <ele>132</ele>
        <time>2022-07-07T08:28:24Z</time>
      </trkpt>
      <trkpt lat="47.96571" lon="3.36642">
        <ele>132</ele>
        <time>2022-07-07T08:28:25Z</time>
      </trkpt>
      <trkpt lat="47.96563" lon="3.36636">
        <ele>132</ele>
        <time>2022-07-07T08:28:33Z</time>
      </trkpt>
      <trkpt lat="47.96552" lon="3.36631">
        <ele>132.39999389648</ele>
        <time>2022-07-07T08:28:43Z</time>
      </trkpt>
      <trkpt lat="47.96545" lon="3.36625">
        <ele>132.39999389648</ele>
        <time>2022-07-07T08:28:49Z</time>
      </trkpt>
      <trkpt lat="47.96544" lon="3.36625">
        <ele>132.39999389648</ele>
        <time>2022-07-07T08:28:50Z</time>
      </trkpt>
      <trkpt lat="47.96542" lon="3.36624">
        <ele>132.60000610352</ele>
        <time>2022-07-07T08:28:52Z</time>
      </trkpt>
      <trkpt lat="47.96541" lon="3.36623">
        <ele>132.60000610352</ele>
        <time>2022-07-07T08:28:53Z</time>
      </trkpt>
      <trkpt lat="47.9654" lon="3.36622">
        <ele>132.80000305176</ele>
        <time>2022-07-07T08:28:54Z</time>
      </trkpt>
      <trkpt lat="47.96537" lon="3.36621">
        <ele>132.80000305176</ele>
        <time>2022-07-07T08:28:56Z</time>
      </trkpt>
      <trkpt lat="47.96529" lon="3.36617">
        <ele>132.19999694824</ele>
        <time>2022-07-07T08:29:03Z</time>
      </trkpt>
      <trkpt lat="47.96524" lon="3.36613">
        <ele>132.39999389648</ele>
        <time>2022-07-07T08:29:07Z</time>
      </trkpt>
      <trkpt lat="47.96513" lon="3.36605">
        <ele>132.80000305176</ele>
        <time>2022-07-07T08:29:16Z</time>
      </trkpt>
      <trkpt lat="47.96511" lon="3.36604">
        <ele>133</ele>
        <time>2022-07-07T08:29:18Z</time>
      </trkpt>
      <trkpt lat="47.965" lon="3.36596">
        <ele>132.80000305176</ele>
        <time>2022-07-07T08:29:27Z</time>
      </trkpt>
      <trkpt lat="47.96493" lon="3.3659">
        <ele>133</ele>
        <time>2022-07-07T08:29:34Z</time>
      </trkpt>
      <trkpt lat="47.96482" lon="3.36586">
        <ele>133.19999694824</ele>
        <time>2022-07-07T08:29:44Z</time>
      </trkpt>
      <trkpt lat="47.96479" lon="3.36584">
        <ele>133.19999694824</ele>
        <time>2022-07-07T08:29:47Z</time>
      </trkpt>
      <trkpt lat="47.96469" lon="3.36574">
        <ele>133.39999389648</ele>
        <time>2022-07-07T08:29:58Z</time>
      </trkpt>
      <trkpt lat="47.9646" lon="3.36565">
        <ele>133.60000610352</ele>
        <time>2022-07-07T08:30:07Z</time>
      </trkpt>
      <trkpt lat="47.96459" lon="3.36564">
        <ele>133.60000610352</ele>
        <time>2022-07-07T08:30:08Z</time>
      </trkpt>
      <trkpt lat="47.96453" lon="3.36561">
        <ele>133.80000305176</ele>
        <time>2022-07-07T08:30:14Z</time>
      </trkpt>
      <trkpt lat="47.96441" lon="3.36555">
        <ele>134.19999694824</ele>
        <time>2022-07-07T08:30:25Z</time>
      </trkpt>
      <trkpt lat="47.96425" lon="3.36543">
        <ele>134.39999389648</ele>
        <time>2022-07-07T08:30:40Z</time>
      </trkpt>
      <trkpt lat="47.96421" lon="3.3654">
        <ele>134.60000610352</ele>
        <time>2022-07-07T08:30:43Z</time>
      </trkpt>
      <trkpt lat="47.9642" lon="3.36539">
        <ele>134.60000610352</ele>
        <time>2022-07-07T08:30:44Z</time>
      </trkpt>
      <trkpt lat="47.96403" lon="3.36531">
        <ele>135.19999694824</ele>
        <time>2022-07-07T08:30:58Z</time>
      </trkpt>
      <trkpt lat="47.96392" lon="3.36525">
        <ele>135.39999389648</ele>
        <time>2022-07-07T08:31:07Z</time>
      </trkpt>
      <trkpt lat="47.96391" lon="3.36524">
        <ele>135.39999389648</ele>
        <time>2022-07-07T08:31:08Z</time>
      </trkpt>
      <trkpt lat="47.9639" lon="3.36523">
        <ele>135.39999389648</ele>
        <time>2022-07-07T08:31:09Z</time>
      </trkpt>
      <trkpt lat="47.96375" lon="3.36513">
        <ele>136</ele>
        <time>2022-07-07T08:31:24Z</time>
      </trkpt>
      <trkpt lat="47.96352" lon="3.36501">
        <ele>136.60000610352</ele>
        <time>2022-07-07T08:31:45Z</time>
      </trkpt>
      <trkpt lat="47.96334" lon="3.36491">
        <ele>136.80000305176</ele>
        <time>2022-07-07T08:32:01Z</time>
      </trkpt>
      <trkpt lat="47.96331" lon="3.36488">
        <ele>136.80000305176</ele>
        <time>2022-07-07T08:32:04Z</time>
      </trkpt>
      <trkpt lat="47.96317" lon="3.36481">
        <ele>137</ele>
        <time>2022-07-07T08:32:22Z</time>
      </trkpt>
      <trkpt lat="47.96312" lon="3.36475">
        <ele>136.80000305176</ele>
        <time>2022-07-07T08:32:25Z</time>
      </trkpt>
      <trkpt lat="47.9631" lon="3.36473">
        <ele>137</ele>
        <time>2022-07-07T08:32:26Z</time>
      </trkpt>
      <trkpt lat="47.96301" lon="3.36463">
        <ele>137.19999694824</ele>
        <time>2022-07-07T08:32:35Z</time>
      </trkpt>
      <trkpt lat="47.963" lon="3.36462">
        <ele>137.19999694824</ele>
        <time>2022-07-07T08:32:36Z</time>
      </trkpt>
      <trkpt lat="47.96289" lon="3.36454">
        <ele>137.19999694824</ele>
        <time>2022-07-07T08:32:45Z</time>
      </trkpt>
      <trkpt lat="47.96286" lon="3.36453">
        <ele>137.39999389648</ele>
        <time>2022-07-07T08:32:47Z</time>
      </trkpt>
      <trkpt lat="47.96285" lon="3.36452">
        <ele>137.39999389648</ele>
        <time>2022-07-07T08:32:48Z</time>
      </trkpt>
      <trkpt lat="47.96281" lon="3.36449">
        <ele>137.19999694824</ele>
        <time>2022-07-07T08:32:51Z</time>
      </trkpt>
      <trkpt lat="47.96279" lon="3.36449">
        <ele>137.19999694824</ele>
        <time>2022-07-07T08:32:52Z</time>
      </trkpt>
      <trkpt lat="47.96278" lon="3.36448">
        <ele>137</ele>
        <time>2022-07-07T08:32:53Z</time>
      </trkpt>
      <trkpt lat="47.96277" lon="3.36447">
        <ele>137</ele>
        <time>2022-07-07T08:32:54Z</time>
      </trkpt>
      <trkpt lat="47.96276" lon="3.36446">
        <ele>137</ele>
        <time>2022-07-07T08:32:55Z</time>
      </trkpt>
      <trkpt lat="47.96273" lon="3.36444">
        <ele>137</ele>
        <time>2022-07-07T08:32:57Z</time>
      </trkpt>
      <trkpt lat="47.9627" lon="3.36442">
        <ele>137</ele>
        <time>2022-07-07T08:33:00Z</time>
      </trkpt>
      <trkpt lat="47.96269" lon="3.36442">
        <ele>137</ele>
        <time>2022-07-07T08:33:01Z</time>
      </trkpt>
      <trkpt lat="47.96256" lon="3.36431">
        <ele>137</ele>
        <time>2022-07-07T08:33:15Z</time>
      </trkpt>
      <trkpt lat="47.96247" lon="3.36425">
        <ele>136.80000305176</ele>
        <time>2022-07-07T08:33:24Z</time>
      </trkpt>
      <trkpt lat="47.96241" lon="3.36424">
        <ele>136.60000610352</ele>
        <time>2022-07-07T08:33:29Z</time>
      </trkpt>
      <trkpt lat="47.9623" lon="3.36416">
        <ele>137</ele>
        <time>2022-07-07T08:33:40Z</time>
      </trkpt>
      <trkpt lat="47.96223" lon="3.36409">
        <ele>136.80000305176</ele>
        <time>2022-07-07T08:33:47Z</time>
      </trkpt>
      <trkpt lat="47.96216" lon="3.36402">
        <ele>136.80000305176</ele>
        <time>2022-07-07T08:33:54Z</time>
      </trkpt>
      <trkpt lat="47.96201" lon="3.36387">
        <ele>136.80000305176</ele>
        <time>2022-07-07T08:34:08Z</time>
      </trkpt>
      <trkpt lat="47.96201" lon="3.36386">
        <ele>136.80000305176</ele>
        <time>2022-07-07T08:34:09Z</time>
      </trkpt>
      <trkpt lat="47.96197" lon="3.36383">
        <ele>136.60000610352</ele>
        <time>2022-07-07T08:34:12Z</time>
      </trkpt>
      <trkpt lat="47.96192" lon="3.3638">
        <ele>136.60000610352</ele>
        <time>2022-07-07T08:34:17Z</time>
      </trkpt>
      <trkpt lat="47.96188" lon="3.36376">
        <ele>136.60000610352</ele>
        <time>2022-07-07T08:34:21Z</time>
      </trkpt>
      <trkpt lat="47.96188" lon="3.36375">
        <ele>136.60000610352</ele>
        <time>2022-07-07T08:34:22Z</time>
      </trkpt>
      <trkpt lat="47.96184" lon="3.36371">
        <ele>136.60000610352</ele>
        <time>2022-07-07T08:34:26Z</time>
      </trkpt>
      <trkpt lat="47.9618" lon="3.36367">
        <ele>136.60000610352</ele>
        <time>2022-07-07T08:34:29Z</time>
      </trkpt>
      <trkpt lat="47.96169" lon="3.36356">
        <ele>136</ele>
        <time>2022-07-07T08:34:42Z</time>
      </trkpt>
      <trkpt lat="47.96153" lon="3.36339">
        <ele>135.80000305176</ele>
        <time>2022-07-07T08:34:59Z</time>
      </trkpt>
      <trkpt lat="47.96141" lon="3.36327">
        <ele>135.39999389648</ele>
        <time>2022-07-07T08:35:14Z</time>
      </trkpt>
      <trkpt lat="47.96133" lon="3.36323">
        <ele>135.19999694824</ele>
        <time>2022-07-07T08:35:27Z</time>
      </trkpt>
      <trkpt lat="47.96121" lon="3.36311">
        <ele>135.19999694824</ele>
        <time>2022-07-07T08:35:37Z</time>
      </trkpt>
      <trkpt lat="47.9611" lon="3.36289">
        <ele>135</ele>
        <time>2022-07-07T08:35:50Z</time>
      </trkpt>
      <trkpt lat="47.96104" lon="3.36286">
        <ele>134.80000305176</ele>
        <time>2022-07-07T08:35:54Z</time>
      </trkpt>
      <trkpt lat="47.96096" lon="3.36279">
        <ele>134.19999694824</ele>
        <time>2022-07-07T08:36:01Z</time>
      </trkpt>
      <trkpt lat="47.96095" lon="3.36278">
        <ele>134.19999694824</ele>
        <time>2022-07-07T08:36:02Z</time>
      </trkpt>
      <trkpt lat="47.96089" lon="3.3627">
        <ele>133.19999694824</ele>
        <time>2022-07-07T08:36:15Z</time>
      </trkpt>
      <trkpt lat="47.96067" lon="3.36241">
        <ele>131.60000610352</ele>
        <time>2022-07-07T08:36:39Z</time>
      </trkpt>
      <trkpt lat="47.96055" lon="3.36231">
        <ele>131.19999694824</ele>
        <time>2022-07-07T08:36:49Z</time>
      </trkpt>
      <trkpt lat="47.96028" lon="3.36216">
        <ele>131</ele>
        <time>2022-07-07T08:37:13Z</time>
      </trkpt>
      <trkpt lat="47.96025" lon="3.36214">
        <ele>130.80000305176</ele>
        <time>2022-07-07T08:37:16Z</time>
      </trkpt>
      <trkpt lat="47.96015" lon="3.3621">
        <ele>130.60000610352</ele>
        <time>2022-07-07T08:37:24Z</time>
      </trkpt>
      <trkpt lat="47.96014" lon="3.3621">
        <ele>130.60000610352</ele>
        <time>2022-07-07T08:37:25Z</time>
      </trkpt>
      <trkpt lat="47.9601" lon="3.3621">
        <ele>130.39999389648</ele>
        <time>2022-07-07T08:37:29Z</time>
      </trkpt>
      <trkpt lat="47.96004" lon="3.36209">
        <ele>130.39999389648</ele>
        <time>2022-07-07T08:37:34Z</time>
      </trkpt>
      <trkpt lat="47.95992" lon="3.36209">
        <ele>130.39999389648</ele>
        <time>2022-07-07T08:37:48Z</time>
      </trkpt>
      <trkpt lat="47.9598" lon="3.36219">
        <ele>130.60000610352</ele>
        <time>2022-07-07T08:37:59Z</time>
      </trkpt>
      <trkpt lat="47.95959" lon="3.36237">
        <ele>130.60000610352</ele>
        <time>2022-07-07T08:38:19Z</time>
      </trkpt>
      <trkpt lat="47.95929" lon="3.36238">
        <ele>131.19999694824</ele>
        <time>2022-07-07T08:38:46Z</time>
      </trkpt>
      <trkpt lat="47.95922" lon="3.36233">
        <ele>131</ele>
        <time>2022-07-07T08:39:11Z</time>
      </trkpt>
      <trkpt lat="47.95921" lon="3.36241">
        <ele>131</ele>
        <time>2022-07-07T08:39:26Z</time>
      </trkpt>
      <trkpt lat="47.95832" lon="3.36127">
        <ele>132.60000610352</ele>
        <time>2022-07-07T08:40:35Z</time>
      </trkpt>
      <trkpt lat="47.95791" lon="3.36021">
        <ele>135.19999694824</ele>
        <time>2022-07-07T08:42:10Z</time>
      </trkpt>
      <trkpt lat="47.95768" lon="3.35993">
        <ele>135</ele>
        <time>2022-07-07T08:42:24Z</time>
      </trkpt>
      <trkpt lat="47.95753" lon="3.3598">
        <ele>134.80000305176</ele>
        <time>2022-07-07T08:42:48Z</time>
      </trkpt>
      <trkpt lat="47.95754" lon="3.35981">
        <ele>134.80000305176</ele>
        <time>2022-07-07T08:42:49Z</time>
      </trkpt>
      <trkpt lat="47.95734" lon="3.3596">
        <ele>134.39999389648</ele>
        <time>2022-07-07T08:43:55Z</time>
      </trkpt>
      <trkpt lat="47.95734" lon="3.35957">
        <ele>134.19999694824</ele>
        <time>2022-07-07T08:43:57Z</time>
      </trkpt>
      <trkpt lat="47.95731" lon="3.35945">
        <ele>134.60000610352</ele>
        <time>2022-07-07T08:44:06Z</time>
      </trkpt>
      <trkpt lat="47.9572" lon="3.35932">
        <ele>134.39999389648</ele>
        <time>2022-07-07T08:44:17Z</time>
      </trkpt>
      <trkpt lat="47.95712" lon="3.35923">
        <ele>134.60000610352</ele>
        <time>2022-07-07T08:44:26Z</time>
      </trkpt>
      <trkpt lat="47.9567" lon="3.35869">
        <ele>135</ele>
        <time>2022-07-07T08:45:15Z</time>
      </trkpt>
      <trkpt lat="47.95665" lon="3.35858">
        <ele>135</ele>
        <time>2022-07-07T08:45:23Z</time>
      </trkpt>
      <trkpt lat="47.95656" lon="3.35837">
        <ele>135.39999389648</ele>
        <time>2022-07-07T08:45:40Z</time>
      </trkpt>
      <trkpt lat="47.95643" lon="3.35815">
        <ele>135</ele>
        <time>2022-07-07T08:45:59Z</time>
      </trkpt>
      <trkpt lat="47.9562" lon="3.35789">
        <ele>135.60000610352</ele>
        <time>2022-07-07T08:46:21Z</time>
      </trkpt>
      <trkpt lat="47.95612" lon="3.35772">
        <ele>135.39999389648</ele>
        <time>2022-07-07T08:46:31Z</time>
      </trkpt>
      <trkpt lat="47.95611" lon="3.35771">
        <ele>135.39999389648</ele>
        <time>2022-07-07T08:46:32Z</time>
      </trkpt>
      <trkpt lat="47.9561" lon="3.35771">
        <ele>135.39999389648</ele>
        <time>2022-07-07T08:46:33Z</time>
      </trkpt>
      <trkpt lat="47.95596" lon="3.35772">
        <ele>134.80000305176</ele>
        <time>2022-07-07T08:46:44Z</time>
      </trkpt>
      <trkpt lat="47.95591" lon="3.35779">
        <ele>134.60000610352</ele>
        <time>2022-07-07T08:46:50Z</time>
      </trkpt>
      <trkpt lat="47.9558" lon="3.35799">
        <ele>135.19999694824</ele>
        <time>2022-07-07T08:47:05Z</time>
      </trkpt>
      <trkpt lat="47.95575" lon="3.35809">
        <ele>133.39999389648</ele>
        <time>2022-07-07T08:47:13Z</time>
      </trkpt>
      <trkpt lat="47.95572" lon="3.35813">
        <ele>133.39999389648</ele>
        <time>2022-07-07T08:47:16Z</time>
      </trkpt>
      <trkpt lat="47.95563" lon="3.35834">
        <ele>133</ele>
        <time>2022-07-07T08:47:31Z</time>
      </trkpt>
      <trkpt lat="47.95547" lon="3.3584">
        <ele>132.39999389648</ele>
        <time>2022-07-07T08:47:46Z</time>
      </trkpt>
      <trkpt lat="47.95547" lon="3.35856">
        <ele>131.39999389648</ele>
        <time>2022-07-07T08:48:04Z</time>
      </trkpt>
      <trkpt lat="47.95547" lon="3.35861">
        <ele>131.39999389648</ele>
        <time>2022-07-07T08:48:06Z</time>
      </trkpt>
      <trkpt lat="47.95541" lon="3.35862">
        <ele>131</ele>
        <time>2022-07-07T08:48:17Z</time>
      </trkpt>
      <trkpt lat="47.95529" lon="3.35856">
        <ele>130.19999694824</ele>
        <time>2022-07-07T08:48:31Z</time>
      </trkpt>
      <trkpt lat="47.95523" lon="3.35851">
        <ele>130.19999694824</ele>
        <time>2022-07-07T08:48:39Z</time>
      </trkpt>
      <trkpt lat="47.95513" lon="3.35844">
        <ele>129.80000305176</ele>
        <time>2022-07-07T08:48:50Z</time>
      </trkpt>
      <trkpt lat="47.95489" lon="3.35815">
        <ele>129.60000610352</ele>
        <time>2022-07-07T08:49:14Z</time>
      </trkpt>
      <trkpt lat="47.95468" lon="3.35793">
        <ele>130</ele>
        <time>2022-07-07T08:49:33Z</time>
      </trkpt>
      <trkpt lat="47.95466" lon="3.3579">
        <ele>130</ele>
        <time>2022-07-07T08:49:36Z</time>
      </trkpt>
      <trkpt lat="47.95462" lon="3.35787">
        <ele>130</ele>
        <time>2022-07-07T08:49:40Z</time>
      </trkpt>
      <trkpt lat="47.95454" lon="3.35775">
        <ele>130.19999694824</ele>
        <time>2022-07-07T08:49:45Z</time>
      </trkpt>
      <trkpt lat="47.95436" lon="3.35753">
        <ele>130.60000610352</ele>
        <time>2022-07-07T08:50:02Z</time>
      </trkpt>
      <trkpt lat="47.95435" lon="3.35751">
        <ele>130.80000305176</ele>
        <time>2022-07-07T08:50:03Z</time>
      </trkpt>
      <trkpt lat="47.95425" lon="3.35741">
        <ele>131</ele>
        <time>2022-07-07T08:50:11Z</time>
      </trkpt>
      <trkpt lat="47.95421" lon="3.35735">
        <ele>131.19999694824</ele>
        <time>2022-07-07T08:50:16Z</time>
      </trkpt>
      <trkpt lat="47.9542" lon="3.35733">
        <ele>131.19999694824</ele>
        <time>2022-07-07T08:50:17Z</time>
      </trkpt>
      <trkpt lat="47.95419" lon="3.35732">
        <ele>131.19999694824</ele>
        <time>2022-07-07T08:50:18Z</time>
      </trkpt>
      <trkpt lat="47.95418" lon="3.35731">
        <ele>131.19999694824</ele>
        <time>2022-07-07T08:50:19Z</time>
      </trkpt>
      <trkpt lat="47.95417" lon="3.3573">
        <ele>131.39999389648</ele>
        <time>2022-07-07T08:50:20Z</time>
      </trkpt>
      <trkpt lat="47.95408" lon="3.35717">
        <ele>132</ele>
        <time>2022-07-07T08:50:36Z</time>
      </trkpt>
      <trkpt lat="47.9541" lon="3.35719">
        <ele>132.19999694824</ele>
        <time>2022-07-07T08:50:42Z</time>
      </trkpt>
      <trkpt lat="47.95408" lon="3.35717">
        <ele>132.19999694824</ele>
        <time>2022-07-07T08:50:44Z</time>
      </trkpt>
      <trkpt lat="47.95407" lon="3.35715">
        <ele>132.19999694824</ele>
        <time>2022-07-07T08:50:45Z</time>
      </trkpt>
      <trkpt lat="47.95396" lon="3.35703">
        <ele>132.60000610352</ele>
        <time>2022-07-07T08:50:56Z</time>
      </trkpt>
      <trkpt lat="47.95389" lon="3.35693">
        <ele>133.19999694824</ele>
        <time>2022-07-07T08:51:05Z</time>
      </trkpt>
      <trkpt lat="47.95373" lon="3.35679">
        <ele>133.80000305176</ele>
        <time>2022-07-07T08:51:23Z</time>
      </trkpt>
      <trkpt lat="47.95361" lon="3.35668">
        <ele>134.19999694824</ele>
        <time>2022-07-07T08:51:34Z</time>
      </trkpt>
      <trkpt lat="47.95349" lon="3.35656">
        <ele>134.80000305176</ele>
        <time>2022-07-07T08:51:49Z</time>
      </trkpt>
      <trkpt lat="47.95349" lon="3.35653">
        <ele>134.80000305176</ele>
        <time>2022-07-07T08:51:51Z</time>
      </trkpt>
      <trkpt lat="47.95345" lon="3.35648">
        <ele>135</ele>
        <time>2022-07-07T08:51:56Z</time>
      </trkpt>
      <trkpt lat="47.95334" lon="3.35632">
        <ele>135.39999389648</ele>
        <time>2022-07-07T08:52:06Z</time>
      </trkpt>
      <trkpt lat="47.95332" lon="3.35631">
        <ele>135.39999389648</ele>
        <time>2022-07-07T08:52:07Z</time>
      </trkpt>
      <trkpt lat="47.95331" lon="3.35629">
        <ele>135.39999389648</ele>
        <time>2022-07-07T08:52:08Z</time>
      </trkpt>
      <trkpt lat="47.9533" lon="3.35628">
        <ele>135.60000610352</ele>
        <time>2022-07-07T08:52:09Z</time>
      </trkpt>
      <trkpt lat="47.95329" lon="3.35627">
        <ele>135.80000305176</ele>
        <time>2022-07-07T08:52:10Z</time>
      </trkpt>
      <trkpt lat="47.95313" lon="3.3561">
        <ele>136</ele>
        <time>2022-07-07T08:52:26Z</time>
      </trkpt>
      <trkpt lat="47.95302" lon="3.35595">
        <ele>135.60000610352</ele>
        <time>2022-07-07T08:52:41Z</time>
      </trkpt>
      <trkpt lat="47.95291" lon="3.35585">
        <ele>136</ele>
        <time>2022-07-07T08:52:52Z</time>
      </trkpt>
      <trkpt lat="47.95275" lon="3.35565">
        <ele>136.39999389648</ele>
        <time>2022-07-07T08:53:11Z</time>
      </trkpt>
      <trkpt lat="47.95261" lon="3.35549">
        <ele>136.19999694824</ele>
        <time>2022-07-07T08:53:26Z</time>
      </trkpt>
      <trkpt lat="47.95248" lon="3.3553">
        <ele>136.60000610352</ele>
        <time>2022-07-07T08:53:42Z</time>
      </trkpt>
      <trkpt lat="47.95238" lon="3.35513">
        <ele>136.80000305176</ele>
        <time>2022-07-07T08:53:53Z</time>
      </trkpt>
      <trkpt lat="47.95235" lon="3.35507">
        <ele>137.19999694824</ele>
        <time>2022-07-07T08:53:56Z</time>
      </trkpt>
      <trkpt lat="47.9523" lon="3.35494">
        <ele>137</ele>
        <time>2022-07-07T08:54:06Z</time>
      </trkpt>
      <trkpt lat="47.9522" lon="3.35471">
        <ele>138</ele>
        <time>2022-07-07T08:54:26Z</time>
      </trkpt>
      <trkpt lat="47.95215" lon="3.35462">
        <ele>138</ele>
        <time>2022-07-07T08:54:31Z</time>
      </trkpt>
      <trkpt lat="47.95212" lon="3.35456">
        <ele>138</ele>
        <time>2022-07-07T08:54:36Z</time>
      </trkpt>
      <trkpt lat="47.95209" lon="3.3545">
        <ele>138.19999694824</ele>
        <time>2022-07-07T08:54:40Z</time>
      </trkpt>
      <trkpt lat="47.95202" lon="3.35435">
        <ele>138.60000610352</ele>
        <time>2022-07-07T08:54:51Z</time>
      </trkpt>
      <trkpt lat="47.95195" lon="3.35421">
        <ele>139</ele>
        <time>2022-07-07T08:55:02Z</time>
      </trkpt>
      <trkpt lat="47.95192" lon="3.35407">
        <ele>140</ele>
        <time>2022-07-07T08:55:13Z</time>
      </trkpt>
      <trkpt lat="47.95186" lon="3.35395">
        <ele>140.19999694824</ele>
        <time>2022-07-07T08:55:21Z</time>
      </trkpt>
      <trkpt lat="47.9518" lon="3.35371">
        <ele>140.60000610352</ele>
        <time>2022-07-07T08:55:35Z</time>
      </trkpt>
      <trkpt lat="47.9518" lon="3.35369">
        <ele>140.60000610352</ele>
        <time>2022-07-07T08:55:36Z</time>
      </trkpt>
      <trkpt lat="47.95178" lon="3.35359">
        <ele>140.60000610352</ele>
        <time>2022-07-07T08:55:41Z</time>
      </trkpt>
      <trkpt lat="47.95177" lon="3.35346">
        <ele>141.39999389648</ele>
        <time>2022-07-07T08:55:49Z</time>
      </trkpt>
      <trkpt lat="47.95177" lon="3.35338">
        <ele>141.60000610352</ele>
        <time>2022-07-07T08:55:53Z</time>
      </trkpt>
      <trkpt lat="47.95175" lon="3.35321">
        <ele>142.60000610352</ele>
        <time>2022-07-07T08:56:02Z</time>
      </trkpt>
      <trkpt lat="47.95176" lon="3.35304">
        <ele>143.19999694824</ele>
        <time>2022-07-07T08:56:13Z</time>
      </trkpt>
      <trkpt lat="47.95176" lon="3.35299">
        <ele>143.19999694824</ele>
        <time>2022-07-07T08:56:16Z</time>
      </trkpt>
      <trkpt lat="47.95175" lon="3.35283">
        <ele>143.80000305176</ele>
        <time>2022-07-07T08:56:25Z</time>
      </trkpt>
      <trkpt lat="47.95176" lon="3.35277">
        <ele>143.60000610352</ele>
        <time>2022-07-07T08:56:29Z</time>
      </trkpt>
      <trkpt lat="47.95175" lon="3.35268">
        <ele>144.19999694824</ele>
        <time>2022-07-07T08:56:34Z</time>
      </trkpt>
      <trkpt lat="47.95178" lon="3.35251">
        <ele>144.39999389648</ele>
        <time>2022-07-07T08:56:46Z</time>
      </trkpt>
      <trkpt lat="47.95178" lon="3.35239">
        <ele>144.80000305176</ele>
        <time>2022-07-07T08:56:54Z</time>
      </trkpt>
      <trkpt lat="47.95178" lon="3.35236">
        <ele>144.80000305176</ele>
        <time>2022-07-07T08:56:56Z</time>
      </trkpt>
      <trkpt lat="47.95171" lon="3.35223">
        <ele>145.80000305176</ele>
        <time>2022-07-07T08:57:08Z</time>
      </trkpt>
      <trkpt lat="47.95162" lon="3.35222">
        <ele>146.19999694824</ele>
        <time>2022-07-07T08:57:16Z</time>
      </trkpt>
      <trkpt lat="47.95146" lon="3.35224">
        <ele>147.39999389648</ele>
        <time>2022-07-07T08:57:28Z</time>
      </trkpt>
      <trkpt lat="47.95132" lon="3.35223">
        <ele>147</ele>
        <time>2022-07-07T08:57:39Z</time>
      </trkpt>
      <trkpt lat="47.9511" lon="3.35219">
        <ele>146</ele>
        <time>2022-07-07T08:57:57Z</time>
      </trkpt>
      <trkpt lat="47.95098" lon="3.35213">
        <ele>145.80000305176</ele>
        <time>2022-07-07T08:58:12Z</time>
      </trkpt>
      <trkpt lat="47.95097" lon="3.35212">
        <ele>145.80000305176</ele>
        <time>2022-07-07T08:58:13Z</time>
      </trkpt>
      <trkpt lat="47.95095" lon="3.35211">
        <ele>145.80000305176</ele>
        <time>2022-07-07T08:58:14Z</time>
      </trkpt>
      <trkpt lat="47.95077" lon="3.35195">
        <ele>145</ele>
        <time>2022-07-07T08:58:31Z</time>
      </trkpt>
      <trkpt lat="47.95057" lon="3.35173">
        <ele>143.39999389648</ele>
        <time>2022-07-07T08:58:53Z</time>
      </trkpt>
      <trkpt lat="47.95034" lon="3.35151">
        <ele>143</ele>
        <time>2022-07-07T08:59:16Z</time>
      </trkpt>
      <trkpt lat="47.95027" lon="3.35144">
        <ele>143.19999694824</ele>
        <time>2022-07-07T08:59:23Z</time>
      </trkpt>
      <trkpt lat="47.95026" lon="3.35144">
        <ele>143</ele>
        <time>2022-07-07T08:59:24Z</time>
      </trkpt>
      <trkpt lat="47.95024" lon="3.35142">
        <ele>143</ele>
        <time>2022-07-07T08:59:25Z</time>
      </trkpt>
      <trkpt lat="47.95005" lon="3.35129">
        <ele>141.39999389648</ele>
        <time>2022-07-07T08:59:43Z</time>
      </trkpt>
      <trkpt lat="47.94979" lon="3.35117">
        <ele>142</ele>
        <time>2022-07-07T09:00:05Z</time>
      </trkpt>
      <trkpt lat="47.9496" lon="3.35107">
        <ele>143</ele>
        <time>2022-07-07T09:00:21Z</time>
      </trkpt>
      <trkpt lat="47.94939" lon="3.35095">
        <ele>142</ele>
        <time>2022-07-07T09:00:41Z</time>
      </trkpt>
      <trkpt lat="47.94919" lon="3.35075">
        <ele>140.19999694824</ele>
        <time>2022-07-07T09:00:59Z</time>
      </trkpt>
      <trkpt lat="47.9491" lon="3.35057">
        <ele>139.60000610352</ele>
        <time>2022-07-07T09:01:12Z</time>
      </trkpt>
      <trkpt lat="47.94902" lon="3.35046">
        <ele>139.19999694824</ele>
        <time>2022-07-07T09:01:21Z</time>
      </trkpt>
      <trkpt lat="47.94901" lon="3.3504">
        <ele>139.19999694824</ele>
        <time>2022-07-07T09:01:25Z</time>
      </trkpt>
      <trkpt lat="47.949" lon="3.35039">
        <ele>139.19999694824</ele>
        <time>2022-07-07T09:01:26Z</time>
      </trkpt>
      <trkpt lat="47.94899" lon="3.35037">
        <ele>139.19999694824</ele>
        <time>2022-07-07T09:01:27Z</time>
      </trkpt>
      <trkpt lat="47.94897" lon="3.35036">
        <ele>139.19999694824</ele>
        <time>2022-07-07T09:01:28Z</time>
      </trkpt>
      <trkpt lat="47.94896" lon="3.35035">
        <ele>139.19999694824</ele>
        <time>2022-07-07T09:01:29Z</time>
      </trkpt>
      <trkpt lat="47.94879" lon="3.35019">
        <ele>139.19999694824</ele>
        <time>2022-07-07T09:01:45Z</time>
      </trkpt>
      <trkpt lat="47.94857" lon="3.35007">
        <ele>139</ele>
        <time>2022-07-07T09:02:04Z</time>
      </trkpt>
      <trkpt lat="47.94837" lon="3.35006">
        <ele>139.19999694824</ele>
        <time>2022-07-07T09:02:22Z</time>
      </trkpt>
      <trkpt lat="47.94821" lon="3.35003">
        <ele>140.19999694824</ele>
        <time>2022-07-07T09:02:36Z</time>
      </trkpt>
      <trkpt lat="47.94803" lon="3.35001">
        <ele>141.19999694824</ele>
        <time>2022-07-07T09:02:55Z</time>
      </trkpt>
      <trkpt lat="47.94782" lon="3.34997">
        <ele>143.39999389648</ele>
        <time>2022-07-07T09:03:14Z</time>
      </trkpt>
      <trkpt lat="47.94758" lon="3.34992">
        <ele>145.39999389648</ele>
        <time>2022-07-07T09:03:35Z</time>
      </trkpt>
      <trkpt lat="47.94738" lon="3.34991">
        <ele>146.39999389648</ele>
        <time>2022-07-07T09:03:54Z</time>
      </trkpt>
      <trkpt lat="47.9472" lon="3.34986">
        <ele>148.39999389648</ele>
        <time>2022-07-07T09:04:10Z</time>
      </trkpt>
      <trkpt lat="47.94703" lon="3.34976">
        <ele>148.80000305176</ele>
        <time>2022-07-07T09:04:27Z</time>
      </trkpt>
      <trkpt lat="47.94688" lon="3.34968">
        <ele>149.80000305176</ele>
        <time>2022-07-07T09:04:42Z</time>
      </trkpt>
      <trkpt lat="47.94667" lon="3.34951">
        <ele>150</ele>
        <time>2022-07-07T09:05:02Z</time>
      </trkpt>
      <trkpt lat="47.94651" lon="3.34937">
        <ele>149.80000305176</ele>
        <time>2022-07-07T09:05:20Z</time>
      </trkpt>
      <trkpt lat="47.94629" lon="3.34923">
        <ele>149.19999694824</ele>
        <time>2022-07-07T09:05:40Z</time>
      </trkpt>
      <trkpt lat="47.94625" lon="3.34921">
        <ele>148.39999389648</ele>
        <time>2022-07-07T09:05:44Z</time>
      </trkpt>
      <trkpt lat="47.94612" lon="3.34914">
        <ele>146</ele>
        <time>2022-07-07T09:06:01Z</time>
      </trkpt>
      <trkpt lat="47.94605" lon="3.3491">
        <ele>146</ele>
        <time>2022-07-07T09:06:24Z</time>
      </trkpt>
      <trkpt lat="47.94603" lon="3.3491">
        <ele>146</ele>
        <time>2022-07-07T09:06:25Z</time>
      </trkpt>
      <trkpt lat="47.94602" lon="3.3491">
        <ele>146</ele>
        <time>2022-07-07T09:06:26Z</time>
      </trkpt>
      <trkpt lat="47.94601" lon="3.3491">
        <ele>146</ele>
        <time>2022-07-07T09:06:27Z</time>
      </trkpt>
      <trkpt lat="47.94581" lon="3.349">
        <ele>145</ele>
        <time>2022-07-07T09:06:46Z</time>
      </trkpt>
      <trkpt lat="47.94558" lon="3.3489">
        <ele>142.60000610352</ele>
        <time>2022-07-07T09:07:05Z</time>
      </trkpt>
      <trkpt lat="47.94538" lon="3.3488">
        <ele>140.39999389648</ele>
        <time>2022-07-07T09:07:23Z</time>
      </trkpt>
      <trkpt lat="47.94517" lon="3.3487">
        <ele>138.80000305176</ele>
        <time>2022-07-07T09:07:42Z</time>
      </trkpt>
      <trkpt lat="47.94497" lon="3.3486">
        <ele>137.60000610352</ele>
        <time>2022-07-07T09:07:59Z</time>
      </trkpt>
      <trkpt lat="47.94474" lon="3.3485">
        <ele>136.39999389648</ele>
        <time>2022-07-07T09:08:19Z</time>
      </trkpt>
      <trkpt lat="47.94456" lon="3.34841">
        <ele>136.19999694824</ele>
        <time>2022-07-07T09:08:36Z</time>
      </trkpt>
      <trkpt lat="47.94439" lon="3.34841">
        <ele>135.19999694824</ele>
        <time>2022-07-07T09:08:53Z</time>
      </trkpt>
      <trkpt lat="47.94418" lon="3.34836">
        <ele>135.19999694824</ele>
        <time>2022-07-07T09:09:11Z</time>
      </trkpt>
      <trkpt lat="47.94394" lon="3.34827">
        <ele>134.39999389648</ele>
        <time>2022-07-07T09:09:30Z</time>
      </trkpt>
      <trkpt lat="47.94371" lon="3.34823">
        <ele>134.39999389648</ele>
        <time>2022-07-07T09:09:47Z</time>
      </trkpt>
      <trkpt lat="47.9435" lon="3.34821">
        <ele>134.80000305176</ele>
        <time>2022-07-07T09:10:06Z</time>
      </trkpt>
      <trkpt lat="47.94323" lon="3.34823">
        <ele>134.19999694824</ele>
        <time>2022-07-07T09:10:27Z</time>
      </trkpt>
      <trkpt lat="47.94309" lon="3.34826">
        <ele>134.39999389648</ele>
        <time>2022-07-07T09:10:40Z</time>
      </trkpt>
      <trkpt lat="47.94307" lon="3.34826">
        <ele>134.39999389648</ele>
        <time>2022-07-07T09:10:41Z</time>
      </trkpt>
      <trkpt lat="47.94306" lon="3.34826">
        <ele>134.39999389648</ele>
        <time>2022-07-07T09:10:42Z</time>
      </trkpt>
      <trkpt lat="47.94304" lon="3.34827">
        <ele>134.39999389648</ele>
        <time>2022-07-07T09:10:43Z</time>
      </trkpt>
      <trkpt lat="47.94303" lon="3.34827">
        <ele>134.60000610352</ele>
        <time>2022-07-07T09:10:44Z</time>
      </trkpt>
      <trkpt lat="47.94301" lon="3.34827">
        <ele>134.60000610352</ele>
        <time>2022-07-07T09:10:45Z</time>
      </trkpt>
      <trkpt lat="47.943" lon="3.34827">
        <ele>134.60000610352</ele>
        <time>2022-07-07T09:10:46Z</time>
      </trkpt>
      <trkpt lat="47.94286" lon="3.34827">
        <ele>134.80000305176</ele>
        <time>2022-07-07T09:10:59Z</time>
      </trkpt>
      <trkpt lat="47.94271" lon="3.34827">
        <ele>134.80000305176</ele>
        <time>2022-07-07T09:11:12Z</time>
      </trkpt>
      <trkpt lat="47.94258" lon="3.34827">
        <ele>135.39999389648</ele>
        <time>2022-07-07T09:11:23Z</time>
      </trkpt>
      <trkpt lat="47.94232" lon="3.34829">
        <ele>136.80000305176</ele>
        <time>2022-07-07T09:11:46Z</time>
      </trkpt>
      <trkpt lat="47.94219" lon="3.34827">
        <ele>137</ele>
        <time>2022-07-07T09:11:57Z</time>
      </trkpt>
      <trkpt lat="47.94216" lon="3.34827">
        <ele>137.39999389648</ele>
        <time>2022-07-07T09:11:59Z</time>
      </trkpt>
      <trkpt lat="47.94215" lon="3.34827">
        <ele>137.60000610352</ele>
        <time>2022-07-07T09:12:00Z</time>
      </trkpt>
      <trkpt lat="47.94214" lon="3.34827">
        <ele>137.60000610352</ele>
        <time>2022-07-07T09:12:01Z</time>
      </trkpt>
      <trkpt lat="47.94212" lon="3.34826">
        <ele>137.80000305176</ele>
        <time>2022-07-07T09:12:02Z</time>
      </trkpt>
      <trkpt lat="47.94203" lon="3.34824">
        <ele>138</ele>
        <time>2022-07-07T09:12:09Z</time>
      </trkpt>
      <trkpt lat="47.94199" lon="3.34822">
        <ele>138</ele>
        <time>2022-07-07T09:12:13Z</time>
      </trkpt>
      <trkpt lat="47.94198" lon="3.34822">
        <ele>138</ele>
        <time>2022-07-07T09:12:14Z</time>
      </trkpt>
      <trkpt lat="47.94197" lon="3.34822">
        <ele>138</ele>
        <time>2022-07-07T09:12:15Z</time>
      </trkpt>
      <trkpt lat="47.94196" lon="3.34822">
        <ele>138</ele>
        <time>2022-07-07T09:12:16Z</time>
      </trkpt>
      <trkpt lat="47.94195" lon="3.34822">
        <ele>138</ele>
        <time>2022-07-07T09:12:17Z</time>
      </trkpt>
      <trkpt lat="47.94176" lon="3.34824">
        <ele>138.80000305176</ele>
        <time>2022-07-07T09:12:34Z</time>
      </trkpt>
      <trkpt lat="47.94169" lon="3.34824">
        <ele>138.39999389648</ele>
        <time>2022-07-07T09:12:40Z</time>
      </trkpt>
      <trkpt lat="47.94165" lon="3.34824">
        <ele>138.19999694824</ele>
        <time>2022-07-07T09:12:43Z</time>
      </trkpt>
      <trkpt lat="47.94164" lon="3.34824">
        <ele>138.19999694824</ele>
        <time>2022-07-07T09:12:44Z</time>
      </trkpt>
      <trkpt lat="47.9416" lon="3.34824">
        <ele>138.19999694824</ele>
        <time>2022-07-07T09:12:47Z</time>
      </trkpt>
      <trkpt lat="47.94159" lon="3.34824">
        <ele>138.19999694824</ele>
        <time>2022-07-07T09:12:48Z</time>
      </trkpt>
      <trkpt lat="47.94156" lon="3.34824">
        <ele>138</ele>
        <time>2022-07-07T09:12:51Z</time>
      </trkpt>
      <trkpt lat="47.94137" lon="3.34824">
        <ele>137.39999389648</ele>
        <time>2022-07-07T09:13:04Z</time>
      </trkpt>
      <trkpt lat="47.94136" lon="3.34824">
        <ele>137.19999694824</ele>
        <time>2022-07-07T09:13:05Z</time>
      </trkpt>
      <trkpt lat="47.94134" lon="3.34824">
        <ele>137</ele>
        <time>2022-07-07T09:13:06Z</time>
      </trkpt>
      <trkpt lat="47.94127" lon="3.34827">
        <ele>137</ele>
        <time>2022-07-07T09:13:12Z</time>
      </trkpt>
      <trkpt lat="47.94126" lon="3.34827">
        <ele>137</ele>
        <time>2022-07-07T09:13:13Z</time>
      </trkpt>
      <trkpt lat="47.94125" lon="3.34828">
        <ele>137</ele>
        <time>2022-07-07T09:13:14Z</time>
      </trkpt>
      <trkpt lat="47.94123" lon="3.34828">
        <ele>136.80000305176</ele>
        <time>2022-07-07T09:13:15Z</time>
      </trkpt>
      <trkpt lat="47.94122" lon="3.34828">
        <ele>136.80000305176</ele>
        <time>2022-07-07T09:13:16Z</time>
      </trkpt>
      <trkpt lat="47.94109" lon="3.34831">
        <ele>136.80000305176</ele>
        <time>2022-07-07T09:13:27Z</time>
      </trkpt>
      <trkpt lat="47.94084" lon="3.3483">
        <ele>136.60000610352</ele>
        <time>2022-07-07T09:13:45Z</time>
      </trkpt>
      <trkpt lat="47.94067" lon="3.34834">
        <ele>136.60000610352</ele>
        <time>2022-07-07T09:14:02Z</time>
      </trkpt>
      <trkpt lat="47.94064" lon="3.34834">
        <ele>136.39999389648</ele>
        <time>2022-07-07T09:14:05Z</time>
      </trkpt>
      <trkpt lat="47.94049" lon="3.34835">
        <ele>136.60000610352</ele>
        <time>2022-07-07T09:14:19Z</time>
      </trkpt>
      <trkpt lat="47.94034" lon="3.34828">
        <ele>137</ele>
        <time>2022-07-07T09:14:29Z</time>
      </trkpt>
      <trkpt lat="47.9403" lon="3.34826">
        <ele>137</ele>
        <time>2022-07-07T09:14:32Z</time>
      </trkpt>
      <trkpt lat="47.94028" lon="3.34826">
        <ele>137</ele>
        <time>2022-07-07T09:14:33Z</time>
      </trkpt>
      <trkpt lat="47.94026" lon="3.34825">
        <ele>137.19999694824</ele>
        <time>2022-07-07T09:14:35Z</time>
      </trkpt>
      <trkpt lat="47.94021" lon="3.34824">
        <ele>137</ele>
        <time>2022-07-07T09:14:38Z</time>
      </trkpt>
      <trkpt lat="47.9402" lon="3.34825">
        <ele>137</ele>
        <time>2022-07-07T09:14:39Z</time>
      </trkpt>
      <trkpt lat="47.94018" lon="3.34825">
        <ele>137</ele>
        <time>2022-07-07T09:14:40Z</time>
      </trkpt>
      <trkpt lat="47.94006" lon="3.34825">
        <ele>137.60000610352</ele>
        <time>2022-07-07T09:14:52Z</time>
      </trkpt>
      <trkpt lat="47.93992" lon="3.34821">
        <ele>137.80000305176</ele>
        <time>2022-07-07T09:15:06Z</time>
      </trkpt>
      <trkpt lat="47.93991" lon="3.3482">
        <ele>138</ele>
        <time>2022-07-07T09:15:07Z</time>
      </trkpt>
      <trkpt lat="47.93987" lon="3.34818">
        <ele>138</ele>
        <time>2022-07-07T09:15:10Z</time>
      </trkpt>
      <trkpt lat="47.93985" lon="3.34817">
        <ele>137.80000305176</ele>
        <time>2022-07-07T09:15:12Z</time>
      </trkpt>
      <trkpt lat="47.93981" lon="3.34815">
        <ele>137.80000305176</ele>
        <time>2022-07-07T09:15:15Z</time>
      </trkpt>
      <trkpt lat="47.93968" lon="3.3481">
        <ele>138</ele>
        <time>2022-07-07T09:15:29Z</time>
      </trkpt>
      <trkpt lat="47.93963" lon="3.34808">
        <ele>137.60000610352</ele>
        <time>2022-07-07T09:15:34Z</time>
      </trkpt>
      <trkpt lat="47.93958" lon="3.34808">
        <ele>137.60000610352</ele>
        <time>2022-07-07T09:15:38Z</time>
      </trkpt>
      <trkpt lat="47.93957" lon="3.34808">
        <ele>137.60000610352</ele>
        <time>2022-07-07T09:15:39Z</time>
      </trkpt>
      <trkpt lat="47.93954" lon="3.34807">
        <ele>137.60000610352</ele>
        <time>2022-07-07T09:15:41Z</time>
      </trkpt>
      <trkpt lat="47.93952" lon="3.34807">
        <ele>137.60000610352</ele>
        <time>2022-07-07T09:15:42Z</time>
      </trkpt>
      <trkpt lat="47.93951" lon="3.34807">
        <ele>137.60000610352</ele>
        <time>2022-07-07T09:15:43Z</time>
      </trkpt>
      <trkpt lat="47.93939" lon="3.34807">
        <ele>137.60000610352</ele>
        <time>2022-07-07T09:15:54Z</time>
      </trkpt>
      <trkpt lat="47.93936" lon="3.34807">
        <ele>137.39999389648</ele>
        <time>2022-07-07T09:15:56Z</time>
      </trkpt>
      <trkpt lat="47.93932" lon="3.34805">
        <ele>137.39999389648</ele>
        <time>2022-07-07T09:15:59Z</time>
      </trkpt>
      <trkpt lat="47.9393" lon="3.34805">
        <ele>137.39999389648</ele>
        <time>2022-07-07T09:16:00Z</time>
      </trkpt>
      <trkpt lat="47.93929" lon="3.34805">
        <ele>137.39999389648</ele>
        <time>2022-07-07T09:16:01Z</time>
      </trkpt>
      <trkpt lat="47.93921" lon="3.34803">
        <ele>137.19999694824</ele>
        <time>2022-07-07T09:16:07Z</time>
      </trkpt>
      <trkpt lat="47.93919" lon="3.34803">
        <ele>136.60000610352</ele>
        <time>2022-07-07T09:16:08Z</time>
      </trkpt>
      <trkpt lat="47.93918" lon="3.34803">
        <ele>136.60000610352</ele>
        <time>2022-07-07T09:16:09Z</time>
      </trkpt>
      <trkpt lat="47.93917" lon="3.34803">
        <ele>136.60000610352</ele>
        <time>2022-07-07T09:16:10Z</time>
      </trkpt>
      <trkpt lat="47.93916" lon="3.34803">
        <ele>136.60000610352</ele>
        <time>2022-07-07T09:16:11Z</time>
      </trkpt>
      <trkpt lat="47.93906" lon="3.34805">
        <ele>136.60000610352</ele>
        <time>2022-07-07T09:16:20Z</time>
      </trkpt>
      <trkpt lat="47.9389" lon="3.34801">
        <ele>136.39999389648</ele>
        <time>2022-07-07T09:16:32Z</time>
      </trkpt>
      <trkpt lat="47.93886" lon="3.34799">
        <ele>136.19999694824</ele>
        <time>2022-07-07T09:16:35Z</time>
      </trkpt>
      <trkpt lat="47.93885" lon="3.34795">
        <ele>136.19999694824</ele>
        <time>2022-07-07T09:16:38Z</time>
      </trkpt>
      <trkpt lat="47.93884" lon="3.34795">
        <ele>136.19999694824</ele>
        <time>2022-07-07T09:16:39Z</time>
      </trkpt>
      <trkpt lat="47.93879" lon="3.34791">
        <ele>136</ele>
        <time>2022-07-07T09:16:44Z</time>
      </trkpt>
      <trkpt lat="47.93873" lon="3.34785">
        <ele>135.80000305176</ele>
        <time>2022-07-07T09:16:52Z</time>
      </trkpt>
      <trkpt lat="47.93871" lon="3.34783">
        <ele>135.60000610352</ele>
        <time>2022-07-07T09:16:54Z</time>
      </trkpt>
      <trkpt lat="47.93868" lon="3.34777">
        <ele>135.80000305176</ele>
        <time>2022-07-07T09:16:58Z</time>
      </trkpt>
      <trkpt lat="47.93862" lon="3.34768">
        <ele>136.60000610352</ele>
        <time>2022-07-07T09:17:07Z</time>
      </trkpt>
      <trkpt lat="47.93858" lon="3.34757">
        <ele>136.60000610352</ele>
        <time>2022-07-07T09:17:13Z</time>
      </trkpt>
      <trkpt lat="47.93858" lon="3.34754">
        <ele>136.60000610352</ele>
        <time>2022-07-07T09:17:14Z</time>
      </trkpt>
      <trkpt lat="47.93857" lon="3.34752">
        <ele>136.80000305176</ele>
        <time>2022-07-07T09:17:15Z</time>
      </trkpt>
      <trkpt lat="47.93856" lon="3.34749">
        <ele>136.80000305176</ele>
        <time>2022-07-07T09:17:16Z</time>
      </trkpt>
      <trkpt lat="47.93855" lon="3.34746">
        <ele>136.80000305176</ele>
        <time>2022-07-07T09:17:18Z</time>
      </trkpt>
      <trkpt lat="47.93853" lon="3.34728">
        <ele>137.19999694824</ele>
        <time>2022-07-07T09:17:30Z</time>
      </trkpt>
      <trkpt lat="47.93857" lon="3.34704">
        <ele>138.80000305176</ele>
        <time>2022-07-07T09:17:51Z</time>
      </trkpt>
      <trkpt lat="47.93857" lon="3.34701">
        <ele>139.60000610352</ele>
        <time>2022-07-07T09:18:24Z</time>
      </trkpt>
      <trkpt lat="47.93853" lon="3.34683">
        <ele>139.80000305176</ele>
        <time>2022-07-07T09:18:42Z</time>
      </trkpt>
      <trkpt lat="47.93849" lon="3.34673">
        <ele>139.60000610352</ele>
        <time>2022-07-07T09:18:51Z</time>
      </trkpt>
      <trkpt lat="47.93848" lon="3.34668">
        <ele>140.60000610352</ele>
        <time>2022-07-07T09:18:54Z</time>
      </trkpt>
      <trkpt lat="47.93846" lon="3.34662">
        <ele>140.60000610352</ele>
        <time>2022-07-07T09:18:57Z</time>
      </trkpt>
      <trkpt lat="47.93845" lon="3.34655">
        <ele>140.60000610352</ele>
        <time>2022-07-07T09:19:00Z</time>
      </trkpt>
      <trkpt lat="47.93843" lon="3.34639">
        <ele>141.19999694824</ele>
        <time>2022-07-07T09:19:11Z</time>
      </trkpt>
      <trkpt lat="47.93845" lon="3.34622">
        <ele>142.19999694824</ele>
        <time>2022-07-07T09:19:24Z</time>
      </trkpt>
      <trkpt lat="47.93846" lon="3.34605">
        <ele>143</ele>
        <time>2022-07-07T09:19:36Z</time>
      </trkpt>
      <trkpt lat="47.93845" lon="3.34585">
        <ele>143.80000305176</ele>
        <time>2022-07-07T09:19:48Z</time>
      </trkpt>
      <trkpt lat="47.93851" lon="3.34561">
        <ele>145.60000610352</ele>
        <time>2022-07-07T09:20:04Z</time>
      </trkpt>
      <trkpt lat="47.93853" lon="3.34516">
        <ele>147.39999389648</ele>
        <time>2022-07-07T09:20:33Z</time>
      </trkpt>
      <trkpt lat="47.93853" lon="3.34495">
        <ele>148.60000610352</ele>
        <time>2022-07-07T09:20:47Z</time>
      </trkpt>
      <trkpt lat="47.93854" lon="3.34467">
        <ele>149</ele>
        <time>2022-07-07T09:21:03Z</time>
      </trkpt>
      <trkpt lat="47.9385" lon="3.34451">
        <ele>149.60000610352</ele>
        <time>2022-07-07T09:21:13Z</time>
      </trkpt>
      <trkpt lat="47.93855" lon="3.3442">
        <ele>150.39999389648</ele>
        <time>2022-07-07T09:21:34Z</time>
      </trkpt>
      <trkpt lat="47.93855" lon="3.34391">
        <ele>151.19999694824</ele>
        <time>2022-07-07T09:21:48Z</time>
      </trkpt>
      <trkpt lat="47.93853" lon="3.34366">
        <ele>151.80000305176</ele>
        <time>2022-07-07T09:22:04Z</time>
      </trkpt>
      <trkpt lat="47.93852" lon="3.3434">
        <ele>153.39999389648</ele>
        <time>2022-07-07T09:22:22Z</time>
      </trkpt>
      <trkpt lat="47.93848" lon="3.34324">
        <ele>154.60000610352</ele>
        <time>2022-07-07T09:22:35Z</time>
      </trkpt>
      <trkpt lat="47.9384" lon="3.34304">
        <ele>156.19999694824</ele>
        <time>2022-07-07T09:22:48Z</time>
      </trkpt>
      <trkpt lat="47.93833" lon="3.34282">
        <ele>157.80000305176</ele>
        <time>2022-07-07T09:23:06Z</time>
      </trkpt>
      <trkpt lat="47.93828" lon="3.3425">
        <ele>160.80000305176</ele>
        <time>2022-07-07T09:23:31Z</time>
      </trkpt>
      <trkpt lat="47.93826" lon="3.34224">
        <ele>163.39999389648</ele>
        <time>2022-07-07T09:23:53Z</time>
      </trkpt>
      <trkpt lat="47.93824" lon="3.342">
        <ele>165.80000305176</ele>
        <time>2022-07-07T09:24:13Z</time>
      </trkpt>
      <trkpt lat="47.9382" lon="3.34166">
        <ele>168.80000305176</ele>
        <time>2022-07-07T09:24:43Z</time>
      </trkpt>
      <trkpt lat="47.93811" lon="3.34127">
        <ele>170.39999389648</ele>
        <time>2022-07-07T09:25:10Z</time>
      </trkpt>
      <trkpt lat="47.93803" lon="3.341">
        <ele>171.80000305176</ele>
        <time>2022-07-07T09:25:34Z</time>
      </trkpt>
      <trkpt lat="47.93796" lon="3.34086">
        <ele>172.80000305176</ele>
        <time>2022-07-07T09:25:46Z</time>
      </trkpt>
      <trkpt lat="47.93795" lon="3.34085">
        <ele>172.80000305176</ele>
        <time>2022-07-07T09:25:47Z</time>
      </trkpt>
      <trkpt lat="47.93785" lon="3.34074">
        <ele>173.60000610352</ele>
        <time>2022-07-07T09:25:59Z</time>
      </trkpt>
      <trkpt lat="47.93775" lon="3.3407">
        <ele>174.19999694824</ele>
        <time>2022-07-07T09:26:08Z</time>
      </trkpt>
      <trkpt lat="47.93753" lon="3.3407">
        <ele>175.80000305176</ele>
        <time>2022-07-07T09:26:30Z</time>
      </trkpt>
      <trkpt lat="47.93724" lon="3.34081">
        <ele>179</ele>
        <time>2022-07-07T09:27:04Z</time>
      </trkpt>
      <trkpt lat="47.937" lon="3.34088">
        <ele>181</ele>
        <time>2022-07-07T09:27:28Z</time>
      </trkpt>
      <trkpt lat="47.93678" lon="3.34098">
        <ele>182.80000305176</ele>
        <time>2022-07-07T09:27:50Z</time>
      </trkpt>
      <trkpt lat="47.93663" lon="3.341">
        <ele>184.39999389648</ele>
        <time>2022-07-07T09:28:08Z</time>
      </trkpt>
      <trkpt lat="47.93646" lon="3.34101">
        <ele>186.39999389648</ele>
        <time>2022-07-07T09:28:29Z</time>
      </trkpt>
      <trkpt lat="47.93631" lon="3.34098">
        <ele>188.39999389648</ele>
        <time>2022-07-07T09:28:46Z</time>
      </trkpt>
      <trkpt lat="47.93616" lon="3.34098">
        <ele>191</ele>
        <time>2022-07-07T09:29:07Z</time>
      </trkpt>
      <trkpt lat="47.93596" lon="3.34091">
        <ele>194.19999694824</ele>
        <time>2022-07-07T09:29:33Z</time>
      </trkpt>
      <trkpt lat="47.93581" lon="3.34085">
        <ele>197.19999694824</ele>
        <time>2022-07-07T09:29:51Z</time>
      </trkpt>
      <trkpt lat="47.93562" lon="3.34082">
        <ele>200.19999694824</ele>
        <time>2022-07-07T09:30:11Z</time>
      </trkpt>
      <trkpt lat="47.93545" lon="3.34074">
        <ele>203.19999694824</ele>
        <time>2022-07-07T09:30:31Z</time>
      </trkpt>
      <trkpt lat="47.93542" lon="3.34073">
        <ele>203.39999389648</ele>
        <time>2022-07-07T09:30:33Z</time>
      </trkpt>
      <trkpt lat="47.93527" lon="3.3407">
        <ele>205.60000610352</ele>
        <time>2022-07-07T09:30:51Z</time>
      </trkpt>
      <trkpt lat="47.93514" lon="3.34068">
        <ele>207</ele>
        <time>2022-07-07T09:31:09Z</time>
      </trkpt>
      <trkpt lat="47.93509" lon="3.34066">
        <ele>207.39999389648</ele>
        <time>2022-07-07T09:31:27Z</time>
      </trkpt>
      <trkpt lat="47.93502" lon="3.34065">
        <ele>207.80000305176</ele>
        <time>2022-07-07T09:31:33Z</time>
      </trkpt>
      <trkpt lat="47.93486" lon="3.34063">
        <ele>208.39999389648</ele>
        <time>2022-07-07T09:31:48Z</time>
      </trkpt>
      <trkpt lat="47.93468" lon="3.34057">
        <ele>209.39999389648</ele>
        <time>2022-07-07T09:32:06Z</time>
      </trkpt>
      <trkpt lat="47.93453" lon="3.34051">
        <ele>210.60000610352</ele>
        <time>2022-07-07T09:32:21Z</time>
      </trkpt>
      <trkpt lat="47.93436" lon="3.34049">
        <ele>211.19999694824</ele>
        <time>2022-07-07T09:32:37Z</time>
      </trkpt>
      <trkpt lat="47.93415" lon="3.34042">
        <ele>212.60000610352</ele>
        <time>2022-07-07T09:32:56Z</time>
      </trkpt>
      <trkpt lat="47.93395" lon="3.34039">
        <ele>213.39999389648</ele>
        <time>2022-07-07T09:33:15Z</time>
      </trkpt>
      <trkpt lat="47.93377" lon="3.34037">
        <ele>213.39999389648</ele>
        <time>2022-07-07T09:33:32Z</time>
      </trkpt>
      <trkpt lat="47.93353" lon="3.34034">
        <ele>212.80000305176</ele>
        <time>2022-07-07T09:33:53Z</time>
      </trkpt>
      <trkpt lat="47.93327" lon="3.34031">
        <ele>212.80000305176</ele>
        <time>2022-07-07T09:34:15Z</time>
      </trkpt>
      <trkpt lat="47.9331" lon="3.34023">
        <ele>213</ele>
        <time>2022-07-07T09:34:31Z</time>
      </trkpt>
      <trkpt lat="47.93291" lon="3.34015">
        <ele>212.80000305176</ele>
        <time>2022-07-07T09:34:49Z</time>
      </trkpt>
      <trkpt lat="47.93268" lon="3.34">
        <ele>212.19999694824</ele>
        <time>2022-07-07T09:35:10Z</time>
      </trkpt>
      <trkpt lat="47.93248" lon="3.33991">
        <ele>210.39999389648</ele>
        <time>2022-07-07T09:35:29Z</time>
      </trkpt>
      <trkpt lat="47.93229" lon="3.3398">
        <ele>209</ele>
        <time>2022-07-07T09:35:45Z</time>
      </trkpt>
      <trkpt lat="47.93221" lon="3.33959">
        <ele>208</ele>
        <time>2022-07-07T09:36:03Z</time>
      </trkpt>
      <trkpt lat="47.93218" lon="3.33948">
        <ele>209</ele>
        <time>2022-07-07T09:36:21Z</time>
      </trkpt>
      <trkpt lat="47.93221" lon="3.33946">
        <ele>209</ele>
        <time>2022-07-07T09:36:49Z</time>
      </trkpt>
      <trkpt lat="47.93216" lon="3.33915">
        <ele>211.80000305176</ele>
        <time>2022-07-07T09:37:13Z</time>
      </trkpt>
      <trkpt lat="47.9321" lon="3.33881">
        <ele>213.39999389648</ele>
        <time>2022-07-07T09:37:36Z</time>
      </trkpt>
      <trkpt lat="47.93201" lon="3.3385">
        <ele>215.60000610352</ele>
        <time>2022-07-07T09:37:56Z</time>
      </trkpt>
      <trkpt lat="47.93196" lon="3.33819">
        <ele>218.60000610352</ele>
        <time>2022-07-07T09:38:23Z</time>
      </trkpt>
      <trkpt lat="47.93205" lon="3.33797">
        <ele>221.60000610352</ele>
        <time>2022-07-07T09:38:44Z</time>
      </trkpt>
      <trkpt lat="47.93222" lon="3.33791">
        <ele>223.39999389648</ele>
        <time>2022-07-07T09:39:03Z</time>
      </trkpt>
      <trkpt lat="47.93233" lon="3.33764">
        <ele>226.39999389648</ele>
        <time>2022-07-07T09:39:28Z</time>
      </trkpt>
      <trkpt lat="47.9324" lon="3.33731">
        <ele>229.39999389648</ele>
        <time>2022-07-07T09:39:54Z</time>
      </trkpt>
      <trkpt lat="47.93244" lon="3.33712">
        <ele>230.39999389648</ele>
        <time>2022-07-07T09:40:06Z</time>
      </trkpt>
      <trkpt lat="47.93244" lon="3.3371">
        <ele>230.39999389648</ele>
        <time>2022-07-07T09:40:07Z</time>
      </trkpt>
      <trkpt lat="47.93243" lon="3.33695">
        <ele>231.19999694824</ele>
        <time>2022-07-07T09:40:17Z</time>
      </trkpt>
      <trkpt lat="47.93243" lon="3.33667">
        <ele>232.39999389648</ele>
        <time>2022-07-07T09:40:35Z</time>
      </trkpt>
      <trkpt lat="47.93241" lon="3.33624">
        <ele>234</ele>
        <time>2022-07-07T09:41:02Z</time>
      </trkpt>
      <trkpt lat="47.93228" lon="3.33573">
        <ele>235</ele>
        <time>2022-07-07T09:41:32Z</time>
      </trkpt>
      <trkpt lat="47.93223" lon="3.33546">
        <ele>235.39999389648</ele>
        <time>2022-07-07T09:41:48Z</time>
      </trkpt>
      <trkpt lat="47.93215" lon="3.33518">
        <ele>235.60000610352</ele>
        <time>2022-07-07T09:42:03Z</time>
      </trkpt>
      <trkpt lat="47.93205" lon="3.33492">
        <ele>236</ele>
        <time>2022-07-07T09:42:20Z</time>
      </trkpt>
      <trkpt lat="47.93193" lon="3.33462">
        <ele>236.39999389648</ele>
        <time>2022-07-07T09:42:40Z</time>
      </trkpt>
      <trkpt lat="47.93191" lon="3.33461">
        <ele>236.39999389648</ele>
        <time>2022-07-07T09:42:41Z</time>
      </trkpt>
      <trkpt lat="47.93191" lon="3.33459">
        <ele>236.39999389648</ele>
        <time>2022-07-07T09:42:42Z</time>
      </trkpt>
      <trkpt lat="47.93176" lon="3.33438">
        <ele>236.39999389648</ele>
        <time>2022-07-07T09:42:58Z</time>
      </trkpt>
      <trkpt lat="47.93171" lon="3.33429">
        <ele>236.39999389648</ele>
        <time>2022-07-07T09:43:18Z</time>
      </trkpt>
      <trkpt lat="47.93172" lon="3.33431">
        <ele>236.60000610352</ele>
        <time>2022-07-07T09:43:51Z</time>
      </trkpt>
      <trkpt lat="47.93172" lon="3.33428">
        <ele>237.19999694824</ele>
        <time>2022-07-07T09:44:17Z</time>
      </trkpt>
      <trkpt lat="47.93173" lon="3.33428">
        <ele>236.60000610352</ele>
        <time>2022-07-07T09:44:46Z</time>
      </trkpt>
      <trkpt lat="47.93173" lon="3.33426">
        <ele>236.80000305176</ele>
        <time>2022-07-07T09:45:11Z</time>
      </trkpt>
      <trkpt lat="47.93151" lon="3.33407">
        <ele>237</ele>
        <time>2022-07-07T09:45:32Z</time>
      </trkpt>
      <trkpt lat="47.93132" lon="3.33391">
        <ele>237.19999694824</ele>
        <time>2022-07-07T09:45:51Z</time>
      </trkpt>
      <trkpt lat="47.93129" lon="3.33391">
        <ele>237.19999694824</ele>
        <time>2022-07-07T09:45:54Z</time>
      </trkpt>
      <trkpt lat="47.93121" lon="3.3341">
        <ele>236.80000305176</ele>
        <time>2022-07-07T09:46:11Z</time>
      </trkpt>
      <trkpt lat="47.93119" lon="3.33424">
        <ele>236.80000305176</ele>
        <time>2022-07-07T09:46:19Z</time>
      </trkpt>
      <trkpt lat="47.93111" lon="3.33433">
        <ele>236</ele>
        <time>2022-07-07T09:46:31Z</time>
      </trkpt>
      <trkpt lat="47.93092" lon="3.33419">
        <ele>234.80000305176</ele>
        <time>2022-07-07T09:46:50Z</time>
      </trkpt>
      <trkpt lat="47.93077" lon="3.33407">
        <ele>234.60000610352</ele>
        <time>2022-07-07T09:47:08Z</time>
      </trkpt>
      <trkpt lat="47.93058" lon="3.33401">
        <ele>234.60000610352</ele>
        <time>2022-07-07T09:47:27Z</time>
      </trkpt>
      <trkpt lat="47.9304" lon="3.33389">
        <ele>233.80000305176</ele>
        <time>2022-07-07T09:47:44Z</time>
      </trkpt>
      <trkpt lat="47.93027" lon="3.3338">
        <ele>233.80000305176</ele>
        <time>2022-07-07T09:47:58Z</time>
      </trkpt>
      <trkpt lat="47.93007" lon="3.33372">
        <ele>233.39999389648</ele>
        <time>2022-07-07T09:48:15Z</time>
      </trkpt>
      <trkpt lat="47.92987" lon="3.33351">
        <ele>233</ele>
        <time>2022-07-07T09:48:34Z</time>
      </trkpt>
      <trkpt lat="47.92972" lon="3.33331">
        <ele>233.39999389648</ele>
        <time>2022-07-07T09:48:54Z</time>
      </trkpt>
      <trkpt lat="47.9296" lon="3.33311">
        <ele>233.80000305176</ele>
        <time>2022-07-07T09:49:12Z</time>
      </trkpt>
      <trkpt lat="47.92945" lon="3.33288">
        <ele>235</ele>
        <time>2022-07-07T09:49:32Z</time>
      </trkpt>
      <trkpt lat="47.92933" lon="3.33263">
        <ele>235.39999389648</ele>
        <time>2022-07-07T09:49:49Z</time>
      </trkpt>
      <trkpt lat="47.92917" lon="3.33241">
        <ele>234.19999694824</ele>
        <time>2022-07-07T09:50:09Z</time>
      </trkpt>
      <trkpt lat="47.92909" lon="3.33209">
        <ele>235</ele>
        <time>2022-07-07T09:50:31Z</time>
      </trkpt>
      <trkpt lat="47.92909" lon="3.3321">
        <ele>235</ele>
        <time>2022-07-07T09:50:51Z</time>
      </trkpt>
      <trkpt lat="47.92895" lon="3.33203">
        <ele>235</ele>
        <time>2022-07-07T09:51:11Z</time>
      </trkpt>
      <trkpt lat="47.92875" lon="3.33199">
        <ele>233.19999694824</ele>
        <time>2022-07-07T09:51:31Z</time>
      </trkpt>
      <trkpt lat="47.92862" lon="3.33198">
        <ele>231.60000610352</ele>
        <time>2022-07-07T09:51:44Z</time>
      </trkpt>
      <trkpt lat="47.92861" lon="3.33198">
        <ele>231.39999389648</ele>
        <time>2022-07-07T09:51:45Z</time>
      </trkpt>
      <trkpt lat="47.92843" lon="3.332">
        <ele>228.60000610352</ele>
        <time>2022-07-07T09:52:04Z</time>
      </trkpt>
      <trkpt lat="47.92823" lon="3.332">
        <ele>225.60000610352</ele>
        <time>2022-07-07T09:52:23Z</time>
      </trkpt>
      <trkpt lat="47.92803" lon="3.33198">
        <ele>222.60000610352</ele>
        <time>2022-07-07T09:52:43Z</time>
      </trkpt>
      <trkpt lat="47.92786" lon="3.33199">
        <ele>219.80000305176</ele>
        <time>2022-07-07T09:53:02Z</time>
      </trkpt>
      <trkpt lat="47.92768" lon="3.33198">
        <ele>216.60000610352</ele>
        <time>2022-07-07T09:53:20Z</time>
      </trkpt>
      <trkpt lat="47.92749" lon="3.33198">
        <ele>213.60000610352</ele>
        <time>2022-07-07T09:53:40Z</time>
      </trkpt>
      <trkpt lat="47.92736" lon="3.33208">
        <ele>211</ele>
        <time>2022-07-07T09:53:58Z</time>
      </trkpt>
      <trkpt lat="47.92722" lon="3.33226">
        <ele>208.39999389648</ele>
        <time>2022-07-07T09:54:18Z</time>
      </trkpt>
      <trkpt lat="47.92712" lon="3.33229">
        <ele>206.60000610352</ele>
        <time>2022-07-07T09:54:30Z</time>
      </trkpt>
      <trkpt lat="47.92701" lon="3.33231">
        <ele>205.19999694824</ele>
        <time>2022-07-07T09:54:40Z</time>
      </trkpt>
      <trkpt lat="47.927" lon="3.3323">
        <ele>205.19999694824</ele>
        <time>2022-07-07T09:54:41Z</time>
      </trkpt>
      <trkpt lat="47.92677" lon="3.33215">
        <ele>202.60000610352</ele>
        <time>2022-07-07T09:55:02Z</time>
      </trkpt>
      <trkpt lat="47.92655" lon="3.33201">
        <ele>200</ele>
        <time>2022-07-07T09:55:24Z</time>
      </trkpt>
      <trkpt lat="47.92637" lon="3.33192">
        <ele>197.39999389648</ele>
        <time>2022-07-07T09:55:42Z</time>
      </trkpt>
      <trkpt lat="47.92621" lon="3.332">
        <ele>194.39999389648</ele>
        <time>2022-07-07T09:56:01Z</time>
      </trkpt>
      <trkpt lat="47.92598" lon="3.33205">
        <ele>191.39999389648</ele>
        <time>2022-07-07T09:56:24Z</time>
      </trkpt>
      <trkpt lat="47.92575" lon="3.33211">
        <ele>189</ele>
        <time>2022-07-07T09:56:45Z</time>
      </trkpt>
      <trkpt lat="47.92557" lon="3.33217">
        <ele>187</ele>
        <time>2022-07-07T09:57:02Z</time>
      </trkpt>
      <trkpt lat="47.9254" lon="3.33219">
        <ele>185</ele>
        <time>2022-07-07T09:57:20Z</time>
      </trkpt>
      <trkpt lat="47.92526" lon="3.33226">
        <ele>183</ele>
        <time>2022-07-07T09:57:37Z</time>
      </trkpt>
      <trkpt lat="47.92516" lon="3.33231">
        <ele>182</ele>
        <time>2022-07-07T09:57:48Z</time>
      </trkpt>
      <trkpt lat="47.92491" lon="3.33216">
        <ele>180.39999389648</ele>
        <time>2022-07-07T09:58:09Z</time>
      </trkpt>
      <trkpt lat="47.92469" lon="3.33202">
        <ele>178.39999389648</ele>
        <time>2022-07-07T09:58:31Z</time>
      </trkpt>
      <trkpt lat="47.9245" lon="3.33185">
        <ele>176.80000305176</ele>
        <time>2022-07-07T09:58:51Z</time>
      </trkpt>
      <trkpt lat="47.92431" lon="3.33177">
        <ele>175.80000305176</ele>
        <time>2022-07-07T09:59:11Z</time>
      </trkpt>
      <trkpt lat="47.92419" lon="3.33176">
        <ele>175</ele>
        <time>2022-07-07T09:59:25Z</time>
      </trkpt>
      <trkpt lat="47.92418" lon="3.33176">
        <ele>175</ele>
        <time>2022-07-07T09:59:26Z</time>
      </trkpt>
      <trkpt lat="47.92417" lon="3.33177">
        <ele>174.80000305176</ele>
        <time>2022-07-07T09:59:27Z</time>
      </trkpt>
      <trkpt lat="47.92409" lon="3.33177">
        <ele>174</ele>
        <time>2022-07-07T09:59:35Z</time>
      </trkpt>
      <trkpt lat="47.92408" lon="3.33177">
        <ele>174</ele>
        <time>2022-07-07T09:59:36Z</time>
      </trkpt>
      <trkpt lat="47.92388" lon="3.33158">
        <ele>172.19999694824</ele>
        <time>2022-07-07T09:59:55Z</time>
      </trkpt>
      <trkpt lat="47.92364" lon="3.33142">
        <ele>171</ele>
        <time>2022-07-07T10:00:17Z</time>
      </trkpt>
      <trkpt lat="47.92344" lon="3.33129">
        <ele>169.80000305176</ele>
        <time>2022-07-07T10:00:34Z</time>
      </trkpt>
      <trkpt lat="47.92324" lon="3.33113">
        <ele>168.80000305176</ele>
        <time>2022-07-07T10:00:54Z</time>
      </trkpt>
      <trkpt lat="47.92311" lon="3.33104">
        <ele>169</ele>
        <time>2022-07-07T10:01:04Z</time>
      </trkpt>
      <trkpt lat="47.92291" lon="3.33092">
        <ele>168.60000610352</ele>
        <time>2022-07-07T10:01:20Z</time>
      </trkpt>
      <trkpt lat="47.92275" lon="3.3308">
        <ele>166.80000305176</ele>
        <time>2022-07-07T10:01:35Z</time>
      </trkpt>
      <trkpt lat="47.92271" lon="3.33079">
        <ele>167</ele>
        <time>2022-07-07T10:01:39Z</time>
      </trkpt>
      <trkpt lat="47.92266" lon="3.33075">
        <ele>167.19999694824</ele>
        <time>2022-07-07T10:01:43Z</time>
      </trkpt>
      <trkpt lat="47.92253" lon="3.33064">
        <ele>167.39999389648</ele>
        <time>2022-07-07T10:01:55Z</time>
      </trkpt>
      <trkpt lat="47.9225" lon="3.33063">
        <ele>167.80000305176</ele>
        <time>2022-07-07T10:01:58Z</time>
      </trkpt>
      <trkpt lat="47.9224" lon="3.33056">
        <ele>167.80000305176</ele>
        <time>2022-07-07T10:02:07Z</time>
      </trkpt>
      <trkpt lat="47.92231" lon="3.33054">
        <ele>167</ele>
        <time>2022-07-07T10:02:12Z</time>
      </trkpt>
      <trkpt lat="47.92229" lon="3.33053">
        <ele>167</ele>
        <time>2022-07-07T10:02:13Z</time>
      </trkpt>
      <trkpt lat="47.92228" lon="3.33052">
        <ele>167.19999694824</ele>
        <time>2022-07-07T10:02:14Z</time>
      </trkpt>
      <trkpt lat="47.92227" lon="3.33051">
        <ele>167.19999694824</ele>
        <time>2022-07-07T10:02:15Z</time>
      </trkpt>
      <trkpt lat="47.92223" lon="3.33048">
        <ele>167.19999694824</ele>
        <time>2022-07-07T10:02:18Z</time>
      </trkpt>
      <trkpt lat="47.92221" lon="3.33045">
        <ele>167.39999389648</ele>
        <time>2022-07-07T10:02:20Z</time>
      </trkpt>
      <trkpt lat="47.92218" lon="3.33043">
        <ele>167.39999389648</ele>
        <time>2022-07-07T10:02:22Z</time>
      </trkpt>
      <trkpt lat="47.92213" lon="3.33038">
        <ele>167.80000305176</ele>
        <time>2022-07-07T10:02:27Z</time>
      </trkpt>
      <trkpt lat="47.92195" lon="3.33018">
        <ele>166.80000305176</ele>
        <time>2022-07-07T10:02:44Z</time>
      </trkpt>
      <trkpt lat="47.92192" lon="3.33013">
        <ele>166.80000305176</ele>
        <time>2022-07-07T10:02:48Z</time>
      </trkpt>
      <trkpt lat="47.92188" lon="3.33011">
        <ele>167.39999389648</ele>
        <time>2022-07-07T10:02:51Z</time>
      </trkpt>
      <trkpt lat="47.92187" lon="3.3301">
        <ele>167.39999389648</ele>
        <time>2022-07-07T10:02:52Z</time>
      </trkpt>
      <trkpt lat="47.92186" lon="3.33009">
        <ele>167.39999389648</ele>
        <time>2022-07-07T10:02:53Z</time>
      </trkpt>
      <trkpt lat="47.92171" lon="3.32997">
        <ele>166.80000305176</ele>
        <time>2022-07-07T10:03:07Z</time>
      </trkpt>
      <trkpt lat="47.92149" lon="3.32977">
        <ele>167.19999694824</ele>
        <time>2022-07-07T10:03:26Z</time>
      </trkpt>
      <trkpt lat="47.92131" lon="3.32961">
        <ele>167.19999694824</ele>
        <time>2022-07-07T10:03:43Z</time>
      </trkpt>
      <trkpt lat="47.92113" lon="3.32942">
        <ele>168</ele>
        <time>2022-07-07T10:04:00Z</time>
      </trkpt>
      <trkpt lat="47.92111" lon="3.3294">
        <ele>168.19999694824</ele>
        <time>2022-07-07T10:04:02Z</time>
      </trkpt>
      <trkpt lat="47.92093" lon="3.32921">
        <ele>169.19999694824</ele>
        <time>2022-07-07T10:04:22Z</time>
      </trkpt>
      <trkpt lat="47.92073" lon="3.32904">
        <ele>170.39999389648</ele>
        <time>2022-07-07T10:04:41Z</time>
      </trkpt>
      <trkpt lat="47.92037" lon="3.3288">
        <ele>171.39999389648</ele>
        <time>2022-07-07T10:05:12Z</time>
      </trkpt>
      <trkpt lat="47.92016" lon="3.3287">
        <ele>173.19999694824</ele>
        <time>2022-07-07T10:05:31Z</time>
      </trkpt>
      <trkpt lat="47.91995" lon="3.32858">
        <ele>174.60000610352</ele>
        <time>2022-07-07T10:05:49Z</time>
      </trkpt>
      <trkpt lat="47.9199" lon="3.32854">
        <ele>172.80000305176</ele>
        <time>2022-07-07T10:05:55Z</time>
      </trkpt>
      <trkpt lat="47.91963" lon="3.32842">
        <ele>174.80000305176</ele>
        <time>2022-07-07T10:06:20Z</time>
      </trkpt>
      <trkpt lat="47.9195" lon="3.32835">
        <ele>175.60000610352</ele>
        <time>2022-07-07T10:06:31Z</time>
      </trkpt>
      <trkpt lat="47.91927" lon="3.32824">
        <ele>175.80000305176</ele>
        <time>2022-07-07T10:06:50Z</time>
      </trkpt>
      <trkpt lat="47.91904" lon="3.32811">
        <ele>176.39999389648</ele>
        <time>2022-07-07T10:07:08Z</time>
      </trkpt>
      <trkpt lat="47.91893" lon="3.32803">
        <ele>176.19999694824</ele>
        <time>2022-07-07T10:07:18Z</time>
      </trkpt>
      <trkpt lat="47.91873" lon="3.32794">
        <ele>175.80000305176</ele>
        <time>2022-07-07T10:07:34Z</time>
      </trkpt>
      <trkpt lat="47.91847" lon="3.32781">
        <ele>176.19999694824</ele>
        <time>2022-07-07T10:07:53Z</time>
      </trkpt>
      <trkpt lat="47.91835" lon="3.32771">
        <ele>176.19999694824</ele>
        <time>2022-07-07T10:08:07Z</time>
      </trkpt>
      <trkpt lat="47.91814" lon="3.32759">
        <ele>176</ele>
        <time>2022-07-07T10:08:27Z</time>
      </trkpt>
      <trkpt lat="47.91808" lon="3.32755">
        <ele>177.80000305176</ele>
        <time>2022-07-07T10:08:31Z</time>
      </trkpt>
      <trkpt lat="47.91791" lon="3.32743">
        <ele>175.80000305176</ele>
        <time>2022-07-07T10:08:52Z</time>
      </trkpt>
      <trkpt lat="47.91789" lon="3.32739">
        <ele>172.60000610352</ele>
        <time>2022-07-07T10:09:04Z</time>
      </trkpt>
      <trkpt lat="47.91788" lon="3.32738">
        <ele>172.39999389648</ele>
        <time>2022-07-07T10:09:05Z</time>
      </trkpt>
      <trkpt lat="47.91786" lon="3.32735">
        <ele>175.80000305176</ele>
        <time>2022-07-07T10:09:16Z</time>
      </trkpt>
      <trkpt lat="47.91786" lon="3.32735">
        <ele>179.19999694824</ele>
        <time>2022-07-07T10:09:17Z</time>
      </trkpt>
      <trkpt lat="47.91786" lon="3.32734">
        <ele>176.80000305176</ele>
        <time>2022-07-07T10:09:24Z</time>
      </trkpt>
      <trkpt lat="47.91788" lon="3.3274">
        <ele>175.39999389648</ele>
        <time>2022-07-07T10:09:52Z</time>
      </trkpt>
      <trkpt lat="47.91787" lon="3.32732">
        <ele>172.60000610352</ele>
        <time>2022-07-07T10:10:24Z</time>
      </trkpt>
      <trkpt lat="47.91787" lon="3.32731">
        <ele>175.80000305176</ele>
        <time>2022-07-07T10:10:29Z</time>
      </trkpt>
      <trkpt lat="47.91787" lon="3.32731">
        <ele>177.19999694824</ele>
        <time>2022-07-07T10:10:32Z</time>
      </trkpt>
      <trkpt lat="47.91787" lon="3.32743">
        <ele>175.80000305176</ele>
        <time>2022-07-07T10:11:38Z</time>
      </trkpt>
      <trkpt lat="47.91782" lon="3.32733">
        <ele>175.39999389648</ele>
        <time>2022-07-07T10:12:57Z</time>
      </trkpt>
      <trkpt lat="47.91786" lon="3.32725">
        <ele>174.80000305176</ele>
        <time>2022-07-07T10:13:14Z</time>
      </trkpt>
      <trkpt lat="47.91785" lon="3.32728">
        <ele>174.60000610352</ele>
        <time>2022-07-07T10:13:54Z</time>
      </trkpt>
      <trkpt lat="47.91785" lon="3.32722">
        <ele>174.80000305176</ele>
        <time>2022-07-07T10:15:20Z</time>
      </trkpt>
      <trkpt lat="47.91786" lon="3.3273">
        <ele>174.80000305176</ele>
        <time>2022-07-07T10:15:33Z</time>
      </trkpt>
      <trkpt lat="47.91786" lon="3.32735">
        <ele>175.60000610352</ele>
        <time>2022-07-07T10:15:52Z</time>
      </trkpt>
      <trkpt lat="47.91774" lon="3.32736">
        <ele>174.60000610352</ele>
        <time>2022-07-07T10:16:03Z</time>
      </trkpt>
      <trkpt lat="47.91769" lon="3.32746">
        <ele>174.80000305176</ele>
        <time>2022-07-07T10:16:24Z</time>
      </trkpt>
      <trkpt lat="47.91766" lon="3.32754">
        <ele>174</ele>
        <time>2022-07-07T10:16:35Z</time>
      </trkpt>
      <trkpt lat="47.91763" lon="3.32759">
        <ele>174</ele>
        <time>2022-07-07T10:16:39Z</time>
      </trkpt>
      <trkpt lat="47.91749" lon="3.32786">
        <ele>174</ele>
        <time>2022-07-07T10:17:04Z</time>
      </trkpt>
      <trkpt lat="47.91748" lon="3.32788">
        <ele>173.80000305176</ele>
        <time>2022-07-07T10:17:05Z</time>
      </trkpt>
      <trkpt lat="47.91746" lon="3.32797">
        <ele>173.60000610352</ele>
        <time>2022-07-07T10:17:11Z</time>
      </trkpt>
      <trkpt lat="47.91745" lon="3.32811">
        <ele>173.19999694824</ele>
        <time>2022-07-07T10:17:25Z</time>
      </trkpt>
      <trkpt lat="47.91741" lon="3.32826">
        <ele>173</ele>
        <time>2022-07-07T10:17:37Z</time>
      </trkpt>
      <trkpt lat="47.91738" lon="3.32855">
        <ele>173</ele>
        <time>2022-07-07T10:17:51Z</time>
      </trkpt>
      <trkpt lat="47.91718" lon="3.32883">
        <ele>171.80000305176</ele>
        <time>2022-07-07T10:18:12Z</time>
      </trkpt>
      <trkpt lat="47.91708" lon="3.32878">
        <ele>171.19999694824</ele>
        <time>2022-07-07T10:18:18Z</time>
      </trkpt>
      <trkpt lat="47.91706" lon="3.32878">
        <ele>171</ele>
        <time>2022-07-07T10:18:19Z</time>
      </trkpt>
      <trkpt lat="47.91689" lon="3.3287">
        <ele>169.80000305176</ele>
        <time>2022-07-07T10:18:32Z</time>
      </trkpt>
      <trkpt lat="47.91662" lon="3.32866">
        <ele>168.60000610352</ele>
        <time>2022-07-07T10:18:53Z</time>
      </trkpt>
      <trkpt lat="47.9165" lon="3.32859">
        <ele>168.39999389648</ele>
        <time>2022-07-07T10:19:01Z</time>
      </trkpt>
      <trkpt lat="47.91645" lon="3.32857">
        <ele>168.39999389648</ele>
        <time>2022-07-07T10:19:05Z</time>
      </trkpt>
      <trkpt lat="47.91644" lon="3.32856">
        <ele>168.39999389648</ele>
        <time>2022-07-07T10:19:06Z</time>
      </trkpt>
      <trkpt lat="47.91641" lon="3.32855">
        <ele>168.39999389648</ele>
        <time>2022-07-07T10:19:08Z</time>
      </trkpt>
      <trkpt lat="47.91639" lon="3.32855">
        <ele>168.39999389648</ele>
        <time>2022-07-07T10:19:09Z</time>
      </trkpt>
      <trkpt lat="47.91623" lon="3.32848">
        <ele>168.19999694824</ele>
        <time>2022-07-07T10:19:20Z</time>
      </trkpt>
      <trkpt lat="47.91611" lon="3.32851">
        <ele>167.80000305176</ele>
        <time>2022-07-07T10:19:33Z</time>
      </trkpt>
      <trkpt lat="47.91609" lon="3.32866">
        <ele>167</ele>
        <time>2022-07-07T10:19:47Z</time>
      </trkpt>
      <trkpt lat="47.91605" lon="3.32889">
        <ele>166</ele>
        <time>2022-07-07T10:20:01Z</time>
      </trkpt>
      <trkpt lat="47.91601" lon="3.32926">
        <ele>165.19999694824</ele>
        <time>2022-07-07T10:20:19Z</time>
      </trkpt>
      <trkpt lat="47.91598" lon="3.32941">
        <ele>165</ele>
        <time>2022-07-07T10:20:26Z</time>
      </trkpt>
      <trkpt lat="47.91598" lon="3.32943">
        <ele>165</ele>
        <time>2022-07-07T10:20:27Z</time>
      </trkpt>
      <trkpt lat="47.91593" lon="3.32973">
        <ele>164.39999389648</ele>
        <time>2022-07-07T10:20:44Z</time>
      </trkpt>
      <trkpt lat="47.91589" lon="3.33003">
        <ele>164.19999694824</ele>
        <time>2022-07-07T10:21:03Z</time>
      </trkpt>
      <trkpt lat="47.91584" lon="3.33043">
        <ele>163</ele>
        <time>2022-07-07T10:21:23Z</time>
      </trkpt>
      <trkpt lat="47.9158" lon="3.33069">
        <ele>162.39999389648</ele>
        <time>2022-07-07T10:21:36Z</time>
      </trkpt>
      <trkpt lat="47.91577" lon="3.33104">
        <ele>161.60000610352</ele>
        <time>2022-07-07T10:21:57Z</time>
      </trkpt>
      <trkpt lat="47.91575" lon="3.33126">
        <ele>161.80000305176</ele>
        <time>2022-07-07T10:22:09Z</time>
      </trkpt>
      <trkpt lat="47.9157" lon="3.33163">
        <ele>161.39999389648</ele>
        <time>2022-07-07T10:22:29Z</time>
      </trkpt>
      <trkpt lat="47.91568" lon="3.33195">
        <ele>160.60000610352</ele>
        <time>2022-07-07T10:22:48Z</time>
      </trkpt>
      <trkpt lat="47.91565" lon="3.33222">
        <ele>160.19999694824</ele>
        <time>2022-07-07T10:23:02Z</time>
      </trkpt>
      <trkpt lat="47.91566" lon="3.33233">
        <ele>160</ele>
        <time>2022-07-07T10:23:10Z</time>
      </trkpt>
      <trkpt lat="47.91566" lon="3.33235">
        <ele>159.80000305176</ele>
        <time>2022-07-07T10:23:11Z</time>
      </trkpt>
      <trkpt lat="47.91566" lon="3.33237">
        <ele>159.80000305176</ele>
        <time>2022-07-07T10:23:12Z</time>
      </trkpt>
      <trkpt lat="47.91566" lon="3.33239">
        <ele>159.80000305176</ele>
        <time>2022-07-07T10:23:13Z</time>
      </trkpt>
      <trkpt lat="47.91565" lon="3.33269">
        <ele>159.39999389648</ele>
        <time>2022-07-07T10:23:29Z</time>
      </trkpt>
      <trkpt lat="47.91565" lon="3.33297">
        <ele>159.39999389648</ele>
        <time>2022-07-07T10:23:45Z</time>
      </trkpt>
      <trkpt lat="47.91566" lon="3.33333">
        <ele>158.80000305176</ele>
        <time>2022-07-07T10:24:07Z</time>
      </trkpt>
      <trkpt lat="47.91563" lon="3.33369">
        <ele>158</ele>
        <time>2022-07-07T10:24:26Z</time>
      </trkpt>
      <trkpt lat="47.91559" lon="3.33404">
        <ele>157.19999694824</ele>
        <time>2022-07-07T10:24:44Z</time>
      </trkpt>
      <trkpt lat="47.91555" lon="3.33439">
        <ele>156.80000305176</ele>
        <time>2022-07-07T10:25:03Z</time>
      </trkpt>
      <trkpt lat="47.91549" lon="3.33474">
        <ele>156.60000610352</ele>
        <time>2022-07-07T10:25:20Z</time>
      </trkpt>
      <trkpt lat="47.91548" lon="3.33476">
        <ele>156.60000610352</ele>
        <time>2022-07-07T10:25:21Z</time>
      </trkpt>
      <trkpt lat="47.91544" lon="3.33482">
        <ele>156.39999389648</ele>
        <time>2022-07-07T10:25:26Z</time>
      </trkpt>
      <trkpt lat="47.91533" lon="3.33483">
        <ele>156</ele>
        <time>2022-07-07T10:25:35Z</time>
      </trkpt>
      <trkpt lat="47.91532" lon="3.33483">
        <ele>156</ele>
        <time>2022-07-07T10:25:36Z</time>
      </trkpt>
      <trkpt lat="47.91525" lon="3.33481">
        <ele>156.19999694824</ele>
        <time>2022-07-07T10:25:42Z</time>
      </trkpt>
      <trkpt lat="47.91524" lon="3.33481">
        <ele>156.19999694824</ele>
        <time>2022-07-07T10:25:43Z</time>
      </trkpt>
      <trkpt lat="47.91516" lon="3.33478">
        <ele>156.60000610352</ele>
        <time>2022-07-07T10:25:51Z</time>
      </trkpt>
      <trkpt lat="47.91513" lon="3.33478">
        <ele>156.60000610352</ele>
        <time>2022-07-07T10:25:54Z</time>
      </trkpt>
      <trkpt lat="47.91502" lon="3.33474">
        <ele>157</ele>
        <time>2022-07-07T10:26:03Z</time>
      </trkpt>
      <trkpt lat="47.915" lon="3.33473">
        <ele>156.80000305176</ele>
        <time>2022-07-07T10:26:04Z</time>
      </trkpt>
      <trkpt lat="47.91498" lon="3.33471">
        <ele>156.80000305176</ele>
        <time>2022-07-07T10:26:06Z</time>
      </trkpt>
      <trkpt lat="47.91473" lon="3.33465">
        <ele>156.60000610352</ele>
        <time>2022-07-07T10:26:26Z</time>
      </trkpt>
      <trkpt lat="47.91463" lon="3.33462">
        <ele>156.19999694824</ele>
        <time>2022-07-07T10:26:35Z</time>
      </trkpt>
      <trkpt lat="47.91457" lon="3.3346">
        <ele>156.19999694824</ele>
        <time>2022-07-07T10:26:39Z</time>
      </trkpt>
      <trkpt lat="47.91456" lon="3.33459">
        <ele>156.19999694824</ele>
        <time>2022-07-07T10:26:40Z</time>
      </trkpt>
      <trkpt lat="47.91455" lon="3.33459">
        <ele>156</ele>
        <time>2022-07-07T10:26:41Z</time>
      </trkpt>
      <trkpt lat="47.91454" lon="3.33458">
        <ele>155.80000305176</ele>
        <time>2022-07-07T10:26:42Z</time>
      </trkpt>
      <trkpt lat="47.91452" lon="3.33458">
        <ele>155.60000610352</ele>
        <time>2022-07-07T10:26:43Z</time>
      </trkpt>
      <trkpt lat="47.91443" lon="3.33454">
        <ele>155.19999694824</ele>
        <time>2022-07-07T10:26:51Z</time>
      </trkpt>
      <trkpt lat="47.91438" lon="3.33452">
        <ele>155.19999694824</ele>
        <time>2022-07-07T10:26:54Z</time>
      </trkpt>
      <trkpt lat="47.91437" lon="3.33451">
        <ele>155.19999694824</ele>
        <time>2022-07-07T10:26:55Z</time>
      </trkpt>
      <trkpt lat="47.91435" lon="3.3345">
        <ele>155</ele>
        <time>2022-07-07T10:26:56Z</time>
      </trkpt>
      <trkpt lat="47.91434" lon="3.3345">
        <ele>155</ele>
        <time>2022-07-07T10:26:57Z</time>
      </trkpt>
      <trkpt lat="47.91431" lon="3.33449">
        <ele>154.80000305176</ele>
        <time>2022-07-07T10:26:59Z</time>
      </trkpt>
      <trkpt lat="47.91424" lon="3.33447">
        <ele>154.80000305176</ele>
        <time>2022-07-07T10:27:04Z</time>
      </trkpt>
      <trkpt lat="47.91407" lon="3.33444">
        <ele>154.19999694824</ele>
        <time>2022-07-07T10:27:19Z</time>
      </trkpt>
      <trkpt lat="47.91399" lon="3.33441">
        <ele>154.19999694824</ele>
        <time>2022-07-07T10:27:25Z</time>
      </trkpt>
      <trkpt lat="47.91393" lon="3.3344">
        <ele>154.19999694824</ele>
        <time>2022-07-07T10:27:30Z</time>
      </trkpt>
      <trkpt lat="47.91389" lon="3.3344">
        <ele>154</ele>
        <time>2022-07-07T10:27:33Z</time>
      </trkpt>
      <trkpt lat="47.91388" lon="3.33439">
        <ele>154</ele>
        <time>2022-07-07T10:27:34Z</time>
      </trkpt>
      <trkpt lat="47.91377" lon="3.33435">
        <ele>154.39999389648</ele>
        <time>2022-07-07T10:27:43Z</time>
      </trkpt>
      <trkpt lat="47.91376" lon="3.33435">
        <ele>154.39999389648</ele>
        <time>2022-07-07T10:27:44Z</time>
      </trkpt>
      <trkpt lat="47.91363" lon="3.33433">
        <ele>154.60000610352</ele>
        <time>2022-07-07T10:27:55Z</time>
      </trkpt>
      <trkpt lat="47.91347" lon="3.3343">
        <ele>154.19999694824</ele>
        <time>2022-07-07T10:28:08Z</time>
      </trkpt>
      <trkpt lat="47.91339" lon="3.3343">
        <ele>154.19999694824</ele>
        <time>2022-07-07T10:28:15Z</time>
      </trkpt>
      <trkpt lat="47.91338" lon="3.33429">
        <ele>154.19999694824</ele>
        <time>2022-07-07T10:28:16Z</time>
      </trkpt>
      <trkpt lat="47.91337" lon="3.33429">
        <ele>154.19999694824</ele>
        <time>2022-07-07T10:28:17Z</time>
      </trkpt>
      <trkpt lat="47.91326" lon="3.33428">
        <ele>154.80000305176</ele>
        <time>2022-07-07T10:28:26Z</time>
      </trkpt>
      <trkpt lat="47.91314" lon="3.33425">
        <ele>154.39999389648</ele>
        <time>2022-07-07T10:28:36Z</time>
      </trkpt>
      <trkpt lat="47.91311" lon="3.33424">
        <ele>154.19999694824</ele>
        <time>2022-07-07T10:28:39Z</time>
      </trkpt>
      <trkpt lat="47.91296" lon="3.33421">
        <ele>154.80000305176</ele>
        <time>2022-07-07T10:28:53Z</time>
      </trkpt>
      <trkpt lat="47.91289" lon="3.33419">
        <ele>154.80000305176</ele>
        <time>2022-07-07T10:29:00Z</time>
      </trkpt>
      <trkpt lat="47.91283" lon="3.33418">
        <ele>155.19999694824</ele>
        <time>2022-07-07T10:29:05Z</time>
      </trkpt>
      <trkpt lat="47.91277" lon="3.33417">
        <ele>155.39999389648</ele>
        <time>2022-07-07T10:29:11Z</time>
      </trkpt>
      <trkpt lat="47.91275" lon="3.33417">
        <ele>155.39999389648</ele>
        <time>2022-07-07T10:29:12Z</time>
      </trkpt>
      <trkpt lat="47.91267" lon="3.33414">
        <ele>155.80000305176</ele>
        <time>2022-07-07T10:29:18Z</time>
      </trkpt>
      <trkpt lat="47.91261" lon="3.33412">
        <ele>155.60000610352</ele>
        <time>2022-07-07T10:29:22Z</time>
      </trkpt>
      <trkpt lat="47.9125" lon="3.33412">
        <ele>155.80000305176</ele>
        <time>2022-07-07T10:29:33Z</time>
      </trkpt>
      <trkpt lat="47.91233" lon="3.33406">
        <ele>156.80000305176</ele>
        <time>2022-07-07T10:29:51Z</time>
      </trkpt>
      <trkpt lat="47.91221" lon="3.33403">
        <ele>157.39999389648</ele>
        <time>2022-07-07T10:30:01Z</time>
      </trkpt>
      <trkpt lat="47.91209" lon="3.33397">
        <ele>158</ele>
        <time>2022-07-07T10:30:11Z</time>
      </trkpt>
      <trkpt lat="47.91203" lon="3.33396">
        <ele>158.19999694824</ele>
        <time>2022-07-07T10:30:16Z</time>
      </trkpt>
      <trkpt lat="47.91192" lon="3.33395">
        <ele>159.19999694824</ele>
        <time>2022-07-07T10:30:28Z</time>
      </trkpt>
      <trkpt lat="47.91185" lon="3.33394">
        <ele>159.80000305176</ele>
        <time>2022-07-07T10:30:34Z</time>
      </trkpt>
      <trkpt lat="47.91173" lon="3.33387">
        <ele>160.80000305176</ele>
        <time>2022-07-07T10:30:45Z</time>
      </trkpt>
      <trkpt lat="47.91158" lon="3.33382">
        <ele>161.60000610352</ele>
        <time>2022-07-07T10:30:57Z</time>
      </trkpt>
      <trkpt lat="47.91155" lon="3.33381">
        <ele>162</ele>
        <time>2022-07-07T10:31:00Z</time>
      </trkpt>
      <trkpt lat="47.91144" lon="3.33378">
        <ele>162.60000610352</ele>
        <time>2022-07-07T10:31:12Z</time>
      </trkpt>
      <trkpt lat="47.91137" lon="3.33377">
        <ele>163</ele>
        <time>2022-07-07T10:31:18Z</time>
      </trkpt>
      <trkpt lat="47.91126" lon="3.33375">
        <ele>163.19999694824</ele>
        <time>2022-07-07T10:31:28Z</time>
      </trkpt>
      <trkpt lat="47.91113" lon="3.3337">
        <ele>164.19999694824</ele>
        <time>2022-07-07T10:31:39Z</time>
      </trkpt>
      <trkpt lat="47.91101" lon="3.33368">
        <ele>164.80000305176</ele>
        <time>2022-07-07T10:31:50Z</time>
      </trkpt>
      <trkpt lat="47.91089" lon="3.33366">
        <ele>165.60000610352</ele>
        <time>2022-07-07T10:32:03Z</time>
      </trkpt>
      <trkpt lat="47.91072" lon="3.33357">
        <ele>167</ele>
        <time>2022-07-07T10:32:19Z</time>
      </trkpt>
      <trkpt lat="47.91065" lon="3.3335">
        <ele>166.60000610352</ele>
        <time>2022-07-07T10:32:26Z</time>
      </trkpt>
      <trkpt lat="47.91058" lon="3.33342">
        <ele>166.80000305176</ele>
        <time>2022-07-07T10:32:34Z</time>
      </trkpt>
      <trkpt lat="47.91058" lon="3.3334">
        <ele>166.80000305176</ele>
        <time>2022-07-07T10:32:35Z</time>
      </trkpt>
      <trkpt lat="47.91035" lon="3.33333">
        <ele>167.19999694824</ele>
        <time>2022-07-07T10:32:53Z</time>
      </trkpt>
      <trkpt lat="47.91032" lon="3.33333">
        <ele>167.19999694824</ele>
        <time>2022-07-07T10:32:55Z</time>
      </trkpt>
      <trkpt lat="47.91028" lon="3.33333">
        <ele>167.19999694824</ele>
        <time>2022-07-07T10:32:59Z</time>
      </trkpt>
      <trkpt lat="47.90991" lon="3.33335">
        <ele>167</ele>
        <time>2022-07-07T10:33:30Z</time>
      </trkpt>
      <trkpt lat="47.90986" lon="3.33332">
        <ele>167.19999694824</ele>
        <time>2022-07-07T10:33:33Z</time>
      </trkpt>
      <trkpt lat="47.90982" lon="3.33328">
        <ele>167.19999694824</ele>
        <time>2022-07-07T10:33:35Z</time>
      </trkpt>
      <trkpt lat="47.9098" lon="3.33326">
        <ele>167</ele>
        <time>2022-07-07T10:33:36Z</time>
      </trkpt>
      <trkpt lat="47.90978" lon="3.33323">
        <ele>167</ele>
        <time>2022-07-07T10:33:38Z</time>
      </trkpt>
      <trkpt lat="47.90978" lon="3.33322">
        <ele>167</ele>
        <time>2022-07-07T10:33:39Z</time>
      </trkpt>
      <trkpt lat="47.90977" lon="3.33321">
        <ele>167</ele>
        <time>2022-07-07T10:33:40Z</time>
      </trkpt>
      <trkpt lat="47.90975" lon="3.33313">
        <ele>167.19999694824</ele>
        <time>2022-07-07T10:33:46Z</time>
      </trkpt>
      <trkpt lat="47.90977" lon="3.33308">
        <ele>167.19999694824</ele>
        <time>2022-07-07T10:33:50Z</time>
      </trkpt>
      <trkpt lat="47.90975" lon="3.333">
        <ele>167.19999694824</ele>
        <time>2022-07-07T10:33:55Z</time>
      </trkpt>
      <trkpt lat="47.90974" lon="3.33297">
        <ele>167.39999389648</ele>
        <time>2022-07-07T10:33:56Z</time>
      </trkpt>
      <trkpt lat="47.90972" lon="3.33287">
        <ele>167.19999694824</ele>
        <time>2022-07-07T10:34:01Z</time>
      </trkpt>
      <trkpt lat="47.90971" lon="3.33283">
        <ele>167.19999694824</ele>
        <time>2022-07-07T10:34:03Z</time>
      </trkpt>
      <trkpt lat="47.90971" lon="3.33282">
        <ele>167.39999389648</ele>
        <time>2022-07-07T10:34:04Z</time>
      </trkpt>
      <trkpt lat="47.9097" lon="3.33278">
        <ele>167.39999389648</ele>
        <time>2022-07-07T10:34:06Z</time>
      </trkpt>
      <trkpt lat="47.9097" lon="3.33276">
        <ele>167.60000610352</ele>
        <time>2022-07-07T10:34:07Z</time>
      </trkpt>
      <trkpt lat="47.90967" lon="3.33256">
        <ele>167.60000610352</ele>
        <time>2022-07-07T10:34:19Z</time>
      </trkpt>
      <trkpt lat="47.90965" lon="3.33241">
        <ele>168.39999389648</ele>
        <time>2022-07-07T10:34:28Z</time>
      </trkpt>
      <trkpt lat="47.90964" lon="3.33236">
        <ele>168.39999389648</ele>
        <time>2022-07-07T10:34:31Z</time>
      </trkpt>
      <trkpt lat="47.90963" lon="3.33234">
        <ele>168.39999389648</ele>
        <time>2022-07-07T10:34:32Z</time>
      </trkpt>
      <trkpt lat="47.90959" lon="3.3321">
        <ele>169.39999389648</ele>
        <time>2022-07-07T10:34:48Z</time>
      </trkpt>
      <trkpt lat="47.90958" lon="3.33204">
        <ele>169.60000610352</ele>
        <time>2022-07-07T10:34:51Z</time>
      </trkpt>
      <trkpt lat="47.90958" lon="3.33202">
        <ele>169.60000610352</ele>
        <time>2022-07-07T10:34:52Z</time>
      </trkpt>
      <trkpt lat="47.90957" lon="3.33191">
        <ele>170.19999694824</ele>
        <time>2022-07-07T10:34:59Z</time>
      </trkpt>
      <trkpt lat="47.90949" lon="3.33168">
        <ele>171.60000610352</ele>
        <time>2022-07-07T10:35:11Z</time>
      </trkpt>
      <trkpt lat="47.90945" lon="3.33167">
        <ele>171.60000610352</ele>
        <time>2022-07-07T10:35:15Z</time>
      </trkpt>
      <trkpt lat="47.90931" lon="3.33169">
        <ele>170.19999694824</ele>
        <time>2022-07-07T10:35:29Z</time>
      </trkpt>
      <trkpt lat="47.90922" lon="3.33169">
        <ele>171.39999389648</ele>
        <time>2022-07-07T10:35:40Z</time>
      </trkpt>
      <trkpt lat="47.9092" lon="3.33168">
        <ele>171.39999389648</ele>
        <time>2022-07-07T10:35:43Z</time>
      </trkpt>
      <trkpt lat="47.90917" lon="3.33168">
        <ele>171.19999694824</ele>
        <time>2022-07-07T10:35:45Z</time>
      </trkpt>
      <trkpt lat="47.90916" lon="3.33168">
        <ele>171.19999694824</ele>
        <time>2022-07-07T10:35:46Z</time>
      </trkpt>
      <trkpt lat="47.90915" lon="3.33168">
        <ele>171.19999694824</ele>
        <time>2022-07-07T10:35:47Z</time>
      </trkpt>
      <trkpt lat="47.90914" lon="3.33168">
        <ele>171.19999694824</ele>
        <time>2022-07-07T10:35:48Z</time>
      </trkpt>
      <trkpt lat="47.9091" lon="3.33167">
        <ele>171.19999694824</ele>
        <time>2022-07-07T10:35:51Z</time>
      </trkpt>
      <trkpt lat="47.90887" lon="3.33166">
        <ele>171.60000610352</ele>
        <time>2022-07-07T10:36:10Z</time>
      </trkpt>
      <trkpt lat="47.90873" lon="3.33166">
        <ele>171.19999694824</ele>
        <time>2022-07-07T10:36:24Z</time>
      </trkpt>
      <trkpt lat="47.90846" lon="3.33158">
        <ele>170.60000610352</ele>
        <time>2022-07-07T10:36:47Z</time>
      </trkpt>
      <trkpt lat="47.9084" lon="3.33156">
        <ele>170.60000610352</ele>
        <time>2022-07-07T10:36:52Z</time>
      </trkpt>
      <trkpt lat="47.90839" lon="3.33156">
        <ele>170.60000610352</ele>
        <time>2022-07-07T10:36:53Z</time>
      </trkpt>
      <trkpt lat="47.90836" lon="3.33158">
        <ele>170.80000305176</ele>
        <time>2022-07-07T10:36:55Z</time>
      </trkpt>
      <trkpt lat="47.90832" lon="3.33163">
        <ele>171</ele>
        <time>2022-07-07T10:36:56Z</time>
      </trkpt>
      <trkpt lat="47.90814" lon="3.33169">
        <ele>171.60000610352</ele>
        <time>2022-07-07T10:37:05Z</time>
      </trkpt>
      <trkpt lat="47.90813" lon="3.33169">
        <ele>171.39999389648</ele>
        <time>2022-07-07T10:37:06Z</time>
      </trkpt>
      <trkpt lat="47.90795" lon="3.33167">
        <ele>169.60000610352</ele>
        <time>2022-07-07T10:37:22Z</time>
      </trkpt>
      <trkpt lat="47.90791" lon="3.33167">
        <ele>170.19999694824</ele>
        <time>2022-07-07T10:37:26Z</time>
      </trkpt>
      <trkpt lat="47.90782" lon="3.33167">
        <ele>170.60000610352</ele>
        <time>2022-07-07T10:37:34Z</time>
      </trkpt>
      <trkpt lat="47.90778" lon="3.33167">
        <ele>170.19999694824</ele>
        <time>2022-07-07T10:37:37Z</time>
      </trkpt>
      <trkpt lat="47.90762" lon="3.33167">
        <ele>170.80000305176</ele>
        <time>2022-07-07T10:37:54Z</time>
      </trkpt>
      <trkpt lat="47.90751" lon="3.33168">
        <ele>170.80000305176</ele>
        <time>2022-07-07T10:38:04Z</time>
      </trkpt>
      <trkpt lat="47.90747" lon="3.33168">
        <ele>171.19999694824</ele>
        <time>2022-07-07T10:38:09Z</time>
      </trkpt>
      <trkpt lat="47.90727" lon="3.33167">
        <ele>170.39999389648</ele>
        <time>2022-07-07T10:38:24Z</time>
      </trkpt>
      <trkpt lat="47.90725" lon="3.33167">
        <ele>170.39999389648</ele>
        <time>2022-07-07T10:38:26Z</time>
      </trkpt>
      <trkpt lat="47.9071" lon="3.33165">
        <ele>170.39999389648</ele>
        <time>2022-07-07T10:38:37Z</time>
      </trkpt>
      <trkpt lat="47.90701" lon="3.33166">
        <ele>169.39999389648</ele>
        <time>2022-07-07T10:38:45Z</time>
      </trkpt>
      <trkpt lat="47.90694" lon="3.33167">
        <ele>169.39999389648</ele>
        <time>2022-07-07T10:38:51Z</time>
      </trkpt>
      <trkpt lat="47.90687" lon="3.33159">
        <ele>169.39999389648</ele>
        <time>2022-07-07T10:38:59Z</time>
      </trkpt>
      <trkpt lat="47.90687" lon="3.33158">
        <ele>169.19999694824</ele>
        <time>2022-07-07T10:39:00Z</time>
      </trkpt>
      <trkpt lat="47.90685" lon="3.33138">
        <ele>169.19999694824</ele>
        <time>2022-07-07T10:39:11Z</time>
      </trkpt>
      <trkpt lat="47.90684" lon="3.33125">
        <ele>169.39999389648</ele>
        <time>2022-07-07T10:39:21Z</time>
      </trkpt>
      <trkpt lat="47.90685" lon="3.33107">
        <ele>169.39999389648</ele>
        <time>2022-07-07T10:39:33Z</time>
      </trkpt>
      <trkpt lat="47.90685" lon="3.33102">
        <ele>170</ele>
        <time>2022-07-07T10:39:36Z</time>
      </trkpt>
      <trkpt lat="47.90688" lon="3.33082">
        <ele>171</ele>
        <time>2022-07-07T10:39:52Z</time>
      </trkpt>
      <trkpt lat="47.90685" lon="3.3305">
        <ele>173.19999694824</ele>
        <time>2022-07-07T10:40:18Z</time>
      </trkpt>
      <trkpt lat="47.90685" lon="3.33033">
        <ele>172.80000305176</ele>
        <time>2022-07-07T10:40:35Z</time>
      </trkpt>
      <trkpt lat="47.90681" lon="3.33009">
        <ele>174</ele>
        <time>2022-07-07T10:40:46Z</time>
      </trkpt>
      <trkpt lat="47.90678" lon="3.32977">
        <ele>175</ele>
        <time>2022-07-07T10:41:07Z</time>
      </trkpt>
      <trkpt lat="47.90676" lon="3.32942">
        <ele>176.19999694824</ele>
        <time>2022-07-07T10:41:27Z</time>
      </trkpt>
      <trkpt lat="47.90674" lon="3.32929">
        <ele>177</ele>
        <time>2022-07-07T10:41:35Z</time>
      </trkpt>
      <trkpt lat="47.90674" lon="3.32927">
        <ele>177</ele>
        <time>2022-07-07T10:41:36Z</time>
      </trkpt>
      <trkpt lat="47.90674" lon="3.32924">
        <ele>177.60000610352</ele>
        <time>2022-07-07T10:41:38Z</time>
      </trkpt>
      <trkpt lat="47.90673" lon="3.32921">
        <ele>177.80000305176</ele>
        <time>2022-07-07T10:41:40Z</time>
      </trkpt>
      <trkpt lat="47.9067" lon="3.32887">
        <ele>178</ele>
        <time>2022-07-07T10:42:00Z</time>
      </trkpt>
      <trkpt lat="47.90669" lon="3.32827">
        <ele>181.19999694824</ele>
        <time>2022-07-07T10:42:50Z</time>
      </trkpt>
      <trkpt lat="47.90671" lon="3.32813">
        <ele>180.80000305176</ele>
        <time>2022-07-07T10:43:03Z</time>
      </trkpt>
      <trkpt lat="47.9067" lon="3.328">
        <ele>181.80000305176</ele>
        <time>2022-07-07T10:43:12Z</time>
      </trkpt>
      <trkpt lat="47.90668" lon="3.32785">
        <ele>181.80000305176</ele>
        <time>2022-07-07T10:43:22Z</time>
      </trkpt>
      <trkpt lat="47.90663" lon="3.32758">
        <ele>182.60000610352</ele>
        <time>2022-07-07T10:43:39Z</time>
      </trkpt>
      <trkpt lat="47.90662" lon="3.32757">
        <ele>182.60000610352</ele>
        <time>2022-07-07T10:43:40Z</time>
      </trkpt>
      <trkpt lat="47.90654" lon="3.32739">
        <ele>182.19999694824</ele>
        <time>2022-07-07T10:43:53Z</time>
      </trkpt>
      <trkpt lat="47.90653" lon="3.32736">
        <ele>182.60000610352</ele>
        <time>2022-07-07T10:43:55Z</time>
      </trkpt>
      <trkpt lat="47.90646" lon="3.3272">
        <ele>183</ele>
        <time>2022-07-07T10:44:05Z</time>
      </trkpt>
      <trkpt lat="47.90632" lon="3.32711">
        <ele>181.60000610352</ele>
        <time>2022-07-07T10:44:19Z</time>
      </trkpt>
      <trkpt lat="47.9062" lon="3.32711">
        <ele>180</ele>
        <time>2022-07-07T10:44:36Z</time>
      </trkpt>
      <trkpt lat="47.90612" lon="3.32715">
        <ele>178.80000305176</ele>
        <time>2022-07-07T10:44:45Z</time>
      </trkpt>
      <trkpt lat="47.9059" lon="3.32721">
        <ele>176.80000305176</ele>
        <time>2022-07-07T10:45:06Z</time>
      </trkpt>
      <trkpt lat="47.90589" lon="3.32722">
        <ele>176.60000610352</ele>
        <time>2022-07-07T10:45:07Z</time>
      </trkpt>
      <trkpt lat="47.90573" lon="3.32748">
        <ele>175.80000305176</ele>
        <time>2022-07-07T10:45:23Z</time>
      </trkpt>
      <trkpt lat="47.90563" lon="3.32756">
        <ele>174.80000305176</ele>
        <time>2022-07-07T10:45:31Z</time>
      </trkpt>
      <trkpt lat="47.90556" lon="3.32762">
        <ele>173.39999389648</ele>
        <time>2022-07-07T10:45:40Z</time>
      </trkpt>
      <trkpt lat="47.90554" lon="3.32763">
        <ele>173.19999694824</ele>
        <time>2022-07-07T10:45:42Z</time>
      </trkpt>
      <trkpt lat="47.90534" lon="3.32769">
        <ele>172.60000610352</ele>
        <time>2022-07-07T10:45:56Z</time>
      </trkpt>
      <trkpt lat="47.90532" lon="3.3277">
        <ele>172.39999389648</ele>
        <time>2022-07-07T10:45:58Z</time>
      </trkpt>
      <trkpt lat="47.90523" lon="3.32779">
        <ele>172.39999389648</ele>
        <time>2022-07-07T10:46:07Z</time>
      </trkpt>
      <trkpt lat="47.90517" lon="3.3278">
        <ele>172.19999694824</ele>
        <time>2022-07-07T10:46:12Z</time>
      </trkpt>
      <trkpt lat="47.90492" lon="3.32782">
        <ele>169.39999389648</ele>
        <time>2022-07-07T10:46:33Z</time>
      </trkpt>
      <trkpt lat="47.90487" lon="3.32779">
        <ele>170.19999694824</ele>
        <time>2022-07-07T10:46:41Z</time>
      </trkpt>
      <trkpt lat="47.90476" lon="3.32782">
        <ele>173</ele>
        <time>2022-07-07T10:46:53Z</time>
      </trkpt>
      <trkpt lat="47.90469" lon="3.32793">
        <ele>169.80000305176</ele>
        <time>2022-07-07T10:47:03Z</time>
      </trkpt>
      <trkpt lat="47.90446" lon="3.32806">
        <ele>168.60000610352</ele>
        <time>2022-07-07T10:47:23Z</time>
      </trkpt>
      <trkpt lat="47.9044" lon="3.32811">
        <ele>168.39999389648</ele>
        <time>2022-07-07T10:47:28Z</time>
      </trkpt>
      <trkpt lat="47.90422" lon="3.32816">
        <ele>167.60000610352</ele>
        <time>2022-07-07T10:47:45Z</time>
      </trkpt>
      <trkpt lat="47.90417" lon="3.32819">
        <ele>166.19999694824</ele>
        <time>2022-07-07T10:47:56Z</time>
      </trkpt>
      <trkpt lat="47.90416" lon="3.32822">
        <ele>167.39999389648</ele>
        <time>2022-07-07T10:48:04Z</time>
      </trkpt>
      <trkpt lat="47.90393" lon="3.32827">
        <ele>167.19999694824</ele>
        <time>2022-07-07T10:48:22Z</time>
      </trkpt>
      <trkpt lat="47.90379" lon="3.32827">
        <ele>167</ele>
        <time>2022-07-07T10:48:34Z</time>
      </trkpt>
      <trkpt lat="47.90378" lon="3.32828">
        <ele>167.19999694824</ele>
        <time>2022-07-07T10:48:36Z</time>
      </trkpt>
      <trkpt lat="47.90366" lon="3.32834">
        <ele>167.19999694824</ele>
        <time>2022-07-07T10:48:47Z</time>
      </trkpt>
      <trkpt lat="47.90358" lon="3.32835">
        <ele>166.80000305176</ele>
        <time>2022-07-07T10:48:55Z</time>
      </trkpt>
      <trkpt lat="47.9035" lon="3.32833">
        <ele>167</ele>
        <time>2022-07-07T10:49:07Z</time>
      </trkpt>
      <trkpt lat="47.90346" lon="3.32832">
        <ele>167.19999694824</ele>
        <time>2022-07-07T10:49:11Z</time>
      </trkpt>
      <trkpt lat="47.90328" lon="3.32835">
        <ele>167.39999389648</ele>
        <time>2022-07-07T10:49:23Z</time>
      </trkpt>
      <trkpt lat="47.90316" lon="3.32835">
        <ele>167.19999694824</ele>
        <time>2022-07-07T10:49:32Z</time>
      </trkpt>
      <trkpt lat="47.90315" lon="3.32835">
        <ele>167.19999694824</ele>
        <time>2022-07-07T10:49:33Z</time>
      </trkpt>
      <trkpt lat="47.90311" lon="3.32835">
        <ele>167.39999389648</ele>
        <time>2022-07-07T10:49:36Z</time>
      </trkpt>
      <trkpt lat="47.90306" lon="3.32831">
        <ele>167.39999389648</ele>
        <time>2022-07-07T10:49:43Z</time>
      </trkpt>
      <trkpt lat="47.90305" lon="3.3283">
        <ele>167.39999389648</ele>
        <time>2022-07-07T10:49:44Z</time>
      </trkpt>
      <trkpt lat="47.90296" lon="3.32825">
        <ele>167.39999389648</ele>
        <time>2022-07-07T10:49:52Z</time>
      </trkpt>
      <trkpt lat="47.90283" lon="3.32822">
        <ele>167.60000610352</ele>
        <time>2022-07-07T10:50:04Z</time>
      </trkpt>
      <trkpt lat="47.90271" lon="3.32817">
        <ele>168</ele>
        <time>2022-07-07T10:50:15Z</time>
      </trkpt>
      <trkpt lat="47.90262" lon="3.32816">
        <ele>168.60000610352</ele>
        <time>2022-07-07T10:50:24Z</time>
      </trkpt>
      <trkpt lat="47.90248" lon="3.32813">
        <ele>169</ele>
        <time>2022-07-07T10:50:35Z</time>
      </trkpt>
      <trkpt lat="47.90232" lon="3.32808">
        <ele>169</ele>
        <time>2022-07-07T10:50:44Z</time>
      </trkpt>
      <trkpt lat="47.90228" lon="3.32807">
        <ele>169.19999694824</ele>
        <time>2022-07-07T10:50:46Z</time>
      </trkpt>
      <trkpt lat="47.90212" lon="3.32803">
        <ele>170</ele>
        <time>2022-07-07T10:50:59Z</time>
      </trkpt>
      <trkpt lat="47.90196" lon="3.328">
        <ele>171</ele>
        <time>2022-07-07T10:51:10Z</time>
      </trkpt>
      <trkpt lat="47.90184" lon="3.32799">
        <ele>171.80000305176</ele>
        <time>2022-07-07T10:51:21Z</time>
      </trkpt>
      <trkpt lat="47.90171" lon="3.32793">
        <ele>173</ele>
        <time>2022-07-07T10:51:37Z</time>
      </trkpt>
      <trkpt lat="47.90162" lon="3.32781">
        <ele>175.19999694824</ele>
        <time>2022-07-07T10:51:56Z</time>
      </trkpt>
      <trkpt lat="47.90151" lon="3.32778">
        <ele>177.60000610352</ele>
        <time>2022-07-07T10:52:15Z</time>
      </trkpt>
      <trkpt lat="47.90153" lon="3.32778">
        <ele>178.80000305176</ele>
        <time>2022-07-07T10:52:40Z</time>
      </trkpt>
      <trkpt lat="47.90153" lon="3.32777">
        <ele>178</ele>
        <time>2022-07-07T10:53:09Z</time>
      </trkpt>
      <trkpt lat="47.9015" lon="3.32775">
        <ele>177.80000305176</ele>
        <time>2022-07-07T10:53:18Z</time>
      </trkpt>
      <trkpt lat="47.90146" lon="3.3278">
        <ele>178.19999694824</ele>
        <time>2022-07-07T10:54:07Z</time>
      </trkpt>
      <trkpt lat="47.9015" lon="3.32781">
        <ele>178.39999389648</ele>
        <time>2022-07-07T10:54:19Z</time>
      </trkpt>
      <trkpt lat="47.90144" lon="3.32781">
        <ele>177.60000610352</ele>
        <time>2022-07-07T10:54:49Z</time>
      </trkpt>
      <trkpt lat="47.90144" lon="3.32781">
        <ele>177.60000610352</ele>
        <time>2022-07-07T10:55:22Z</time>
      </trkpt>
      <trkpt lat="47.90145" lon="3.3278">
        <ele>177.19999694824</ele>
        <time>2022-07-07T10:55:55Z</time>
      </trkpt>
      <trkpt lat="47.90147" lon="3.32781">
        <ele>177.19999694824</ele>
        <time>2022-07-07T10:56:27Z</time>
      </trkpt>
      <trkpt lat="47.90143" lon="3.32778">
        <ele>177.19999694824</ele>
        <time>2022-07-07T10:56:59Z</time>
      </trkpt>
      <trkpt lat="47.90142" lon="3.32779">
        <ele>177.19999694824</ele>
        <time>2022-07-07T10:57:28Z</time>
      </trkpt>
      <trkpt lat="47.90145" lon="3.32779">
        <ele>177.19999694824</ele>
        <time>2022-07-07T10:58:02Z</time>
      </trkpt>
      <trkpt lat="47.90144" lon="3.3278">
        <ele>177.19999694824</ele>
        <time>2022-07-07T10:58:30Z</time>
      </trkpt>
      <trkpt lat="47.90139" lon="3.32781">
        <ele>177.19999694824</ele>
        <time>2022-07-07T10:58:59Z</time>
      </trkpt>
      <trkpt lat="47.9014" lon="3.32779">
        <ele>177.19999694824</ele>
        <time>2022-07-07T10:59:28Z</time>
      </trkpt>
      <trkpt lat="47.90141" lon="3.32777">
        <ele>177.19999694824</ele>
        <time>2022-07-07T10:59:59Z</time>
      </trkpt>
      <trkpt lat="47.90143" lon="3.32777">
        <ele>177.19999694824</ele>
        <time>2022-07-07T11:00:31Z</time>
      </trkpt>
      <trkpt lat="47.90144" lon="3.32778">
        <ele>177.19999694824</ele>
        <time>2022-07-07T11:01:08Z</time>
      </trkpt>
      <trkpt lat="47.90143" lon="3.32778">
        <ele>177.19999694824</ele>
        <time>2022-07-07T11:01:41Z</time>
      </trkpt>
      <trkpt lat="47.90144" lon="3.32777">
        <ele>177.19999694824</ele>
        <time>2022-07-07T11:02:14Z</time>
      </trkpt>
      <trkpt lat="47.90147" lon="3.32778">
        <ele>177.19999694824</ele>
        <time>2022-07-07T11:02:47Z</time>
      </trkpt>
      <trkpt lat="47.90146" lon="3.32779">
        <ele>177.19999694824</ele>
        <time>2022-07-07T11:03:18Z</time>
      </trkpt>
      <trkpt lat="47.90147" lon="3.32778">
        <ele>177.19999694824</ele>
        <time>2022-07-07T11:03:52Z</time>
      </trkpt>
      <trkpt lat="47.90143" lon="3.3278">
        <ele>177.19999694824</ele>
        <time>2022-07-07T11:04:22Z</time>
      </trkpt>
      <trkpt lat="47.90146" lon="3.32778">
        <ele>177.19999694824</ele>
        <time>2022-07-07T11:04:54Z</time>
      </trkpt>
      <trkpt lat="47.90144" lon="3.32777">
        <ele>177.19999694824</ele>
        <time>2022-07-07T11:05:23Z</time>
      </trkpt>
      <trkpt lat="47.90148" lon="3.32777">
        <ele>177.19999694824</ele>
        <time>2022-07-07T11:05:56Z</time>
      </trkpt>
      <trkpt lat="47.90145" lon="3.32778">
        <ele>177.19999694824</ele>
        <time>2022-07-07T11:06:29Z</time>
      </trkpt>
      <trkpt lat="47.90146" lon="3.32779">
        <ele>177.19999694824</ele>
        <time>2022-07-07T11:07:04Z</time>
      </trkpt>
      <trkpt lat="47.90142" lon="3.32777">
        <ele>177.19999694824</ele>
        <time>2022-07-07T11:07:42Z</time>
      </trkpt>
      <trkpt lat="47.90139" lon="3.32775">
        <ele>177.19999694824</ele>
        <time>2022-07-07T11:08:15Z</time>
      </trkpt>
      <trkpt lat="47.90121" lon="3.32777">
        <ele>176.80000305176</ele>
        <time>2022-07-07T11:08:48Z</time>
      </trkpt>
      <trkpt lat="47.90124" lon="3.32774">
        <ele>177.39999389648</ele>
        <time>2022-07-07T11:09:18Z</time>
      </trkpt>
      <trkpt lat="47.90132" lon="3.32775">
        <ele>176.60000610352</ele>
        <time>2022-07-07T11:09:55Z</time>
      </trkpt>
      <trkpt lat="47.90136" lon="3.32776">
        <ele>176.60000610352</ele>
        <time>2022-07-07T11:10:17Z</time>
      </trkpt>
      <trkpt lat="47.90137" lon="3.32776">
        <ele>176.60000610352</ele>
        <time>2022-07-07T11:10:50Z</time>
      </trkpt>
      <trkpt lat="47.90139" lon="3.32776">
        <ele>176.60000610352</ele>
        <time>2022-07-07T11:11:20Z</time>
      </trkpt>
      <trkpt lat="47.90141" lon="3.32778">
        <ele>176.60000610352</ele>
        <time>2022-07-07T11:11:51Z</time>
      </trkpt>
      <trkpt lat="47.90142" lon="3.32777">
        <ele>176.60000610352</ele>
        <time>2022-07-07T11:12:24Z</time>
      </trkpt>
      <trkpt lat="47.90138" lon="3.32776">
        <ele>176.60000610352</ele>
        <time>2022-07-07T11:12:58Z</time>
      </trkpt>
      <trkpt lat="47.9014" lon="3.32776">
        <ele>176.60000610352</ele>
        <time>2022-07-07T11:13:30Z</time>
      </trkpt>
      <trkpt lat="47.90145" lon="3.32777">
        <ele>176.60000610352</ele>
        <time>2022-07-07T11:14:02Z</time>
      </trkpt>
      <trkpt lat="47.90139" lon="3.32777">
        <ele>176.60000610352</ele>
        <time>2022-07-07T11:14:32Z</time>
      </trkpt>
      <trkpt lat="47.90139" lon="3.32777">
        <ele>176.60000610352</ele>
        <time>2022-07-07T11:15:04Z</time>
      </trkpt>
      <trkpt lat="47.90139" lon="3.32777">
        <ele>176.60000610352</ele>
        <time>2022-07-07T11:15:39Z</time>
      </trkpt>
      <trkpt lat="47.90143" lon="3.32776">
        <ele>176.60000610352</ele>
        <time>2022-07-07T11:16:09Z</time>
      </trkpt>
      <trkpt lat="47.90145" lon="3.32776">
        <ele>176.60000610352</ele>
        <time>2022-07-07T11:16:42Z</time>
      </trkpt>
      <trkpt lat="47.90141" lon="3.32777">
        <ele>176.60000610352</ele>
        <time>2022-07-07T11:17:15Z</time>
      </trkpt>
      <trkpt lat="47.90136" lon="3.32779">
        <ele>176.60000610352</ele>
        <time>2022-07-07T11:17:46Z</time>
      </trkpt>
      <trkpt lat="47.90143" lon="3.32776">
        <ele>176</ele>
        <time>2022-07-07T11:18:17Z</time>
      </trkpt>
      <trkpt lat="47.9015" lon="3.32775">
        <ele>176</ele>
        <time>2022-07-07T11:18:48Z</time>
      </trkpt>
      <trkpt lat="47.90148" lon="3.32771">
        <ele>176</ele>
        <time>2022-07-07T11:19:18Z</time>
      </trkpt>
      <trkpt lat="47.90147" lon="3.32774">
        <ele>176</ele>
        <time>2022-07-07T11:19:53Z</time>
      </trkpt>
      <trkpt lat="47.90144" lon="3.32775">
        <ele>176</ele>
        <time>2022-07-07T11:20:22Z</time>
      </trkpt>
      <trkpt lat="47.90146" lon="3.32775">
        <ele>175.19999694824</ele>
        <time>2022-07-07T11:20:56Z</time>
      </trkpt>
      <trkpt lat="47.90146" lon="3.32775">
        <ele>175.39999389648</ele>
        <time>2022-07-07T11:21:28Z</time>
      </trkpt>
      <trkpt lat="47.90145" lon="3.32777">
        <ele>175.19999694824</ele>
        <time>2022-07-07T11:22:00Z</time>
      </trkpt>
      <trkpt lat="47.90146" lon="3.32777">
        <ele>175.19999694824</ele>
        <time>2022-07-07T11:22:30Z</time>
      </trkpt>
      <trkpt lat="47.90145" lon="3.32777">
        <ele>175.19999694824</ele>
        <time>2022-07-07T11:23:02Z</time>
      </trkpt>
      <trkpt lat="47.90142" lon="3.32776">
        <ele>175.19999694824</ele>
        <time>2022-07-07T11:23:32Z</time>
      </trkpt>
      <trkpt lat="47.90143" lon="3.32776">
        <ele>175.19999694824</ele>
        <time>2022-07-07T11:23:58Z</time>
      </trkpt>
      <trkpt lat="47.90142" lon="3.32774">
        <ele>175.19999694824</ele>
        <time>2022-07-07T11:24:28Z</time>
      </trkpt>
      <trkpt lat="47.90145" lon="3.32774">
        <ele>175.19999694824</ele>
        <time>2022-07-07T11:24:59Z</time>
      </trkpt>
      <trkpt lat="47.90147" lon="3.32774">
        <ele>175.19999694824</ele>
        <time>2022-07-07T11:25:31Z</time>
      </trkpt>
      <trkpt lat="47.90148" lon="3.32777">
        <ele>175.19999694824</ele>
        <time>2022-07-07T11:26:07Z</time>
      </trkpt>
      <trkpt lat="47.90148" lon="3.32778">
        <ele>175.19999694824</ele>
        <time>2022-07-07T11:26:41Z</time>
      </trkpt>
      <trkpt lat="47.90148" lon="3.32777">
        <ele>175.19999694824</ele>
        <time>2022-07-07T11:27:09Z</time>
      </trkpt>
      <trkpt lat="47.90149" lon="3.32779">
        <ele>175.19999694824</ele>
        <time>2022-07-07T11:27:37Z</time>
      </trkpt>
      <trkpt lat="47.90149" lon="3.32779">
        <ele>175.19999694824</ele>
        <time>2022-07-07T11:28:09Z</time>
      </trkpt>
      <trkpt lat="47.9015" lon="3.3278">
        <ele>175.19999694824</ele>
        <time>2022-07-07T11:28:44Z</time>
      </trkpt>
      <trkpt lat="47.90149" lon="3.32778">
        <ele>175.19999694824</ele>
        <time>2022-07-07T11:29:19Z</time>
      </trkpt>
      <trkpt lat="47.9015" lon="3.32777">
        <ele>175.19999694824</ele>
        <time>2022-07-07T11:29:51Z</time>
      </trkpt>
      <trkpt lat="47.90148" lon="3.32775">
        <ele>175.19999694824</ele>
        <time>2022-07-07T11:30:20Z</time>
      </trkpt>
      <trkpt lat="47.9015" lon="3.32775">
        <ele>175.19999694824</ele>
        <time>2022-07-07T11:30:45Z</time>
      </trkpt>
      <trkpt lat="47.90161" lon="3.32785">
        <ele>175.19999694824</ele>
        <time>2022-07-07T11:31:03Z</time>
      </trkpt>
      <trkpt lat="47.9017" lon="3.32794">
        <ele>171.60000610352</ele>
        <time>2022-07-07T11:31:29Z</time>
      </trkpt>
      <trkpt lat="47.9017" lon="3.32795">
        <ele>172</ele>
        <time>2022-07-07T11:31:30Z</time>
      </trkpt>
      <trkpt lat="47.90164" lon="3.32802">
        <ele>173</ele>
        <time>2022-07-07T11:31:42Z</time>
      </trkpt>
      <trkpt lat="47.90155" lon="3.32818">
        <ele>174.19999694824</ele>
        <time>2022-07-07T11:31:59Z</time>
      </trkpt>
      <trkpt lat="47.90153" lon="3.32821">
        <ele>174.60000610352</ele>
        <time>2022-07-07T11:32:02Z</time>
      </trkpt>
      <trkpt lat="47.90145" lon="3.32841">
        <ele>176.19999694824</ele>
        <time>2022-07-07T11:32:22Z</time>
      </trkpt>
      <trkpt lat="47.90142" lon="3.32849">
        <ele>177</ele>
        <time>2022-07-07T11:32:29Z</time>
      </trkpt>
      <trkpt lat="47.90134" lon="3.32852">
        <ele>178.19999694824</ele>
        <time>2022-07-07T11:32:41Z</time>
      </trkpt>
      <trkpt lat="47.90124" lon="3.32854">
        <ele>180.19999694824</ele>
        <time>2022-07-07T11:32:59Z</time>
      </trkpt>
      <trkpt lat="47.90118" lon="3.32849">
        <ele>182.39999389648</ele>
        <time>2022-07-07T11:33:16Z</time>
      </trkpt>
      <trkpt lat="47.90117" lon="3.32849">
        <ele>182.60000610352</ele>
        <time>2022-07-07T11:33:17Z</time>
      </trkpt>
      <trkpt lat="47.90104" lon="3.32837">
        <ele>184.60000610352</ele>
        <time>2022-07-07T11:33:33Z</time>
      </trkpt>
      <trkpt lat="47.90098" lon="3.3283">
        <ele>186.19999694824</ele>
        <time>2022-07-07T11:33:45Z</time>
      </trkpt>
      <trkpt lat="47.9009" lon="3.32821">
        <ele>188</ele>
        <time>2022-07-07T11:33:59Z</time>
      </trkpt>
      <trkpt lat="47.90065" lon="3.32812">
        <ele>191</ele>
        <time>2022-07-07T11:34:26Z</time>
      </trkpt>
      <trkpt lat="47.90055" lon="3.32813">
        <ele>191.80000305176</ele>
        <time>2022-07-07T11:34:35Z</time>
      </trkpt>
      <trkpt lat="47.90038" lon="3.32808">
        <ele>193</ele>
        <time>2022-07-07T11:34:58Z</time>
      </trkpt>
      <trkpt lat="47.90035" lon="3.3279">
        <ele>194.80000305176</ele>
        <time>2022-07-07T11:35:19Z</time>
      </trkpt>
      <trkpt lat="47.90035" lon="3.32782">
        <ele>195.19999694824</ele>
        <time>2022-07-07T11:35:25Z</time>
      </trkpt>
      <trkpt lat="47.90036" lon="3.32775">
        <ele>195.39999389648</ele>
        <time>2022-07-07T11:35:30Z</time>
      </trkpt>
      <trkpt lat="47.90034" lon="3.32744">
        <ele>197.60000610352</ele>
        <time>2022-07-07T11:35:54Z</time>
      </trkpt>
      <trkpt lat="47.90034" lon="3.3274">
        <ele>197.60000610352</ele>
        <time>2022-07-07T11:35:57Z</time>
      </trkpt>
      <trkpt lat="47.90035" lon="3.3272">
        <ele>198.80000305176</ele>
        <time>2022-07-07T11:36:12Z</time>
      </trkpt>
      <trkpt lat="47.90033" lon="3.32709">
        <ele>199.60000610352</ele>
        <time>2022-07-07T11:36:20Z</time>
      </trkpt>
      <trkpt lat="47.90034" lon="3.32698">
        <ele>200.39999389648</ele>
        <time>2022-07-07T11:36:31Z</time>
      </trkpt>
      <trkpt lat="47.90031" lon="3.32671">
        <ele>202.19999694824</ele>
        <time>2022-07-07T11:36:52Z</time>
      </trkpt>
      <trkpt lat="47.90027" lon="3.3264">
        <ele>204</ele>
        <time>2022-07-07T11:37:18Z</time>
      </trkpt>
      <trkpt lat="47.90012" lon="3.32615">
        <ele>205.39999389648</ele>
        <time>2022-07-07T11:37:33Z</time>
      </trkpt>
      <trkpt lat="47.90007" lon="3.32596">
        <ele>206.60000610352</ele>
        <time>2022-07-07T11:37:52Z</time>
      </trkpt>
      <trkpt lat="47.90003" lon="3.32573">
        <ele>208</ele>
        <time>2022-07-07T11:38:12Z</time>
      </trkpt>
      <trkpt lat="47.89996" lon="3.32558">
        <ele>209.60000610352</ele>
        <time>2022-07-07T11:38:28Z</time>
      </trkpt>
      <trkpt lat="47.89972" lon="3.32548">
        <ele>211.39999389648</ele>
        <time>2022-07-07T11:38:55Z</time>
      </trkpt>
      <trkpt lat="47.89963" lon="3.32542">
        <ele>211.60000610352</ele>
        <time>2022-07-07T11:39:08Z</time>
      </trkpt>
      <trkpt lat="47.89955" lon="3.32537">
        <ele>213</ele>
        <time>2022-07-07T11:39:25Z</time>
      </trkpt>
      <trkpt lat="47.89954" lon="3.32535">
        <ele>213.39999389648</ele>
        <time>2022-07-07T11:39:27Z</time>
      </trkpt>
      <trkpt lat="47.8995" lon="3.32503">
        <ele>216.19999694824</ele>
        <time>2022-07-07T11:40:00Z</time>
      </trkpt>
      <trkpt lat="47.89947" lon="3.32491">
        <ele>217</ele>
        <time>2022-07-07T11:40:10Z</time>
      </trkpt>
      <trkpt lat="47.89939" lon="3.32462">
        <ele>220.19999694824</ele>
        <time>2022-07-07T11:40:45Z</time>
      </trkpt>
      <trkpt lat="47.89912" lon="3.32448">
        <ele>221.80000305176</ele>
        <time>2022-07-07T11:41:12Z</time>
      </trkpt>
      <trkpt lat="47.89873" lon="3.32419">
        <ele>225</ele>
        <time>2022-07-07T11:42:04Z</time>
      </trkpt>
      <trkpt lat="47.89868" lon="3.32409">
        <ele>225.80000305176</ele>
        <time>2022-07-07T11:42:14Z</time>
      </trkpt>
      <trkpt lat="47.89869" lon="3.32403">
        <ele>226.19999694824</ele>
        <time>2022-07-07T11:42:17Z</time>
      </trkpt>
      <trkpt lat="47.8986" lon="3.32356">
        <ele>229.19999694824</ele>
        <time>2022-07-07T11:43:01Z</time>
      </trkpt>
      <trkpt lat="47.89848" lon="3.32332">
        <ele>230.39999389648</ele>
        <time>2022-07-07T11:44:04Z</time>
      </trkpt>
      <trkpt lat="47.89849" lon="3.32319">
        <ele>231.19999694824</ele>
        <time>2022-07-07T11:44:36Z</time>
      </trkpt>
      <trkpt lat="47.89846" lon="3.32316">
        <ele>231.19999694824</ele>
        <time>2022-07-07T11:44:39Z</time>
      </trkpt>
      <trkpt lat="47.89842" lon="3.32305">
        <ele>231.80000305176</ele>
        <time>2022-07-07T11:44:52Z</time>
      </trkpt>
      <trkpt lat="47.89828" lon="3.32279">
        <ele>234</ele>
        <time>2022-07-07T11:45:13Z</time>
      </trkpt>
      <trkpt lat="47.89819" lon="3.32265">
        <ele>231.60000610352</ele>
        <time>2022-07-07T11:45:32Z</time>
      </trkpt>
      <trkpt lat="47.89819" lon="3.32256">
        <ele>234.80000305176</ele>
        <time>2022-07-07T11:45:47Z</time>
      </trkpt>
      <trkpt lat="47.89807" lon="3.32235">
        <ele>235.19999694824</ele>
        <time>2022-07-07T11:46:00Z</time>
      </trkpt>
      <trkpt lat="47.89831" lon="3.32178">
        <ele>238.19999694824</ele>
        <time>2022-07-07T11:47:08Z</time>
      </trkpt>
      <trkpt lat="47.89831" lon="3.32175">
        <ele>238.60000610352</ele>
        <time>2022-07-07T11:47:10Z</time>
      </trkpt>
      <trkpt lat="47.89829" lon="3.32167">
        <ele>238.39999389648</ele>
        <time>2022-07-07T11:47:21Z</time>
      </trkpt>
      <trkpt lat="47.89811" lon="3.32069">
        <ele>239.19999694824</ele>
        <time>2022-07-07T11:48:32Z</time>
      </trkpt>
      <trkpt lat="47.89728" lon="3.31981">
        <ele>238.19999694824</ele>
        <time>2022-07-07T11:49:19Z</time>
      </trkpt>
      <trkpt lat="47.8978" lon="3.31821">
        <ele>235.19999694824</ele>
        <time>2022-07-07T11:51:34Z</time>
      </trkpt>
      <trkpt lat="47.89763" lon="3.31795">
        <ele>237</ele>
        <time>2022-07-07T11:51:42Z</time>
      </trkpt>
      <trkpt lat="47.89763" lon="3.31791">
        <ele>237.39999389648</ele>
        <time>2022-07-07T11:51:45Z</time>
      </trkpt>
      <trkpt lat="47.89759" lon="3.31775">
        <ele>235.60000610352</ele>
        <time>2022-07-07T11:51:53Z</time>
      </trkpt>
      <trkpt lat="47.89634" lon="3.31442">
        <ele>232.39999389648</ele>
        <time>2022-07-07T11:55:19Z</time>
      </trkpt>
      <trkpt lat="47.89637" lon="3.31439">
        <ele>231.80000305176</ele>
        <time>2022-07-07T11:55:24Z</time>
      </trkpt>
      <trkpt lat="47.89633" lon="3.31416">
        <ele>233</ele>
        <time>2022-07-07T11:55:51Z</time>
      </trkpt>
      <trkpt lat="47.89627" lon="3.3141">
        <ele>227.80000305176</ele>
        <time>2022-07-07T11:56:07Z</time>
      </trkpt>
      <trkpt lat="47.89627" lon="3.3141">
        <ele>221.80000305176</ele>
        <time>2022-07-07T11:56:08Z</time>
      </trkpt>
      <trkpt lat="47.89627" lon="3.3141">
        <ele>217.60000610352</ele>
        <time>2022-07-07T11:56:09Z</time>
      </trkpt>
      <trkpt lat="47.89628" lon="3.31411">
        <ele>214.39999389648</ele>
        <time>2022-07-07T11:56:11Z</time>
      </trkpt>
      <trkpt lat="47.89627" lon="3.31412">
        <ele>219.19999694824</ele>
        <time>2022-07-07T11:56:12Z</time>
      </trkpt>
      <trkpt lat="47.89627" lon="3.31412">
        <ele>229.80000305176</ele>
        <time>2022-07-07T11:56:13Z</time>
      </trkpt>
      <trkpt lat="47.89627" lon="3.31413">
        <ele>238</ele>
        <time>2022-07-07T11:56:14Z</time>
      </trkpt>
      <trkpt lat="47.89627" lon="3.31414">
        <ele>242.19999694824</ele>
        <time>2022-07-07T11:56:15Z</time>
      </trkpt>
      <trkpt lat="47.89626" lon="3.31415">
        <ele>243.39999389648</ele>
        <time>2022-07-07T11:56:17Z</time>
      </trkpt>
      <trkpt lat="47.89626" lon="3.31415">
        <ele>238.60000610352</ele>
        <time>2022-07-07T11:56:19Z</time>
      </trkpt>
      <trkpt lat="47.89625" lon="3.31416">
        <ele>235.19999694824</ele>
        <time>2022-07-07T11:56:21Z</time>
      </trkpt>
      <trkpt lat="47.89622" lon="3.31416">
        <ele>232.60000610352</ele>
        <time>2022-07-07T11:56:25Z</time>
      </trkpt>
      <trkpt lat="47.89622" lon="3.31416">
        <ele>232.39999389648</ele>
        <time>2022-07-07T11:56:27Z</time>
      </trkpt>
      <trkpt lat="47.89619" lon="3.3141">
        <ele>232</ele>
        <time>2022-07-07T11:56:43Z</time>
      </trkpt>
      <trkpt lat="47.89615" lon="3.31398">
        <ele>228.80000305176</ele>
        <time>2022-07-07T11:56:53Z</time>
      </trkpt>
      <trkpt lat="47.89615" lon="3.31397">
        <ele>228.60000610352</ele>
        <time>2022-07-07T11:56:54Z</time>
      </trkpt>
      <trkpt lat="47.89615" lon="3.31395">
        <ele>230.60000610352</ele>
        <time>2022-07-07T11:56:56Z</time>
      </trkpt>
      <trkpt lat="47.89613" lon="3.31392">
        <ele>231.80000305176</ele>
        <time>2022-07-07T11:56:59Z</time>
      </trkpt>
      <trkpt lat="47.89613" lon="3.31356">
        <ele>231.19999694824</ele>
        <time>2022-07-07T11:57:24Z</time>
      </trkpt>
      <trkpt lat="47.89606" lon="3.31328">
        <ele>230.80000305176</ele>
        <time>2022-07-07T11:57:47Z</time>
      </trkpt>
      <trkpt lat="47.89599" lon="3.31297">
        <ele>230.39999389648</ele>
        <time>2022-07-07T11:58:08Z</time>
      </trkpt>
      <trkpt lat="47.89599" lon="3.31293">
        <ele>230.19999694824</ele>
        <time>2022-07-07T11:58:11Z</time>
      </trkpt>
      <trkpt lat="47.89599" lon="3.31289">
        <ele>229.80000305176</ele>
        <time>2022-07-07T11:58:14Z</time>
      </trkpt>
      <trkpt lat="47.89601" lon="3.3128">
        <ele>229.80000305176</ele>
        <time>2022-07-07T11:58:20Z</time>
      </trkpt>
      <trkpt lat="47.89595" lon="3.31264">
        <ele>229.60000610352</ele>
        <time>2022-07-07T11:58:30Z</time>
      </trkpt>
      <trkpt lat="47.89597" lon="3.31259">
        <ele>229.60000610352</ele>
        <time>2022-07-07T11:58:33Z</time>
      </trkpt>
      <trkpt lat="47.89597" lon="3.31227">
        <ele>229.19999694824</ele>
        <time>2022-07-07T11:58:49Z</time>
      </trkpt>
      <trkpt lat="47.89597" lon="3.31214">
        <ele>229</ele>
        <time>2022-07-07T11:58:57Z</time>
      </trkpt>
      <trkpt lat="47.89593" lon="3.31182">
        <ele>227.60000610352</ele>
        <time>2022-07-07T11:59:18Z</time>
      </trkpt>
      <trkpt lat="47.89592" lon="3.3115">
        <ele>227</ele>
        <time>2022-07-07T11:59:38Z</time>
      </trkpt>
      <trkpt lat="47.89585" lon="3.31095">
        <ele>225.80000305176</ele>
        <time>2022-07-07T12:00:11Z</time>
      </trkpt>
      <trkpt lat="47.89585" lon="3.31089">
        <ele>225.39999389648</ele>
        <time>2022-07-07T12:00:15Z</time>
      </trkpt>
      <trkpt lat="47.89582" lon="3.3106">
        <ele>224</ele>
        <time>2022-07-07T12:00:31Z</time>
      </trkpt>
      <trkpt lat="47.89579" lon="3.31039">
        <ele>223.60000610352</ele>
        <time>2022-07-07T12:00:42Z</time>
      </trkpt>
      <trkpt lat="47.89567" lon="3.31024">
        <ele>223</ele>
        <time>2022-07-07T12:00:58Z</time>
      </trkpt>
      <trkpt lat="47.89557" lon="3.31009">
        <ele>223.19999694824</ele>
        <time>2022-07-07T12:01:07Z</time>
      </trkpt>
      <trkpt lat="47.89554" lon="3.30989">
        <ele>226.39999389648</ele>
        <time>2022-07-07T12:01:41Z</time>
      </trkpt>
      <trkpt lat="47.8954" lon="3.30978">
        <ele>228.60000610352</ele>
        <time>2022-07-07T12:02:07Z</time>
      </trkpt>
      <trkpt lat="47.8951" lon="3.3096">
        <ele>231.19999694824</ele>
        <time>2022-07-07T12:02:42Z</time>
      </trkpt>
      <trkpt lat="47.89494" lon="3.30955">
        <ele>232.39999389648</ele>
        <time>2022-07-07T12:02:58Z</time>
      </trkpt>
      <trkpt lat="47.89488" lon="3.30953">
        <ele>233</ele>
        <time>2022-07-07T12:03:05Z</time>
      </trkpt>
      <trkpt lat="47.8946" lon="3.30918">
        <ele>236.19999694824</ele>
        <time>2022-07-07T12:03:46Z</time>
      </trkpt>
      <trkpt lat="47.89456" lon="3.30903">
        <ele>237.19999694824</ele>
        <time>2022-07-07T12:04:00Z</time>
      </trkpt>
      <trkpt lat="47.89454" lon="3.30895">
        <ele>238</ele>
        <time>2022-07-07T12:04:07Z</time>
      </trkpt>
      <trkpt lat="47.89454" lon="3.3089">
        <ele>238.39999389648</ele>
        <time>2022-07-07T12:04:11Z</time>
      </trkpt>
      <trkpt lat="47.89452" lon="3.30878">
        <ele>239.39999389648</ele>
        <time>2022-07-07T12:04:19Z</time>
      </trkpt>
      <trkpt lat="47.89451" lon="3.30867">
        <ele>240</ele>
        <time>2022-07-07T12:04:26Z</time>
      </trkpt>
      <trkpt lat="47.89452" lon="3.30855">
        <ele>241</ele>
        <time>2022-07-07T12:04:36Z</time>
      </trkpt>
      <trkpt lat="47.8945" lon="3.3084">
        <ele>242</ele>
        <time>2022-07-07T12:04:48Z</time>
      </trkpt>
      <trkpt lat="47.89451" lon="3.30838">
        <ele>242.19999694824</ele>
        <time>2022-07-07T12:04:50Z</time>
      </trkpt>
      <trkpt lat="47.89458" lon="3.30818">
        <ele>243.60000610352</ele>
        <time>2022-07-07T12:05:03Z</time>
      </trkpt>
      <trkpt lat="47.89459" lon="3.30801">
        <ele>244.39999389648</ele>
        <time>2022-07-07T12:05:13Z</time>
      </trkpt>
      <trkpt lat="47.89461" lon="3.30797">
        <ele>244.60000610352</ele>
        <time>2022-07-07T12:05:16Z</time>
      </trkpt>
      <trkpt lat="47.89461" lon="3.3079">
        <ele>244.80000305176</ele>
        <time>2022-07-07T12:05:21Z</time>
      </trkpt>
      <trkpt lat="47.89461" lon="3.30784">
        <ele>245</ele>
        <time>2022-07-07T12:05:25Z</time>
      </trkpt>
      <trkpt lat="47.89462" lon="3.30777">
        <ele>245.19999694824</ele>
        <time>2022-07-07T12:05:29Z</time>
      </trkpt>
      <trkpt lat="47.89463" lon="3.30774">
        <ele>245.19999694824</ele>
        <time>2022-07-07T12:05:31Z</time>
      </trkpt>
      <trkpt lat="47.89461" lon="3.30762">
        <ele>245.80000305176</ele>
        <time>2022-07-07T12:05:38Z</time>
      </trkpt>
      <trkpt lat="47.8946" lon="3.30745">
        <ele>246.39999389648</ele>
        <time>2022-07-07T12:05:47Z</time>
      </trkpt>
      <trkpt lat="47.89461" lon="3.30703">
        <ele>247.60000610352</ele>
        <time>2022-07-07T12:06:14Z</time>
      </trkpt>
      <trkpt lat="47.89462" lon="3.30677">
        <ele>248.60000610352</ele>
        <time>2022-07-07T12:06:31Z</time>
      </trkpt>
      <trkpt lat="47.89463" lon="3.3067">
        <ele>248.80000305176</ele>
        <time>2022-07-07T12:06:36Z</time>
      </trkpt>
      <trkpt lat="47.8946" lon="3.30651">
        <ele>249.39999389648</ele>
        <time>2022-07-07T12:06:48Z</time>
      </trkpt>
      <trkpt lat="47.89463" lon="3.30633">
        <ele>249.80000305176</ele>
        <time>2022-07-07T12:07:02Z</time>
      </trkpt>
      <trkpt lat="47.89465" lon="3.30594">
        <ele>250.39999389648</ele>
        <time>2022-07-07T12:07:25Z</time>
      </trkpt>
      <trkpt lat="47.89466" lon="3.30585">
        <ele>250.60000610352</ele>
        <time>2022-07-07T12:07:31Z</time>
      </trkpt>
      <trkpt lat="47.89462" lon="3.30563">
        <ele>251</ele>
        <time>2022-07-07T12:07:45Z</time>
      </trkpt>
      <trkpt lat="47.89463" lon="3.30549">
        <ele>251.19999694824</ele>
        <time>2022-07-07T12:07:56Z</time>
      </trkpt>
      <trkpt lat="47.8947" lon="3.30535">
        <ele>251.39999389648</ele>
        <time>2022-07-07T12:08:09Z</time>
      </trkpt>
      <trkpt lat="47.89469" lon="3.30526">
        <ele>251.39999389648</ele>
        <time>2022-07-07T12:08:18Z</time>
      </trkpt>
      <trkpt lat="47.89471" lon="3.30517">
        <ele>251.60000610352</ele>
        <time>2022-07-07T12:08:23Z</time>
      </trkpt>
      <trkpt lat="47.89465" lon="3.30502">
        <ele>251.80000305176</ele>
        <time>2022-07-07T12:08:31Z</time>
      </trkpt>
      <trkpt lat="47.89445" lon="3.30447">
        <ele>251.80000305176</ele>
        <time>2022-07-07T12:08:59Z</time>
      </trkpt>
      <trkpt lat="47.89432" lon="3.30406">
        <ele>252</ele>
        <time>2022-07-07T12:09:20Z</time>
      </trkpt>
      <trkpt lat="47.89432" lon="3.30404">
        <ele>252</ele>
        <time>2022-07-07T12:09:21Z</time>
      </trkpt>
      <trkpt lat="47.89432" lon="3.30399">
        <ele>252.19999694824</ele>
        <time>2022-07-07T12:09:24Z</time>
      </trkpt>
      <trkpt lat="47.8943" lon="3.30392">
        <ele>252.39999389648</ele>
        <time>2022-07-07T12:09:33Z</time>
      </trkpt>
      <trkpt lat="47.89407" lon="3.30356">
        <ele>252</ele>
        <time>2022-07-07T12:09:52Z</time>
      </trkpt>
      <trkpt lat="47.89399" lon="3.30342">
        <ele>252.19999694824</ele>
        <time>2022-07-07T12:10:02Z</time>
      </trkpt>
      <trkpt lat="47.89399" lon="3.3034">
        <ele>252.19999694824</ele>
        <time>2022-07-07T12:10:03Z</time>
      </trkpt>
      <trkpt lat="47.89398" lon="3.30339">
        <ele>252.19999694824</ele>
        <time>2022-07-07T12:10:04Z</time>
      </trkpt>
      <trkpt lat="47.89397" lon="3.30329">
        <ele>252.19999694824</ele>
        <time>2022-07-07T12:10:14Z</time>
      </trkpt>
      <trkpt lat="47.89396" lon="3.30326">
        <ele>252.19999694824</ele>
        <time>2022-07-07T12:10:16Z</time>
      </trkpt>
      <trkpt lat="47.89383" lon="3.30278">
        <ele>252.39999389648</ele>
        <time>2022-07-07T12:10:47Z</time>
      </trkpt>
      <trkpt lat="47.89381" lon="3.30273">
        <ele>252.60000610352</ele>
        <time>2022-07-07T12:10:50Z</time>
      </trkpt>
      <trkpt lat="47.89381" lon="3.30271">
        <ele>252.60000610352</ele>
        <time>2022-07-07T12:10:51Z</time>
      </trkpt>
      <trkpt lat="47.89373" lon="3.30255">
        <ele>252.39999389648</ele>
        <time>2022-07-07T12:11:01Z</time>
      </trkpt>
      <trkpt lat="47.89372" lon="3.30248">
        <ele>252.60000610352</ele>
        <time>2022-07-07T12:11:06Z</time>
      </trkpt>
      <trkpt lat="47.89368" lon="3.30236">
        <ele>252.80000305176</ele>
        <time>2022-07-07T12:11:14Z</time>
      </trkpt>
      <trkpt lat="47.89367" lon="3.30234">
        <ele>252.80000305176</ele>
        <time>2022-07-07T12:11:15Z</time>
      </trkpt>
      <trkpt lat="47.89367" lon="3.30233">
        <ele>252.80000305176</ele>
        <time>2022-07-07T12:11:16Z</time>
      </trkpt>
      <trkpt lat="47.89367" lon="3.30228">
        <ele>252.60000610352</ele>
        <time>2022-07-07T12:11:19Z</time>
      </trkpt>
      <trkpt lat="47.89365" lon="3.30222">
        <ele>252.60000610352</ele>
        <time>2022-07-07T12:11:23Z</time>
      </trkpt>
      <trkpt lat="47.89365" lon="3.3022">
        <ele>252.60000610352</ele>
        <time>2022-07-07T12:11:24Z</time>
      </trkpt>
      <trkpt lat="47.89362" lon="3.30206">
        <ele>252.80000305176</ele>
        <time>2022-07-07T12:11:32Z</time>
      </trkpt>
      <trkpt lat="47.89356" lon="3.30179">
        <ele>253</ele>
        <time>2022-07-07T12:11:49Z</time>
      </trkpt>
      <trkpt lat="47.89353" lon="3.30162">
        <ele>253</ele>
        <time>2022-07-07T12:11:59Z</time>
      </trkpt>
      <trkpt lat="47.89351" lon="3.30151">
        <ele>253</ele>
        <time>2022-07-07T12:12:06Z</time>
      </trkpt>
      <trkpt lat="47.8935" lon="3.30149">
        <ele>253</ele>
        <time>2022-07-07T12:12:07Z</time>
      </trkpt>
      <trkpt lat="47.89349" lon="3.30139">
        <ele>253</ele>
        <time>2022-07-07T12:12:15Z</time>
      </trkpt>
      <trkpt lat="47.89349" lon="3.30134">
        <ele>253</ele>
        <time>2022-07-07T12:12:18Z</time>
      </trkpt>
      <trkpt lat="47.89349" lon="3.30127">
        <ele>253.19999694824</ele>
        <time>2022-07-07T12:12:22Z</time>
      </trkpt>
      <trkpt lat="47.89349" lon="3.30124">
        <ele>253.19999694824</ele>
        <time>2022-07-07T12:12:24Z</time>
      </trkpt>
      <trkpt lat="47.89345" lon="3.30106">
        <ele>253.39999389648</ele>
        <time>2022-07-07T12:12:35Z</time>
      </trkpt>
      <trkpt lat="47.89344" lon="3.30097">
        <ele>253.39999389648</ele>
        <time>2022-07-07T12:12:40Z</time>
      </trkpt>
      <trkpt lat="47.89346" lon="3.30089">
        <ele>253.39999389648</ele>
        <time>2022-07-07T12:12:45Z</time>
      </trkpt>
      <trkpt lat="47.89344" lon="3.30068">
        <ele>253</ele>
        <time>2022-07-07T12:12:57Z</time>
      </trkpt>
      <trkpt lat="47.89344" lon="3.3006">
        <ele>256.20001220703</ele>
        <time>2022-07-07T12:13:04Z</time>
      </trkpt>
      <trkpt lat="47.89343" lon="3.30055">
        <ele>254</ele>
        <time>2022-07-07T12:13:32Z</time>
      </trkpt>
      <trkpt lat="47.89344" lon="3.30052">
        <ele>251.60000610352</ele>
        <time>2022-07-07T12:13:54Z</time>
      </trkpt>
      <trkpt lat="47.89342" lon="3.30051">
        <ele>252.39999389648</ele>
        <time>2022-07-07T12:13:56Z</time>
      </trkpt>
      <trkpt lat="47.89331" lon="3.30041">
        <ele>254.19999694824</ele>
        <time>2022-07-07T12:14:20Z</time>
      </trkpt>
      <trkpt lat="47.89342" lon="3.30045">
        <ele>254.80000305176</ele>
        <time>2022-07-07T12:15:11Z</time>
      </trkpt>
      <trkpt lat="47.89334" lon="3.3004">
        <ele>253.39999389648</ele>
        <time>2022-07-07T12:15:41Z</time>
      </trkpt>
      <trkpt lat="47.8933" lon="3.30041">
        <ele>253.19999694824</ele>
        <time>2022-07-07T12:15:45Z</time>
      </trkpt>
      <trkpt lat="47.89327" lon="3.30042">
        <ele>253.19999694824</ele>
        <time>2022-07-07T12:15:48Z</time>
      </trkpt>
      <trkpt lat="47.89324" lon="3.30042">
        <ele>253.39999389648</ele>
        <time>2022-07-07T12:15:50Z</time>
      </trkpt>
      <trkpt lat="47.89316" lon="3.30041">
        <ele>253.39999389648</ele>
        <time>2022-07-07T12:15:57Z</time>
      </trkpt>
      <trkpt lat="47.89315" lon="3.30041">
        <ele>253.39999389648</ele>
        <time>2022-07-07T12:15:58Z</time>
      </trkpt>
      <trkpt lat="47.89304" lon="3.30037">
        <ele>253.80000305176</ele>
        <time>2022-07-07T12:16:07Z</time>
      </trkpt>
      <trkpt lat="47.89301" lon="3.30036">
        <ele>253.60000610352</ele>
        <time>2022-07-07T12:16:09Z</time>
      </trkpt>
      <trkpt lat="47.89295" lon="3.30033">
        <ele>253.60000610352</ele>
        <time>2022-07-07T12:16:13Z</time>
      </trkpt>
      <trkpt lat="47.89282" lon="3.30033">
        <ele>253.80000305176</ele>
        <time>2022-07-07T12:16:22Z</time>
      </trkpt>
      <trkpt lat="47.8927" lon="3.30032">
        <ele>254</ele>
        <time>2022-07-07T12:16:36Z</time>
      </trkpt>
      <trkpt lat="47.89255" lon="3.30026">
        <ele>254.60000610352</ele>
        <time>2022-07-07T12:16:49Z</time>
      </trkpt>
      <trkpt lat="47.89254" lon="3.30026">
        <ele>254.60000610352</ele>
        <time>2022-07-07T12:16:50Z</time>
      </trkpt>
      <trkpt lat="47.89253" lon="3.30026">
        <ele>254.60000610352</ele>
        <time>2022-07-07T12:16:51Z</time>
      </trkpt>
      <trkpt lat="47.8925" lon="3.30027">
        <ele>254</ele>
        <time>2022-07-07T12:16:53Z</time>
      </trkpt>
      <trkpt lat="47.89244" lon="3.30027">
        <ele>254</ele>
        <time>2022-07-07T12:16:58Z</time>
      </trkpt>
      <trkpt lat="47.89243" lon="3.30026">
        <ele>254.19999694824</ele>
        <time>2022-07-07T12:16:59Z</time>
      </trkpt>
      <trkpt lat="47.89241" lon="3.30027">
        <ele>254.39999389648</ele>
        <time>2022-07-07T12:17:01Z</time>
      </trkpt>
      <trkpt lat="47.8923" lon="3.30023">
        <ele>254.80000305176</ele>
        <time>2022-07-07T12:17:11Z</time>
      </trkpt>
      <trkpt lat="47.89219" lon="3.30019">
        <ele>254.80000305176</ele>
        <time>2022-07-07T12:17:21Z</time>
      </trkpt>
      <trkpt lat="47.89195" lon="3.30012">
        <ele>254.39999389648</ele>
        <time>2022-07-07T12:17:43Z</time>
      </trkpt>
      <trkpt lat="47.89187" lon="3.30012">
        <ele>254.39999389648</ele>
        <time>2022-07-07T12:17:49Z</time>
      </trkpt>
      <trkpt lat="47.89186" lon="3.30011">
        <ele>254.19999694824</ele>
        <time>2022-07-07T12:17:50Z</time>
      </trkpt>
      <trkpt lat="47.89184" lon="3.30011">
        <ele>254.19999694824</ele>
        <time>2022-07-07T12:17:52Z</time>
      </trkpt>
      <trkpt lat="47.89164" lon="3.30005">
        <ele>253.80000305176</ele>
        <time>2022-07-07T12:18:07Z</time>
      </trkpt>
      <trkpt lat="47.89152" lon="3.30003">
        <ele>253.39999389648</ele>
        <time>2022-07-07T12:18:18Z</time>
      </trkpt>
      <trkpt lat="47.89131" lon="3.29998">
        <ele>253</ele>
        <time>2022-07-07T12:18:37Z</time>
      </trkpt>
      <trkpt lat="47.89108" lon="3.29995">
        <ele>250.80000305176</ele>
        <time>2022-07-07T12:19:03Z</time>
      </trkpt>
      <trkpt lat="47.89105" lon="3.29994">
        <ele>251.80000305176</ele>
        <time>2022-07-07T12:19:06Z</time>
      </trkpt>
      <trkpt lat="47.89097" lon="3.29976">
        <ele>251.39999389648</ele>
        <time>2022-07-07T12:19:19Z</time>
      </trkpt>
      <trkpt lat="47.89098" lon="3.29954">
        <ele>250.39999389648</ele>
        <time>2022-07-07T12:19:32Z</time>
      </trkpt>
      <trkpt lat="47.89099" lon="3.29935">
        <ele>251</ele>
        <time>2022-07-07T12:19:43Z</time>
      </trkpt>
      <trkpt lat="47.89096" lon="3.29919">
        <ele>251</ele>
        <time>2022-07-07T12:19:50Z</time>
      </trkpt>
      <trkpt lat="47.89095" lon="3.29913">
        <ele>251.39999389648</ele>
        <time>2022-07-07T12:19:52Z</time>
      </trkpt>
      <trkpt lat="47.89093" lon="3.29909">
        <ele>251.39999389648</ele>
        <time>2022-07-07T12:19:54Z</time>
      </trkpt>
      <trkpt lat="47.8909" lon="3.299">
        <ele>251.39999389648</ele>
        <time>2022-07-07T12:19:57Z</time>
      </trkpt>
      <trkpt lat="47.89089" lon="3.29899">
        <ele>251.39999389648</ele>
        <time>2022-07-07T12:19:58Z</time>
      </trkpt>
      <trkpt lat="47.89078" lon="3.29893">
        <ele>250.80000305176</ele>
        <time>2022-07-07T12:20:05Z</time>
      </trkpt>
      <trkpt lat="47.89077" lon="3.29893">
        <ele>250.60000610352</ele>
        <time>2022-07-07T12:20:06Z</time>
      </trkpt>
      <trkpt lat="47.89061" lon="3.29892">
        <ele>250.60000610352</ele>
        <time>2022-07-07T12:20:18Z</time>
      </trkpt>
      <trkpt lat="47.89049" lon="3.29896">
        <ele>250.60000610352</ele>
        <time>2022-07-07T12:20:29Z</time>
      </trkpt>
      <trkpt lat="47.8904" lon="3.29896">
        <ele>251</ele>
        <time>2022-07-07T12:20:39Z</time>
      </trkpt>
      <trkpt lat="47.89035" lon="3.29897">
        <ele>251.39999389648</ele>
        <time>2022-07-07T12:20:44Z</time>
      </trkpt>
      <trkpt lat="47.89034" lon="3.29897">
        <ele>251.39999389648</ele>
        <time>2022-07-07T12:20:45Z</time>
      </trkpt>
      <trkpt lat="47.89032" lon="3.29897">
        <ele>251.39999389648</ele>
        <time>2022-07-07T12:20:46Z</time>
      </trkpt>
      <trkpt lat="47.89031" lon="3.29897">
        <ele>251.39999389648</ele>
        <time>2022-07-07T12:20:47Z</time>
      </trkpt>
      <trkpt lat="47.89014" lon="3.29898">
        <ele>251.39999389648</ele>
        <time>2022-07-07T12:21:02Z</time>
      </trkpt>
      <trkpt lat="47.89003" lon="3.29899">
        <ele>252.39999389648</ele>
        <time>2022-07-07T12:21:13Z</time>
      </trkpt>
      <trkpt lat="47.89002" lon="3.299">
        <ele>252.19999694824</ele>
        <time>2022-07-07T12:21:14Z</time>
      </trkpt>
      <trkpt lat="47.88992" lon="3.29902">
        <ele>253.19999694824</ele>
        <time>2022-07-07T12:21:26Z</time>
      </trkpt>
      <trkpt lat="47.88979" lon="3.29905">
        <ele>254</ele>
        <time>2022-07-07T12:21:37Z</time>
      </trkpt>
      <trkpt lat="47.8897" lon="3.29905">
        <ele>254.80000305176</ele>
        <time>2022-07-07T12:21:46Z</time>
      </trkpt>
      <trkpt lat="47.88962" lon="3.29906">
        <ele>255.19999694824</ele>
        <time>2022-07-07T12:21:53Z</time>
      </trkpt>
      <trkpt lat="47.88949" lon="3.29908">
        <ele>256.60000610352</ele>
        <time>2022-07-07T12:22:03Z</time>
      </trkpt>
      <trkpt lat="47.88938" lon="3.29911">
        <ele>257.20001220703</ele>
        <time>2022-07-07T12:22:14Z</time>
      </trkpt>
      <trkpt lat="47.88926" lon="3.29913">
        <ele>258</ele>
        <time>2022-07-07T12:22:28Z</time>
      </trkpt>
      <trkpt lat="47.88921" lon="3.29914">
        <ele>258.20001220703</ele>
        <time>2022-07-07T12:22:32Z</time>
      </trkpt>
      <trkpt lat="47.88907" lon="3.29913">
        <ele>258.79998779297</ele>
        <time>2022-07-07T12:22:42Z</time>
      </trkpt>
      <trkpt lat="47.88894" lon="3.29915">
        <ele>258.79998779297</ele>
        <time>2022-07-07T12:22:54Z</time>
      </trkpt>
      <trkpt lat="47.8888" lon="3.29917">
        <ele>258.79998779297</ele>
        <time>2022-07-07T12:23:03Z</time>
      </trkpt>
      <trkpt lat="47.88876" lon="3.29916">
        <ele>259</ele>
        <time>2022-07-07T12:23:07Z</time>
      </trkpt>
      <trkpt lat="47.88873" lon="3.29915">
        <ele>259</ele>
        <time>2022-07-07T12:23:10Z</time>
      </trkpt>
      <trkpt lat="47.88866" lon="3.29917">
        <ele>258.79998779297</ele>
        <time>2022-07-07T12:23:17Z</time>
      </trkpt>
      <trkpt lat="47.88864" lon="3.29916">
        <ele>258.79998779297</ele>
        <time>2022-07-07T12:23:19Z</time>
      </trkpt>
      <trkpt lat="47.8886" lon="3.29917">
        <ele>258.79998779297</ele>
        <time>2022-07-07T12:23:23Z</time>
      </trkpt>
      <trkpt lat="47.88796" lon="3.29919">
        <ele>258.60000610352</ele>
        <time>2022-07-07T12:24:13Z</time>
      </trkpt>
      <trkpt lat="47.88779" lon="3.29921">
        <ele>259</ele>
        <time>2022-07-07T12:24:26Z</time>
      </trkpt>
      <trkpt lat="47.88743" lon="3.29931">
        <ele>259</ele>
        <time>2022-07-07T12:24:52Z</time>
      </trkpt>
      <trkpt lat="47.88722" lon="3.2993">
        <ele>259</ele>
        <time>2022-07-07T12:25:09Z</time>
      </trkpt>
      <trkpt lat="47.88715" lon="3.29929">
        <ele>257.79998779297</ele>
        <time>2022-07-07T12:25:16Z</time>
      </trkpt>
      <trkpt lat="47.88689" lon="3.29926">
        <ele>257.39999389648</ele>
        <time>2022-07-07T12:25:45Z</time>
      </trkpt>
      <trkpt lat="47.88685" lon="3.2992">
        <ele>257.39999389648</ele>
        <time>2022-07-07T12:26:07Z</time>
      </trkpt>
      <trkpt lat="47.88684" lon="3.29918">
        <ele>257.39999389648</ele>
        <time>2022-07-07T12:26:08Z</time>
      </trkpt>
      <trkpt lat="47.88684" lon="3.29915">
        <ele>257.20001220703</ele>
        <time>2022-07-07T12:26:10Z</time>
      </trkpt>
      <trkpt lat="47.88684" lon="3.29913">
        <ele>257.20001220703</ele>
        <time>2022-07-07T12:26:11Z</time>
      </trkpt>
      <trkpt lat="47.88685" lon="3.29894">
        <ele>257.79998779297</ele>
        <time>2022-07-07T12:26:22Z</time>
      </trkpt>
      <trkpt lat="47.88685" lon="3.2989">
        <ele>258.39999389648</ele>
        <time>2022-07-07T12:26:24Z</time>
      </trkpt>
      <trkpt lat="47.88685" lon="3.29888">
        <ele>258.79998779297</ele>
        <time>2022-07-07T12:26:25Z</time>
      </trkpt>
      <trkpt lat="47.88687" lon="3.29881">
        <ele>258.20001220703</ele>
        <time>2022-07-07T12:26:29Z</time>
      </trkpt>
      <trkpt lat="47.88687" lon="3.29877">
        <ele>257.79998779297</ele>
        <time>2022-07-07T12:26:32Z</time>
      </trkpt>
      <trkpt lat="47.88689" lon="3.29868">
        <ele>258.39999389648</ele>
        <time>2022-07-07T12:26:37Z</time>
      </trkpt>
      <trkpt lat="47.88689" lon="3.29866">
        <ele>258.60000610352</ele>
        <time>2022-07-07T12:26:38Z</time>
      </trkpt>
      <trkpt lat="47.88689" lon="3.29861">
        <ele>258.60000610352</ele>
        <time>2022-07-07T12:26:41Z</time>
      </trkpt>
      <trkpt lat="47.88689" lon="3.2986">
        <ele>258.79998779297</ele>
        <time>2022-07-07T12:26:42Z</time>
      </trkpt>
      <trkpt lat="47.8869" lon="3.29854">
        <ele>259</ele>
        <time>2022-07-07T12:26:45Z</time>
      </trkpt>
      <trkpt lat="47.8869" lon="3.29852">
        <ele>259.20001220703</ele>
        <time>2022-07-07T12:26:46Z</time>
      </trkpt>
      <trkpt lat="47.8869" lon="3.29851">
        <ele>259.39999389648</ele>
        <time>2022-07-07T12:26:47Z</time>
      </trkpt>
      <trkpt lat="47.88691" lon="3.29844">
        <ele>259.39999389648</ele>
        <time>2022-07-07T12:26:51Z</time>
      </trkpt>
      <trkpt lat="47.88691" lon="3.29842">
        <ele>259.39999389648</ele>
        <time>2022-07-07T12:26:52Z</time>
      </trkpt>
      <trkpt lat="47.88693" lon="3.29831">
        <ele>258.79998779297</ele>
        <time>2022-07-07T12:26:58Z</time>
      </trkpt>
      <trkpt lat="47.88693" lon="3.29829">
        <ele>258.79998779297</ele>
        <time>2022-07-07T12:26:59Z</time>
      </trkpt>
      <trkpt lat="47.88694" lon="3.29809">
        <ele>259.39999389648</ele>
        <time>2022-07-07T12:27:10Z</time>
      </trkpt>
      <trkpt lat="47.88698" lon="3.29793">
        <ele>259.60000610352</ele>
        <time>2022-07-07T12:27:21Z</time>
      </trkpt>
      <trkpt lat="47.887" lon="3.29775">
        <ele>259.39999389648</ele>
        <time>2022-07-07T12:27:33Z</time>
      </trkpt>
      <trkpt lat="47.887" lon="3.29765">
        <ele>260.20001220703</ele>
        <time>2022-07-07T12:27:39Z</time>
      </trkpt>
      <trkpt lat="47.887" lon="3.29763">
        <ele>260.39999389648</ele>
        <time>2022-07-07T12:27:40Z</time>
      </trkpt>
      <trkpt lat="47.887" lon="3.29759">
        <ele>260.20001220703</ele>
        <time>2022-07-07T12:27:42Z</time>
      </trkpt>
      <trkpt lat="47.88702" lon="3.29741">
        <ele>260</ele>
        <time>2022-07-07T12:27:51Z</time>
      </trkpt>
      <trkpt lat="47.88704" lon="3.29731">
        <ele>260.20001220703</ele>
        <time>2022-07-07T12:27:57Z</time>
      </trkpt>
      <trkpt lat="47.88706" lon="3.29725">
        <ele>260.39999389648</ele>
        <time>2022-07-07T12:28:00Z</time>
      </trkpt>
      <trkpt lat="47.88706" lon="3.29723">
        <ele>260.39999389648</ele>
        <time>2022-07-07T12:28:01Z</time>
      </trkpt>
      <trkpt lat="47.88706" lon="3.29722">
        <ele>260.39999389648</ele>
        <time>2022-07-07T12:28:02Z</time>
      </trkpt>
      <trkpt lat="47.88709" lon="3.29715">
        <ele>260.60000610352</ele>
        <time>2022-07-07T12:28:06Z</time>
      </trkpt>
      <trkpt lat="47.8871" lon="3.29693">
        <ele>260.79998779297</ele>
        <time>2022-07-07T12:28:18Z</time>
      </trkpt>
      <trkpt lat="47.88711" lon="3.29687">
        <ele>260.60000610352</ele>
        <time>2022-07-07T12:28:21Z</time>
      </trkpt>
      <trkpt lat="47.88711" lon="3.29685">
        <ele>260.60000610352</ele>
        <time>2022-07-07T12:28:22Z</time>
      </trkpt>
      <trkpt lat="47.88712" lon="3.29679">
        <ele>260.60000610352</ele>
        <time>2022-07-07T12:28:26Z</time>
      </trkpt>
      <trkpt lat="47.88714" lon="3.29662">
        <ele>260.79998779297</ele>
        <time>2022-07-07T12:28:38Z</time>
      </trkpt>
      <trkpt lat="47.88718" lon="3.29643">
        <ele>260.79998779297</ele>
        <time>2022-07-07T12:28:50Z</time>
      </trkpt>
      <trkpt lat="47.88722" lon="3.29626">
        <ele>261</ele>
        <time>2022-07-07T12:29:01Z</time>
      </trkpt>
      <trkpt lat="47.88723" lon="3.29609">
        <ele>261</ele>
        <time>2022-07-07T12:29:10Z</time>
      </trkpt>
      <trkpt lat="47.88722" lon="3.29592">
        <ele>261</ele>
        <time>2022-07-07T12:29:20Z</time>
      </trkpt>
      <trkpt lat="47.88722" lon="3.2959">
        <ele>261</ele>
        <time>2022-07-07T12:29:21Z</time>
      </trkpt>
      <trkpt lat="47.88722" lon="3.29588">
        <ele>261</ele>
        <time>2022-07-07T12:29:22Z</time>
      </trkpt>
      <trkpt lat="47.88721" lon="3.29579">
        <ele>261</ele>
        <time>2022-07-07T12:29:26Z</time>
      </trkpt>
      <trkpt lat="47.88721" lon="3.29577">
        <ele>260.79998779297</ele>
        <time>2022-07-07T12:29:27Z</time>
      </trkpt>
      <trkpt lat="47.8872" lon="3.2957">
        <ele>261</ele>
        <time>2022-07-07T12:29:30Z</time>
      </trkpt>
      <trkpt lat="47.88718" lon="3.29563">
        <ele>261.20001220703</ele>
        <time>2022-07-07T12:29:35Z</time>
      </trkpt>
      <trkpt lat="47.88716" lon="3.29543">
        <ele>260.60000610352</ele>
        <time>2022-07-07T12:29:47Z</time>
      </trkpt>
      <trkpt lat="47.88716" lon="3.29542">
        <ele>260.60000610352</ele>
        <time>2022-07-07T12:29:48Z</time>
      </trkpt>
      <trkpt lat="47.8871" lon="3.2952">
        <ele>260.39999389648</ele>
        <time>2022-07-07T12:29:59Z</time>
      </trkpt>
      <trkpt lat="47.88706" lon="3.29506">
        <ele>260</ele>
        <time>2022-07-07T12:30:06Z</time>
      </trkpt>
      <trkpt lat="47.88706" lon="3.29505">
        <ele>260</ele>
        <time>2022-07-07T12:30:07Z</time>
      </trkpt>
      <trkpt lat="47.88705" lon="3.29499">
        <ele>259.79998779297</ele>
        <time>2022-07-07T12:30:11Z</time>
      </trkpt>
      <trkpt lat="47.88704" lon="3.29491">
        <ele>259.60000610352</ele>
        <time>2022-07-07T12:30:15Z</time>
      </trkpt>
      <trkpt lat="47.88701" lon="3.29474">
        <ele>260</ele>
        <time>2022-07-07T12:30:26Z</time>
      </trkpt>
      <trkpt lat="47.88698" lon="3.29461">
        <ele>260</ele>
        <time>2022-07-07T12:30:34Z</time>
      </trkpt>
      <trkpt lat="47.88697" lon="3.29451">
        <ele>259.20001220703</ele>
        <time>2022-07-07T12:30:39Z</time>
      </trkpt>
      <trkpt lat="47.88701" lon="3.29436">
        <ele>259.60000610352</ele>
        <time>2022-07-07T12:30:51Z</time>
      </trkpt>
      <trkpt lat="47.887" lon="3.29428">
        <ele>259.79998779297</ele>
        <time>2022-07-07T12:30:58Z</time>
      </trkpt>
      <trkpt lat="47.88695" lon="3.29405">
        <ele>258.79998779297</ele>
        <time>2022-07-07T12:31:15Z</time>
      </trkpt>
      <trkpt lat="47.88693" lon="3.29396">
        <ele>258.60000610352</ele>
        <time>2022-07-07T12:31:20Z</time>
      </trkpt>
      <trkpt lat="47.88692" lon="3.29392">
        <ele>258.79998779297</ele>
        <time>2022-07-07T12:31:23Z</time>
      </trkpt>
      <trkpt lat="47.88686" lon="3.29353">
        <ele>257.60000610352</ele>
        <time>2022-07-07T12:31:51Z</time>
      </trkpt>
      <trkpt lat="47.88689" lon="3.29346">
        <ele>259</ele>
        <time>2022-07-07T12:32:18Z</time>
      </trkpt>
      <trkpt lat="47.88687" lon="3.29346">
        <ele>258.60000610352</ele>
        <time>2022-07-07T12:32:51Z</time>
      </trkpt>
      <trkpt lat="47.88687" lon="3.29353">
        <ele>258.20001220703</ele>
        <time>2022-07-07T12:33:12Z</time>
      </trkpt>
      <trkpt lat="47.88684" lon="3.29342">
        <ele>257.79998779297</ele>
        <time>2022-07-07T12:33:55Z</time>
      </trkpt>
      <trkpt lat="47.88672" lon="3.29288">
        <ele>257.60000610352</ele>
        <time>2022-07-07T12:34:21Z</time>
      </trkpt>
      <trkpt lat="47.88672" lon="3.29286">
        <ele>257.60000610352</ele>
        <time>2022-07-07T12:34:22Z</time>
      </trkpt>
      <trkpt lat="47.88671" lon="3.2928">
        <ele>257.20001220703</ele>
        <time>2022-07-07T12:34:25Z</time>
      </trkpt>
      <trkpt lat="47.88671" lon="3.29277">
        <ele>257</ele>
        <time>2022-07-07T12:34:27Z</time>
      </trkpt>
      <trkpt lat="47.88671" lon="3.29272">
        <ele>257</ele>
        <time>2022-07-07T12:34:30Z</time>
      </trkpt>
      <trkpt lat="47.88668" lon="3.29263">
        <ele>256</ele>
        <time>2022-07-07T12:34:35Z</time>
      </trkpt>
      <trkpt lat="47.88665" lon="3.29247">
        <ele>256.39999389648</ele>
        <time>2022-07-07T12:34:44Z</time>
      </trkpt>
      <trkpt lat="47.88663" lon="3.29239">
        <ele>256.39999389648</ele>
        <time>2022-07-07T12:34:49Z</time>
      </trkpt>
      <trkpt lat="47.88663" lon="3.29234">
        <ele>255.80000305176</ele>
        <time>2022-07-07T12:34:52Z</time>
      </trkpt>
      <trkpt lat="47.88662" lon="3.29231">
        <ele>255.80000305176</ele>
        <time>2022-07-07T12:34:54Z</time>
      </trkpt>
      <trkpt lat="47.88658" lon="3.29211">
        <ele>255.60000610352</ele>
        <time>2022-07-07T12:35:05Z</time>
      </trkpt>
      <trkpt lat="47.88649" lon="3.29174">
        <ele>255.39999389648</ele>
        <time>2022-07-07T12:35:24Z</time>
      </trkpt>
      <trkpt lat="47.88647" lon="3.29172">
        <ele>255</ele>
        <time>2022-07-07T12:35:27Z</time>
      </trkpt>
      <trkpt lat="47.88646" lon="3.29171">
        <ele>255</ele>
        <time>2022-07-07T12:35:28Z</time>
      </trkpt>
      <trkpt lat="47.88643" lon="3.29166">
        <ele>254.80000305176</ele>
        <time>2022-07-07T12:35:32Z</time>
      </trkpt>
      <trkpt lat="47.88637" lon="3.29153">
        <ele>255</ele>
        <time>2022-07-07T12:35:42Z</time>
      </trkpt>
      <trkpt lat="47.88631" lon="3.29141">
        <ele>254.60000610352</ele>
        <time>2022-07-07T12:35:51Z</time>
      </trkpt>
      <trkpt lat="47.88627" lon="3.29131">
        <ele>254.80000305176</ele>
        <time>2022-07-07T12:35:58Z</time>
      </trkpt>
      <trkpt lat="47.88626" lon="3.2913">
        <ele>254.80000305176</ele>
        <time>2022-07-07T12:35:59Z</time>
      </trkpt>
      <trkpt lat="47.88625" lon="3.29128">
        <ele>254.80000305176</ele>
        <time>2022-07-07T12:36:00Z</time>
      </trkpt>
      <trkpt lat="47.8862" lon="3.29116">
        <ele>254.60000610352</ele>
        <time>2022-07-07T12:36:08Z</time>
      </trkpt>
      <trkpt lat="47.8862" lon="3.29113">
        <ele>254.39999389648</ele>
        <time>2022-07-07T12:36:10Z</time>
      </trkpt>
      <trkpt lat="47.88613" lon="3.29097">
        <ele>254.60000610352</ele>
        <time>2022-07-07T12:36:20Z</time>
      </trkpt>
      <trkpt lat="47.88613" lon="3.29094">
        <ele>254.60000610352</ele>
        <time>2022-07-07T12:36:22Z</time>
      </trkpt>
      <trkpt lat="47.88609" lon="3.29071">
        <ele>254</ele>
        <time>2022-07-07T12:36:34Z</time>
      </trkpt>
      <trkpt lat="47.88607" lon="3.29055">
        <ele>253.39999389648</ele>
        <time>2022-07-07T12:36:42Z</time>
      </trkpt>
      <trkpt lat="47.88603" lon="3.29045">
        <ele>253.39999389648</ele>
        <time>2022-07-07T12:36:48Z</time>
      </trkpt>
      <trkpt lat="47.88601" lon="3.29036">
        <ele>253.60000610352</ele>
        <time>2022-07-07T12:36:53Z</time>
      </trkpt>
      <trkpt lat="47.886" lon="3.29034">
        <ele>253.60000610352</ele>
        <time>2022-07-07T12:36:54Z</time>
      </trkpt>
      <trkpt lat="47.88597" lon="3.29012">
        <ele>253.19999694824</ele>
        <time>2022-07-07T12:37:06Z</time>
      </trkpt>
      <trkpt lat="47.88596" lon="3.29003">
        <ele>252.80000305176</ele>
        <time>2022-07-07T12:37:11Z</time>
      </trkpt>
      <trkpt lat="47.88591" lon="3.2898">
        <ele>252.39999389648</ele>
        <time>2022-07-07T12:37:22Z</time>
      </trkpt>
      <trkpt lat="47.8859" lon="3.28978">
        <ele>252.39999389648</ele>
        <time>2022-07-07T12:37:23Z</time>
      </trkpt>
      <trkpt lat="47.8859" lon="3.28966">
        <ele>252.19999694824</ele>
        <time>2022-07-07T12:37:30Z</time>
      </trkpt>
      <trkpt lat="47.88587" lon="3.28952">
        <ele>252</ele>
        <time>2022-07-07T12:37:39Z</time>
      </trkpt>
      <trkpt lat="47.88586" lon="3.28947">
        <ele>251.60000610352</ele>
        <time>2022-07-07T12:37:42Z</time>
      </trkpt>
      <trkpt lat="47.88584" lon="3.28931">
        <ele>250.39999389648</ele>
        <time>2022-07-07T12:37:52Z</time>
      </trkpt>
      <trkpt lat="47.88584" lon="3.28929">
        <ele>250.39999389648</ele>
        <time>2022-07-07T12:37:53Z</time>
      </trkpt>
      <trkpt lat="47.88581" lon="3.28901">
        <ele>249.80000305176</ele>
        <time>2022-07-07T12:38:09Z</time>
      </trkpt>
      <trkpt lat="47.88579" lon="3.28896">
        <ele>249.60000610352</ele>
        <time>2022-07-07T12:38:12Z</time>
      </trkpt>
      <trkpt lat="47.88571" lon="3.28848">
        <ele>247.39999389648</ele>
        <time>2022-07-07T12:38:41Z</time>
      </trkpt>
      <trkpt lat="47.88561" lon="3.28814">
        <ele>246</ele>
        <time>2022-07-07T12:38:59Z</time>
      </trkpt>
      <trkpt lat="47.88553" lon="3.2877">
        <ele>244.19999694824</ele>
        <time>2022-07-07T12:39:25Z</time>
      </trkpt>
      <trkpt lat="47.88554" lon="3.28762">
        <ele>244</ele>
        <time>2022-07-07T12:39:29Z</time>
      </trkpt>
      <trkpt lat="47.88557" lon="3.28748">
        <ele>244</ele>
        <time>2022-07-07T12:39:41Z</time>
      </trkpt>
      <trkpt lat="47.88557" lon="3.28746">
        <ele>243.80000305176</ele>
        <time>2022-07-07T12:39:43Z</time>
      </trkpt>
      <trkpt lat="47.88556" lon="3.28738">
        <ele>243.39999389648</ele>
        <time>2022-07-07T12:39:48Z</time>
      </trkpt>
      <trkpt lat="47.88556" lon="3.28729">
        <ele>243.39999389648</ele>
        <time>2022-07-07T12:39:53Z</time>
      </trkpt>
      <trkpt lat="47.88555" lon="3.2867">
        <ele>244.80000305176</ele>
        <time>2022-07-07T12:40:30Z</time>
      </trkpt>
      <trkpt lat="47.88557" lon="3.28651">
        <ele>244.60000610352</ele>
        <time>2022-07-07T12:40:40Z</time>
      </trkpt>
      <trkpt lat="47.88561" lon="3.28608">
        <ele>245.19999694824</ele>
        <time>2022-07-07T12:41:01Z</time>
      </trkpt>
      <trkpt lat="47.88563" lon="3.28578">
        <ele>245.80000305176</ele>
        <time>2022-07-07T12:41:19Z</time>
      </trkpt>
      <trkpt lat="47.88564" lon="3.28565">
        <ele>246.39999389648</ele>
        <time>2022-07-07T12:41:29Z</time>
      </trkpt>
      <trkpt lat="47.88564" lon="3.28474">
        <ele>246.80000305176</ele>
        <time>2022-07-07T12:42:28Z</time>
      </trkpt>
      <trkpt lat="47.88564" lon="3.28462">
        <ele>247.39999389648</ele>
        <time>2022-07-07T12:42:36Z</time>
      </trkpt>
      <trkpt lat="47.88565" lon="3.28461">
        <ele>247.39999389648</ele>
        <time>2022-07-07T12:42:37Z</time>
      </trkpt>
      <trkpt lat="47.88565" lon="3.28459">
        <ele>247.39999389648</ele>
        <time>2022-07-07T12:42:38Z</time>
      </trkpt>
      <trkpt lat="47.88565" lon="3.28435">
        <ele>248</ele>
        <time>2022-07-07T12:42:52Z</time>
      </trkpt>
      <trkpt lat="47.88565" lon="3.28407">
        <ele>247.60000610352</ele>
        <time>2022-07-07T12:43:19Z</time>
      </trkpt>
      <trkpt lat="47.88557" lon="3.28383">
        <ele>247.60000610352</ele>
        <time>2022-07-07T12:43:37Z</time>
      </trkpt>
      <trkpt lat="47.88555" lon="3.28374">
        <ele>247.60000610352</ele>
        <time>2022-07-07T12:43:42Z</time>
      </trkpt>
      <trkpt lat="47.88545" lon="3.2834">
        <ele>247.60000610352</ele>
        <time>2022-07-07T12:45:46Z</time>
      </trkpt>
      <trkpt lat="47.88538" lon="3.28307">
        <ele>247.39999389648</ele>
        <time>2022-07-07T12:46:07Z</time>
      </trkpt>
      <trkpt lat="47.88538" lon="3.28305">
        <ele>247.39999389648</ele>
        <time>2022-07-07T12:46:08Z</time>
      </trkpt>
      <trkpt lat="47.88531" lon="3.28286">
        <ele>247.39999389648</ele>
        <time>2022-07-07T12:46:20Z</time>
      </trkpt>
      <trkpt lat="47.88525" lon="3.28272">
        <ele>247.39999389648</ele>
        <time>2022-07-07T12:46:30Z</time>
      </trkpt>
      <trkpt lat="47.88521" lon="3.28246">
        <ele>247.19999694824</ele>
        <time>2022-07-07T12:46:46Z</time>
      </trkpt>
      <trkpt lat="47.88521" lon="3.28245">
        <ele>247.19999694824</ele>
        <time>2022-07-07T12:46:47Z</time>
      </trkpt>
      <trkpt lat="47.88518" lon="3.28236">
        <ele>247.19999694824</ele>
        <time>2022-07-07T12:46:52Z</time>
      </trkpt>
      <trkpt lat="47.88516" lon="3.28231">
        <ele>247.39999389648</ele>
        <time>2022-07-07T12:46:55Z</time>
      </trkpt>
      <trkpt lat="47.88515" lon="3.28229">
        <ele>247.39999389648</ele>
        <time>2022-07-07T12:46:56Z</time>
      </trkpt>
      <trkpt lat="47.88507" lon="3.28209">
        <ele>247.39999389648</ele>
        <time>2022-07-07T12:47:09Z</time>
      </trkpt>
      <trkpt lat="47.88504" lon="3.28199">
        <ele>247.19999694824</ele>
        <time>2022-07-07T12:47:17Z</time>
      </trkpt>
      <trkpt lat="47.88503" lon="3.28194">
        <ele>247.19999694824</ele>
        <time>2022-07-07T12:47:20Z</time>
      </trkpt>
      <trkpt lat="47.88499" lon="3.28187">
        <ele>246.80000305176</ele>
        <time>2022-07-07T12:47:26Z</time>
      </trkpt>
      <trkpt lat="47.88492" lon="3.28171">
        <ele>246.39999389648</ele>
        <time>2022-07-07T12:47:39Z</time>
      </trkpt>
      <trkpt lat="47.8849" lon="3.28168">
        <ele>246.19999694824</ele>
        <time>2022-07-07T12:47:41Z</time>
      </trkpt>
      <trkpt lat="47.8849" lon="3.28167">
        <ele>246.19999694824</ele>
        <time>2022-07-07T12:47:42Z</time>
      </trkpt>
      <trkpt lat="47.88488" lon="3.28164">
        <ele>246.19999694824</ele>
        <time>2022-07-07T12:47:45Z</time>
      </trkpt>
      <trkpt lat="47.88486" lon="3.28159">
        <ele>246</ele>
        <time>2022-07-07T12:47:48Z</time>
      </trkpt>
      <trkpt lat="47.88483" lon="3.28156">
        <ele>245.80000305176</ele>
        <time>2022-07-07T12:47:52Z</time>
      </trkpt>
      <trkpt lat="47.88479" lon="3.28149">
        <ele>245.80000305176</ele>
        <time>2022-07-07T12:47:57Z</time>
      </trkpt>
      <trkpt lat="47.88477" lon="3.28146">
        <ele>245.60000610352</ele>
        <time>2022-07-07T12:48:00Z</time>
      </trkpt>
      <trkpt lat="47.88474" lon="3.28137">
        <ele>245</ele>
        <time>2022-07-07T12:48:06Z</time>
      </trkpt>
      <trkpt lat="47.88474" lon="3.28136">
        <ele>245</ele>
        <time>2022-07-07T12:48:07Z</time>
      </trkpt>
      <trkpt lat="47.88473" lon="3.28133">
        <ele>245</ele>
        <time>2022-07-07T12:48:09Z</time>
      </trkpt>
      <trkpt lat="47.88449" lon="3.28031">
        <ele>244.60000610352</ele>
        <time>2022-07-07T12:49:07Z</time>
      </trkpt>
      <trkpt lat="47.88448" lon="3.28024">
        <ele>244.60000610352</ele>
        <time>2022-07-07T12:49:11Z</time>
      </trkpt>
      <trkpt lat="47.88448" lon="3.28023">
        <ele>244.80000305176</ele>
        <time>2022-07-07T12:49:12Z</time>
      </trkpt>
      <trkpt lat="47.88447" lon="3.2802">
        <ele>244.80000305176</ele>
        <time>2022-07-07T12:49:14Z</time>
      </trkpt>
      <trkpt lat="47.88443" lon="3.28002">
        <ele>244.19999694824</ele>
        <time>2022-07-07T12:49:26Z</time>
      </trkpt>
      <trkpt lat="47.88442" lon="3.28001">
        <ele>244.19999694824</ele>
        <time>2022-07-07T12:49:27Z</time>
      </trkpt>
      <trkpt lat="47.88438" lon="3.27988">
        <ele>244.19999694824</ele>
        <time>2022-07-07T12:49:35Z</time>
      </trkpt>
      <trkpt lat="47.88434" lon="3.27966">
        <ele>244.19999694824</ele>
        <time>2022-07-07T12:49:48Z</time>
      </trkpt>
      <trkpt lat="47.88432" lon="3.27946">
        <ele>244.60000610352</ele>
        <time>2022-07-07T12:49:59Z</time>
      </trkpt>
      <trkpt lat="47.88431" lon="3.27943">
        <ele>244</ele>
        <time>2022-07-07T12:50:01Z</time>
      </trkpt>
      <trkpt lat="47.88431" lon="3.27941">
        <ele>243.80000305176</ele>
        <time>2022-07-07T12:50:02Z</time>
      </trkpt>
      <trkpt lat="47.88428" lon="3.27926">
        <ele>243.80000305176</ele>
        <time>2022-07-07T12:50:21Z</time>
      </trkpt>
      <trkpt lat="47.88427" lon="3.27917">
        <ele>243.39999389648</ele>
        <time>2022-07-07T12:50:30Z</time>
      </trkpt>
      <trkpt lat="47.88413" lon="3.27859">
        <ele>243.39999389648</ele>
        <time>2022-07-07T12:50:57Z</time>
      </trkpt>
      <trkpt lat="47.88414" lon="3.27844">
        <ele>242.39999389648</ele>
        <time>2022-07-07T12:51:08Z</time>
      </trkpt>
      <trkpt lat="47.88423" lon="3.27822">
        <ele>242</ele>
        <time>2022-07-07T12:51:20Z</time>
      </trkpt>
      <trkpt lat="47.88437" lon="3.2778">
        <ele>241.19999694824</ele>
        <time>2022-07-07T12:51:42Z</time>
      </trkpt>
      <trkpt lat="47.88442" lon="3.27773">
        <ele>241.39999389648</ele>
        <time>2022-07-07T12:51:48Z</time>
      </trkpt>
      <trkpt lat="47.88447" lon="3.27761">
        <ele>240.60000610352</ele>
        <time>2022-07-07T12:52:00Z</time>
      </trkpt>
      <trkpt lat="47.88448" lon="3.27746">
        <ele>240.80000305176</ele>
        <time>2022-07-07T12:52:18Z</time>
      </trkpt>
      <trkpt lat="47.88472" lon="3.27721">
        <ele>238.60000610352</ele>
        <time>2022-07-07T12:52:47Z</time>
      </trkpt>
      <trkpt lat="47.8847" lon="3.27697">
        <ele>237.80000305176</ele>
        <time>2022-07-07T12:53:00Z</time>
      </trkpt>
      <trkpt lat="47.88469" lon="3.27682">
        <ele>237.80000305176</ele>
        <time>2022-07-07T12:53:08Z</time>
      </trkpt>
      <trkpt lat="47.88468" lon="3.27675">
        <ele>237.80000305176</ele>
        <time>2022-07-07T12:53:12Z</time>
      </trkpt>
      <trkpt lat="47.88465" lon="3.27661">
        <ele>237.60000610352</ele>
        <time>2022-07-07T12:53:18Z</time>
      </trkpt>
      <trkpt lat="47.88465" lon="3.27655">
        <ele>237.39999389648</ele>
        <time>2022-07-07T12:53:21Z</time>
      </trkpt>
      <trkpt lat="47.88464" lon="3.27644">
        <ele>236.80000305176</ele>
        <time>2022-07-07T12:53:28Z</time>
      </trkpt>
      <trkpt lat="47.88465" lon="3.27625">
        <ele>236.39999389648</ele>
        <time>2022-07-07T12:53:39Z</time>
      </trkpt>
      <trkpt lat="47.8847" lon="3.27611">
        <ele>235.19999694824</ele>
        <time>2022-07-07T12:53:49Z</time>
      </trkpt>
      <trkpt lat="47.88479" lon="3.27585">
        <ele>233</ele>
        <time>2022-07-07T12:54:09Z</time>
      </trkpt>
      <trkpt lat="47.8848" lon="3.27581">
        <ele>232.60000610352</ele>
        <time>2022-07-07T12:54:12Z</time>
      </trkpt>
      <trkpt lat="47.88481" lon="3.27557">
        <ele>231.39999389648</ele>
        <time>2022-07-07T12:54:24Z</time>
      </trkpt>
      <trkpt lat="47.88482" lon="3.2755">
        <ele>230.80000305176</ele>
        <time>2022-07-07T12:54:28Z</time>
      </trkpt>
      <trkpt lat="47.88486" lon="3.27535">
        <ele>229.60000610352</ele>
        <time>2022-07-07T12:54:39Z</time>
      </trkpt>
      <trkpt lat="47.88487" lon="3.27532">
        <ele>229.19999694824</ele>
        <time>2022-07-07T12:54:41Z</time>
      </trkpt>
      <trkpt lat="47.88492" lon="3.27518">
        <ele>228</ele>
        <time>2022-07-07T12:54:52Z</time>
      </trkpt>
      <trkpt lat="47.88493" lon="3.27512">
        <ele>227.39999389648</ele>
        <time>2022-07-07T12:54:56Z</time>
      </trkpt>
      <trkpt lat="47.88495" lon="3.27495">
        <ele>226</ele>
        <time>2022-07-07T12:55:08Z</time>
      </trkpt>
      <trkpt lat="47.88499" lon="3.27479">
        <ele>224.60000610352</ele>
        <time>2022-07-07T12:55:18Z</time>
      </trkpt>
      <trkpt lat="47.88504" lon="3.2746">
        <ele>222.60000610352</ele>
        <time>2022-07-07T12:55:29Z</time>
      </trkpt>
      <trkpt lat="47.88506" lon="3.27451">
        <ele>222</ele>
        <time>2022-07-07T12:55:34Z</time>
      </trkpt>
      <trkpt lat="47.88509" lon="3.27438">
        <ele>220.80000305176</ele>
        <time>2022-07-07T12:55:43Z</time>
      </trkpt>
      <trkpt lat="47.88522" lon="3.27417">
        <ele>218.60000610352</ele>
        <time>2022-07-07T12:55:58Z</time>
      </trkpt>
      <trkpt lat="47.88523" lon="3.27413">
        <ele>218.39999389648</ele>
        <time>2022-07-07T12:56:01Z</time>
      </trkpt>
      <trkpt lat="47.88523" lon="3.27409">
        <ele>218</ele>
        <time>2022-07-07T12:56:03Z</time>
      </trkpt>
      <trkpt lat="47.88524" lon="3.27406">
        <ele>218</ele>
        <time>2022-07-07T12:56:06Z</time>
      </trkpt>
      <trkpt lat="47.88526" lon="3.27401">
        <ele>217.80000305176</ele>
        <time>2022-07-07T12:56:09Z</time>
      </trkpt>
      <trkpt lat="47.88527" lon="3.27393">
        <ele>217.19999694824</ele>
        <time>2022-07-07T12:56:14Z</time>
      </trkpt>
      <trkpt lat="47.88528" lon="3.2739">
        <ele>217.19999694824</ele>
        <time>2022-07-07T12:56:16Z</time>
      </trkpt>
      <trkpt lat="47.88532" lon="3.27359">
        <ele>215.19999694824</ele>
        <time>2022-07-07T12:56:34Z</time>
      </trkpt>
      <trkpt lat="47.88517" lon="3.27324">
        <ele>213.39999389648</ele>
        <time>2022-07-07T12:56:56Z</time>
      </trkpt>
      <trkpt lat="47.88503" lon="3.27297">
        <ele>211.80000305176</ele>
        <time>2022-07-07T12:57:15Z</time>
      </trkpt>
      <trkpt lat="47.88487" lon="3.27271">
        <ele>210.19999694824</ele>
        <time>2022-07-07T12:57:33Z</time>
      </trkpt>
      <trkpt lat="47.88472" lon="3.27254">
        <ele>209.19999694824</ele>
        <time>2022-07-07T12:57:52Z</time>
      </trkpt>
      <trkpt lat="47.88456" lon="3.2723">
        <ele>208.60000610352</ele>
        <time>2022-07-07T12:58:11Z</time>
      </trkpt>
      <trkpt lat="47.88445" lon="3.27214">
        <ele>208.19999694824</ele>
        <time>2022-07-07T12:58:26Z</time>
      </trkpt>
      <trkpt lat="47.88442" lon="3.27209">
        <ele>208.39999389648</ele>
        <time>2022-07-07T12:58:29Z</time>
      </trkpt>
      <trkpt lat="47.88438" lon="3.27201">
        <ele>208.39999389648</ele>
        <time>2022-07-07T12:58:34Z</time>
      </trkpt>
      <trkpt lat="47.88435" lon="3.27193">
        <ele>208</ele>
        <time>2022-07-07T12:58:39Z</time>
      </trkpt>
      <trkpt lat="47.88421" lon="3.27162">
        <ele>208.39999389648</ele>
        <time>2022-07-07T12:59:00Z</time>
      </trkpt>
      <trkpt lat="47.88406" lon="3.27143">
        <ele>208.60000610352</ele>
        <time>2022-07-07T12:59:19Z</time>
      </trkpt>
      <trkpt lat="47.88396" lon="3.27127">
        <ele>209.39999389648</ele>
        <time>2022-07-07T12:59:33Z</time>
      </trkpt>
      <trkpt lat="47.88385" lon="3.2711">
        <ele>210.39999389648</ele>
        <time>2022-07-07T12:59:48Z</time>
      </trkpt>
      <trkpt lat="47.88378" lon="3.27104">
        <ele>211</ele>
        <time>2022-07-07T12:59:56Z</time>
      </trkpt>
      <trkpt lat="47.88368" lon="3.27092">
        <ele>212.19999694824</ele>
        <time>2022-07-07T13:00:10Z</time>
      </trkpt>
      <trkpt lat="47.88362" lon="3.2708">
        <ele>213</ele>
        <time>2022-07-07T13:00:21Z</time>
      </trkpt>
      <trkpt lat="47.88352" lon="3.27064">
        <ele>214.80000305176</ele>
        <time>2022-07-07T13:00:38Z</time>
      </trkpt>
      <trkpt lat="47.88351" lon="3.27059">
        <ele>215.19999694824</ele>
        <time>2022-07-07T13:00:41Z</time>
      </trkpt>
      <trkpt lat="47.88345" lon="3.2704">
        <ele>217</ele>
        <time>2022-07-07T13:00:57Z</time>
      </trkpt>
      <trkpt lat="47.88344" lon="3.27036">
        <ele>217.19999694824</ele>
        <time>2022-07-07T13:01:00Z</time>
      </trkpt>
      <trkpt lat="47.88336" lon="3.27019">
        <ele>218.80000305176</ele>
        <time>2022-07-07T13:01:14Z</time>
      </trkpt>
      <trkpt lat="47.88326" lon="3.26986">
        <ele>221.39999389648</ele>
        <time>2022-07-07T13:01:38Z</time>
      </trkpt>
      <trkpt lat="47.88316" lon="3.26962">
        <ele>224.19999694824</ele>
        <time>2022-07-07T13:01:57Z</time>
      </trkpt>
      <trkpt lat="47.88313" lon="3.26958">
        <ele>224.39999389648</ele>
        <time>2022-07-07T13:02:01Z</time>
      </trkpt>
      <trkpt lat="47.8831" lon="3.26945">
        <ele>225.60000610352</ele>
        <time>2022-07-07T13:02:11Z</time>
      </trkpt>
      <trkpt lat="47.88301" lon="3.26931">
        <ele>227.39999389648</ele>
        <time>2022-07-07T13:02:34Z</time>
      </trkpt>
      <trkpt lat="47.88299" lon="3.26927">
        <ele>227.80000305176</ele>
        <time>2022-07-07T13:03:09Z</time>
      </trkpt>
      <trkpt lat="47.883" lon="3.26929">
        <ele>227.39999389648</ele>
        <time>2022-07-07T13:03:29Z</time>
      </trkpt>
      <trkpt lat="47.883" lon="3.26926">
        <ele>227.39999389648</ele>
        <time>2022-07-07T13:04:54Z</time>
      </trkpt>
      <trkpt lat="47.88304" lon="3.26921">
        <ele>227.39999389648</ele>
        <time>2022-07-07T13:05:18Z</time>
      </trkpt>
      <trkpt lat="47.88304" lon="3.26913">
        <ele>227.80000305176</ele>
        <time>2022-07-07T13:05:23Z</time>
      </trkpt>
      <trkpt lat="47.88304" lon="3.26911">
        <ele>227.80000305176</ele>
        <time>2022-07-07T13:05:24Z</time>
      </trkpt>
      <trkpt lat="47.88305" lon="3.2691">
        <ele>227.80000305176</ele>
        <time>2022-07-07T13:05:25Z</time>
      </trkpt>
      <trkpt lat="47.88305" lon="3.26908">
        <ele>227.80000305176</ele>
        <time>2022-07-07T13:05:26Z</time>
      </trkpt>
      <trkpt lat="47.88309" lon="3.26891">
        <ele>226.80000305176</ele>
        <time>2022-07-07T13:05:38Z</time>
      </trkpt>
      <trkpt lat="47.88311" lon="3.26883">
        <ele>228.80000305176</ele>
        <time>2022-07-07T13:05:43Z</time>
      </trkpt>
      <trkpt lat="47.88315" lon="3.26871">
        <ele>229.19999694824</ele>
        <time>2022-07-07T13:05:53Z</time>
      </trkpt>
      <trkpt lat="47.8832" lon="3.26857">
        <ele>230</ele>
        <time>2022-07-07T13:06:06Z</time>
      </trkpt>
      <trkpt lat="47.8832" lon="3.26849">
        <ele>230</ele>
        <time>2022-07-07T13:06:12Z</time>
      </trkpt>
      <trkpt lat="47.88319" lon="3.26823">
        <ele>230.80000305176</ele>
        <time>2022-07-07T13:06:25Z</time>
      </trkpt>
      <trkpt lat="47.88319" lon="3.26817">
        <ele>231.39999389648</ele>
        <time>2022-07-07T13:06:28Z</time>
      </trkpt>
      <trkpt lat="47.88317" lon="3.26803">
        <ele>232.19999694824</ele>
        <time>2022-07-07T13:06:37Z</time>
      </trkpt>
      <trkpt lat="47.88317" lon="3.26801">
        <ele>232.19999694824</ele>
        <time>2022-07-07T13:06:38Z</time>
      </trkpt>
      <trkpt lat="47.88317" lon="3.26799">
        <ele>232</ele>
        <time>2022-07-07T13:06:39Z</time>
      </trkpt>
      <trkpt lat="47.88317" lon="3.26792">
        <ele>232.60000610352</ele>
        <time>2022-07-07T13:06:43Z</time>
      </trkpt>
      <trkpt lat="47.88317" lon="3.2679">
        <ele>232.60000610352</ele>
        <time>2022-07-07T13:06:44Z</time>
      </trkpt>
      <trkpt lat="47.88314" lon="3.26776">
        <ele>233</ele>
        <time>2022-07-07T13:06:52Z</time>
      </trkpt>
      <trkpt lat="47.88311" lon="3.26754">
        <ele>234</ele>
        <time>2022-07-07T13:07:13Z</time>
      </trkpt>
      <trkpt lat="47.88313" lon="3.2673">
        <ele>234.19999694824</ele>
        <time>2022-07-07T13:07:29Z</time>
      </trkpt>
      <trkpt lat="47.88315" lon="3.26723">
        <ele>232.60000610352</ele>
        <time>2022-07-07T13:07:36Z</time>
      </trkpt>
      <trkpt lat="47.88316" lon="3.26719">
        <ele>233.19999694824</ele>
        <time>2022-07-07T13:07:41Z</time>
      </trkpt>
      <trkpt lat="47.88317" lon="3.26717">
        <ele>233.80000305176</ele>
        <time>2022-07-07T13:07:42Z</time>
      </trkpt>
      <trkpt lat="47.88318" lon="3.26716">
        <ele>234.39999389648</ele>
        <time>2022-07-07T13:07:43Z</time>
      </trkpt>
      <trkpt lat="47.88318" lon="3.26715">
        <ele>234.60000610352</ele>
        <time>2022-07-07T13:07:44Z</time>
      </trkpt>
      <trkpt lat="47.88324" lon="3.26682">
        <ele>235.80000305176</ele>
        <time>2022-07-07T13:08:01Z</time>
      </trkpt>
      <trkpt lat="47.88324" lon="3.26681">
        <ele>235.80000305176</ele>
        <time>2022-07-07T13:08:02Z</time>
      </trkpt>
      <trkpt lat="47.88331" lon="3.26663">
        <ele>235.80000305176</ele>
        <time>2022-07-07T13:08:13Z</time>
      </trkpt>
      <trkpt lat="47.88338" lon="3.26647">
        <ele>235.60000610352</ele>
        <time>2022-07-07T13:08:21Z</time>
      </trkpt>
      <trkpt lat="47.88343" lon="3.26626">
        <ele>235.60000610352</ele>
        <time>2022-07-07T13:08:32Z</time>
      </trkpt>
      <trkpt lat="47.88346" lon="3.26609">
        <ele>236</ele>
        <time>2022-07-07T13:08:40Z</time>
      </trkpt>
      <trkpt lat="47.88345" lon="3.26589">
        <ele>235.80000305176</ele>
        <time>2022-07-07T13:08:48Z</time>
      </trkpt>
      <trkpt lat="47.88344" lon="3.26583">
        <ele>235.60000610352</ele>
        <time>2022-07-07T13:08:52Z</time>
      </trkpt>
      <trkpt lat="47.88344" lon="3.26579">
        <ele>235.60000610352</ele>
        <time>2022-07-07T13:08:54Z</time>
      </trkpt>
      <trkpt lat="47.88344" lon="3.26575">
        <ele>235.80000305176</ele>
        <time>2022-07-07T13:08:57Z</time>
      </trkpt>
      <trkpt lat="47.88343" lon="3.26569">
        <ele>236</ele>
        <time>2022-07-07T13:09:00Z</time>
      </trkpt>
      <trkpt lat="47.88342" lon="3.26555">
        <ele>236</ele>
        <time>2022-07-07T13:09:08Z</time>
      </trkpt>
      <trkpt lat="47.88339" lon="3.26532">
        <ele>236.19999694824</ele>
        <time>2022-07-07T13:09:21Z</time>
      </trkpt>
      <trkpt lat="47.88338" lon="3.26519">
        <ele>236</ele>
        <time>2022-07-07T13:09:31Z</time>
      </trkpt>
      <trkpt lat="47.88336" lon="3.26513">
        <ele>235.80000305176</ele>
        <time>2022-07-07T13:09:35Z</time>
      </trkpt>
      <trkpt lat="47.88336" lon="3.26512">
        <ele>235.80000305176</ele>
        <time>2022-07-07T13:09:36Z</time>
      </trkpt>
      <trkpt lat="47.88322" lon="3.26483">
        <ele>236.39999389648</ele>
        <time>2022-07-07T13:09:53Z</time>
      </trkpt>
      <trkpt lat="47.88322" lon="3.26481">
        <ele>236.80000305176</ele>
        <time>2022-07-07T13:09:54Z</time>
      </trkpt>
      <trkpt lat="47.88307" lon="3.26444">
        <ele>235.80000305176</ele>
        <time>2022-07-07T13:10:16Z</time>
      </trkpt>
      <trkpt lat="47.8829" lon="3.26422">
        <ele>235.80000305176</ele>
        <time>2022-07-07T13:10:35Z</time>
      </trkpt>
      <trkpt lat="47.88287" lon="3.26418">
        <ele>235.39999389648</ele>
        <time>2022-07-07T13:10:40Z</time>
      </trkpt>
      <trkpt lat="47.88285" lon="3.26416">
        <ele>235.39999389648</ele>
        <time>2022-07-07T13:10:42Z</time>
      </trkpt>
      <trkpt lat="47.88279" lon="3.26405">
        <ele>235.80000305176</ele>
        <time>2022-07-07T13:10:53Z</time>
      </trkpt>
      <trkpt lat="47.88272" lon="3.26386">
        <ele>235.39999389648</ele>
        <time>2022-07-07T13:11:05Z</time>
      </trkpt>
      <trkpt lat="47.88269" lon="3.26378">
        <ele>235.19999694824</ele>
        <time>2022-07-07T13:11:10Z</time>
      </trkpt>
      <trkpt lat="47.88268" lon="3.26376">
        <ele>235.19999694824</ele>
        <time>2022-07-07T13:11:11Z</time>
      </trkpt>
      <trkpt lat="47.8826" lon="3.26365">
        <ele>235</ele>
        <time>2022-07-07T13:11:19Z</time>
      </trkpt>
      <trkpt lat="47.88247" lon="3.26353">
        <ele>235</ele>
        <time>2022-07-07T13:11:28Z</time>
      </trkpt>
      <trkpt lat="47.88245" lon="3.26352">
        <ele>235</ele>
        <time>2022-07-07T13:11:29Z</time>
      </trkpt>
      <trkpt lat="47.88222" lon="3.26322">
        <ele>234.60000610352</ele>
        <time>2022-07-07T13:11:49Z</time>
      </trkpt>
      <trkpt lat="47.88205" lon="3.26288">
        <ele>233.60000610352</ele>
        <time>2022-07-07T13:12:09Z</time>
      </trkpt>
      <trkpt lat="47.88192" lon="3.26259">
        <ele>233.60000610352</ele>
        <time>2022-07-07T13:12:26Z</time>
      </trkpt>
      <trkpt lat="47.88191" lon="3.26255">
        <ele>233.60000610352</ele>
        <time>2022-07-07T13:12:29Z</time>
      </trkpt>
      <trkpt lat="47.88185" lon="3.26231">
        <ele>234</ele>
        <time>2022-07-07T13:12:43Z</time>
      </trkpt>
      <trkpt lat="47.88184" lon="3.26229">
        <ele>234</ele>
        <time>2022-07-07T13:12:44Z</time>
      </trkpt>
      <trkpt lat="47.88183" lon="3.26225">
        <ele>234.39999389648</ele>
        <time>2022-07-07T13:12:46Z</time>
      </trkpt>
      <trkpt lat="47.88182" lon="3.26221">
        <ele>234.39999389648</ele>
        <time>2022-07-07T13:12:48Z</time>
      </trkpt>
      <trkpt lat="47.8818" lon="3.26216">
        <ele>234.39999389648</ele>
        <time>2022-07-07T13:12:51Z</time>
      </trkpt>
      <trkpt lat="47.8818" lon="3.26212">
        <ele>234.39999389648</ele>
        <time>2022-07-07T13:12:53Z</time>
      </trkpt>
      <trkpt lat="47.88176" lon="3.26196">
        <ele>234.39999389648</ele>
        <time>2022-07-07T13:13:02Z</time>
      </trkpt>
      <trkpt lat="47.88173" lon="3.26177">
        <ele>234.80000305176</ele>
        <time>2022-07-07T13:13:13Z</time>
      </trkpt>
      <trkpt lat="47.88169" lon="3.2616">
        <ele>235</ele>
        <time>2022-07-07T13:13:22Z</time>
      </trkpt>
      <trkpt lat="47.88167" lon="3.26153">
        <ele>235.19999694824</ele>
        <time>2022-07-07T13:13:26Z</time>
      </trkpt>
      <trkpt lat="47.88166" lon="3.26151">
        <ele>235.19999694824</ele>
        <time>2022-07-07T13:13:27Z</time>
      </trkpt>
      <trkpt lat="47.88165" lon="3.2615">
        <ele>235.19999694824</ele>
        <time>2022-07-07T13:13:28Z</time>
      </trkpt>
      <trkpt lat="47.8816" lon="3.2614">
        <ele>235.60000610352</ele>
        <time>2022-07-07T13:13:34Z</time>
      </trkpt>
      <trkpt lat="47.88155" lon="3.2613">
        <ele>235.60000610352</ele>
        <time>2022-07-07T13:13:40Z</time>
      </trkpt>
      <trkpt lat="47.8815" lon="3.2612">
        <ele>235.39999389648</ele>
        <time>2022-07-07T13:13:47Z</time>
      </trkpt>
      <trkpt lat="47.88144" lon="3.26109">
        <ele>236</ele>
        <time>2022-07-07T13:13:55Z</time>
      </trkpt>
      <trkpt lat="47.88139" lon="3.26098">
        <ele>236</ele>
        <time>2022-07-07T13:14:02Z</time>
      </trkpt>
      <trkpt lat="47.88138" lon="3.26096">
        <ele>236</ele>
        <time>2022-07-07T13:14:04Z</time>
      </trkpt>
      <trkpt lat="47.88135" lon="3.26092">
        <ele>236</ele>
        <time>2022-07-07T13:14:07Z</time>
      </trkpt>
      <trkpt lat="47.88124" lon="3.26075">
        <ele>236.80000305176</ele>
        <time>2022-07-07T13:14:26Z</time>
      </trkpt>
      <trkpt lat="47.88123" lon="3.26064">
        <ele>236.60000610352</ele>
        <time>2022-07-07T13:14:47Z</time>
      </trkpt>
      <trkpt lat="47.88123" lon="3.26062">
        <ele>236.60000610352</ele>
        <time>2022-07-07T13:14:48Z</time>
      </trkpt>
      <trkpt lat="47.88122" lon="3.2606">
        <ele>236.60000610352</ele>
        <time>2022-07-07T13:14:49Z</time>
      </trkpt>
      <trkpt lat="47.88121" lon="3.26025">
        <ele>236.19999694824</ele>
        <time>2022-07-07T13:15:08Z</time>
      </trkpt>
      <trkpt lat="47.88121" lon="3.26016">
        <ele>236.19999694824</ele>
        <time>2022-07-07T13:15:13Z</time>
      </trkpt>
      <trkpt lat="47.88121" lon="3.2601">
        <ele>236.39999389648</ele>
        <time>2022-07-07T13:15:16Z</time>
      </trkpt>
      <trkpt lat="47.88123" lon="3.2598">
        <ele>236.60000610352</ele>
        <time>2022-07-07T13:15:32Z</time>
      </trkpt>
      <trkpt lat="47.88121" lon="3.25949">
        <ele>236.19999694824</ele>
        <time>2022-07-07T13:15:49Z</time>
      </trkpt>
      <trkpt lat="47.8812" lon="3.25937">
        <ele>236.19999694824</ele>
        <time>2022-07-07T13:15:56Z</time>
      </trkpt>
      <trkpt lat="47.8812" lon="3.25935">
        <ele>236.19999694824</ele>
        <time>2022-07-07T13:15:57Z</time>
      </trkpt>
      <trkpt lat="47.88115" lon="3.25907">
        <ele>235.39999389648</ele>
        <time>2022-07-07T13:16:14Z</time>
      </trkpt>
      <trkpt lat="47.88109" lon="3.25889">
        <ele>235.80000305176</ele>
        <time>2022-07-07T13:16:26Z</time>
      </trkpt>
      <trkpt lat="47.88103" lon="3.25872">
        <ele>235.80000305176</ele>
        <time>2022-07-07T13:16:36Z</time>
      </trkpt>
      <trkpt lat="47.88103" lon="3.25871">
        <ele>235.80000305176</ele>
        <time>2022-07-07T13:16:37Z</time>
      </trkpt>
      <trkpt lat="47.88097" lon="3.25857">
        <ele>236.39999389648</ele>
        <time>2022-07-07T13:16:46Z</time>
      </trkpt>
      <trkpt lat="47.8809" lon="3.25837">
        <ele>236.39999389648</ele>
        <time>2022-07-07T13:17:01Z</time>
      </trkpt>
      <trkpt lat="47.88085" lon="3.25825">
        <ele>236.19999694824</ele>
        <time>2022-07-07T13:17:11Z</time>
      </trkpt>
      <trkpt lat="47.88066" lon="3.25782">
        <ele>235.80000305176</ele>
        <time>2022-07-07T13:17:37Z</time>
      </trkpt>
      <trkpt lat="47.88056" lon="3.25765">
        <ele>236.19999694824</ele>
        <time>2022-07-07T13:17:54Z</time>
      </trkpt>
      <trkpt lat="47.88053" lon="3.25762">
        <ele>236.19999694824</ele>
        <time>2022-07-07T13:17:58Z</time>
      </trkpt>
      <trkpt lat="47.88042" lon="3.25745">
        <ele>236.19999694824</ele>
        <time>2022-07-07T13:18:12Z</time>
      </trkpt>
      <trkpt lat="47.88039" lon="3.25741">
        <ele>236.19999694824</ele>
        <time>2022-07-07T13:18:15Z</time>
      </trkpt>
      <trkpt lat="47.88025" lon="3.25721">
        <ele>236.19999694824</ele>
        <time>2022-07-07T13:18:31Z</time>
      </trkpt>
      <trkpt lat="47.88023" lon="3.25719">
        <ele>236</ele>
        <time>2022-07-07T13:18:49Z</time>
      </trkpt>
      <trkpt lat="47.88019" lon="3.25715">
        <ele>236</ele>
        <time>2022-07-07T13:19:05Z</time>
      </trkpt>
      <trkpt lat="47.88018" lon="3.25714">
        <ele>235.80000305176</ele>
        <time>2022-07-07T13:19:06Z</time>
      </trkpt>
      <trkpt lat="47.88017" lon="3.25713">
        <ele>235.80000305176</ele>
        <time>2022-07-07T13:19:07Z</time>
      </trkpt>
      <trkpt lat="47.88005" lon="3.25699">
        <ele>235.60000610352</ele>
        <time>2022-07-07T13:19:20Z</time>
      </trkpt>
      <trkpt lat="47.88005" lon="3.25697">
        <ele>235.39999389648</ele>
        <time>2022-07-07T13:19:21Z</time>
      </trkpt>
      <trkpt lat="47.87991" lon="3.2568">
        <ele>235.39999389648</ele>
        <time>2022-07-07T13:19:37Z</time>
      </trkpt>
      <trkpt lat="47.87989" lon="3.25676">
        <ele>234</ele>
        <time>2022-07-07T13:19:41Z</time>
      </trkpt>
      <trkpt lat="47.87987" lon="3.25666">
        <ele>236.80000305176</ele>
        <time>2022-07-07T13:19:48Z</time>
      </trkpt>
      <trkpt lat="47.87976" lon="3.25654">
        <ele>234.80000305176</ele>
        <time>2022-07-07T13:20:01Z</time>
      </trkpt>
      <trkpt lat="47.87959" lon="3.25632">
        <ele>234.60000610352</ele>
        <time>2022-07-07T13:20:19Z</time>
      </trkpt>
      <trkpt lat="47.87944" lon="3.25611">
        <ele>233.80000305176</ele>
        <time>2022-07-07T13:20:35Z</time>
      </trkpt>
      <trkpt lat="47.87928" lon="3.25582">
        <ele>233.39999389648</ele>
        <time>2022-07-07T13:20:54Z</time>
      </trkpt>
      <trkpt lat="47.87919" lon="3.25568">
        <ele>233.19999694824</ele>
        <time>2022-07-07T13:21:08Z</time>
      </trkpt>
      <trkpt lat="47.87903" lon="3.2555">
        <ele>232.60000610352</ele>
        <time>2022-07-07T13:21:23Z</time>
      </trkpt>
      <trkpt lat="47.87891" lon="3.25528">
        <ele>232</ele>
        <time>2022-07-07T13:21:37Z</time>
      </trkpt>
      <trkpt lat="47.87887" lon="3.2551">
        <ele>231.80000305176</ele>
        <time>2022-07-07T13:21:50Z</time>
      </trkpt>
      <trkpt lat="47.87887" lon="3.25508">
        <ele>231.80000305176</ele>
        <time>2022-07-07T13:21:51Z</time>
      </trkpt>
      <trkpt lat="47.87887" lon="3.255">
        <ele>231.39999389648</ele>
        <time>2022-07-07T13:22:03Z</time>
      </trkpt>
      <trkpt lat="47.87889" lon="3.25488">
        <ele>232.39999389648</ele>
        <time>2022-07-07T13:22:16Z</time>
      </trkpt>
      <trkpt lat="47.8789" lon="3.25487">
        <ele>232.39999389648</ele>
        <time>2022-07-07T13:22:17Z</time>
      </trkpt>
      <trkpt lat="47.87899" lon="3.25469">
        <ele>230.60000610352</ele>
        <time>2022-07-07T13:22:32Z</time>
      </trkpt>
      <trkpt lat="47.87901" lon="3.25466">
        <ele>231</ele>
        <time>2022-07-07T13:22:34Z</time>
      </trkpt>
      <trkpt lat="47.87905" lon="3.25461">
        <ele>231.60000610352</ele>
        <time>2022-07-07T13:22:38Z</time>
      </trkpt>
      <trkpt lat="47.87905" lon="3.2546">
        <ele>231.80000305176</ele>
        <time>2022-07-07T13:22:39Z</time>
      </trkpt>
      <trkpt lat="47.87906" lon="3.25458">
        <ele>231.80000305176</ele>
        <time>2022-07-07T13:22:40Z</time>
      </trkpt>
      <trkpt lat="47.87908" lon="3.25453">
        <ele>231.80000305176</ele>
        <time>2022-07-07T13:22:44Z</time>
      </trkpt>
      <trkpt lat="47.87919" lon="3.25437">
        <ele>231.39999389648</ele>
        <time>2022-07-07T13:22:59Z</time>
      </trkpt>
      <trkpt lat="47.87926" lon="3.25418">
        <ele>231.39999389648</ele>
        <time>2022-07-07T13:23:10Z</time>
      </trkpt>
      <trkpt lat="47.87936" lon="3.25404">
        <ele>230.80000305176</ele>
        <time>2022-07-07T13:23:21Z</time>
      </trkpt>
      <trkpt lat="47.87943" lon="3.25391">
        <ele>230.39999389648</ele>
        <time>2022-07-07T13:23:31Z</time>
      </trkpt>
      <trkpt lat="47.87952" lon="3.25377">
        <ele>230.39999389648</ele>
        <time>2022-07-07T13:23:41Z</time>
      </trkpt>
      <trkpt lat="47.87968" lon="3.25356">
        <ele>229.19999694824</ele>
        <time>2022-07-07T13:23:56Z</time>
      </trkpt>
      <trkpt lat="47.8797" lon="3.25352">
        <ele>229.39999389648</ele>
        <time>2022-07-07T13:23:59Z</time>
      </trkpt>
      <trkpt lat="47.87976" lon="3.2534">
        <ele>229.19999694824</ele>
        <time>2022-07-07T13:24:08Z</time>
      </trkpt>
      <trkpt lat="47.88001" lon="3.25306">
        <ele>228</ele>
        <time>2022-07-07T13:24:32Z</time>
      </trkpt>
      <trkpt lat="47.8801" lon="3.25292">
        <ele>227.19999694824</ele>
        <time>2022-07-07T13:24:42Z</time>
      </trkpt>
      <trkpt lat="47.88017" lon="3.25277">
        <ele>226.80000305176</ele>
        <time>2022-07-07T13:24:53Z</time>
      </trkpt>
      <trkpt lat="47.88026" lon="3.25261">
        <ele>225.60000610352</ele>
        <time>2022-07-07T13:25:04Z</time>
      </trkpt>
      <trkpt lat="47.88041" lon="3.25253">
        <ele>224.80000305176</ele>
        <time>2022-07-07T13:25:15Z</time>
      </trkpt>
      <trkpt lat="47.88052" lon="3.25246">
        <ele>223.60000610352</ele>
        <time>2022-07-07T13:25:24Z</time>
      </trkpt>
      <trkpt lat="47.88056" lon="3.25246">
        <ele>223.19999694824</ele>
        <time>2022-07-07T13:25:26Z</time>
      </trkpt>
      <trkpt lat="47.88061" lon="3.25245">
        <ele>223</ele>
        <time>2022-07-07T13:25:29Z</time>
      </trkpt>
      <trkpt lat="47.88077" lon="3.25234">
        <ele>221.19999694824</ele>
        <time>2022-07-07T13:25:44Z</time>
      </trkpt>
      <trkpt lat="47.88097" lon="3.25216">
        <ele>218.19999694824</ele>
        <time>2022-07-07T13:26:03Z</time>
      </trkpt>
      <trkpt lat="47.881" lon="3.25212">
        <ele>217.60000610352</ele>
        <time>2022-07-07T13:26:06Z</time>
      </trkpt>
      <trkpt lat="47.88114" lon="3.25194">
        <ele>215.19999694824</ele>
        <time>2022-07-07T13:26:22Z</time>
      </trkpt>
      <trkpt lat="47.88122" lon="3.25185">
        <ele>213.60000610352</ele>
        <time>2022-07-07T13:26:31Z</time>
      </trkpt>
      <trkpt lat="47.88124" lon="3.25183">
        <ele>213.19999694824</ele>
        <time>2022-07-07T13:26:33Z</time>
      </trkpt>
      <trkpt lat="47.88125" lon="3.25182">
        <ele>213.19999694824</ele>
        <time>2022-07-07T13:26:34Z</time>
      </trkpt>
      <trkpt lat="47.88132" lon="3.25161">
        <ele>211.19999694824</ele>
        <time>2022-07-07T13:26:50Z</time>
      </trkpt>
      <trkpt lat="47.88136" lon="3.25152">
        <ele>210</ele>
        <time>2022-07-07T13:27:01Z</time>
      </trkpt>
      <trkpt lat="47.88153" lon="3.25143">
        <ele>209</ele>
        <time>2022-07-07T13:27:13Z</time>
      </trkpt>
      <trkpt lat="47.88154" lon="3.25142">
        <ele>209</ele>
        <time>2022-07-07T13:27:14Z</time>
      </trkpt>
      <trkpt lat="47.88169" lon="3.25116">
        <ele>206</ele>
        <time>2022-07-07T13:27:31Z</time>
      </trkpt>
      <trkpt lat="47.8817" lon="3.25109">
        <ele>205.60000610352</ele>
        <time>2022-07-07T13:27:35Z</time>
      </trkpt>
      <trkpt lat="47.88174" lon="3.25098">
        <ele>204.39999389648</ele>
        <time>2022-07-07T13:27:42Z</time>
      </trkpt>
      <trkpt lat="47.88184" lon="3.25079">
        <ele>202.60000610352</ele>
        <time>2022-07-07T13:27:56Z</time>
      </trkpt>
      <trkpt lat="47.88195" lon="3.25059">
        <ele>200.39999389648</ele>
        <time>2022-07-07T13:28:15Z</time>
      </trkpt>
      <trkpt lat="47.88193" lon="3.25061">
        <ele>201.80000305176</ele>
        <time>2022-07-07T13:28:23Z</time>
      </trkpt>
      <trkpt lat="47.8819" lon="3.25064">
        <ele>201.60000610352</ele>
        <time>2022-07-07T13:28:52Z</time>
      </trkpt>
      <trkpt lat="47.88197" lon="3.25061">
        <ele>201</ele>
        <time>2022-07-07T13:29:17Z</time>
      </trkpt>
      <trkpt lat="47.88202" lon="3.25058">
        <ele>200.60000610352</ele>
        <time>2022-07-07T13:29:21Z</time>
      </trkpt>
      <trkpt lat="47.88203" lon="3.25056">
        <ele>200.39999389648</ele>
        <time>2022-07-07T13:29:22Z</time>
      </trkpt>
      <trkpt lat="47.88219" lon="3.25033">
        <ele>197.60000610352</ele>
        <time>2022-07-07T13:29:40Z</time>
      </trkpt>
      <trkpt lat="47.88237" lon="3.25009">
        <ele>194.80000305176</ele>
        <time>2022-07-07T13:30:00Z</time>
      </trkpt>
      <trkpt lat="47.88252" lon="3.24985">
        <ele>193.19999694824</ele>
        <time>2022-07-07T13:30:18Z</time>
      </trkpt>
      <trkpt lat="47.88265" lon="3.24965">
        <ele>190.60000610352</ele>
        <time>2022-07-07T13:30:36Z</time>
      </trkpt>
      <trkpt lat="47.88269" lon="3.24962">
        <ele>191.19999694824</ele>
        <time>2022-07-07T13:30:53Z</time>
      </trkpt>
      <trkpt lat="47.8827" lon="3.24957">
        <ele>191.39999389648</ele>
        <time>2022-07-07T13:31:02Z</time>
      </trkpt>
      <trkpt lat="47.8827" lon="3.24955">
        <ele>191.19999694824</ele>
        <time>2022-07-07T13:31:03Z</time>
      </trkpt>
      <trkpt lat="47.88276" lon="3.24944">
        <ele>189.80000305176</ele>
        <time>2022-07-07T13:31:12Z</time>
      </trkpt>
      <trkpt lat="47.88287" lon="3.24932">
        <ele>188.60000610352</ele>
        <time>2022-07-07T13:31:23Z</time>
      </trkpt>
      <trkpt lat="47.88296" lon="3.24928">
        <ele>188.39999389648</ele>
        <time>2022-07-07T13:31:30Z</time>
      </trkpt>
      <trkpt lat="47.88297" lon="3.24928">
        <ele>188.19999694824</ele>
        <time>2022-07-07T13:31:31Z</time>
      </trkpt>
      <trkpt lat="47.88298" lon="3.24928">
        <ele>188.19999694824</ele>
        <time>2022-07-07T13:31:32Z</time>
      </trkpt>
      <trkpt lat="47.88304" lon="3.24925">
        <ele>187.80000305176</ele>
        <time>2022-07-07T13:31:37Z</time>
      </trkpt>
      <trkpt lat="47.88305" lon="3.24925">
        <ele>187.80000305176</ele>
        <time>2022-07-07T13:31:38Z</time>
      </trkpt>
      <trkpt lat="47.88306" lon="3.24924">
        <ele>187.60000610352</ele>
        <time>2022-07-07T13:31:39Z</time>
      </trkpt>
      <trkpt lat="47.88307" lon="3.24923">
        <ele>187.39999389648</ele>
        <time>2022-07-07T13:31:40Z</time>
      </trkpt>
      <trkpt lat="47.88323" lon="3.2491">
        <ele>186.19999694824</ele>
        <time>2022-07-07T13:31:54Z</time>
      </trkpt>
      <trkpt lat="47.88336" lon="3.24901">
        <ele>185.39999389648</ele>
        <time>2022-07-07T13:32:04Z</time>
      </trkpt>
      <trkpt lat="47.88339" lon="3.24898">
        <ele>184.80000305176</ele>
        <time>2022-07-07T13:32:07Z</time>
      </trkpt>
      <trkpt lat="47.88344" lon="3.24894">
        <ele>184.60000610352</ele>
        <time>2022-07-07T13:32:11Z</time>
      </trkpt>
      <trkpt lat="47.88345" lon="3.24894">
        <ele>184.60000610352</ele>
        <time>2022-07-07T13:32:12Z</time>
      </trkpt>
      <trkpt lat="47.88346" lon="3.24892">
        <ele>184.39999389648</ele>
        <time>2022-07-07T13:32:14Z</time>
      </trkpt>
      <trkpt lat="47.8835" lon="3.24889">
        <ele>184.39999389648</ele>
        <time>2022-07-07T13:32:17Z</time>
      </trkpt>
      <trkpt lat="47.88354" lon="3.24887">
        <ele>184.19999694824</ele>
        <time>2022-07-07T13:32:20Z</time>
      </trkpt>
      <trkpt lat="47.88356" lon="3.24886">
        <ele>184</ele>
        <time>2022-07-07T13:32:22Z</time>
      </trkpt>
      <trkpt lat="47.88359" lon="3.24884">
        <ele>183.80000305176</ele>
        <time>2022-07-07T13:32:25Z</time>
      </trkpt>
      <trkpt lat="47.8836" lon="3.24883">
        <ele>183.60000610352</ele>
        <time>2022-07-07T13:32:26Z</time>
      </trkpt>
      <trkpt lat="47.88361" lon="3.24882">
        <ele>183.60000610352</ele>
        <time>2022-07-07T13:32:27Z</time>
      </trkpt>
      <trkpt lat="47.88362" lon="3.24881">
        <ele>183.60000610352</ele>
        <time>2022-07-07T13:32:28Z</time>
      </trkpt>
      <trkpt lat="47.88363" lon="3.2488">
        <ele>183.60000610352</ele>
        <time>2022-07-07T13:32:29Z</time>
      </trkpt>
      <trkpt lat="47.88364" lon="3.24879">
        <ele>183.60000610352</ele>
        <time>2022-07-07T13:32:30Z</time>
      </trkpt>
      <trkpt lat="47.88373" lon="3.24872">
        <ele>183.80000305176</ele>
        <time>2022-07-07T13:32:39Z</time>
      </trkpt>
      <trkpt lat="47.88384" lon="3.24867">
        <ele>183.39999389648</ele>
        <time>2022-07-07T13:32:48Z</time>
      </trkpt>
      <trkpt lat="47.88392" lon="3.24858">
        <ele>182.80000305176</ele>
        <time>2022-07-07T13:32:57Z</time>
      </trkpt>
      <trkpt lat="47.88393" lon="3.24857">
        <ele>182.80000305176</ele>
        <time>2022-07-07T13:32:58Z</time>
      </trkpt>
      <trkpt lat="47.88395" lon="3.24856">
        <ele>182.80000305176</ele>
        <time>2022-07-07T13:32:59Z</time>
      </trkpt>
      <trkpt lat="47.88407" lon="3.24848">
        <ele>182.39999389648</ele>
        <time>2022-07-07T13:33:10Z</time>
      </trkpt>
      <trkpt lat="47.88409" lon="3.24846">
        <ele>182.19999694824</ele>
        <time>2022-07-07T13:33:12Z</time>
      </trkpt>
      <trkpt lat="47.88411" lon="3.24846">
        <ele>182.19999694824</ele>
        <time>2022-07-07T13:33:13Z</time>
      </trkpt>
      <trkpt lat="47.88417" lon="3.24844">
        <ele>181.80000305176</ele>
        <time>2022-07-07T13:33:18Z</time>
      </trkpt>
      <trkpt lat="47.8843" lon="3.24837">
        <ele>181</ele>
        <time>2022-07-07T13:33:28Z</time>
      </trkpt>
      <trkpt lat="47.88432" lon="3.24836">
        <ele>181</ele>
        <time>2022-07-07T13:33:29Z</time>
      </trkpt>
      <trkpt lat="47.88436" lon="3.24832">
        <ele>180.60000610352</ele>
        <time>2022-07-07T13:33:33Z</time>
      </trkpt>
      <trkpt lat="47.88437" lon="3.24831">
        <ele>180.60000610352</ele>
        <time>2022-07-07T13:33:34Z</time>
      </trkpt>
      <trkpt lat="47.88439" lon="3.2483">
        <ele>180.60000610352</ele>
        <time>2022-07-07T13:33:35Z</time>
      </trkpt>
      <trkpt lat="47.8844" lon="3.24829">
        <ele>180.39999389648</ele>
        <time>2022-07-07T13:33:36Z</time>
      </trkpt>
      <trkpt lat="47.88444" lon="3.24827">
        <ele>180.39999389648</ele>
        <time>2022-07-07T13:33:39Z</time>
      </trkpt>
      <trkpt lat="47.88449" lon="3.24823">
        <ele>180</ele>
        <time>2022-07-07T13:33:44Z</time>
      </trkpt>
      <trkpt lat="47.8846" lon="3.24814">
        <ele>179.80000305176</ele>
        <time>2022-07-07T13:33:53Z</time>
      </trkpt>
      <trkpt lat="47.88463" lon="3.24811">
        <ele>179.60000610352</ele>
        <time>2022-07-07T13:33:56Z</time>
      </trkpt>
      <trkpt lat="47.8847" lon="3.24804">
        <ele>179.19999694824</ele>
        <time>2022-07-07T13:34:02Z</time>
      </trkpt>
      <trkpt lat="47.88473" lon="3.24801">
        <ele>179.19999694824</ele>
        <time>2022-07-07T13:34:05Z</time>
      </trkpt>
      <trkpt lat="47.88475" lon="3.24799">
        <ele>179</ele>
        <time>2022-07-07T13:34:07Z</time>
      </trkpt>
      <trkpt lat="47.88485" lon="3.24792">
        <ele>178.60000610352</ele>
        <time>2022-07-07T13:34:15Z</time>
      </trkpt>
      <trkpt lat="47.88499" lon="3.24784">
        <ele>178.39999389648</ele>
        <time>2022-07-07T13:34:26Z</time>
      </trkpt>
      <trkpt lat="47.88503" lon="3.24783">
        <ele>178.19999694824</ele>
        <time>2022-07-07T13:34:29Z</time>
      </trkpt>
      <trkpt lat="47.88521" lon="3.24772">
        <ele>177.60000610352</ele>
        <time>2022-07-07T13:34:43Z</time>
      </trkpt>
      <trkpt lat="47.88532" lon="3.24765">
        <ele>177</ele>
        <time>2022-07-07T13:34:51Z</time>
      </trkpt>
      <trkpt lat="47.88557" lon="3.24746">
        <ele>177</ele>
        <time>2022-07-07T13:35:10Z</time>
      </trkpt>
      <trkpt lat="47.88565" lon="3.24731">
        <ele>177</ele>
        <time>2022-07-07T13:35:19Z</time>
      </trkpt>
      <trkpt lat="47.88568" lon="3.24727">
        <ele>177.19999694824</ele>
        <time>2022-07-07T13:35:22Z</time>
      </trkpt>
      <trkpt lat="47.88568" lon="3.24725">
        <ele>177.19999694824</ele>
        <time>2022-07-07T13:35:23Z</time>
      </trkpt>
      <trkpt lat="47.88568" lon="3.24724">
        <ele>177.19999694824</ele>
        <time>2022-07-07T13:35:24Z</time>
      </trkpt>
      <trkpt lat="47.88569" lon="3.24722">
        <ele>177.19999694824</ele>
        <time>2022-07-07T13:35:25Z</time>
      </trkpt>
      <trkpt lat="47.8857" lon="3.2472">
        <ele>177.19999694824</ele>
        <time>2022-07-07T13:35:26Z</time>
      </trkpt>
      <trkpt lat="47.88571" lon="3.24719">
        <ele>177.19999694824</ele>
        <time>2022-07-07T13:35:27Z</time>
      </trkpt>
      <trkpt lat="47.88578" lon="3.24693">
        <ele>176.80000305176</ele>
        <time>2022-07-07T13:35:40Z</time>
      </trkpt>
      <trkpt lat="47.88579" lon="3.24691">
        <ele>176.80000305176</ele>
        <time>2022-07-07T13:35:41Z</time>
      </trkpt>
      <trkpt lat="47.8858" lon="3.24689">
        <ele>176.80000305176</ele>
        <time>2022-07-07T13:35:42Z</time>
      </trkpt>
      <trkpt lat="47.88585" lon="3.24679">
        <ele>176.80000305176</ele>
        <time>2022-07-07T13:35:48Z</time>
      </trkpt>
      <trkpt lat="47.88607" lon="3.2466">
        <ele>176.39999389648</ele>
        <time>2022-07-07T13:36:05Z</time>
      </trkpt>
      <trkpt lat="47.88607" lon="3.24659">
        <ele>176.39999389648</ele>
        <time>2022-07-07T13:36:06Z</time>
      </trkpt>
      <trkpt lat="47.8861" lon="3.24657">
        <ele>176.19999694824</ele>
        <time>2022-07-07T13:36:08Z</time>
      </trkpt>
      <trkpt lat="47.8861" lon="3.24656">
        <ele>176.19999694824</ele>
        <time>2022-07-07T13:36:09Z</time>
      </trkpt>
      <trkpt lat="47.88612" lon="3.24655">
        <ele>176.19999694824</ele>
        <time>2022-07-07T13:36:10Z</time>
      </trkpt>
      <trkpt lat="47.88614" lon="3.24654">
        <ele>176.19999694824</ele>
        <time>2022-07-07T13:36:12Z</time>
      </trkpt>
      <trkpt lat="47.88615" lon="3.24654">
        <ele>176.19999694824</ele>
        <time>2022-07-07T13:36:13Z</time>
      </trkpt>
      <trkpt lat="47.88658" lon="3.24624">
        <ele>175.80000305176</ele>
        <time>2022-07-07T13:36:48Z</time>
      </trkpt>
      <trkpt lat="47.88664" lon="3.2462">
        <ele>175.80000305176</ele>
        <time>2022-07-07T13:36:54Z</time>
      </trkpt>
      <trkpt lat="47.88669" lon="3.24612">
        <ele>175.60000610352</ele>
        <time>2022-07-07T13:37:00Z</time>
      </trkpt>
      <trkpt lat="47.88679" lon="3.24607">
        <ele>175.60000610352</ele>
        <time>2022-07-07T13:37:07Z</time>
      </trkpt>
      <trkpt lat="47.88681" lon="3.24606">
        <ele>175.60000610352</ele>
        <time>2022-07-07T13:37:08Z</time>
      </trkpt>
      <trkpt lat="47.88682" lon="3.24605">
        <ele>175.60000610352</ele>
        <time>2022-07-07T13:37:09Z</time>
      </trkpt>
      <trkpt lat="47.88685" lon="3.24602">
        <ele>175.80000305176</ele>
        <time>2022-07-07T13:37:11Z</time>
      </trkpt>
      <trkpt lat="47.88696" lon="3.24594">
        <ele>175.80000305176</ele>
        <time>2022-07-07T13:37:21Z</time>
      </trkpt>
      <trkpt lat="47.8871" lon="3.24586">
        <ele>175.60000610352</ele>
        <time>2022-07-07T13:37:33Z</time>
      </trkpt>
      <trkpt lat="47.88721" lon="3.24577">
        <ele>175.39999389648</ele>
        <time>2022-07-07T13:37:42Z</time>
      </trkpt>
      <trkpt lat="47.88732" lon="3.2457">
        <ele>175.60000610352</ele>
        <time>2022-07-07T13:37:55Z</time>
      </trkpt>
      <trkpt lat="47.88742" lon="3.24562">
        <ele>176.39999389648</ele>
        <time>2022-07-07T13:38:26Z</time>
      </trkpt>
      <trkpt lat="47.88748" lon="3.24561">
        <ele>175.80000305176</ele>
        <time>2022-07-07T13:38:33Z</time>
      </trkpt>
      <trkpt lat="47.88749" lon="3.2456">
        <ele>175.80000305176</ele>
        <time>2022-07-07T13:38:34Z</time>
      </trkpt>
      <trkpt lat="47.88752" lon="3.24559">
        <ele>175.39999389648</ele>
        <time>2022-07-07T13:38:37Z</time>
      </trkpt>
      <trkpt lat="47.88753" lon="3.24558">
        <ele>175.39999389648</ele>
        <time>2022-07-07T13:38:38Z</time>
      </trkpt>
      <trkpt lat="47.88754" lon="3.24558">
        <ele>175.19999694824</ele>
        <time>2022-07-07T13:38:39Z</time>
      </trkpt>
      <trkpt lat="47.88755" lon="3.24557">
        <ele>175</ele>
        <time>2022-07-07T13:38:40Z</time>
      </trkpt>
      <trkpt lat="47.88756" lon="3.24556">
        <ele>174.80000305176</ele>
        <time>2022-07-07T13:38:41Z</time>
      </trkpt>
      <trkpt lat="47.88762" lon="3.24553">
        <ele>174.80000305176</ele>
        <time>2022-07-07T13:38:46Z</time>
      </trkpt>
      <trkpt lat="47.88763" lon="3.24552">
        <ele>174.80000305176</ele>
        <time>2022-07-07T13:38:47Z</time>
      </trkpt>
      <trkpt lat="47.88764" lon="3.24552">
        <ele>174.80000305176</ele>
        <time>2022-07-07T13:38:48Z</time>
      </trkpt>
      <trkpt lat="47.8878" lon="3.24544">
        <ele>174.19999694824</ele>
        <time>2022-07-07T13:39:03Z</time>
      </trkpt>
      <trkpt lat="47.88783" lon="3.24543">
        <ele>174.39999389648</ele>
        <time>2022-07-07T13:39:06Z</time>
      </trkpt>
      <trkpt lat="47.88785" lon="3.24542">
        <ele>174.39999389648</ele>
        <time>2022-07-07T13:39:07Z</time>
      </trkpt>
      <trkpt lat="47.88794" lon="3.24537">
        <ele>175.39999389648</ele>
        <time>2022-07-07T13:39:15Z</time>
      </trkpt>
      <trkpt lat="47.88796" lon="3.24536">
        <ele>175.39999389648</ele>
        <time>2022-07-07T13:39:16Z</time>
      </trkpt>
      <trkpt lat="47.88797" lon="3.24535">
        <ele>175.19999694824</ele>
        <time>2022-07-07T13:39:17Z</time>
      </trkpt>
      <trkpt lat="47.88801" lon="3.24533">
        <ele>175.39999389648</ele>
        <time>2022-07-07T13:39:20Z</time>
      </trkpt>
      <trkpt lat="47.88809" lon="3.24529">
        <ele>175</ele>
        <time>2022-07-07T13:39:27Z</time>
      </trkpt>
      <trkpt lat="47.88825" lon="3.2452">
        <ele>175</ele>
        <time>2022-07-07T13:39:41Z</time>
      </trkpt>
      <trkpt lat="47.8884" lon="3.24511">
        <ele>175</ele>
        <time>2022-07-07T13:39:53Z</time>
      </trkpt>
      <trkpt lat="47.88843" lon="3.24509">
        <ele>175</ele>
        <time>2022-07-07T13:39:56Z</time>
      </trkpt>
      <trkpt lat="47.88854" lon="3.24504">
        <ele>175.19999694824</ele>
        <time>2022-07-07T13:40:05Z</time>
      </trkpt>
      <trkpt lat="47.88855" lon="3.24503">
        <ele>175.19999694824</ele>
        <time>2022-07-07T13:40:06Z</time>
      </trkpt>
      <trkpt lat="47.88858" lon="3.24502">
        <ele>175.19999694824</ele>
        <time>2022-07-07T13:40:08Z</time>
      </trkpt>
      <trkpt lat="47.88859" lon="3.24501">
        <ele>175.19999694824</ele>
        <time>2022-07-07T13:40:09Z</time>
      </trkpt>
      <trkpt lat="47.88861" lon="3.245">
        <ele>175.19999694824</ele>
        <time>2022-07-07T13:40:10Z</time>
      </trkpt>
      <trkpt lat="47.88873" lon="3.24493">
        <ele>174.80000305176</ele>
        <time>2022-07-07T13:40:19Z</time>
      </trkpt>
      <trkpt lat="47.88881" lon="3.24482">
        <ele>175</ele>
        <time>2022-07-07T13:40:27Z</time>
      </trkpt>
      <trkpt lat="47.8889" lon="3.24463">
        <ele>174.60000610352</ele>
        <time>2022-07-07T13:40:39Z</time>
      </trkpt>
      <trkpt lat="47.88891" lon="3.24431">
        <ele>174</ele>
        <time>2022-07-07T13:40:55Z</time>
      </trkpt>
      <trkpt lat="47.88891" lon="3.2443">
        <ele>173.80000305176</ele>
        <time>2022-07-07T13:40:56Z</time>
      </trkpt>
      <trkpt lat="47.88895" lon="3.24413">
        <ele>173.39999389648</ele>
        <time>2022-07-07T13:41:05Z</time>
      </trkpt>
      <trkpt lat="47.889" lon="3.24401">
        <ele>172.80000305176</ele>
        <time>2022-07-07T13:41:12Z</time>
      </trkpt>
      <trkpt lat="47.88929" lon="3.24361">
        <ele>172.19999694824</ele>
        <time>2022-07-07T13:41:44Z</time>
      </trkpt>
      <trkpt lat="47.88933" lon="3.24358">
        <ele>172.19999694824</ele>
        <time>2022-07-07T13:41:48Z</time>
      </trkpt>
      <trkpt lat="47.88934" lon="3.24357">
        <ele>172.19999694824</ele>
        <time>2022-07-07T13:41:49Z</time>
      </trkpt>
      <trkpt lat="47.88942" lon="3.2435">
        <ele>172.39999389648</ele>
        <time>2022-07-07T13:41:56Z</time>
      </trkpt>
      <trkpt lat="47.88942" lon="3.24348">
        <ele>172.19999694824</ele>
        <time>2022-07-07T13:41:57Z</time>
      </trkpt>
      <trkpt lat="47.88963" lon="3.2433">
        <ele>172.19999694824</ele>
        <time>2022-07-07T13:42:13Z</time>
      </trkpt>
      <trkpt lat="47.88979" lon="3.24305">
        <ele>172.60000610352</ele>
        <time>2022-07-07T13:42:30Z</time>
      </trkpt>
      <trkpt lat="47.88995" lon="3.24291">
        <ele>172.60000610352</ele>
        <time>2022-07-07T13:42:46Z</time>
      </trkpt>
      <trkpt lat="47.8901" lon="3.24277">
        <ele>173.19999694824</ele>
        <time>2022-07-07T13:42:59Z</time>
      </trkpt>
      <trkpt lat="47.89019" lon="3.24272">
        <ele>173.19999694824</ele>
        <time>2022-07-07T13:43:05Z</time>
      </trkpt>
      <trkpt lat="47.89028" lon="3.24268">
        <ele>173</ele>
        <time>2022-07-07T13:43:11Z</time>
      </trkpt>
      <trkpt lat="47.89031" lon="3.24267">
        <ele>173</ele>
        <time>2022-07-07T13:43:12Z</time>
      </trkpt>
      <trkpt lat="47.89032" lon="3.24266">
        <ele>173</ele>
        <time>2022-07-07T13:43:13Z</time>
      </trkpt>
      <trkpt lat="47.89034" lon="3.24266">
        <ele>173</ele>
        <time>2022-07-07T13:43:14Z</time>
      </trkpt>
      <trkpt lat="47.89035" lon="3.24265">
        <ele>173</ele>
        <time>2022-07-07T13:43:15Z</time>
      </trkpt>
      <trkpt lat="47.89039" lon="3.24263">
        <ele>172.80000305176</ele>
        <time>2022-07-07T13:43:18Z</time>
      </trkpt>
      <trkpt lat="47.89041" lon="3.24262">
        <ele>172.80000305176</ele>
        <time>2022-07-07T13:43:19Z</time>
      </trkpt>
      <trkpt lat="47.89048" lon="3.24258">
        <ele>173</ele>
        <time>2022-07-07T13:43:25Z</time>
      </trkpt>
      <trkpt lat="47.89069" lon="3.24246">
        <ele>173</ele>
        <time>2022-07-07T13:43:40Z</time>
      </trkpt>
      <trkpt lat="47.89072" lon="3.24245">
        <ele>173</ele>
        <time>2022-07-07T13:43:42Z</time>
      </trkpt>
      <trkpt lat="47.89076" lon="3.24243">
        <ele>173</ele>
        <time>2022-07-07T13:43:44Z</time>
      </trkpt>
      <trkpt lat="47.89077" lon="3.24242">
        <ele>173.19999694824</ele>
        <time>2022-07-07T13:43:45Z</time>
      </trkpt>
      <trkpt lat="47.89079" lon="3.24241">
        <ele>173.39999389648</ele>
        <time>2022-07-07T13:43:46Z</time>
      </trkpt>
      <trkpt lat="47.89081" lon="3.2424">
        <ele>173.80000305176</ele>
        <time>2022-07-07T13:43:47Z</time>
      </trkpt>
      <trkpt lat="47.89083" lon="3.24239">
        <ele>174</ele>
        <time>2022-07-07T13:43:48Z</time>
      </trkpt>
      <trkpt lat="47.89084" lon="3.24239">
        <ele>174</ele>
        <time>2022-07-07T13:43:49Z</time>
      </trkpt>
      <trkpt lat="47.8911" lon="3.24224">
        <ele>172.80000305176</ele>
        <time>2022-07-07T13:44:09Z</time>
      </trkpt>
      <trkpt lat="47.89131" lon="3.24212">
        <ele>171.80000305176</ele>
        <time>2022-07-07T13:44:27Z</time>
      </trkpt>
      <trkpt lat="47.89153" lon="3.24201">
        <ele>172.80000305176</ele>
        <time>2022-07-07T13:44:45Z</time>
      </trkpt>
      <trkpt lat="47.89172" lon="3.24191">
        <ele>173</ele>
        <time>2022-07-07T13:45:01Z</time>
      </trkpt>
      <trkpt lat="47.89188" lon="3.24183">
        <ele>172.60000610352</ele>
        <time>2022-07-07T13:45:14Z</time>
      </trkpt>
      <trkpt lat="47.892" lon="3.24178">
        <ele>172.60000610352</ele>
        <time>2022-07-07T13:45:24Z</time>
      </trkpt>
      <trkpt lat="47.89203" lon="3.24177">
        <ele>172.60000610352</ele>
        <time>2022-07-07T13:45:26Z</time>
      </trkpt>
      <trkpt lat="47.89204" lon="3.24176">
        <ele>172.60000610352</ele>
        <time>2022-07-07T13:45:27Z</time>
      </trkpt>
      <trkpt lat="47.89235" lon="3.24175">
        <ele>173.19999694824</ele>
        <time>2022-07-07T13:45:47Z</time>
      </trkpt>
      <trkpt lat="47.8926" lon="3.24174">
        <ele>173.39999389648</ele>
        <time>2022-07-07T13:46:06Z</time>
      </trkpt>
      <trkpt lat="47.89273" lon="3.24174">
        <ele>173.60000610352</ele>
        <time>2022-07-07T13:46:19Z</time>
      </trkpt>
      <trkpt lat="47.89281" lon="3.24175">
        <ele>173.80000305176</ele>
        <time>2022-07-07T13:46:23Z</time>
      </trkpt>
      <trkpt lat="47.89309" lon="3.24181">
        <ele>174.39999389648</ele>
        <time>2022-07-07T13:46:43Z</time>
      </trkpt>
      <trkpt lat="47.89327" lon="3.24162">
        <ele>174.19999694824</ele>
        <time>2022-07-07T13:47:01Z</time>
      </trkpt>
      <trkpt lat="47.89336" lon="3.24135">
        <ele>173.19999694824</ele>
        <time>2022-07-07T13:47:17Z</time>
      </trkpt>
      <trkpt lat="47.89339" lon="3.24118">
        <ele>172</ele>
        <time>2022-07-07T13:47:28Z</time>
      </trkpt>
      <trkpt lat="47.8934" lon="3.24115">
        <ele>172</ele>
        <time>2022-07-07T13:47:30Z</time>
      </trkpt>
      <trkpt lat="47.89345" lon="3.24097">
        <ele>172</ele>
        <time>2022-07-07T13:47:43Z</time>
      </trkpt>
      <trkpt lat="47.89348" lon="3.24083">
        <ele>171.60000610352</ele>
        <time>2022-07-07T13:47:51Z</time>
      </trkpt>
      <trkpt lat="47.89349" lon="3.24069">
        <ele>171.80000305176</ele>
        <time>2022-07-07T13:47:58Z</time>
      </trkpt>
      <trkpt lat="47.89349" lon="3.24067">
        <ele>171.80000305176</ele>
        <time>2022-07-07T13:47:59Z</time>
      </trkpt>
      <trkpt lat="47.89349" lon="3.24065">
        <ele>171.80000305176</ele>
        <time>2022-07-07T13:48:00Z</time>
      </trkpt>
      <trkpt lat="47.89349" lon="3.24048">
        <ele>172</ele>
        <time>2022-07-07T13:48:07Z</time>
      </trkpt>
      <trkpt lat="47.89349" lon="3.24046">
        <ele>172</ele>
        <time>2022-07-07T13:48:08Z</time>
      </trkpt>
      <trkpt lat="47.89349" lon="3.24044">
        <ele>172</ele>
        <time>2022-07-07T13:48:09Z</time>
      </trkpt>
      <trkpt lat="47.89349" lon="3.24042">
        <ele>171.80000305176</ele>
        <time>2022-07-07T13:48:10Z</time>
      </trkpt>
      <trkpt lat="47.89349" lon="3.2404">
        <ele>171.80000305176</ele>
        <time>2022-07-07T13:48:11Z</time>
      </trkpt>
      <trkpt lat="47.89351" lon="3.2403">
        <ele>171.39999389648</ele>
        <time>2022-07-07T13:48:17Z</time>
      </trkpt>
      <trkpt lat="47.89352" lon="3.24023">
        <ele>171.60000610352</ele>
        <time>2022-07-07T13:48:20Z</time>
      </trkpt>
      <trkpt lat="47.89354" lon="3.24007">
        <ele>171.60000610352</ele>
        <time>2022-07-07T13:48:28Z</time>
      </trkpt>
      <trkpt lat="47.89354" lon="3.24005">
        <ele>171.60000610352</ele>
        <time>2022-07-07T13:48:29Z</time>
      </trkpt>
      <trkpt lat="47.89354" lon="3.24001">
        <ele>171.60000610352</ele>
        <time>2022-07-07T13:48:31Z</time>
      </trkpt>
      <trkpt lat="47.89354" lon="3.23999">
        <ele>171.60000610352</ele>
        <time>2022-07-07T13:48:32Z</time>
      </trkpt>
      <trkpt lat="47.89355" lon="3.23994">
        <ele>171.60000610352</ele>
        <time>2022-07-07T13:48:35Z</time>
      </trkpt>
      <trkpt lat="47.89355" lon="3.23992">
        <ele>171.60000610352</ele>
        <time>2022-07-07T13:48:36Z</time>
      </trkpt>
      <trkpt lat="47.89356" lon="3.23988">
        <ele>171.80000305176</ele>
        <time>2022-07-07T13:48:38Z</time>
      </trkpt>
      <trkpt lat="47.89357" lon="3.23986">
        <ele>171.80000305176</ele>
        <time>2022-07-07T13:48:39Z</time>
      </trkpt>
      <trkpt lat="47.89358" lon="3.23982">
        <ele>171.80000305176</ele>
        <time>2022-07-07T13:48:41Z</time>
      </trkpt>
      <trkpt lat="47.89358" lon="3.23979">
        <ele>171.80000305176</ele>
        <time>2022-07-07T13:48:42Z</time>
      </trkpt>
      <trkpt lat="47.89358" lon="3.23977">
        <ele>171.80000305176</ele>
        <time>2022-07-07T13:48:43Z</time>
      </trkpt>
      <trkpt lat="47.89358" lon="3.23974">
        <ele>171.80000305176</ele>
        <time>2022-07-07T13:48:44Z</time>
      </trkpt>
      <trkpt lat="47.89358" lon="3.23972">
        <ele>171.80000305176</ele>
        <time>2022-07-07T13:48:45Z</time>
      </trkpt>
      <trkpt lat="47.89358" lon="3.2397">
        <ele>172</ele>
        <time>2022-07-07T13:48:46Z</time>
      </trkpt>
      <trkpt lat="47.89363" lon="3.23938">
        <ele>171.39999389648</ele>
        <time>2022-07-07T13:49:04Z</time>
      </trkpt>
      <trkpt lat="47.89369" lon="3.2392">
        <ele>171.80000305176</ele>
        <time>2022-07-07T13:49:18Z</time>
      </trkpt>
      <trkpt lat="47.89369" lon="3.23919">
        <ele>171.80000305176</ele>
        <time>2022-07-07T13:49:19Z</time>
      </trkpt>
      <trkpt lat="47.8937" lon="3.23917">
        <ele>171.80000305176</ele>
        <time>2022-07-07T13:49:20Z</time>
      </trkpt>
      <trkpt lat="47.89371" lon="3.23915">
        <ele>171.80000305176</ele>
        <time>2022-07-07T13:49:21Z</time>
      </trkpt>
      <trkpt lat="47.89372" lon="3.23913">
        <ele>171.80000305176</ele>
        <time>2022-07-07T13:49:22Z</time>
      </trkpt>
      <trkpt lat="47.89373" lon="3.23911">
        <ele>171.60000610352</ele>
        <time>2022-07-07T13:49:23Z</time>
      </trkpt>
      <trkpt lat="47.89374" lon="3.2391">
        <ele>171.60000610352</ele>
        <time>2022-07-07T13:49:24Z</time>
      </trkpt>
      <trkpt lat="47.89374" lon="3.23908">
        <ele>171.60000610352</ele>
        <time>2022-07-07T13:49:25Z</time>
      </trkpt>
      <trkpt lat="47.89375" lon="3.23907">
        <ele>171.60000610352</ele>
        <time>2022-07-07T13:49:26Z</time>
      </trkpt>
      <trkpt lat="47.89375" lon="3.23903">
        <ele>171</ele>
        <time>2022-07-07T13:49:45Z</time>
      </trkpt>
      <trkpt lat="47.89376" lon="3.239">
        <ele>171</ele>
        <time>2022-07-07T13:50:19Z</time>
      </trkpt>
      <trkpt lat="47.89376" lon="3.23895">
        <ele>171</ele>
        <time>2022-07-07T13:50:23Z</time>
      </trkpt>
      <trkpt lat="47.89376" lon="3.23886">
        <ele>171.19999694824</ele>
        <time>2022-07-07T13:50:28Z</time>
      </trkpt>
      <trkpt lat="47.89376" lon="3.23881">
        <ele>171.19999694824</ele>
        <time>2022-07-07T13:50:31Z</time>
      </trkpt>
      <trkpt lat="47.89375" lon="3.23876">
        <ele>171</ele>
        <time>2022-07-07T13:50:34Z</time>
      </trkpt>
      <trkpt lat="47.89375" lon="3.23875">
        <ele>171</ele>
        <time>2022-07-07T13:50:35Z</time>
      </trkpt>
      <trkpt lat="47.89375" lon="3.23873">
        <ele>171</ele>
        <time>2022-07-07T13:50:36Z</time>
      </trkpt>
      <trkpt lat="47.89374" lon="3.23858">
        <ele>171.19999694824</ele>
        <time>2022-07-07T13:50:45Z</time>
      </trkpt>
      <trkpt lat="47.89375" lon="3.23856">
        <ele>171.19999694824</ele>
        <time>2022-07-07T13:50:46Z</time>
      </trkpt>
      <trkpt lat="47.89375" lon="3.23841">
        <ele>171.19999694824</ele>
        <time>2022-07-07T13:50:55Z</time>
      </trkpt>
      <trkpt lat="47.89375" lon="3.2382">
        <ele>171.60000610352</ele>
        <time>2022-07-07T13:51:04Z</time>
      </trkpt>
      <trkpt lat="47.89375" lon="3.23818">
        <ele>171.80000305176</ele>
        <time>2022-07-07T13:51:05Z</time>
      </trkpt>
      <trkpt lat="47.89376" lon="3.23817">
        <ele>171.80000305176</ele>
        <time>2022-07-07T13:51:06Z</time>
      </trkpt>
      <trkpt lat="47.89381" lon="3.2381">
        <ele>171.60000610352</ele>
        <time>2022-07-07T13:51:12Z</time>
      </trkpt>
      <trkpt lat="47.89395" lon="3.23789">
        <ele>170.60000610352</ele>
        <time>2022-07-07T13:51:28Z</time>
      </trkpt>
      <trkpt lat="47.89407" lon="3.23778">
        <ele>170.80000305176</ele>
        <time>2022-07-07T13:51:41Z</time>
      </trkpt>
      <trkpt lat="47.89422" lon="3.23759">
        <ele>170.80000305176</ele>
        <time>2022-07-07T13:51:55Z</time>
      </trkpt>
      <trkpt lat="47.89424" lon="3.23757">
        <ele>170.80000305176</ele>
        <time>2022-07-07T13:51:56Z</time>
      </trkpt>
      <trkpt lat="47.89425" lon="3.23756">
        <ele>170.60000610352</ele>
        <time>2022-07-07T13:51:57Z</time>
      </trkpt>
      <trkpt lat="47.89436" lon="3.23741">
        <ele>170.39999389648</ele>
        <time>2022-07-07T13:52:10Z</time>
      </trkpt>
      <trkpt lat="47.89445" lon="3.23724">
        <ele>170.19999694824</ele>
        <time>2022-07-07T13:52:22Z</time>
      </trkpt>
      <trkpt lat="47.89456" lon="3.23707">
        <ele>170.19999694824</ele>
        <time>2022-07-07T13:52:35Z</time>
      </trkpt>
      <trkpt lat="47.8946" lon="3.237">
        <ele>170.19999694824</ele>
        <time>2022-07-07T13:52:40Z</time>
      </trkpt>
      <trkpt lat="47.89461" lon="3.23699">
        <ele>170.19999694824</ele>
        <time>2022-07-07T13:52:41Z</time>
      </trkpt>
      <trkpt lat="47.89473" lon="3.23686">
        <ele>170.19999694824</ele>
        <time>2022-07-07T13:52:53Z</time>
      </trkpt>
      <trkpt lat="47.89482" lon="3.23677">
        <ele>170</ele>
        <time>2022-07-07T13:53:02Z</time>
      </trkpt>
      <trkpt lat="47.89501" lon="3.23654">
        <ele>170.39999389648</ele>
        <time>2022-07-07T13:53:26Z</time>
      </trkpt>
      <trkpt lat="47.89511" lon="3.23624">
        <ele>170.39999389648</ele>
        <time>2022-07-07T13:53:48Z</time>
      </trkpt>
      <trkpt lat="47.89519" lon="3.23611">
        <ele>170.19999694824</ele>
        <time>2022-07-07T13:54:02Z</time>
      </trkpt>
      <trkpt lat="47.89535" lon="3.23584">
        <ele>170.60000610352</ele>
        <time>2022-07-07T13:54:32Z</time>
      </trkpt>
      <trkpt lat="47.89539" lon="3.23587">
        <ele>170</ele>
        <time>2022-07-07T13:54:46Z</time>
      </trkpt>
      <trkpt lat="47.89554" lon="3.23627">
        <ele>170.80000305176</ele>
        <time>2022-07-07T13:55:31Z</time>
      </trkpt>
      <trkpt lat="47.89556" lon="3.23627">
        <ele>168.39999389648</ele>
        <time>2022-07-07T13:55:34Z</time>
      </trkpt>
      <trkpt lat="47.89559" lon="3.23629">
        <ele>170.39999389648</ele>
        <time>2022-07-07T13:55:39Z</time>
      </trkpt>
      <trkpt lat="47.89571" lon="3.23628">
        <ele>166.60000610352</ele>
        <time>2022-07-07T13:57:16Z</time>
      </trkpt>
      <trkpt lat="47.89573" lon="3.23627">
        <ele>168</ele>
        <time>2022-07-07T13:57:22Z</time>
      </trkpt>
      <trkpt lat="47.89575" lon="3.23619">
        <ele>171.80000305176</ele>
        <time>2022-07-07T13:57:30Z</time>
      </trkpt>
      <trkpt lat="47.89562" lon="3.23641">
        <ele>169.19999694824</ele>
        <time>2022-07-07T13:59:00Z</time>
      </trkpt>
      <trkpt lat="47.89558" lon="3.2364">
        <ele>169.19999694824</ele>
        <time>2022-07-07T13:59:23Z</time>
      </trkpt>
      <trkpt lat="47.89559" lon="3.23647">
        <ele>169.19999694824</ele>
        <time>2022-07-07T13:59:38Z</time>
      </trkpt>
      <trkpt lat="47.89562" lon="3.23652">
        <ele>169</ele>
        <time>2022-07-07T13:59:44Z</time>
      </trkpt>
      <trkpt lat="47.89578" lon="3.23647">
        <ele>168.60000610352</ele>
        <time>2022-07-07T14:00:05Z</time>
      </trkpt>
      <trkpt lat="47.89578" lon="3.23642">
        <ele>168.60000610352</ele>
        <time>2022-07-07T14:00:08Z</time>
      </trkpt>
      <trkpt lat="47.89558" lon="3.23629">
        <ele>168.39999389648</ele>
        <time>2022-07-07T14:01:33Z</time>
      </trkpt>
      <trkpt lat="47.89566" lon="3.23632">
        <ele>168.60000610352</ele>
        <time>2022-07-07T14:01:44Z</time>
      </trkpt>
      <trkpt lat="47.89556" lon="3.2364">
        <ele>168.60000610352</ele>
        <time>2022-07-07T14:01:52Z</time>
      </trkpt>
      <trkpt lat="47.89568" lon="3.23665">
        <ele>168.80000305176</ele>
        <time>2022-07-07T14:03:26Z</time>
      </trkpt>
      <trkpt lat="47.89569" lon="3.23652">
        <ele>168</ele>
        <time>2022-07-07T14:06:13Z</time>
      </trkpt>
      <trkpt lat="47.89572" lon="3.23628">
        <ele>168</ele>
        <time>2022-07-07T14:06:55Z</time>
      </trkpt>
      <trkpt lat="47.89571" lon="3.23659">
        <ele>167.60000610352</ele>
        <time>2022-07-07T14:08:25Z</time>
      </trkpt>
      <trkpt lat="47.89583" lon="3.23652">
        <ele>167.60000610352</ele>
        <time>2022-07-07T14:08:43Z</time>
      </trkpt>
      <trkpt lat="47.89586" lon="3.23641">
        <ele>167.60000610352</ele>
        <time>2022-07-07T14:08:55Z</time>
      </trkpt>
      <trkpt lat="47.89584" lon="3.23639">
        <ele>167.80000305176</ele>
        <time>2022-07-07T14:08:57Z</time>
      </trkpt>
      <trkpt lat="47.89581" lon="3.23635">
        <ele>167.80000305176</ele>
        <time>2022-07-07T14:09:01Z</time>
      </trkpt>
      <trkpt lat="47.89574" lon="3.2364">
        <ele>168.60000610352</ele>
        <time>2022-07-07T14:09:14Z</time>
      </trkpt>
      <trkpt lat="47.89573" lon="3.2364">
        <ele>168.80000305176</ele>
        <time>2022-07-07T14:09:15Z</time>
      </trkpt>
    </trkseg>
  </trk>
  <trk>
    <name><![CDATA[Jour_2]]></name>
    <desc><![CDATA[Gilles Perier Collective
Etape 3]]></desc>
    <trkseg>
      <trkpt lat="47.89551" lon="3.23622">
        <ele>155.19999694824</ele>
        <time>2022-07-09T06:45:45Z</time>
      </trkpt>
      <trkpt lat="47.89543" lon="3.23603">
        <ele>155.19999694824</ele>
        <time>2022-07-09T06:46:03Z</time>
      </trkpt>
      <trkpt lat="47.89537" lon="3.23596">
        <ele>155.19999694824</ele>
        <time>2022-07-09T06:46:16Z</time>
      </trkpt>
      <trkpt lat="47.89536" lon="3.23588">
        <ele>157.60000610352</ele>
        <time>2022-07-09T06:46:23Z</time>
      </trkpt>
      <trkpt lat="47.89549" lon="3.23571">
        <ele>158.39999389648</ele>
        <time>2022-07-09T06:46:42Z</time>
      </trkpt>
      <trkpt lat="47.89551" lon="3.23568">
        <ele>157.19999694824</ele>
        <time>2022-07-09T06:46:49Z</time>
      </trkpt>
      <trkpt lat="47.89592" lon="3.23477">
        <ele>157.80000305176</ele>
        <time>2022-07-09T06:48:08Z</time>
      </trkpt>
      <trkpt lat="47.89625" lon="3.23455">
        <ele>157.80000305176</ele>
        <time>2022-07-09T06:48:58Z</time>
      </trkpt>
      <trkpt lat="47.89708" lon="3.2344">
        <ele>157.80000305176</ele>
        <time>2022-07-09T06:50:25Z</time>
      </trkpt>
      <trkpt lat="47.89779" lon="3.23414">
        <ele>157.39999389648</ele>
        <time>2022-07-09T06:51:36Z</time>
      </trkpt>
      <trkpt lat="47.89793" lon="3.23404">
        <ele>157.60000610352</ele>
        <time>2022-07-09T06:51:53Z</time>
      </trkpt>
      <trkpt lat="47.89794" lon="3.234">
        <ele>157.60000610352</ele>
        <time>2022-07-09T06:51:56Z</time>
      </trkpt>
      <trkpt lat="47.89806" lon="3.23397">
        <ele>157.60000610352</ele>
        <time>2022-07-09T06:52:05Z</time>
      </trkpt>
      <trkpt lat="47.89818" lon="3.23371">
        <ele>157.60000610352</ele>
        <time>2022-07-09T06:52:29Z</time>
      </trkpt>
      <trkpt lat="47.89818" lon="3.23369">
        <ele>157.60000610352</ele>
        <time>2022-07-09T06:52:30Z</time>
      </trkpt>
      <trkpt lat="47.89823" lon="3.23356">
        <ele>157.60000610352</ele>
        <time>2022-07-09T06:52:39Z</time>
      </trkpt>
      <trkpt lat="47.89833" lon="3.23348">
        <ele>157.60000610352</ele>
        <time>2022-07-09T06:52:49Z</time>
      </trkpt>
      <trkpt lat="47.89843" lon="3.23342">
        <ele>157.60000610352</ele>
        <time>2022-07-09T06:52:56Z</time>
      </trkpt>
      <trkpt lat="47.89864" lon="3.23325">
        <ele>157.19999694824</ele>
        <time>2022-07-09T06:53:14Z</time>
      </trkpt>
      <trkpt lat="47.89878" lon="3.23309">
        <ele>157.19999694824</ele>
        <time>2022-07-09T06:53:27Z</time>
      </trkpt>
      <trkpt lat="47.89893" lon="3.23286">
        <ele>156.39999389648</ele>
        <time>2022-07-09T06:53:48Z</time>
      </trkpt>
      <trkpt lat="47.89907" lon="3.23267">
        <ele>156.39999389648</ele>
        <time>2022-07-09T06:54:05Z</time>
      </trkpt>
      <trkpt lat="47.89912" lon="3.23264">
        <ele>156.39999389648</ele>
        <time>2022-07-09T06:54:09Z</time>
      </trkpt>
      <trkpt lat="47.89932" lon="3.2323">
        <ele>156.19999694824</ele>
        <time>2022-07-09T06:54:32Z</time>
      </trkpt>
      <trkpt lat="47.89935" lon="3.23226">
        <ele>156.19999694824</ele>
        <time>2022-07-09T06:54:35Z</time>
      </trkpt>
      <trkpt lat="47.89936" lon="3.23224">
        <ele>156.19999694824</ele>
        <time>2022-07-09T06:54:36Z</time>
      </trkpt>
      <trkpt lat="47.89938" lon="3.23221">
        <ele>156.19999694824</ele>
        <time>2022-07-09T06:54:38Z</time>
      </trkpt>
      <trkpt lat="47.8994" lon="3.23218">
        <ele>156.19999694824</ele>
        <time>2022-07-09T06:54:40Z</time>
      </trkpt>
      <trkpt lat="47.89941" lon="3.23216">
        <ele>156.19999694824</ele>
        <time>2022-07-09T06:54:41Z</time>
      </trkpt>
      <trkpt lat="47.89942" lon="3.23215">
        <ele>156.19999694824</ele>
        <time>2022-07-09T06:54:42Z</time>
      </trkpt>
      <trkpt lat="47.89943" lon="3.23213">
        <ele>156.19999694824</ele>
        <time>2022-07-09T06:54:43Z</time>
      </trkpt>
      <trkpt lat="47.89944" lon="3.23212">
        <ele>156.19999694824</ele>
        <time>2022-07-09T06:54:44Z</time>
      </trkpt>
      <trkpt lat="47.8995" lon="3.23196">
        <ele>156.39999389648</ele>
        <time>2022-07-09T06:54:54Z</time>
      </trkpt>
      <trkpt lat="47.89951" lon="3.23194">
        <ele>156.39999389648</ele>
        <time>2022-07-09T06:54:55Z</time>
      </trkpt>
      <trkpt lat="47.89952" lon="3.23192">
        <ele>156.39999389648</ele>
        <time>2022-07-09T06:54:57Z</time>
      </trkpt>
      <trkpt lat="47.89955" lon="3.23186">
        <ele>156.19999694824</ele>
        <time>2022-07-09T06:55:01Z</time>
      </trkpt>
      <trkpt lat="47.89956" lon="3.23184">
        <ele>156.19999694824</ele>
        <time>2022-07-09T06:55:02Z</time>
      </trkpt>
      <trkpt lat="47.89963" lon="3.23168">
        <ele>156.19999694824</ele>
        <time>2022-07-09T06:55:11Z</time>
      </trkpt>
      <trkpt lat="47.89964" lon="3.23164">
        <ele>156.19999694824</ele>
        <time>2022-07-09T06:55:13Z</time>
      </trkpt>
      <trkpt lat="47.89966" lon="3.23161">
        <ele>156.19999694824</ele>
        <time>2022-07-09T06:55:15Z</time>
      </trkpt>
      <trkpt lat="47.89974" lon="3.23143">
        <ele>156.19999694824</ele>
        <time>2022-07-09T06:55:26Z</time>
      </trkpt>
      <trkpt lat="47.89974" lon="3.23142">
        <ele>156.19999694824</ele>
        <time>2022-07-09T06:55:27Z</time>
      </trkpt>
      <trkpt lat="47.89974" lon="3.23138">
        <ele>156.19999694824</ele>
        <time>2022-07-09T06:55:29Z</time>
      </trkpt>
      <trkpt lat="47.89975" lon="3.23136">
        <ele>156.19999694824</ele>
        <time>2022-07-09T06:55:31Z</time>
      </trkpt>
      <trkpt lat="47.89976" lon="3.23134">
        <ele>156.19999694824</ele>
        <time>2022-07-09T06:55:32Z</time>
      </trkpt>
      <trkpt lat="47.89977" lon="3.23131">
        <ele>156.19999694824</ele>
        <time>2022-07-09T06:55:34Z</time>
      </trkpt>
      <trkpt lat="47.89978" lon="3.23129">
        <ele>156.19999694824</ele>
        <time>2022-07-09T06:55:35Z</time>
      </trkpt>
      <trkpt lat="47.89982" lon="3.23122">
        <ele>156.19999694824</ele>
        <time>2022-07-09T06:55:40Z</time>
      </trkpt>
      <trkpt lat="47.89987" lon="3.23111">
        <ele>156.39999389648</ele>
        <time>2022-07-09T06:55:48Z</time>
      </trkpt>
      <trkpt lat="47.89987" lon="3.23109">
        <ele>156.39999389648</ele>
        <time>2022-07-09T06:55:49Z</time>
      </trkpt>
      <trkpt lat="47.89988" lon="3.23107">
        <ele>156.19999694824</ele>
        <time>2022-07-09T06:55:51Z</time>
      </trkpt>
      <trkpt lat="47.89989" lon="3.23105">
        <ele>156.19999694824</ele>
        <time>2022-07-09T06:55:52Z</time>
      </trkpt>
      <trkpt lat="47.8999" lon="3.23104">
        <ele>156</ele>
        <time>2022-07-09T06:55:53Z</time>
      </trkpt>
      <trkpt lat="47.8999" lon="3.23103">
        <ele>156</ele>
        <time>2022-07-09T06:55:54Z</time>
      </trkpt>
      <trkpt lat="47.89998" lon="3.23092">
        <ele>156</ele>
        <time>2022-07-09T06:56:04Z</time>
      </trkpt>
      <trkpt lat="47.9" lon="3.2309">
        <ele>156</ele>
        <time>2022-07-09T06:56:05Z</time>
      </trkpt>
      <trkpt lat="47.90006" lon="3.23081">
        <ele>155.80000305176</ele>
        <time>2022-07-09T06:56:12Z</time>
      </trkpt>
      <trkpt lat="47.90008" lon="3.23079">
        <ele>155.80000305176</ele>
        <time>2022-07-09T06:56:14Z</time>
      </trkpt>
      <trkpt lat="47.90026" lon="3.23058">
        <ele>155.60000610352</ele>
        <time>2022-07-09T06:56:35Z</time>
      </trkpt>
      <trkpt lat="47.90028" lon="3.23057">
        <ele>155.60000610352</ele>
        <time>2022-07-09T06:56:36Z</time>
      </trkpt>
      <trkpt lat="47.90031" lon="3.23055">
        <ele>155.60000610352</ele>
        <time>2022-07-09T06:56:39Z</time>
      </trkpt>
      <trkpt lat="47.90038" lon="3.23052">
        <ele>155.60000610352</ele>
        <time>2022-07-09T06:56:45Z</time>
      </trkpt>
      <trkpt lat="47.90039" lon="3.23051">
        <ele>155.60000610352</ele>
        <time>2022-07-09T06:56:46Z</time>
      </trkpt>
      <trkpt lat="47.90047" lon="3.23048">
        <ele>155.39999389648</ele>
        <time>2022-07-09T06:56:55Z</time>
      </trkpt>
      <trkpt lat="47.90058" lon="3.23045">
        <ele>155.19999694824</ele>
        <time>2022-07-09T06:57:04Z</time>
      </trkpt>
      <trkpt lat="47.9007" lon="3.23042">
        <ele>155</ele>
        <time>2022-07-09T06:57:12Z</time>
      </trkpt>
      <trkpt lat="47.90083" lon="3.23043">
        <ele>154.80000305176</ele>
        <time>2022-07-09T06:57:23Z</time>
      </trkpt>
      <trkpt lat="47.90096" lon="3.23043">
        <ele>155</ele>
        <time>2022-07-09T06:57:34Z</time>
      </trkpt>
      <trkpt lat="47.90099" lon="3.23042">
        <ele>155</ele>
        <time>2022-07-09T06:57:37Z</time>
      </trkpt>
      <trkpt lat="47.90112" lon="3.23039">
        <ele>154.80000305176</ele>
        <time>2022-07-09T06:57:47Z</time>
      </trkpt>
      <trkpt lat="47.90113" lon="3.23038">
        <ele>154.60000610352</ele>
        <time>2022-07-09T06:57:48Z</time>
      </trkpt>
      <trkpt lat="47.90121" lon="3.23032">
        <ele>154.60000610352</ele>
        <time>2022-07-09T06:57:57Z</time>
      </trkpt>
      <trkpt lat="47.90123" lon="3.23032">
        <ele>154.60000610352</ele>
        <time>2022-07-09T06:57:58Z</time>
      </trkpt>
      <trkpt lat="47.90139" lon="3.23021">
        <ele>154.39999389648</ele>
        <time>2022-07-09T06:58:12Z</time>
      </trkpt>
      <trkpt lat="47.90141" lon="3.23019">
        <ele>154.39999389648</ele>
        <time>2022-07-09T06:58:15Z</time>
      </trkpt>
      <trkpt lat="47.90147" lon="3.23015">
        <ele>154.19999694824</ele>
        <time>2022-07-09T06:58:20Z</time>
      </trkpt>
      <trkpt lat="47.90158" lon="3.23007">
        <ele>154.19999694824</ele>
        <time>2022-07-09T06:58:29Z</time>
      </trkpt>
      <trkpt lat="47.90168" lon="3.23002">
        <ele>154.39999389648</ele>
        <time>2022-07-09T06:58:37Z</time>
      </trkpt>
      <trkpt lat="47.90169" lon="3.23003">
        <ele>154.39999389648</ele>
        <time>2022-07-09T06:58:38Z</time>
      </trkpt>
      <trkpt lat="47.90172" lon="3.23004">
        <ele>154.39999389648</ele>
        <time>2022-07-09T06:58:40Z</time>
      </trkpt>
      <trkpt lat="47.90175" lon="3.23002">
        <ele>154.39999389648</ele>
        <time>2022-07-09T06:58:43Z</time>
      </trkpt>
      <trkpt lat="47.90185" lon="3.22994">
        <ele>154</ele>
        <time>2022-07-09T06:58:52Z</time>
      </trkpt>
      <trkpt lat="47.90197" lon="3.22982">
        <ele>154</ele>
        <time>2022-07-09T06:59:03Z</time>
      </trkpt>
      <trkpt lat="47.90211" lon="3.22971">
        <ele>153.80000305176</ele>
        <time>2022-07-09T06:59:15Z</time>
      </trkpt>
      <trkpt lat="47.9022" lon="3.22964">
        <ele>153.80000305176</ele>
        <time>2022-07-09T06:59:25Z</time>
      </trkpt>
      <trkpt lat="47.90241" lon="3.22957">
        <ele>153.60000610352</ele>
        <time>2022-07-09T06:59:46Z</time>
      </trkpt>
      <trkpt lat="47.90262" lon="3.22953">
        <ele>153.60000610352</ele>
        <time>2022-07-09T07:00:01Z</time>
      </trkpt>
      <trkpt lat="47.90285" lon="3.22951">
        <ele>153.39999389648</ele>
        <time>2022-07-09T07:00:13Z</time>
      </trkpt>
      <trkpt lat="47.90296" lon="3.22948">
        <ele>153.39999389648</ele>
        <time>2022-07-09T07:00:21Z</time>
      </trkpt>
      <trkpt lat="47.90297" lon="3.22948">
        <ele>153.39999389648</ele>
        <time>2022-07-09T07:00:22Z</time>
      </trkpt>
      <trkpt lat="47.90321" lon="3.22949">
        <ele>153.60000610352</ele>
        <time>2022-07-09T07:00:40Z</time>
      </trkpt>
      <trkpt lat="47.90337" lon="3.22948">
        <ele>153.60000610352</ele>
        <time>2022-07-09T07:00:53Z</time>
      </trkpt>
      <trkpt lat="47.9035" lon="3.22948">
        <ele>153.39999389648</ele>
        <time>2022-07-09T07:01:01Z</time>
      </trkpt>
      <trkpt lat="47.90351" lon="3.22948">
        <ele>153.39999389648</ele>
        <time>2022-07-09T07:01:02Z</time>
      </trkpt>
      <trkpt lat="47.90366" lon="3.22949">
        <ele>153.80000305176</ele>
        <time>2022-07-09T07:01:14Z</time>
      </trkpt>
      <trkpt lat="47.90383" lon="3.22948">
        <ele>153.60000610352</ele>
        <time>2022-07-09T07:01:28Z</time>
      </trkpt>
      <trkpt lat="47.90396" lon="3.22944">
        <ele>153.39999389648</ele>
        <time>2022-07-09T07:01:37Z</time>
      </trkpt>
      <trkpt lat="47.90397" lon="3.22944">
        <ele>153.39999389648</ele>
        <time>2022-07-09T07:01:38Z</time>
      </trkpt>
      <trkpt lat="47.90398" lon="3.22944">
        <ele>153.39999389648</ele>
        <time>2022-07-09T07:01:39Z</time>
      </trkpt>
      <trkpt lat="47.90402" lon="3.22944">
        <ele>153.39999389648</ele>
        <time>2022-07-09T07:01:44Z</time>
      </trkpt>
      <trkpt lat="47.90406" lon="3.22943">
        <ele>153.39999389648</ele>
        <time>2022-07-09T07:01:47Z</time>
      </trkpt>
      <trkpt lat="47.90414" lon="3.2294">
        <ele>153.60000610352</ele>
        <time>2022-07-09T07:01:54Z</time>
      </trkpt>
      <trkpt lat="47.90415" lon="3.2294">
        <ele>153.60000610352</ele>
        <time>2022-07-09T07:01:55Z</time>
      </trkpt>
      <trkpt lat="47.90418" lon="3.22938">
        <ele>153.60000610352</ele>
        <time>2022-07-09T07:01:58Z</time>
      </trkpt>
      <trkpt lat="47.90434" lon="3.22932">
        <ele>153.80000305176</ele>
        <time>2022-07-09T07:02:11Z</time>
      </trkpt>
      <trkpt lat="47.90435" lon="3.22932">
        <ele>153.80000305176</ele>
        <time>2022-07-09T07:02:12Z</time>
      </trkpt>
      <trkpt lat="47.90437" lon="3.22932">
        <ele>153.80000305176</ele>
        <time>2022-07-09T07:02:13Z</time>
      </trkpt>
      <trkpt lat="47.90462" lon="3.22921">
        <ele>154</ele>
        <time>2022-07-09T07:02:32Z</time>
      </trkpt>
      <trkpt lat="47.90465" lon="3.22919">
        <ele>154</ele>
        <time>2022-07-09T07:02:35Z</time>
      </trkpt>
      <trkpt lat="47.90466" lon="3.22919">
        <ele>154</ele>
        <time>2022-07-09T07:02:36Z</time>
      </trkpt>
      <trkpt lat="47.90468" lon="3.22918">
        <ele>154</ele>
        <time>2022-07-09T07:02:37Z</time>
      </trkpt>
      <trkpt lat="47.90482" lon="3.22911">
        <ele>153.80000305176</ele>
        <time>2022-07-09T07:02:50Z</time>
      </trkpt>
      <trkpt lat="47.9049" lon="3.22907">
        <ele>153.39999389648</ele>
        <time>2022-07-09T07:02:58Z</time>
      </trkpt>
      <trkpt lat="47.90491" lon="3.22907">
        <ele>153.39999389648</ele>
        <time>2022-07-09T07:02:59Z</time>
      </trkpt>
      <trkpt lat="47.90492" lon="3.22906">
        <ele>153.39999389648</ele>
        <time>2022-07-09T07:03:00Z</time>
      </trkpt>
      <trkpt lat="47.90503" lon="3.22903">
        <ele>153.19999694824</ele>
        <time>2022-07-09T07:03:10Z</time>
      </trkpt>
      <trkpt lat="47.90517" lon="3.22896">
        <ele>153</ele>
        <time>2022-07-09T07:03:22Z</time>
      </trkpt>
      <trkpt lat="47.90521" lon="3.22895">
        <ele>153</ele>
        <time>2022-07-09T07:03:26Z</time>
      </trkpt>
      <trkpt lat="47.90537" lon="3.22892">
        <ele>152.80000305176</ele>
        <time>2022-07-09T07:03:46Z</time>
      </trkpt>
      <trkpt lat="47.90539" lon="3.22891">
        <ele>152.60000610352</ele>
        <time>2022-07-09T07:03:48Z</time>
      </trkpt>
      <trkpt lat="47.90551" lon="3.22894">
        <ele>152.60000610352</ele>
        <time>2022-07-09T07:03:59Z</time>
      </trkpt>
      <trkpt lat="47.90573" lon="3.22901">
        <ele>152.19999694824</ele>
        <time>2022-07-09T07:04:16Z</time>
      </trkpt>
      <trkpt lat="47.90586" lon="3.22905">
        <ele>152.19999694824</ele>
        <time>2022-07-09T07:04:27Z</time>
      </trkpt>
      <trkpt lat="47.906" lon="3.22908">
        <ele>152.19999694824</ele>
        <time>2022-07-09T07:04:38Z</time>
      </trkpt>
      <trkpt lat="47.90615" lon="3.22913">
        <ele>152</ele>
        <time>2022-07-09T07:04:52Z</time>
      </trkpt>
      <trkpt lat="47.90629" lon="3.22914">
        <ele>151.80000305176</ele>
        <time>2022-07-09T07:05:05Z</time>
      </trkpt>
      <trkpt lat="47.90642" lon="3.22914">
        <ele>151.60000610352</ele>
        <time>2022-07-09T07:05:16Z</time>
      </trkpt>
      <trkpt lat="47.90677" lon="3.22913">
        <ele>151.39999389648</ele>
        <time>2022-07-09T07:05:44Z</time>
      </trkpt>
      <trkpt lat="47.90679" lon="3.22913">
        <ele>151.39999389648</ele>
        <time>2022-07-09T07:05:46Z</time>
      </trkpt>
      <trkpt lat="47.90688" lon="3.22913">
        <ele>151.19999694824</ele>
        <time>2022-07-09T07:05:54Z</time>
      </trkpt>
      <trkpt lat="47.90698" lon="3.22915">
        <ele>151.19999694824</ele>
        <time>2022-07-09T07:06:04Z</time>
      </trkpt>
      <trkpt lat="47.90706" lon="3.22916">
        <ele>151.19999694824</ele>
        <time>2022-07-09T07:06:10Z</time>
      </trkpt>
      <trkpt lat="47.90748" lon="3.22923">
        <ele>151</ele>
        <time>2022-07-09T07:06:50Z</time>
      </trkpt>
      <trkpt lat="47.90813" lon="3.22928">
        <ele>150.80000305176</ele>
        <time>2022-07-09T07:07:35Z</time>
      </trkpt>
      <trkpt lat="47.90834" lon="3.22916">
        <ele>151.19999694824</ele>
        <time>2022-07-09T07:07:53Z</time>
      </trkpt>
      <trkpt lat="47.90839" lon="3.22915">
        <ele>151.19999694824</ele>
        <time>2022-07-09T07:07:57Z</time>
      </trkpt>
      <trkpt lat="47.90843" lon="3.22915">
        <ele>151.60000610352</ele>
        <time>2022-07-09T07:08:01Z</time>
      </trkpt>
      <trkpt lat="47.90848" lon="3.22914">
        <ele>151.80000305176</ele>
        <time>2022-07-09T07:08:05Z</time>
      </trkpt>
      <trkpt lat="47.90875" lon="3.22907">
        <ele>151</ele>
        <time>2022-07-09T07:08:31Z</time>
      </trkpt>
      <trkpt lat="47.909" lon="3.22907">
        <ele>150.80000305176</ele>
        <time>2022-07-09T07:08:52Z</time>
      </trkpt>
      <trkpt lat="47.90903" lon="3.22907">
        <ele>150.60000610352</ele>
        <time>2022-07-09T07:08:55Z</time>
      </trkpt>
      <trkpt lat="47.90925" lon="3.22906">
        <ele>150.39999389648</ele>
        <time>2022-07-09T07:09:13Z</time>
      </trkpt>
      <trkpt lat="47.90939" lon="3.22908">
        <ele>150.39999389648</ele>
        <time>2022-07-09T07:09:21Z</time>
      </trkpt>
      <trkpt lat="47.90959" lon="3.2291">
        <ele>150.39999389648</ele>
        <time>2022-07-09T07:09:34Z</time>
      </trkpt>
      <trkpt lat="47.90969" lon="3.22911">
        <ele>150.60000610352</ele>
        <time>2022-07-09T07:09:42Z</time>
      </trkpt>
      <trkpt lat="47.90982" lon="3.22913">
        <ele>150.39999389648</ele>
        <time>2022-07-09T07:09:53Z</time>
      </trkpt>
      <trkpt lat="47.90992" lon="3.22915">
        <ele>150.39999389648</ele>
        <time>2022-07-09T07:10:03Z</time>
      </trkpt>
      <trkpt lat="47.91007" lon="3.22921">
        <ele>150.39999389648</ele>
        <time>2022-07-09T07:10:21Z</time>
      </trkpt>
      <trkpt lat="47.9102" lon="3.22925">
        <ele>150.39999389648</ele>
        <time>2022-07-09T07:10:32Z</time>
      </trkpt>
      <trkpt lat="47.91036" lon="3.22927">
        <ele>150.60000610352</ele>
        <time>2022-07-09T07:10:44Z</time>
      </trkpt>
      <trkpt lat="47.91046" lon="3.2293">
        <ele>150.60000610352</ele>
        <time>2022-07-09T07:10:52Z</time>
      </trkpt>
      <trkpt lat="47.91055" lon="3.22935">
        <ele>150.80000305176</ele>
        <time>2022-07-09T07:11:01Z</time>
      </trkpt>
      <trkpt lat="47.91071" lon="3.22942">
        <ele>150.80000305176</ele>
        <time>2022-07-09T07:11:13Z</time>
      </trkpt>
      <trkpt lat="47.91083" lon="3.22943">
        <ele>150.80000305176</ele>
        <time>2022-07-09T07:11:21Z</time>
      </trkpt>
      <trkpt lat="47.91099" lon="3.22947">
        <ele>150.80000305176</ele>
        <time>2022-07-09T07:11:36Z</time>
      </trkpt>
      <trkpt lat="47.91106" lon="3.22949">
        <ele>150.60000610352</ele>
        <time>2022-07-09T07:11:44Z</time>
      </trkpt>
      <trkpt lat="47.91116" lon="3.22954">
        <ele>150.80000305176</ele>
        <time>2022-07-09T07:11:56Z</time>
      </trkpt>
      <trkpt lat="47.91127" lon="3.22961">
        <ele>150.80000305176</ele>
        <time>2022-07-09T07:12:06Z</time>
      </trkpt>
      <trkpt lat="47.91223" lon="3.22987">
        <ele>151.80000305176</ele>
        <time>2022-07-09T07:13:35Z</time>
      </trkpt>
      <trkpt lat="47.9123" lon="3.22978">
        <ele>152.60000610352</ele>
        <time>2022-07-09T07:13:50Z</time>
      </trkpt>
      <trkpt lat="47.91232" lon="3.22971">
        <ele>153</ele>
        <time>2022-07-09T07:13:54Z</time>
      </trkpt>
      <trkpt lat="47.91237" lon="3.22943">
        <ele>153.60000610352</ele>
        <time>2022-07-09T07:14:08Z</time>
      </trkpt>
      <trkpt lat="47.91238" lon="3.22942">
        <ele>153.80000305176</ele>
        <time>2022-07-09T07:14:09Z</time>
      </trkpt>
      <trkpt lat="47.91248" lon="3.22942">
        <ele>155</ele>
        <time>2022-07-09T07:14:27Z</time>
      </trkpt>
      <trkpt lat="47.91249" lon="3.22943">
        <ele>155</ele>
        <time>2022-07-09T07:14:28Z</time>
      </trkpt>
      <trkpt lat="47.9125" lon="3.22944">
        <ele>155.19999694824</ele>
        <time>2022-07-09T07:14:29Z</time>
      </trkpt>
      <trkpt lat="47.91259" lon="3.22954">
        <ele>155.19999694824</ele>
        <time>2022-07-09T07:14:38Z</time>
      </trkpt>
      <trkpt lat="47.91481" lon="3.23139">
        <ele>152.19999694824</ele>
        <time>2022-07-09T07:18:17Z</time>
      </trkpt>
      <trkpt lat="47.91771" lon="3.2341">
        <ele>149.19999694824</ele>
        <time>2022-07-09T07:23:09Z</time>
      </trkpt>
      <trkpt lat="47.91775" lon="3.23412">
        <ele>149</ele>
        <time>2022-07-09T07:23:12Z</time>
      </trkpt>
      <trkpt lat="47.91791" lon="3.23427">
        <ele>147.80000305176</ele>
        <time>2022-07-09T07:23:29Z</time>
      </trkpt>
      <trkpt lat="47.91802" lon="3.23436">
        <ele>146.39999389648</ele>
        <time>2022-07-09T07:23:43Z</time>
      </trkpt>
      <trkpt lat="47.91804" lon="3.23437">
        <ele>146.19999694824</ele>
        <time>2022-07-09T07:23:45Z</time>
      </trkpt>
      <trkpt lat="47.91809" lon="3.23436">
        <ele>146.39999389648</ele>
        <time>2022-07-09T07:23:49Z</time>
      </trkpt>
      <trkpt lat="47.91826" lon="3.23436">
        <ele>146.80000305176</ele>
        <time>2022-07-09T07:24:07Z</time>
      </trkpt>
      <trkpt lat="47.91862" lon="3.23435">
        <ele>146.80000305176</ele>
        <time>2022-07-09T07:24:44Z</time>
      </trkpt>
      <trkpt lat="47.92025" lon="3.23501">
        <ele>146.80000305176</ele>
        <time>2022-07-09T07:26:57Z</time>
      </trkpt>
      <trkpt lat="47.92043" lon="3.23513">
        <ele>146.60000610352</ele>
        <time>2022-07-09T07:27:13Z</time>
      </trkpt>
      <trkpt lat="47.92044" lon="3.23513">
        <ele>146.60000610352</ele>
        <time>2022-07-09T07:27:14Z</time>
      </trkpt>
      <trkpt lat="47.92053" lon="3.23519">
        <ele>146.60000610352</ele>
        <time>2022-07-09T07:27:24Z</time>
      </trkpt>
      <trkpt lat="47.9208" lon="3.23526">
        <ele>146.39999389648</ele>
        <time>2022-07-09T07:27:39Z</time>
      </trkpt>
      <trkpt lat="47.92095" lon="3.2354">
        <ele>146.39999389648</ele>
        <time>2022-07-09T07:27:54Z</time>
      </trkpt>
      <trkpt lat="47.92145" lon="3.23555">
        <ele>146.19999694824</ele>
        <time>2022-07-09T07:28:35Z</time>
      </trkpt>
      <trkpt lat="47.92157" lon="3.23561">
        <ele>146.19999694824</ele>
        <time>2022-07-09T07:28:46Z</time>
      </trkpt>
      <trkpt lat="47.92164" lon="3.23564">
        <ele>146.39999389648</ele>
        <time>2022-07-09T07:28:52Z</time>
      </trkpt>
      <trkpt lat="47.92181" lon="3.23568">
        <ele>146.80000305176</ele>
        <time>2022-07-09T07:29:07Z</time>
      </trkpt>
      <trkpt lat="47.92207" lon="3.23575">
        <ele>147</ele>
        <time>2022-07-09T07:29:25Z</time>
      </trkpt>
      <trkpt lat="47.92227" lon="3.23581">
        <ele>148</ele>
        <time>2022-07-09T07:29:38Z</time>
      </trkpt>
      <trkpt lat="47.92367" lon="3.23672">
        <ele>147.19999694824</ele>
        <time>2022-07-09T07:31:49Z</time>
      </trkpt>
      <trkpt lat="47.92378" lon="3.23677">
        <ele>146.19999694824</ele>
        <time>2022-07-09T07:31:58Z</time>
      </trkpt>
      <trkpt lat="47.9239" lon="3.23685">
        <ele>145</ele>
        <time>2022-07-09T07:32:09Z</time>
      </trkpt>
      <trkpt lat="47.92397" lon="3.23692">
        <ele>144.60000610352</ele>
        <time>2022-07-09T07:32:18Z</time>
      </trkpt>
      <trkpt lat="47.92397" lon="3.23693">
        <ele>144.60000610352</ele>
        <time>2022-07-09T07:32:19Z</time>
      </trkpt>
      <trkpt lat="47.92399" lon="3.23697">
        <ele>144.39999389648</ele>
        <time>2022-07-09T07:32:22Z</time>
      </trkpt>
      <trkpt lat="47.92404" lon="3.237">
        <ele>144.19999694824</ele>
        <time>2022-07-09T07:32:27Z</time>
      </trkpt>
      <trkpt lat="47.92405" lon="3.23701">
        <ele>144.19999694824</ele>
        <time>2022-07-09T07:32:28Z</time>
      </trkpt>
      <trkpt lat="47.92413" lon="3.2372">
        <ele>144.19999694824</ele>
        <time>2022-07-09T07:32:44Z</time>
      </trkpt>
      <trkpt lat="47.92418" lon="3.23723">
        <ele>144.39999389648</ele>
        <time>2022-07-09T07:32:48Z</time>
      </trkpt>
      <trkpt lat="47.92481" lon="3.23804">
        <ele>141.39999389648</ele>
        <time>2022-07-09T07:33:54Z</time>
      </trkpt>
      <trkpt lat="47.92491" lon="3.23835">
        <ele>140.80000305176</ele>
        <time>2022-07-09T07:34:10Z</time>
      </trkpt>
      <trkpt lat="47.92492" lon="3.23836">
        <ele>140.80000305176</ele>
        <time>2022-07-09T07:34:11Z</time>
      </trkpt>
      <trkpt lat="47.92522" lon="3.23869">
        <ele>140.39999389648</ele>
        <time>2022-07-09T07:34:38Z</time>
      </trkpt>
      <trkpt lat="47.9254" lon="3.23882">
        <ele>140.39999389648</ele>
        <time>2022-07-09T07:34:53Z</time>
      </trkpt>
      <trkpt lat="47.9258" lon="3.23891">
        <ele>140.60000610352</ele>
        <time>2022-07-09T07:35:21Z</time>
      </trkpt>
      <trkpt lat="47.92593" lon="3.23906">
        <ele>141</ele>
        <time>2022-07-09T07:35:39Z</time>
      </trkpt>
      <trkpt lat="47.9265" lon="3.23976">
        <ele>141</ele>
        <time>2022-07-09T07:36:37Z</time>
      </trkpt>
      <trkpt lat="47.92672" lon="3.23999">
        <ele>141</ele>
        <time>2022-07-09T07:36:57Z</time>
      </trkpt>
      <trkpt lat="47.9268" lon="3.24008">
        <ele>141.19999694824</ele>
        <time>2022-07-09T07:37:07Z</time>
      </trkpt>
      <trkpt lat="47.92689" lon="3.24019">
        <ele>141.19999694824</ele>
        <time>2022-07-09T07:37:17Z</time>
      </trkpt>
      <trkpt lat="47.92691" lon="3.24022">
        <ele>141.19999694824</ele>
        <time>2022-07-09T07:37:19Z</time>
      </trkpt>
      <trkpt lat="47.92721" lon="3.24047">
        <ele>141.60000610352</ele>
        <time>2022-07-09T07:37:47Z</time>
      </trkpt>
      <trkpt lat="47.92794" lon="3.24084">
        <ele>142</ele>
        <time>2022-07-09T07:38:42Z</time>
      </trkpt>
      <trkpt lat="47.92825" lon="3.24091">
        <ele>142.19999694824</ele>
        <time>2022-07-09T07:39:04Z</time>
      </trkpt>
      <trkpt lat="47.92845" lon="3.24095">
        <ele>141.80000305176</ele>
        <time>2022-07-09T07:39:20Z</time>
      </trkpt>
      <trkpt lat="47.92864" lon="3.24094">
        <ele>141.19999694824</ele>
        <time>2022-07-09T07:39:34Z</time>
      </trkpt>
      <trkpt lat="47.92881" lon="3.24091">
        <ele>141.19999694824</ele>
        <time>2022-07-09T07:39:44Z</time>
      </trkpt>
      <trkpt lat="47.92882" lon="3.24092">
        <ele>141.19999694824</ele>
        <time>2022-07-09T07:39:45Z</time>
      </trkpt>
      <trkpt lat="47.929" lon="3.24089">
        <ele>141.19999694824</ele>
        <time>2022-07-09T07:39:57Z</time>
      </trkpt>
      <trkpt lat="47.92921" lon="3.24086">
        <ele>141.19999694824</ele>
        <time>2022-07-09T07:40:16Z</time>
      </trkpt>
      <trkpt lat="47.92943" lon="3.24085">
        <ele>141</ele>
        <time>2022-07-09T07:40:34Z</time>
      </trkpt>
      <trkpt lat="47.92955" lon="3.24086">
        <ele>140.80000305176</ele>
        <time>2022-07-09T07:40:46Z</time>
      </trkpt>
      <trkpt lat="47.92965" lon="3.24088">
        <ele>140.60000610352</ele>
        <time>2022-07-09T07:40:55Z</time>
      </trkpt>
      <trkpt lat="47.92985" lon="3.24089">
        <ele>140.19999694824</ele>
        <time>2022-07-09T07:41:10Z</time>
      </trkpt>
      <trkpt lat="47.93015" lon="3.24089">
        <ele>139.80000305176</ele>
        <time>2022-07-09T07:41:30Z</time>
      </trkpt>
      <trkpt lat="47.93025" lon="3.24091">
        <ele>139.80000305176</ele>
        <time>2022-07-09T07:41:38Z</time>
      </trkpt>
      <trkpt lat="47.9303" lon="3.2409">
        <ele>139.60000610352</ele>
        <time>2022-07-09T07:41:43Z</time>
      </trkpt>
      <trkpt lat="47.93043" lon="3.24087">
        <ele>139.39999389648</ele>
        <time>2022-07-09T07:41:54Z</time>
      </trkpt>
      <trkpt lat="47.93054" lon="3.24085">
        <ele>139.39999389648</ele>
        <time>2022-07-09T07:42:03Z</time>
      </trkpt>
      <trkpt lat="47.9307" lon="3.24076">
        <ele>139.19999694824</ele>
        <time>2022-07-09T07:42:17Z</time>
      </trkpt>
      <trkpt lat="47.93074" lon="3.24073">
        <ele>139.19999694824</ele>
        <time>2022-07-09T07:42:21Z</time>
      </trkpt>
      <trkpt lat="47.93077" lon="3.24072">
        <ele>139.39999389648</ele>
        <time>2022-07-09T07:42:23Z</time>
      </trkpt>
      <trkpt lat="47.93088" lon="3.24065">
        <ele>139.39999389648</ele>
        <time>2022-07-09T07:42:34Z</time>
      </trkpt>
      <trkpt lat="47.93105" lon="3.24054">
        <ele>139.19999694824</ele>
        <time>2022-07-09T07:42:50Z</time>
      </trkpt>
      <trkpt lat="47.93115" lon="3.24046">
        <ele>139</ele>
        <time>2022-07-09T07:42:58Z</time>
      </trkpt>
      <trkpt lat="47.93123" lon="3.24038">
        <ele>139</ele>
        <time>2022-07-09T07:43:05Z</time>
      </trkpt>
      <trkpt lat="47.93138" lon="3.24021">
        <ele>138.60000610352</ele>
        <time>2022-07-09T07:43:20Z</time>
      </trkpt>
      <trkpt lat="47.93139" lon="3.2402">
        <ele>138.60000610352</ele>
        <time>2022-07-09T07:43:21Z</time>
      </trkpt>
      <trkpt lat="47.93147" lon="3.24008">
        <ele>138.60000610352</ele>
        <time>2022-07-09T07:43:29Z</time>
      </trkpt>
      <trkpt lat="47.93177" lon="3.23987">
        <ele>138.60000610352</ele>
        <time>2022-07-09T07:44:06Z</time>
      </trkpt>
      <trkpt lat="47.93181" lon="3.23985">
        <ele>138.60000610352</ele>
        <time>2022-07-09T07:44:08Z</time>
      </trkpt>
      <trkpt lat="47.93193" lon="3.23976">
        <ele>138.60000610352</ele>
        <time>2022-07-09T07:44:15Z</time>
      </trkpt>
      <trkpt lat="47.93209" lon="3.23968">
        <ele>138.60000610352</ele>
        <time>2022-07-09T07:44:26Z</time>
      </trkpt>
      <trkpt lat="47.93221" lon="3.2396">
        <ele>138.60000610352</ele>
        <time>2022-07-09T07:44:35Z</time>
      </trkpt>
      <trkpt lat="47.93231" lon="3.23954">
        <ele>138.60000610352</ele>
        <time>2022-07-09T07:44:42Z</time>
      </trkpt>
      <trkpt lat="47.93244" lon="3.23946">
        <ele>138.39999389648</ele>
        <time>2022-07-09T07:44:51Z</time>
      </trkpt>
      <trkpt lat="47.93253" lon="3.23937">
        <ele>138.39999389648</ele>
        <time>2022-07-09T07:45:01Z</time>
      </trkpt>
      <trkpt lat="47.93258" lon="3.23932">
        <ele>138.39999389648</ele>
        <time>2022-07-09T07:45:09Z</time>
      </trkpt>
      <trkpt lat="47.93264" lon="3.23927">
        <ele>138.60000610352</ele>
        <time>2022-07-09T07:45:13Z</time>
      </trkpt>
      <trkpt lat="47.93268" lon="3.23924">
        <ele>138.80000305176</ele>
        <time>2022-07-09T07:45:16Z</time>
      </trkpt>
      <trkpt lat="47.93273" lon="3.2392">
        <ele>138.80000305176</ele>
        <time>2022-07-09T07:45:19Z</time>
      </trkpt>
      <trkpt lat="47.93275" lon="3.23919">
        <ele>138.80000305176</ele>
        <time>2022-07-09T07:45:20Z</time>
      </trkpt>
      <trkpt lat="47.93293" lon="3.23904">
        <ele>139</ele>
        <time>2022-07-09T07:45:41Z</time>
      </trkpt>
      <trkpt lat="47.93313" lon="3.23886">
        <ele>139.60000610352</ele>
        <time>2022-07-09T07:45:59Z</time>
      </trkpt>
      <trkpt lat="47.93314" lon="3.23885">
        <ele>139.60000610352</ele>
        <time>2022-07-09T07:46:00Z</time>
      </trkpt>
      <trkpt lat="47.93322" lon="3.23878">
        <ele>140</ele>
        <time>2022-07-09T07:46:06Z</time>
      </trkpt>
      <trkpt lat="47.93345" lon="3.23864">
        <ele>141.19999694824</ele>
        <time>2022-07-09T07:46:20Z</time>
      </trkpt>
      <trkpt lat="47.93377" lon="3.23822">
        <ele>144.19999694824</ele>
        <time>2022-07-09T07:47:05Z</time>
      </trkpt>
      <trkpt lat="47.93372" lon="3.23817">
        <ele>144</ele>
        <time>2022-07-09T07:47:17Z</time>
      </trkpt>
      <trkpt lat="47.93367" lon="3.23812">
        <ele>144.39999389648</ele>
        <time>2022-07-09T07:47:22Z</time>
      </trkpt>
      <trkpt lat="47.93365" lon="3.2381">
        <ele>144.39999389648</ele>
        <time>2022-07-09T07:47:24Z</time>
      </trkpt>
      <trkpt lat="47.93363" lon="3.23809">
        <ele>144.60000610352</ele>
        <time>2022-07-09T07:47:26Z</time>
      </trkpt>
      <trkpt lat="47.93359" lon="3.23804">
        <ele>144.80000305176</ele>
        <time>2022-07-09T07:47:30Z</time>
      </trkpt>
      <trkpt lat="47.93358" lon="3.23804">
        <ele>145</ele>
        <time>2022-07-09T07:47:31Z</time>
      </trkpt>
      <trkpt lat="47.93357" lon="3.23804">
        <ele>145</ele>
        <time>2022-07-09T07:47:32Z</time>
      </trkpt>
      <trkpt lat="47.93351" lon="3.23804">
        <ele>145.60000610352</ele>
        <time>2022-07-09T07:47:37Z</time>
      </trkpt>
      <trkpt lat="47.9335" lon="3.23804">
        <ele>145.60000610352</ele>
        <time>2022-07-09T07:47:38Z</time>
      </trkpt>
      <trkpt lat="47.93347" lon="3.23805">
        <ele>145.80000305176</ele>
        <time>2022-07-09T07:47:40Z</time>
      </trkpt>
      <trkpt lat="47.93341" lon="3.23803">
        <ele>146.19999694824</ele>
        <time>2022-07-09T07:47:46Z</time>
      </trkpt>
      <trkpt lat="47.93331" lon="3.23797">
        <ele>147</ele>
        <time>2022-07-09T07:47:56Z</time>
      </trkpt>
      <trkpt lat="47.9333" lon="3.23797">
        <ele>147</ele>
        <time>2022-07-09T07:47:57Z</time>
      </trkpt>
      <trkpt lat="47.93329" lon="3.23796">
        <ele>147.19999694824</ele>
        <time>2022-07-09T07:47:58Z</time>
      </trkpt>
      <trkpt lat="47.93328" lon="3.23795">
        <ele>147.19999694824</ele>
        <time>2022-07-09T07:47:59Z</time>
      </trkpt>
      <trkpt lat="47.93324" lon="3.23793">
        <ele>147.60000610352</ele>
        <time>2022-07-09T07:48:02Z</time>
      </trkpt>
      <trkpt lat="47.93321" lon="3.23792">
        <ele>147.80000305176</ele>
        <time>2022-07-09T07:48:05Z</time>
      </trkpt>
      <trkpt lat="47.93312" lon="3.23783">
        <ele>148.80000305176</ele>
        <time>2022-07-09T07:48:16Z</time>
      </trkpt>
      <trkpt lat="47.93311" lon="3.23782">
        <ele>149</ele>
        <time>2022-07-09T07:48:17Z</time>
      </trkpt>
      <trkpt lat="47.9331" lon="3.23781">
        <ele>149.19999694824</ele>
        <time>2022-07-09T07:48:18Z</time>
      </trkpt>
      <trkpt lat="47.93309" lon="3.2378">
        <ele>149.19999694824</ele>
        <time>2022-07-09T07:48:19Z</time>
      </trkpt>
      <trkpt lat="47.93308" lon="3.2378">
        <ele>149.39999389648</ele>
        <time>2022-07-09T07:48:20Z</time>
      </trkpt>
      <trkpt lat="47.93304" lon="3.23782">
        <ele>150</ele>
        <time>2022-07-09T07:48:24Z</time>
      </trkpt>
      <trkpt lat="47.93302" lon="3.23782">
        <ele>150</ele>
        <time>2022-07-09T07:48:26Z</time>
      </trkpt>
      <trkpt lat="47.93296" lon="3.23782">
        <ele>150.80000305176</ele>
        <time>2022-07-09T07:48:31Z</time>
      </trkpt>
      <trkpt lat="47.93284" lon="3.23786">
        <ele>154.39999389648</ele>
        <time>2022-07-09T07:48:56Z</time>
      </trkpt>
      <trkpt lat="47.93287" lon="3.23791">
        <ele>154.19999694824</ele>
        <time>2022-07-09T07:49:06Z</time>
      </trkpt>
      <trkpt lat="47.93288" lon="3.23793">
        <ele>155.19999694824</ele>
        <time>2022-07-09T07:49:57Z</time>
      </trkpt>
      <trkpt lat="47.93292" lon="3.23825">
        <ele>154.80000305176</ele>
        <time>2022-07-09T07:50:29Z</time>
      </trkpt>
      <trkpt lat="47.9329" lon="3.23821">
        <ele>154.80000305176</ele>
        <time>2022-07-09T07:50:32Z</time>
      </trkpt>
      <trkpt lat="47.93288" lon="3.2382">
        <ele>154.80000305176</ele>
        <time>2022-07-09T07:50:39Z</time>
      </trkpt>
      <trkpt lat="47.93282" lon="3.23806">
        <ele>154.60000610352</ele>
        <time>2022-07-09T07:50:56Z</time>
      </trkpt>
      <trkpt lat="47.9328" lon="3.23801">
        <ele>154.60000610352</ele>
        <time>2022-07-09T07:51:44Z</time>
      </trkpt>
      <trkpt lat="47.93281" lon="3.23802">
        <ele>154.60000610352</ele>
        <time>2022-07-09T07:52:50Z</time>
      </trkpt>
      <trkpt lat="47.93275" lon="3.23772">
        <ele>154.39999389648</ele>
        <time>2022-07-09T07:53:39Z</time>
      </trkpt>
      <trkpt lat="47.93287" lon="3.23807">
        <ele>153</ele>
        <time>2022-07-09T07:55:15Z</time>
      </trkpt>
      <trkpt lat="47.93285" lon="3.23805">
        <ele>153</ele>
        <time>2022-07-09T07:55:17Z</time>
      </trkpt>
      <trkpt lat="47.93284" lon="3.238">
        <ele>153</ele>
        <time>2022-07-09T07:55:23Z</time>
      </trkpt>
      <trkpt lat="47.93291" lon="3.2378">
        <ele>151.39999389648</ele>
        <time>2022-07-09T07:55:43Z</time>
      </trkpt>
      <trkpt lat="47.93298" lon="3.23779">
        <ele>150.80000305176</ele>
        <time>2022-07-09T07:55:48Z</time>
      </trkpt>
      <trkpt lat="47.93302" lon="3.2378">
        <ele>150.60000610352</ele>
        <time>2022-07-09T07:55:51Z</time>
      </trkpt>
      <trkpt lat="47.93331" lon="3.23783">
        <ele>148.19999694824</ele>
        <time>2022-07-09T07:56:14Z</time>
      </trkpt>
      <trkpt lat="47.93352" lon="3.23796">
        <ele>146.60000610352</ele>
        <time>2022-07-09T07:56:34Z</time>
      </trkpt>
      <trkpt lat="47.9336" lon="3.23802">
        <ele>146</ele>
        <time>2022-07-09T07:56:41Z</time>
      </trkpt>
      <trkpt lat="47.93361" lon="3.23805">
        <ele>145.80000305176</ele>
        <time>2022-07-09T07:56:42Z</time>
      </trkpt>
      <trkpt lat="47.93374" lon="3.23819">
        <ele>144.60000610352</ele>
        <time>2022-07-09T07:56:58Z</time>
      </trkpt>
      <trkpt lat="47.93376" lon="3.23819">
        <ele>144.39999389648</ele>
        <time>2022-07-09T07:57:00Z</time>
      </trkpt>
      <trkpt lat="47.93378" lon="3.23819">
        <ele>144.19999694824</ele>
        <time>2022-07-09T07:57:01Z</time>
      </trkpt>
      <trkpt lat="47.93379" lon="3.23819">
        <ele>144.19999694824</ele>
        <time>2022-07-09T07:57:02Z</time>
      </trkpt>
      <trkpt lat="47.93394" lon="3.23816">
        <ele>143.60000610352</ele>
        <time>2022-07-09T07:57:13Z</time>
      </trkpt>
      <trkpt lat="47.93404" lon="3.23817">
        <ele>143.80000305176</ele>
        <time>2022-07-09T07:57:24Z</time>
      </trkpt>
      <trkpt lat="47.93405" lon="3.23817">
        <ele>143.80000305176</ele>
        <time>2022-07-09T07:57:25Z</time>
      </trkpt>
      <trkpt lat="47.93425" lon="3.23819">
        <ele>142.39999389648</ele>
        <time>2022-07-09T07:57:49Z</time>
      </trkpt>
      <trkpt lat="47.93436" lon="3.23803">
        <ele>142.80000305176</ele>
        <time>2022-07-09T07:58:05Z</time>
      </trkpt>
      <trkpt lat="47.93442" lon="3.23795">
        <ele>143.60000610352</ele>
        <time>2022-07-09T07:58:10Z</time>
      </trkpt>
      <trkpt lat="47.93442" lon="3.23793">
        <ele>143.60000610352</ele>
        <time>2022-07-09T07:58:11Z</time>
      </trkpt>
      <trkpt lat="47.93442" lon="3.23792">
        <ele>143.60000610352</ele>
        <time>2022-07-09T07:58:12Z</time>
      </trkpt>
      <trkpt lat="47.93461" lon="3.23773">
        <ele>146.60000610352</ele>
        <time>2022-07-09T07:58:49Z</time>
      </trkpt>
      <trkpt lat="47.93497" lon="3.23762">
        <ele>145.60000610352</ele>
        <time>2022-07-09T07:59:23Z</time>
      </trkpt>
      <trkpt lat="47.93511" lon="3.2376">
        <ele>145.39999389648</ele>
        <time>2022-07-09T07:59:37Z</time>
      </trkpt>
      <trkpt lat="47.93512" lon="3.2376">
        <ele>145.39999389648</ele>
        <time>2022-07-09T07:59:38Z</time>
      </trkpt>
      <trkpt lat="47.93514" lon="3.2376">
        <ele>145.39999389648</ele>
        <time>2022-07-09T07:59:39Z</time>
      </trkpt>
      <trkpt lat="47.9352" lon="3.2376">
        <ele>145.39999389648</ele>
        <time>2022-07-09T07:59:47Z</time>
      </trkpt>
      <trkpt lat="47.93529" lon="3.23758">
        <ele>145.39999389648</ele>
        <time>2022-07-09T07:59:57Z</time>
      </trkpt>
      <trkpt lat="47.93531" lon="3.23757">
        <ele>145.39999389648</ele>
        <time>2022-07-09T07:59:59Z</time>
      </trkpt>
      <trkpt lat="47.93532" lon="3.23757">
        <ele>145.39999389648</ele>
        <time>2022-07-09T08:00:00Z</time>
      </trkpt>
      <trkpt lat="47.93545" lon="3.23755">
        <ele>145.39999389648</ele>
        <time>2022-07-09T08:00:10Z</time>
      </trkpt>
      <trkpt lat="47.93546" lon="3.23755">
        <ele>145.39999389648</ele>
        <time>2022-07-09T08:00:11Z</time>
      </trkpt>
      <trkpt lat="47.93549" lon="3.23754">
        <ele>145.39999389648</ele>
        <time>2022-07-09T08:00:14Z</time>
      </trkpt>
      <trkpt lat="47.93556" lon="3.23756">
        <ele>145.39999389648</ele>
        <time>2022-07-09T08:00:25Z</time>
      </trkpt>
      <trkpt lat="47.93566" lon="3.23762">
        <ele>145.60000610352</ele>
        <time>2022-07-09T08:00:36Z</time>
      </trkpt>
      <trkpt lat="47.93587" lon="3.23766">
        <ele>146</ele>
        <time>2022-07-09T08:00:53Z</time>
      </trkpt>
      <trkpt lat="47.93601" lon="3.23764">
        <ele>146</ele>
        <time>2022-07-09T08:01:02Z</time>
      </trkpt>
      <trkpt lat="47.93625" lon="3.23765">
        <ele>146.19999694824</ele>
        <time>2022-07-09T08:01:20Z</time>
      </trkpt>
      <trkpt lat="47.93636" lon="3.23768">
        <ele>146.19999694824</ele>
        <time>2022-07-09T08:01:30Z</time>
      </trkpt>
      <trkpt lat="47.93646" lon="3.2377">
        <ele>146.60000610352</ele>
        <time>2022-07-09T08:01:39Z</time>
      </trkpt>
      <trkpt lat="47.93662" lon="3.23769">
        <ele>146.60000610352</ele>
        <time>2022-07-09T08:01:55Z</time>
      </trkpt>
      <trkpt lat="47.93677" lon="3.2377">
        <ele>146.19999694824</ele>
        <time>2022-07-09T08:02:07Z</time>
      </trkpt>
      <trkpt lat="47.93699" lon="3.23768">
        <ele>145</ele>
        <time>2022-07-09T08:02:26Z</time>
      </trkpt>
      <trkpt lat="47.9371" lon="3.23765">
        <ele>144.19999694824</ele>
        <time>2022-07-09T08:02:36Z</time>
      </trkpt>
      <trkpt lat="47.93726" lon="3.23763">
        <ele>144.39999389648</ele>
        <time>2022-07-09T08:02:53Z</time>
      </trkpt>
      <trkpt lat="47.93736" lon="3.23757">
        <ele>144.60000610352</ele>
        <time>2022-07-09T08:03:01Z</time>
      </trkpt>
      <trkpt lat="47.93752" lon="3.23751">
        <ele>144.39999389648</ele>
        <time>2022-07-09T08:03:15Z</time>
      </trkpt>
      <trkpt lat="47.93764" lon="3.23754">
        <ele>144.19999694824</ele>
        <time>2022-07-09T08:03:26Z</time>
      </trkpt>
      <trkpt lat="47.93777" lon="3.23752">
        <ele>144.39999389648</ele>
        <time>2022-07-09T08:03:36Z</time>
      </trkpt>
      <trkpt lat="47.93778" lon="3.23751">
        <ele>144.39999389648</ele>
        <time>2022-07-09T08:03:37Z</time>
      </trkpt>
      <trkpt lat="47.93779" lon="3.2375">
        <ele>144.39999389648</ele>
        <time>2022-07-09T08:03:38Z</time>
      </trkpt>
      <trkpt lat="47.93789" lon="3.23747">
        <ele>144.39999389648</ele>
        <time>2022-07-09T08:03:45Z</time>
      </trkpt>
      <trkpt lat="47.938" lon="3.23745">
        <ele>144.19999694824</ele>
        <time>2022-07-09T08:03:54Z</time>
      </trkpt>
      <trkpt lat="47.93813" lon="3.2374">
        <ele>144.19999694824</ele>
        <time>2022-07-09T08:04:06Z</time>
      </trkpt>
      <trkpt lat="47.93816" lon="3.23739">
        <ele>144.19999694824</ele>
        <time>2022-07-09T08:04:09Z</time>
      </trkpt>
      <trkpt lat="47.93818" lon="3.23739">
        <ele>144.39999389648</ele>
        <time>2022-07-09T08:04:11Z</time>
      </trkpt>
      <trkpt lat="47.93821" lon="3.23738">
        <ele>144.39999389648</ele>
        <time>2022-07-09T08:04:13Z</time>
      </trkpt>
      <trkpt lat="47.93825" lon="3.23736">
        <ele>144.19999694824</ele>
        <time>2022-07-09T08:04:16Z</time>
      </trkpt>
      <trkpt lat="47.93826" lon="3.23736">
        <ele>144.19999694824</ele>
        <time>2022-07-09T08:04:17Z</time>
      </trkpt>
      <trkpt lat="47.93829" lon="3.23734">
        <ele>144.19999694824</ele>
        <time>2022-07-09T08:04:19Z</time>
      </trkpt>
      <trkpt lat="47.93834" lon="3.23732">
        <ele>144.19999694824</ele>
        <time>2022-07-09T08:04:23Z</time>
      </trkpt>
      <trkpt lat="47.93845" lon="3.23726">
        <ele>144</ele>
        <time>2022-07-09T08:04:34Z</time>
      </trkpt>
      <trkpt lat="47.93861" lon="3.23717">
        <ele>143.60000610352</ele>
        <time>2022-07-09T08:04:50Z</time>
      </trkpt>
      <trkpt lat="47.93879" lon="3.2371">
        <ele>143.39999389648</ele>
        <time>2022-07-09T08:05:01Z</time>
      </trkpt>
      <trkpt lat="47.93897" lon="3.23699">
        <ele>142.60000610352</ele>
        <time>2022-07-09T08:05:17Z</time>
      </trkpt>
      <trkpt lat="47.939" lon="3.23698">
        <ele>142.60000610352</ele>
        <time>2022-07-09T08:05:19Z</time>
      </trkpt>
      <trkpt lat="47.93902" lon="3.23697">
        <ele>142.60000610352</ele>
        <time>2022-07-09T08:05:20Z</time>
      </trkpt>
      <trkpt lat="47.93924" lon="3.23688">
        <ele>142.19999694824</ele>
        <time>2022-07-09T08:05:37Z</time>
      </trkpt>
      <trkpt lat="47.93936" lon="3.23684">
        <ele>141.80000305176</ele>
        <time>2022-07-09T08:05:48Z</time>
      </trkpt>
      <trkpt lat="47.93939" lon="3.23682">
        <ele>141.60000610352</ele>
        <time>2022-07-09T08:05:52Z</time>
      </trkpt>
      <trkpt lat="47.93953" lon="3.23677">
        <ele>140.80000305176</ele>
        <time>2022-07-09T08:06:05Z</time>
      </trkpt>
      <trkpt lat="47.9396" lon="3.23675">
        <ele>140.60000610352</ele>
        <time>2022-07-09T08:06:09Z</time>
      </trkpt>
      <trkpt lat="47.93961" lon="3.23674">
        <ele>140.60000610352</ele>
        <time>2022-07-09T08:06:10Z</time>
      </trkpt>
      <trkpt lat="47.93968" lon="3.23671">
        <ele>140.19999694824</ele>
        <time>2022-07-09T08:06:14Z</time>
      </trkpt>
      <trkpt lat="47.93969" lon="3.2367">
        <ele>140.19999694824</ele>
        <time>2022-07-09T08:06:15Z</time>
      </trkpt>
      <trkpt lat="47.93972" lon="3.23669">
        <ele>140</ele>
        <time>2022-07-09T08:06:17Z</time>
      </trkpt>
      <trkpt lat="47.93973" lon="3.23669">
        <ele>140</ele>
        <time>2022-07-09T08:06:18Z</time>
      </trkpt>
      <trkpt lat="47.93977" lon="3.23665">
        <ele>140</ele>
        <time>2022-07-09T08:06:21Z</time>
      </trkpt>
      <trkpt lat="47.93989" lon="3.23659">
        <ele>139.39999389648</ele>
        <time>2022-07-09T08:06:31Z</time>
      </trkpt>
      <trkpt lat="47.9399" lon="3.23658">
        <ele>139.19999694824</ele>
        <time>2022-07-09T08:06:32Z</time>
      </trkpt>
      <trkpt lat="47.93996" lon="3.23656">
        <ele>139</ele>
        <time>2022-07-09T08:06:36Z</time>
      </trkpt>
      <trkpt lat="47.94009" lon="3.23657">
        <ele>138.39999389648</ele>
        <time>2022-07-09T08:06:45Z</time>
      </trkpt>
      <trkpt lat="47.94012" lon="3.23657">
        <ele>138</ele>
        <time>2022-07-09T08:06:48Z</time>
      </trkpt>
      <trkpt lat="47.94018" lon="3.23655">
        <ele>137.39999389648</ele>
        <time>2022-07-09T08:06:53Z</time>
      </trkpt>
      <trkpt lat="47.9402" lon="3.23655">
        <ele>137.39999389648</ele>
        <time>2022-07-09T08:06:54Z</time>
      </trkpt>
      <trkpt lat="47.94021" lon="3.23655">
        <ele>137.39999389648</ele>
        <time>2022-07-09T08:06:55Z</time>
      </trkpt>
      <trkpt lat="47.94023" lon="3.23656">
        <ele>137.19999694824</ele>
        <time>2022-07-09T08:06:56Z</time>
      </trkpt>
      <trkpt lat="47.94024" lon="3.23656">
        <ele>137.19999694824</ele>
        <time>2022-07-09T08:06:57Z</time>
      </trkpt>
      <trkpt lat="47.94026" lon="3.23655">
        <ele>137.19999694824</ele>
        <time>2022-07-09T08:06:58Z</time>
      </trkpt>
      <trkpt lat="47.94028" lon="3.23656">
        <ele>137</ele>
        <time>2022-07-09T08:07:00Z</time>
      </trkpt>
      <trkpt lat="47.9403" lon="3.23655">
        <ele>137</ele>
        <time>2022-07-09T08:07:02Z</time>
      </trkpt>
      <trkpt lat="47.94036" lon="3.23652">
        <ele>136.60000610352</ele>
        <time>2022-07-09T08:07:08Z</time>
      </trkpt>
      <trkpt lat="47.94045" lon="3.23651">
        <ele>136.39999389648</ele>
        <time>2022-07-09T08:07:14Z</time>
      </trkpt>
      <trkpt lat="47.94046" lon="3.23651">
        <ele>136.39999389648</ele>
        <time>2022-07-09T08:07:15Z</time>
      </trkpt>
      <trkpt lat="47.9407" lon="3.23655">
        <ele>135.80000305176</ele>
        <time>2022-07-09T08:07:36Z</time>
      </trkpt>
      <trkpt lat="47.94079" lon="3.23654">
        <ele>135.80000305176</ele>
        <time>2022-07-09T08:07:42Z</time>
      </trkpt>
      <trkpt lat="47.94084" lon="3.23654">
        <ele>135.80000305176</ele>
        <time>2022-07-09T08:07:47Z</time>
      </trkpt>
      <trkpt lat="47.94092" lon="3.23653">
        <ele>136.19999694824</ele>
        <time>2022-07-09T08:07:56Z</time>
      </trkpt>
      <trkpt lat="47.94104" lon="3.23652">
        <ele>135.80000305176</ele>
        <time>2022-07-09T08:08:06Z</time>
      </trkpt>
      <trkpt lat="47.94121" lon="3.23653">
        <ele>134.60000610352</ele>
        <time>2022-07-09T08:08:24Z</time>
      </trkpt>
      <trkpt lat="47.94123" lon="3.23652">
        <ele>134.39999389648</ele>
        <time>2022-07-09T08:08:26Z</time>
      </trkpt>
      <trkpt lat="47.9414" lon="3.2365">
        <ele>134</ele>
        <time>2022-07-09T08:08:42Z</time>
      </trkpt>
      <trkpt lat="47.94164" lon="3.23643">
        <ele>133.80000305176</ele>
        <time>2022-07-09T08:08:55Z</time>
      </trkpt>
      <trkpt lat="47.94166" lon="3.23643">
        <ele>133.80000305176</ele>
        <time>2022-07-09T08:08:56Z</time>
      </trkpt>
      <trkpt lat="47.94189" lon="3.23641">
        <ele>133.60000610352</ele>
        <time>2022-07-09T08:09:19Z</time>
      </trkpt>
      <trkpt lat="47.94192" lon="3.23641">
        <ele>133.19999694824</ele>
        <time>2022-07-09T08:09:33Z</time>
      </trkpt>
      <trkpt lat="47.94196" lon="3.23641">
        <ele>133.39999389648</ele>
        <time>2022-07-09T08:09:37Z</time>
      </trkpt>
      <trkpt lat="47.94228" lon="3.23647">
        <ele>133.19999694824</ele>
        <time>2022-07-09T08:09:58Z</time>
      </trkpt>
      <trkpt lat="47.94233" lon="3.23662">
        <ele>133</ele>
        <time>2022-07-09T08:10:09Z</time>
      </trkpt>
      <trkpt lat="47.94236" lon="3.23669">
        <ele>132.80000305176</ele>
        <time>2022-07-09T08:10:13Z</time>
      </trkpt>
      <trkpt lat="47.94236" lon="3.2367">
        <ele>132.80000305176</ele>
        <time>2022-07-09T08:10:14Z</time>
      </trkpt>
      <trkpt lat="47.94237" lon="3.23714">
        <ele>133</ele>
        <time>2022-07-09T08:10:40Z</time>
      </trkpt>
      <trkpt lat="47.94239" lon="3.23717">
        <ele>133</ele>
        <time>2022-07-09T08:10:42Z</time>
      </trkpt>
      <trkpt lat="47.94239" lon="3.23722">
        <ele>133</ele>
        <time>2022-07-09T08:10:45Z</time>
      </trkpt>
      <trkpt lat="47.9424" lon="3.2373">
        <ele>133.19999694824</ele>
        <time>2022-07-09T08:10:51Z</time>
      </trkpt>
      <trkpt lat="47.94248" lon="3.23753">
        <ele>133.39999389648</ele>
        <time>2022-07-09T08:11:06Z</time>
      </trkpt>
      <trkpt lat="47.94249" lon="3.23754">
        <ele>133.39999389648</ele>
        <time>2022-07-09T08:11:07Z</time>
      </trkpt>
      <trkpt lat="47.94249" lon="3.23756">
        <ele>133.39999389648</ele>
        <time>2022-07-09T08:11:08Z</time>
      </trkpt>
      <trkpt lat="47.94251" lon="3.23758">
        <ele>133.39999389648</ele>
        <time>2022-07-09T08:11:10Z</time>
      </trkpt>
      <trkpt lat="47.94257" lon="3.23775">
        <ele>133.60000610352</ele>
        <time>2022-07-09T08:11:22Z</time>
      </trkpt>
      <trkpt lat="47.94261" lon="3.23784">
        <ele>133.80000305176</ele>
        <time>2022-07-09T08:11:29Z</time>
      </trkpt>
      <trkpt lat="47.94264" lon="3.23794">
        <ele>134</ele>
        <time>2022-07-09T08:11:35Z</time>
      </trkpt>
      <trkpt lat="47.94269" lon="3.23804">
        <ele>134.19999694824</ele>
        <time>2022-07-09T08:11:45Z</time>
      </trkpt>
      <trkpt lat="47.94275" lon="3.23817">
        <ele>134.39999389648</ele>
        <time>2022-07-09T08:11:54Z</time>
      </trkpt>
      <trkpt lat="47.94276" lon="3.2382">
        <ele>134.39999389648</ele>
        <time>2022-07-09T08:11:56Z</time>
      </trkpt>
      <trkpt lat="47.94277" lon="3.23822">
        <ele>134.39999389648</ele>
        <time>2022-07-09T08:11:57Z</time>
      </trkpt>
      <trkpt lat="47.94283" lon="3.23837">
        <ele>134.80000305176</ele>
        <time>2022-07-09T08:12:09Z</time>
      </trkpt>
      <trkpt lat="47.94289" lon="3.23852">
        <ele>135</ele>
        <time>2022-07-09T08:12:19Z</time>
      </trkpt>
      <trkpt lat="47.94292" lon="3.23868">
        <ele>134.80000305176</ele>
        <time>2022-07-09T08:12:28Z</time>
      </trkpt>
      <trkpt lat="47.94293" lon="3.2387">
        <ele>134.80000305176</ele>
        <time>2022-07-09T08:12:29Z</time>
      </trkpt>
      <trkpt lat="47.94293" lon="3.23872">
        <ele>134.80000305176</ele>
        <time>2022-07-09T08:12:30Z</time>
      </trkpt>
      <trkpt lat="47.94299" lon="3.23884">
        <ele>135</ele>
        <time>2022-07-09T08:12:38Z</time>
      </trkpt>
      <trkpt lat="47.94302" lon="3.23894">
        <ele>135.60000610352</ele>
        <time>2022-07-09T08:12:45Z</time>
      </trkpt>
      <trkpt lat="47.94305" lon="3.23905">
        <ele>135.80000305176</ele>
        <time>2022-07-09T08:12:52Z</time>
      </trkpt>
      <trkpt lat="47.94306" lon="3.23907">
        <ele>135.80000305176</ele>
        <time>2022-07-09T08:12:53Z</time>
      </trkpt>
      <trkpt lat="47.94311" lon="3.23921">
        <ele>136.39999389648</ele>
        <time>2022-07-09T08:13:02Z</time>
      </trkpt>
      <trkpt lat="47.94312" lon="3.23925">
        <ele>136.39999389648</ele>
        <time>2022-07-09T08:13:04Z</time>
      </trkpt>
      <trkpt lat="47.94313" lon="3.23933">
        <ele>136.80000305176</ele>
        <time>2022-07-09T08:13:08Z</time>
      </trkpt>
      <trkpt lat="47.94313" lon="3.23942">
        <ele>137</ele>
        <time>2022-07-09T08:13:14Z</time>
      </trkpt>
      <trkpt lat="47.94314" lon="3.23944">
        <ele>137.19999694824</ele>
        <time>2022-07-09T08:13:15Z</time>
      </trkpt>
      <trkpt lat="47.94314" lon="3.2395">
        <ele>137.60000610352</ele>
        <time>2022-07-09T08:13:19Z</time>
      </trkpt>
      <trkpt lat="47.94316" lon="3.23963">
        <ele>138</ele>
        <time>2022-07-09T08:13:26Z</time>
      </trkpt>
      <trkpt lat="47.94322" lon="3.23985">
        <ele>139</ele>
        <time>2022-07-09T08:13:39Z</time>
      </trkpt>
      <trkpt lat="47.94324" lon="3.24">
        <ele>139.80000305176</ele>
        <time>2022-07-09T08:13:48Z</time>
      </trkpt>
      <trkpt lat="47.94324" lon="3.24002">
        <ele>139.80000305176</ele>
        <time>2022-07-09T08:13:49Z</time>
      </trkpt>
      <trkpt lat="47.94327" lon="3.24017">
        <ele>140.19999694824</ele>
        <time>2022-07-09T08:13:58Z</time>
      </trkpt>
      <trkpt lat="47.94331" lon="3.24034">
        <ele>140.39999389648</ele>
        <time>2022-07-09T08:14:09Z</time>
      </trkpt>
      <trkpt lat="47.94343" lon="3.24155">
        <ele>143.39999389648</ele>
        <time>2022-07-09T08:15:15Z</time>
      </trkpt>
      <trkpt lat="47.94349" lon="3.24168">
        <ele>144</ele>
        <time>2022-07-09T08:15:24Z</time>
      </trkpt>
      <trkpt lat="47.94351" lon="3.24173">
        <ele>144.39999389648</ele>
        <time>2022-07-09T08:15:28Z</time>
      </trkpt>
      <trkpt lat="47.94355" lon="3.24192">
        <ele>145.19999694824</ele>
        <time>2022-07-09T08:15:39Z</time>
      </trkpt>
      <trkpt lat="47.94356" lon="3.24208">
        <ele>145.80000305176</ele>
        <time>2022-07-09T08:15:50Z</time>
      </trkpt>
      <trkpt lat="47.94361" lon="3.24232">
        <ele>147</ele>
        <time>2022-07-09T08:16:05Z</time>
      </trkpt>
      <trkpt lat="47.94361" lon="3.24235">
        <ele>147.19999694824</ele>
        <time>2022-07-09T08:16:07Z</time>
      </trkpt>
      <trkpt lat="47.94364" lon="3.24259">
        <ele>148.39999389648</ele>
        <time>2022-07-09T08:16:20Z</time>
      </trkpt>
      <trkpt lat="47.94363" lon="3.24273">
        <ele>149.19999694824</ele>
        <time>2022-07-09T08:16:30Z</time>
      </trkpt>
      <trkpt lat="47.94362" lon="3.24287">
        <ele>149.60000610352</ele>
        <time>2022-07-09T08:16:38Z</time>
      </trkpt>
      <trkpt lat="47.94361" lon="3.24296">
        <ele>150</ele>
        <time>2022-07-09T08:16:43Z</time>
      </trkpt>
      <trkpt lat="47.94363" lon="3.24315">
        <ele>151</ele>
        <time>2022-07-09T08:16:56Z</time>
      </trkpt>
      <trkpt lat="47.94361" lon="3.24336">
        <ele>152.19999694824</ele>
        <time>2022-07-09T08:17:09Z</time>
      </trkpt>
      <trkpt lat="47.94361" lon="3.24352">
        <ele>152.80000305176</ele>
        <time>2022-07-09T08:17:19Z</time>
      </trkpt>
      <trkpt lat="47.94361" lon="3.24368">
        <ele>153.80000305176</ele>
        <time>2022-07-09T08:17:28Z</time>
      </trkpt>
      <trkpt lat="47.94362" lon="3.24371">
        <ele>153.80000305176</ele>
        <time>2022-07-09T08:17:30Z</time>
      </trkpt>
      <trkpt lat="47.94362" lon="3.2438">
        <ele>154</ele>
        <time>2022-07-09T08:17:35Z</time>
      </trkpt>
      <trkpt lat="47.94362" lon="3.24386">
        <ele>154.39999389648</ele>
        <time>2022-07-09T08:17:39Z</time>
      </trkpt>
      <trkpt lat="47.94365" lon="3.24418">
        <ele>156</ele>
        <time>2022-07-09T08:17:59Z</time>
      </trkpt>
      <trkpt lat="47.94366" lon="3.24432">
        <ele>156.60000610352</ele>
        <time>2022-07-09T08:18:07Z</time>
      </trkpt>
      <trkpt lat="47.94367" lon="3.24458">
        <ele>157.80000305176</ele>
        <time>2022-07-09T08:18:22Z</time>
      </trkpt>
      <trkpt lat="47.9437" lon="3.2448">
        <ele>158.80000305176</ele>
        <time>2022-07-09T08:18:37Z</time>
      </trkpt>
      <trkpt lat="47.94372" lon="3.24488">
        <ele>159.60000610352</ele>
        <time>2022-07-09T08:18:50Z</time>
      </trkpt>
      <trkpt lat="47.94377" lon="3.24477">
        <ele>159.39999389648</ele>
        <time>2022-07-09T08:19:05Z</time>
      </trkpt>
      <trkpt lat="47.94377" lon="3.24475">
        <ele>159.39999389648</ele>
        <time>2022-07-09T08:19:06Z</time>
      </trkpt>
      <trkpt lat="47.94379" lon="3.2446">
        <ele>159.80000305176</ele>
        <time>2022-07-09T08:19:17Z</time>
      </trkpt>
      <trkpt lat="47.9438" lon="3.24438">
        <ele>159.39999389648</ele>
        <time>2022-07-09T08:19:33Z</time>
      </trkpt>
      <trkpt lat="47.94386" lon="3.24428">
        <ele>159.39999389648</ele>
        <time>2022-07-09T08:19:44Z</time>
      </trkpt>
      <trkpt lat="47.94386" lon="3.24427">
        <ele>159.39999389648</ele>
        <time>2022-07-09T08:19:45Z</time>
      </trkpt>
      <trkpt lat="47.94391" lon="3.24425">
        <ele>159.80000305176</ele>
        <time>2022-07-09T08:19:51Z</time>
      </trkpt>
      <trkpt lat="47.94418" lon="3.24419">
        <ele>160.80000305176</ele>
        <time>2022-07-09T08:20:14Z</time>
      </trkpt>
      <trkpt lat="47.94426" lon="3.24421">
        <ele>161.19999694824</ele>
        <time>2022-07-09T08:20:22Z</time>
      </trkpt>
      <trkpt lat="47.94448" lon="3.24417">
        <ele>162</ele>
        <time>2022-07-09T08:20:41Z</time>
      </trkpt>
      <trkpt lat="47.94471" lon="3.24414">
        <ele>162.39999389648</ele>
        <time>2022-07-09T08:21:00Z</time>
      </trkpt>
      <trkpt lat="47.94476" lon="3.24413">
        <ele>162.60000610352</ele>
        <time>2022-07-09T08:21:05Z</time>
      </trkpt>
      <trkpt lat="47.94477" lon="3.24413">
        <ele>162.60000610352</ele>
        <time>2022-07-09T08:21:06Z</time>
      </trkpt>
      <trkpt lat="47.945" lon="3.24412">
        <ele>163</ele>
        <time>2022-07-09T08:21:25Z</time>
      </trkpt>
      <trkpt lat="47.94517" lon="3.24412">
        <ele>163.80000305176</ele>
        <time>2022-07-09T08:21:42Z</time>
      </trkpt>
      <trkpt lat="47.94531" lon="3.24409">
        <ele>163.80000305176</ele>
        <time>2022-07-09T08:21:54Z</time>
      </trkpt>
      <trkpt lat="47.94543" lon="3.24412">
        <ele>164.19999694824</ele>
        <time>2022-07-09T08:22:04Z</time>
      </trkpt>
      <trkpt lat="47.94562" lon="3.24413">
        <ele>164.19999694824</ele>
        <time>2022-07-09T08:22:23Z</time>
      </trkpt>
      <trkpt lat="47.94587" lon="3.24412">
        <ele>164.80000305176</ele>
        <time>2022-07-09T08:22:44Z</time>
      </trkpt>
      <trkpt lat="47.94606" lon="3.2441">
        <ele>164.80000305176</ele>
        <time>2022-07-09T08:23:01Z</time>
      </trkpt>
      <trkpt lat="47.94615" lon="3.24404">
        <ele>165</ele>
        <time>2022-07-09T08:23:07Z</time>
      </trkpt>
      <trkpt lat="47.94617" lon="3.24404">
        <ele>165</ele>
        <time>2022-07-09T08:23:08Z</time>
      </trkpt>
      <trkpt lat="47.94618" lon="3.24404">
        <ele>164.80000305176</ele>
        <time>2022-07-09T08:23:09Z</time>
      </trkpt>
      <trkpt lat="47.9462" lon="3.24403">
        <ele>164.60000610352</ele>
        <time>2022-07-09T08:23:11Z</time>
      </trkpt>
      <trkpt lat="47.9463" lon="3.24406">
        <ele>164.60000610352</ele>
        <time>2022-07-09T08:23:21Z</time>
      </trkpt>
      <trkpt lat="47.94637" lon="3.24407">
        <ele>164.60000610352</ele>
        <time>2022-07-09T08:23:28Z</time>
      </trkpt>
      <trkpt lat="47.94641" lon="3.24406">
        <ele>164.80000305176</ele>
        <time>2022-07-09T08:23:31Z</time>
      </trkpt>
      <trkpt lat="47.94644" lon="3.24406">
        <ele>164.60000610352</ele>
        <time>2022-07-09T08:23:34Z</time>
      </trkpt>
      <trkpt lat="47.94655" lon="3.24404">
        <ele>164.19999694824</ele>
        <time>2022-07-09T08:23:45Z</time>
      </trkpt>
      <trkpt lat="47.94666" lon="3.24404">
        <ele>164</ele>
        <time>2022-07-09T08:23:57Z</time>
      </trkpt>
      <trkpt lat="47.94683" lon="3.24402">
        <ele>163.80000305176</ele>
        <time>2022-07-09T08:24:14Z</time>
      </trkpt>
      <trkpt lat="47.94691" lon="3.24401">
        <ele>163.80000305176</ele>
        <time>2022-07-09T08:24:24Z</time>
      </trkpt>
      <trkpt lat="47.947" lon="3.244">
        <ele>163.60000610352</ele>
        <time>2022-07-09T08:24:33Z</time>
      </trkpt>
      <trkpt lat="47.94704" lon="3.244">
        <ele>163.60000610352</ele>
        <time>2022-07-09T08:24:38Z</time>
      </trkpt>
      <trkpt lat="47.94706" lon="3.24401">
        <ele>163.80000305176</ele>
        <time>2022-07-09T08:24:39Z</time>
      </trkpt>
      <trkpt lat="47.94713" lon="3.24402">
        <ele>163.80000305176</ele>
        <time>2022-07-09T08:24:47Z</time>
      </trkpt>
      <trkpt lat="47.94726" lon="3.244">
        <ele>163</ele>
        <time>2022-07-09T08:25:03Z</time>
      </trkpt>
      <trkpt lat="47.94741" lon="3.24394">
        <ele>162.60000610352</ele>
        <time>2022-07-09T08:25:24Z</time>
      </trkpt>
      <trkpt lat="47.94756" lon="3.24394">
        <ele>161.80000305176</ele>
        <time>2022-07-09T08:25:39Z</time>
      </trkpt>
      <trkpt lat="47.94776" lon="3.24396">
        <ele>161.80000305176</ele>
        <time>2022-07-09T08:25:56Z</time>
      </trkpt>
      <trkpt lat="47.94789" lon="3.24402">
        <ele>161.60000610352</ele>
        <time>2022-07-09T08:26:10Z</time>
      </trkpt>
      <trkpt lat="47.94804" lon="3.24398">
        <ele>161.39999389648</ele>
        <time>2022-07-09T08:26:22Z</time>
      </trkpt>
      <trkpt lat="47.94818" lon="3.24394">
        <ele>161.19999694824</ele>
        <time>2022-07-09T08:26:37Z</time>
      </trkpt>
      <trkpt lat="47.94829" lon="3.24393">
        <ele>161</ele>
        <time>2022-07-09T08:26:48Z</time>
      </trkpt>
      <trkpt lat="47.94845" lon="3.24392">
        <ele>160.39999389648</ele>
        <time>2022-07-09T08:27:06Z</time>
      </trkpt>
      <trkpt lat="47.94864" lon="3.24391">
        <ele>160.19999694824</ele>
        <time>2022-07-09T08:27:24Z</time>
      </trkpt>
      <trkpt lat="47.94875" lon="3.24392">
        <ele>160</ele>
        <time>2022-07-09T08:27:36Z</time>
      </trkpt>
      <trkpt lat="47.94886" lon="3.2439">
        <ele>159.39999389648</ele>
        <time>2022-07-09T08:27:47Z</time>
      </trkpt>
      <trkpt lat="47.94906" lon="3.24389">
        <ele>158.80000305176</ele>
        <time>2022-07-09T08:28:05Z</time>
      </trkpt>
      <trkpt lat="47.9492" lon="3.24388">
        <ele>158.60000610352</ele>
        <time>2022-07-09T08:28:18Z</time>
      </trkpt>
      <trkpt lat="47.94929" lon="3.2439">
        <ele>158.39999389648</ele>
        <time>2022-07-09T08:28:27Z</time>
      </trkpt>
      <trkpt lat="47.94941" lon="3.24388">
        <ele>158.19999694824</ele>
        <time>2022-07-09T08:28:40Z</time>
      </trkpt>
      <trkpt lat="47.94954" lon="3.24384">
        <ele>157.80000305176</ele>
        <time>2022-07-09T08:28:53Z</time>
      </trkpt>
      <trkpt lat="47.94965" lon="3.2438">
        <ele>157.60000610352</ele>
        <time>2022-07-09T08:29:04Z</time>
      </trkpt>
      <trkpt lat="47.94978" lon="3.24382">
        <ele>157.19999694824</ele>
        <time>2022-07-09T08:29:19Z</time>
      </trkpt>
      <trkpt lat="47.9499" lon="3.24382">
        <ele>156.60000610352</ele>
        <time>2022-07-09T08:29:31Z</time>
      </trkpt>
      <trkpt lat="47.95003" lon="3.24383">
        <ele>156.60000610352</ele>
        <time>2022-07-09T08:29:43Z</time>
      </trkpt>
      <trkpt lat="47.95011" lon="3.24388">
        <ele>156.60000610352</ele>
        <time>2022-07-09T08:29:57Z</time>
      </trkpt>
      <trkpt lat="47.9501" lon="3.24394">
        <ele>157.39999389648</ele>
        <time>2022-07-09T08:30:15Z</time>
      </trkpt>
      <trkpt lat="47.95002" lon="3.24406">
        <ele>157</ele>
        <time>2022-07-09T08:30:25Z</time>
      </trkpt>
      <trkpt lat="47.94996" lon="3.24426">
        <ele>157.60000610352</ele>
        <time>2022-07-09T08:30:45Z</time>
      </trkpt>
      <trkpt lat="47.94996" lon="3.24425">
        <ele>158.39999389648</ele>
        <time>2022-07-09T08:31:08Z</time>
      </trkpt>
      <trkpt lat="47.94997" lon="3.24426">
        <ele>158.39999389648</ele>
        <time>2022-07-09T08:31:37Z</time>
      </trkpt>
      <trkpt lat="47.94998" lon="3.24424">
        <ele>158.39999389648</ele>
        <time>2022-07-09T08:31:40Z</time>
      </trkpt>
      <trkpt lat="47.95001" lon="3.2442">
        <ele>157.80000305176</ele>
        <time>2022-07-09T08:31:45Z</time>
      </trkpt>
      <trkpt lat="47.95009" lon="3.24405">
        <ele>157.39999389648</ele>
        <time>2022-07-09T08:31:59Z</time>
      </trkpt>
      <trkpt lat="47.95013" lon="3.24398">
        <ele>155.19999694824</ele>
        <time>2022-07-09T08:32:09Z</time>
      </trkpt>
      <trkpt lat="47.95015" lon="3.24394">
        <ele>157.60000610352</ele>
        <time>2022-07-09T08:32:16Z</time>
      </trkpt>
      <trkpt lat="47.95021" lon="3.24393">
        <ele>156.19999694824</ele>
        <time>2022-07-09T08:32:39Z</time>
      </trkpt>
      <trkpt lat="47.95036" lon="3.244">
        <ele>156</ele>
        <time>2022-07-09T08:32:53Z</time>
      </trkpt>
      <trkpt lat="47.95039" lon="3.24404">
        <ele>156</ele>
        <time>2022-07-09T08:32:57Z</time>
      </trkpt>
      <trkpt lat="47.95091" lon="3.2445">
        <ele>156.19999694824</ele>
        <time>2022-07-09T08:33:51Z</time>
      </trkpt>
      <trkpt lat="47.95104" lon="3.24459">
        <ele>155.80000305176</ele>
        <time>2022-07-09T08:34:02Z</time>
      </trkpt>
      <trkpt lat="47.95118" lon="3.2447">
        <ele>155.60000610352</ele>
        <time>2022-07-09T08:34:15Z</time>
      </trkpt>
      <trkpt lat="47.9514" lon="3.24488">
        <ele>155.39999389648</ele>
        <time>2022-07-09T08:34:35Z</time>
      </trkpt>
      <trkpt lat="47.9516" lon="3.245">
        <ele>155</ele>
        <time>2022-07-09T08:34:56Z</time>
      </trkpt>
      <trkpt lat="47.95162" lon="3.24502">
        <ele>154.80000305176</ele>
        <time>2022-07-09T08:34:58Z</time>
      </trkpt>
      <trkpt lat="47.95163" lon="3.24503">
        <ele>154.60000610352</ele>
        <time>2022-07-09T08:34:59Z</time>
      </trkpt>
      <trkpt lat="47.95189" lon="3.24523">
        <ele>153.60000610352</ele>
        <time>2022-07-09T08:35:24Z</time>
      </trkpt>
      <trkpt lat="47.95193" lon="3.24524">
        <ele>153.39999389648</ele>
        <time>2022-07-09T08:35:27Z</time>
      </trkpt>
      <trkpt lat="47.95194" lon="3.24525">
        <ele>153.39999389648</ele>
        <time>2022-07-09T08:35:28Z</time>
      </trkpt>
      <trkpt lat="47.95195" lon="3.24526">
        <ele>153.39999389648</ele>
        <time>2022-07-09T08:35:29Z</time>
      </trkpt>
      <trkpt lat="47.95198" lon="3.24527">
        <ele>153.39999389648</ele>
        <time>2022-07-09T08:35:32Z</time>
      </trkpt>
      <trkpt lat="47.95209" lon="3.24535">
        <ele>152.60000610352</ele>
        <time>2022-07-09T08:35:42Z</time>
      </trkpt>
      <trkpt lat="47.9521" lon="3.24536">
        <ele>152.60000610352</ele>
        <time>2022-07-09T08:35:43Z</time>
      </trkpt>
      <trkpt lat="47.95236" lon="3.24551">
        <ele>150.39999389648</ele>
        <time>2022-07-09T08:36:05Z</time>
      </trkpt>
      <trkpt lat="47.95264" lon="3.24513">
        <ele>147.19999694824</ele>
        <time>2022-07-09T08:36:37Z</time>
      </trkpt>
      <trkpt lat="47.95269" lon="3.24499">
        <ele>146.19999694824</ele>
        <time>2022-07-09T08:36:49Z</time>
      </trkpt>
      <trkpt lat="47.95276" lon="3.2449">
        <ele>145.60000610352</ele>
        <time>2022-07-09T08:36:56Z</time>
      </trkpt>
      <trkpt lat="47.9528" lon="3.24482">
        <ele>145</ele>
        <time>2022-07-09T08:37:02Z</time>
      </trkpt>
      <trkpt lat="47.95282" lon="3.24475">
        <ele>144.60000610352</ele>
        <time>2022-07-09T08:37:06Z</time>
      </trkpt>
      <trkpt lat="47.95284" lon="3.24471">
        <ele>144.39999389648</ele>
        <time>2022-07-09T08:37:09Z</time>
      </trkpt>
      <trkpt lat="47.95288" lon="3.24466">
        <ele>144</ele>
        <time>2022-07-09T08:37:13Z</time>
      </trkpt>
      <trkpt lat="47.95294" lon="3.24458">
        <ele>143.39999389648</ele>
        <time>2022-07-09T08:37:20Z</time>
      </trkpt>
      <trkpt lat="47.95301" lon="3.24446">
        <ele>142.60000610352</ele>
        <time>2022-07-09T08:37:28Z</time>
      </trkpt>
      <trkpt lat="47.95314" lon="3.24428">
        <ele>141.80000305176</ele>
        <time>2022-07-09T08:37:40Z</time>
      </trkpt>
      <trkpt lat="47.95338" lon="3.24384">
        <ele>138.80000305176</ele>
        <time>2022-07-09T08:38:10Z</time>
      </trkpt>
      <trkpt lat="47.95339" lon="3.24382">
        <ele>138.60000610352</ele>
        <time>2022-07-09T08:38:12Z</time>
      </trkpt>
      <trkpt lat="47.95344" lon="3.24373">
        <ele>137.80000305176</ele>
        <time>2022-07-09T08:38:19Z</time>
      </trkpt>
      <trkpt lat="47.95354" lon="3.24355">
        <ele>136.60000610352</ele>
        <time>2022-07-09T08:38:32Z</time>
      </trkpt>
      <trkpt lat="47.95356" lon="3.2435">
        <ele>136.39999389648</ele>
        <time>2022-07-09T08:38:35Z</time>
      </trkpt>
      <trkpt lat="47.95367" lon="3.24326">
        <ele>135</ele>
        <time>2022-07-09T08:38:50Z</time>
      </trkpt>
      <trkpt lat="47.95371" lon="3.24319">
        <ele>134.60000610352</ele>
        <time>2022-07-09T08:38:56Z</time>
      </trkpt>
      <trkpt lat="47.9538" lon="3.24303">
        <ele>133.80000305176</ele>
        <time>2022-07-09T08:39:06Z</time>
      </trkpt>
      <trkpt lat="47.95386" lon="3.24289">
        <ele>133</ele>
        <time>2022-07-09T08:39:14Z</time>
      </trkpt>
      <trkpt lat="47.95391" lon="3.24278">
        <ele>132.39999389648</ele>
        <time>2022-07-09T08:39:22Z</time>
      </trkpt>
      <trkpt lat="47.95392" lon="3.24277">
        <ele>132.39999389648</ele>
        <time>2022-07-09T08:39:23Z</time>
      </trkpt>
      <trkpt lat="47.95392" lon="3.24276">
        <ele>132.19999694824</ele>
        <time>2022-07-09T08:39:24Z</time>
      </trkpt>
      <trkpt lat="47.95401" lon="3.24262">
        <ele>131.60000610352</ele>
        <time>2022-07-09T08:39:35Z</time>
      </trkpt>
      <trkpt lat="47.95405" lon="3.24251">
        <ele>131</ele>
        <time>2022-07-09T08:39:43Z</time>
      </trkpt>
      <trkpt lat="47.95413" lon="3.24237">
        <ele>130.39999389648</ele>
        <time>2022-07-09T08:39:55Z</time>
      </trkpt>
      <trkpt lat="47.95419" lon="3.24229">
        <ele>130</ele>
        <time>2022-07-09T08:40:02Z</time>
      </trkpt>
      <trkpt lat="47.9543" lon="3.24228">
        <ele>129.39999389648</ele>
        <time>2022-07-09T08:40:14Z</time>
      </trkpt>
      <trkpt lat="47.95443" lon="3.24238">
        <ele>129.39999389648</ele>
        <time>2022-07-09T08:40:26Z</time>
      </trkpt>
      <trkpt lat="47.95445" lon="3.24241">
        <ele>129.39999389648</ele>
        <time>2022-07-09T08:40:29Z</time>
      </trkpt>
      <trkpt lat="47.955" lon="3.24284">
        <ele>129.80000305176</ele>
        <time>2022-07-09T08:41:18Z</time>
      </trkpt>
      <trkpt lat="47.95504" lon="3.2429">
        <ele>129.60000610352</ele>
        <time>2022-07-09T08:41:23Z</time>
      </trkpt>
      <trkpt lat="47.95506" lon="3.24294">
        <ele>129.60000610352</ele>
        <time>2022-07-09T08:41:26Z</time>
      </trkpt>
      <trkpt lat="47.95511" lon="3.24302">
        <ele>129.60000610352</ele>
        <time>2022-07-09T08:41:35Z</time>
      </trkpt>
      <trkpt lat="47.95511" lon="3.24304">
        <ele>129.60000610352</ele>
        <time>2022-07-09T08:41:36Z</time>
      </trkpt>
      <trkpt lat="47.95532" lon="3.24319">
        <ele>129.60000610352</ele>
        <time>2022-07-09T08:42:11Z</time>
      </trkpt>
      <trkpt lat="47.95535" lon="3.24324">
        <ele>129.80000305176</ele>
        <time>2022-07-09T08:42:16Z</time>
      </trkpt>
      <trkpt lat="47.95561" lon="3.24348">
        <ele>130.60000610352</ele>
        <time>2022-07-09T08:42:46Z</time>
      </trkpt>
      <trkpt lat="47.95578" lon="3.24372">
        <ele>130.60000610352</ele>
        <time>2022-07-09T08:43:04Z</time>
      </trkpt>
      <trkpt lat="47.95586" lon="3.2438">
        <ele>130.19999694824</ele>
        <time>2022-07-09T08:43:14Z</time>
      </trkpt>
      <trkpt lat="47.956" lon="3.24392">
        <ele>130.60000610352</ele>
        <time>2022-07-09T08:43:28Z</time>
      </trkpt>
      <trkpt lat="47.9561" lon="3.244">
        <ele>130.60000610352</ele>
        <time>2022-07-09T08:43:38Z</time>
      </trkpt>
      <trkpt lat="47.95611" lon="3.24401">
        <ele>130.60000610352</ele>
        <time>2022-07-09T08:43:39Z</time>
      </trkpt>
      <trkpt lat="47.9562" lon="3.24408">
        <ele>130.60000610352</ele>
        <time>2022-07-09T08:43:48Z</time>
      </trkpt>
      <trkpt lat="47.95621" lon="3.24409">
        <ele>130.39999389648</ele>
        <time>2022-07-09T08:43:49Z</time>
      </trkpt>
      <trkpt lat="47.95621" lon="3.2441">
        <ele>130.39999389648</ele>
        <time>2022-07-09T08:43:50Z</time>
      </trkpt>
      <trkpt lat="47.95622" lon="3.24411">
        <ele>130.39999389648</ele>
        <time>2022-07-09T08:43:51Z</time>
      </trkpt>
      <trkpt lat="47.95626" lon="3.24416">
        <ele>130.39999389648</ele>
        <time>2022-07-09T08:43:56Z</time>
      </trkpt>
      <trkpt lat="47.95627" lon="3.24417">
        <ele>130.19999694824</ele>
        <time>2022-07-09T08:43:57Z</time>
      </trkpt>
      <trkpt lat="47.95636" lon="3.24427">
        <ele>130</ele>
        <time>2022-07-09T08:44:08Z</time>
      </trkpt>
      <trkpt lat="47.95647" lon="3.24436">
        <ele>130</ele>
        <time>2022-07-09T08:44:21Z</time>
      </trkpt>
      <trkpt lat="47.95654" lon="3.24442">
        <ele>130</ele>
        <time>2022-07-09T08:44:28Z</time>
      </trkpt>
      <trkpt lat="47.95657" lon="3.24445">
        <ele>130</ele>
        <time>2022-07-09T08:44:31Z</time>
      </trkpt>
      <trkpt lat="47.95658" lon="3.24446">
        <ele>130</ele>
        <time>2022-07-09T08:44:32Z</time>
      </trkpt>
      <trkpt lat="47.9566" lon="3.24449">
        <ele>130</ele>
        <time>2022-07-09T08:44:34Z</time>
      </trkpt>
      <trkpt lat="47.95671" lon="3.24458">
        <ele>130</ele>
        <time>2022-07-09T08:44:43Z</time>
      </trkpt>
      <trkpt lat="47.9568" lon="3.24469">
        <ele>130</ele>
        <time>2022-07-09T08:44:55Z</time>
      </trkpt>
      <trkpt lat="47.95692" lon="3.24478">
        <ele>130.19999694824</ele>
        <time>2022-07-09T08:45:07Z</time>
      </trkpt>
      <trkpt lat="47.95699" lon="3.24483">
        <ele>130</ele>
        <time>2022-07-09T08:45:14Z</time>
      </trkpt>
      <trkpt lat="47.95709" lon="3.24491">
        <ele>129.80000305176</ele>
        <time>2022-07-09T08:45:25Z</time>
      </trkpt>
      <trkpt lat="47.95719" lon="3.245">
        <ele>129.80000305176</ele>
        <time>2022-07-09T08:45:34Z</time>
      </trkpt>
      <trkpt lat="47.9572" lon="3.24501">
        <ele>129.80000305176</ele>
        <time>2022-07-09T08:45:35Z</time>
      </trkpt>
      <trkpt lat="47.95721" lon="3.24502">
        <ele>129.80000305176</ele>
        <time>2022-07-09T08:45:36Z</time>
      </trkpt>
      <trkpt lat="47.95722" lon="3.24503">
        <ele>129.80000305176</ele>
        <time>2022-07-09T08:45:37Z</time>
      </trkpt>
      <trkpt lat="47.95723" lon="3.24504">
        <ele>129.80000305176</ele>
        <time>2022-07-09T08:45:38Z</time>
      </trkpt>
      <trkpt lat="47.95728" lon="3.24509">
        <ele>129.60000610352</ele>
        <time>2022-07-09T08:45:43Z</time>
      </trkpt>
      <trkpt lat="47.95729" lon="3.2451">
        <ele>129.60000610352</ele>
        <time>2022-07-09T08:45:44Z</time>
      </trkpt>
      <trkpt lat="47.9573" lon="3.24512">
        <ele>129.60000610352</ele>
        <time>2022-07-09T08:45:45Z</time>
      </trkpt>
      <trkpt lat="47.95732" lon="3.24513">
        <ele>129.60000610352</ele>
        <time>2022-07-09T08:45:46Z</time>
      </trkpt>
      <trkpt lat="47.95733" lon="3.24515">
        <ele>129.60000610352</ele>
        <time>2022-07-09T08:45:48Z</time>
      </trkpt>
      <trkpt lat="47.95739" lon="3.2452">
        <ele>129.39999389648</ele>
        <time>2022-07-09T08:45:55Z</time>
      </trkpt>
      <trkpt lat="47.95746" lon="3.24526">
        <ele>129.39999389648</ele>
        <time>2022-07-09T08:46:01Z</time>
      </trkpt>
      <trkpt lat="47.9575" lon="3.2453">
        <ele>129.39999389648</ele>
        <time>2022-07-09T08:46:04Z</time>
      </trkpt>
      <trkpt lat="47.95769" lon="3.24549">
        <ele>129.39999389648</ele>
        <time>2022-07-09T08:46:23Z</time>
      </trkpt>
      <trkpt lat="47.95774" lon="3.24553">
        <ele>129.39999389648</ele>
        <time>2022-07-09T08:46:29Z</time>
      </trkpt>
      <trkpt lat="47.95782" lon="3.24561">
        <ele>129.19999694824</ele>
        <time>2022-07-09T08:46:39Z</time>
      </trkpt>
      <trkpt lat="47.95783" lon="3.24562">
        <ele>129.19999694824</ele>
        <time>2022-07-09T08:46:40Z</time>
      </trkpt>
      <trkpt lat="47.95784" lon="3.24563">
        <ele>129.19999694824</ele>
        <time>2022-07-09T08:46:41Z</time>
      </trkpt>
      <trkpt lat="47.95797" lon="3.24575">
        <ele>129.19999694824</ele>
        <time>2022-07-09T08:46:54Z</time>
      </trkpt>
      <trkpt lat="47.95798" lon="3.24576">
        <ele>129.19999694824</ele>
        <time>2022-07-09T08:46:55Z</time>
      </trkpt>
      <trkpt lat="47.95802" lon="3.24579">
        <ele>129.19999694824</ele>
        <time>2022-07-09T08:46:58Z</time>
      </trkpt>
      <trkpt lat="47.95813" lon="3.24589">
        <ele>129.39999389648</ele>
        <time>2022-07-09T08:47:10Z</time>
      </trkpt>
      <trkpt lat="47.9582" lon="3.24597">
        <ele>129.60000610352</ele>
        <time>2022-07-09T08:47:17Z</time>
      </trkpt>
      <trkpt lat="47.95828" lon="3.24601">
        <ele>129.80000305176</ele>
        <time>2022-07-09T08:47:26Z</time>
      </trkpt>
      <trkpt lat="47.95831" lon="3.24603">
        <ele>129.80000305176</ele>
        <time>2022-07-09T08:47:29Z</time>
      </trkpt>
      <trkpt lat="47.95838" lon="3.2461">
        <ele>129.80000305176</ele>
        <time>2022-07-09T08:47:37Z</time>
      </trkpt>
      <trkpt lat="47.95839" lon="3.24611">
        <ele>129.80000305176</ele>
        <time>2022-07-09T08:47:38Z</time>
      </trkpt>
      <trkpt lat="47.9584" lon="3.24612">
        <ele>129.80000305176</ele>
        <time>2022-07-09T08:47:39Z</time>
      </trkpt>
      <trkpt lat="47.95841" lon="3.24613">
        <ele>130</ele>
        <time>2022-07-09T08:47:40Z</time>
      </trkpt>
      <trkpt lat="47.95842" lon="3.24615">
        <ele>130</ele>
        <time>2022-07-09T08:47:41Z</time>
      </trkpt>
      <trkpt lat="47.95853" lon="3.24624">
        <ele>130</ele>
        <time>2022-07-09T08:47:53Z</time>
      </trkpt>
      <trkpt lat="47.95862" lon="3.24635">
        <ele>129.80000305176</ele>
        <time>2022-07-09T08:48:04Z</time>
      </trkpt>
      <trkpt lat="47.95871" lon="3.24645">
        <ele>129.80000305176</ele>
        <time>2022-07-09T08:48:13Z</time>
      </trkpt>
      <trkpt lat="47.95873" lon="3.24648">
        <ele>129.80000305176</ele>
        <time>2022-07-09T08:48:16Z</time>
      </trkpt>
      <trkpt lat="47.95876" lon="3.24649">
        <ele>129.80000305176</ele>
        <time>2022-07-09T08:48:20Z</time>
      </trkpt>
      <trkpt lat="47.95882" lon="3.24653">
        <ele>129.80000305176</ele>
        <time>2022-07-09T08:48:26Z</time>
      </trkpt>
      <trkpt lat="47.95885" lon="3.24657">
        <ele>129.80000305176</ele>
        <time>2022-07-09T08:48:29Z</time>
      </trkpt>
      <trkpt lat="47.95888" lon="3.24659">
        <ele>130</ele>
        <time>2022-07-09T08:48:32Z</time>
      </trkpt>
      <trkpt lat="47.95908" lon="3.24677">
        <ele>130.19999694824</ele>
        <time>2022-07-09T08:48:52Z</time>
      </trkpt>
      <trkpt lat="47.95909" lon="3.24678">
        <ele>130.39999389648</ele>
        <time>2022-07-09T08:48:53Z</time>
      </trkpt>
      <trkpt lat="47.95918" lon="3.2469">
        <ele>130.39999389648</ele>
        <time>2022-07-09T08:49:02Z</time>
      </trkpt>
      <trkpt lat="47.95921" lon="3.24694">
        <ele>130.39999389648</ele>
        <time>2022-07-09T08:49:06Z</time>
      </trkpt>
      <trkpt lat="47.95928" lon="3.24701">
        <ele>130.60000610352</ele>
        <time>2022-07-09T08:49:14Z</time>
      </trkpt>
      <trkpt lat="47.9593" lon="3.24703">
        <ele>130.60000610352</ele>
        <time>2022-07-09T08:49:17Z</time>
      </trkpt>
      <trkpt lat="47.95937" lon="3.24714">
        <ele>130.80000305176</ele>
        <time>2022-07-09T08:49:25Z</time>
      </trkpt>
      <trkpt lat="47.95937" lon="3.24715">
        <ele>130.80000305176</ele>
        <time>2022-07-09T08:49:26Z</time>
      </trkpt>
      <trkpt lat="47.95943" lon="3.2472">
        <ele>130.80000305176</ele>
        <time>2022-07-09T08:49:31Z</time>
      </trkpt>
      <trkpt lat="47.95952" lon="3.24732">
        <ele>131</ele>
        <time>2022-07-09T08:49:41Z</time>
      </trkpt>
      <trkpt lat="47.95954" lon="3.24735">
        <ele>131</ele>
        <time>2022-07-09T08:49:44Z</time>
      </trkpt>
      <trkpt lat="47.95958" lon="3.24742">
        <ele>131</ele>
        <time>2022-07-09T08:49:49Z</time>
      </trkpt>
      <trkpt lat="47.95967" lon="3.24753">
        <ele>131.19999694824</ele>
        <time>2022-07-09T08:49:58Z</time>
      </trkpt>
      <trkpt lat="47.95976" lon="3.24764">
        <ele>131.39999389648</ele>
        <time>2022-07-09T08:50:06Z</time>
      </trkpt>
      <trkpt lat="47.95978" lon="3.24768">
        <ele>131.39999389648</ele>
        <time>2022-07-09T08:50:09Z</time>
      </trkpt>
      <trkpt lat="47.95979" lon="3.24769">
        <ele>131.39999389648</ele>
        <time>2022-07-09T08:50:10Z</time>
      </trkpt>
      <trkpt lat="47.95986" lon="3.24781">
        <ele>131.39999389648</ele>
        <time>2022-07-09T08:50:21Z</time>
      </trkpt>
      <trkpt lat="47.95988" lon="3.24783">
        <ele>131.39999389648</ele>
        <time>2022-07-09T08:50:24Z</time>
      </trkpt>
      <trkpt lat="47.95991" lon="3.24788">
        <ele>131.60000610352</ele>
        <time>2022-07-09T08:50:28Z</time>
      </trkpt>
      <trkpt lat="47.95994" lon="3.24792">
        <ele>131.60000610352</ele>
        <time>2022-07-09T08:50:31Z</time>
      </trkpt>
      <trkpt lat="47.96002" lon="3.24799">
        <ele>132</ele>
        <time>2022-07-09T08:50:40Z</time>
      </trkpt>
      <trkpt lat="47.96007" lon="3.24804">
        <ele>132</ele>
        <time>2022-07-09T08:50:45Z</time>
      </trkpt>
      <trkpt lat="47.96014" lon="3.24814">
        <ele>132.19999694824</ele>
        <time>2022-07-09T08:50:55Z</time>
      </trkpt>
      <trkpt lat="47.96018" lon="3.24819">
        <ele>132.19999694824</ele>
        <time>2022-07-09T08:51:00Z</time>
      </trkpt>
      <trkpt lat="47.96024" lon="3.24826">
        <ele>132.39999389648</ele>
        <time>2022-07-09T08:51:07Z</time>
      </trkpt>
      <trkpt lat="47.96033" lon="3.24841">
        <ele>132.80000305176</ele>
        <time>2022-07-09T08:51:19Z</time>
      </trkpt>
      <trkpt lat="47.96034" lon="3.24842">
        <ele>132.80000305176</ele>
        <time>2022-07-09T08:51:20Z</time>
      </trkpt>
      <trkpt lat="47.96044" lon="3.24853">
        <ele>132.80000305176</ele>
        <time>2022-07-09T08:51:31Z</time>
      </trkpt>
      <trkpt lat="47.96052" lon="3.24863">
        <ele>132.60000610352</ele>
        <time>2022-07-09T08:51:41Z</time>
      </trkpt>
      <trkpt lat="47.96054" lon="3.24865">
        <ele>132.60000610352</ele>
        <time>2022-07-09T08:51:43Z</time>
      </trkpt>
      <trkpt lat="47.96058" lon="3.24871">
        <ele>132.60000610352</ele>
        <time>2022-07-09T08:51:48Z</time>
      </trkpt>
      <trkpt lat="47.96059" lon="3.24872">
        <ele>132.60000610352</ele>
        <time>2022-07-09T08:51:49Z</time>
      </trkpt>
      <trkpt lat="47.96061" lon="3.24875">
        <ele>132.60000610352</ele>
        <time>2022-07-09T08:51:52Z</time>
      </trkpt>
      <trkpt lat="47.96066" lon="3.24882">
        <ele>132.60000610352</ele>
        <time>2022-07-09T08:51:57Z</time>
      </trkpt>
      <trkpt lat="47.96072" lon="3.24889">
        <ele>132.80000305176</ele>
        <time>2022-07-09T08:52:03Z</time>
      </trkpt>
      <trkpt lat="47.96081" lon="3.24902">
        <ele>132.80000305176</ele>
        <time>2022-07-09T08:52:14Z</time>
      </trkpt>
      <trkpt lat="47.96087" lon="3.2491">
        <ele>132.80000305176</ele>
        <time>2022-07-09T08:52:20Z</time>
      </trkpt>
      <trkpt lat="47.96088" lon="3.24912">
        <ele>132.80000305176</ele>
        <time>2022-07-09T08:52:21Z</time>
      </trkpt>
      <trkpt lat="47.96089" lon="3.24914">
        <ele>132.60000610352</ele>
        <time>2022-07-09T08:52:22Z</time>
      </trkpt>
      <trkpt lat="47.96095" lon="3.24925">
        <ele>132.80000305176</ele>
        <time>2022-07-09T08:52:30Z</time>
      </trkpt>
      <trkpt lat="47.96096" lon="3.24926">
        <ele>132.80000305176</ele>
        <time>2022-07-09T08:52:31Z</time>
      </trkpt>
      <trkpt lat="47.96097" lon="3.24927">
        <ele>132.80000305176</ele>
        <time>2022-07-09T08:52:32Z</time>
      </trkpt>
      <trkpt lat="47.96104" lon="3.24938">
        <ele>132.80000305176</ele>
        <time>2022-07-09T08:52:41Z</time>
      </trkpt>
      <trkpt lat="47.9611" lon="3.24944">
        <ele>132.80000305176</ele>
        <time>2022-07-09T08:52:47Z</time>
      </trkpt>
      <trkpt lat="47.96111" lon="3.24945">
        <ele>132.80000305176</ele>
        <time>2022-07-09T08:52:48Z</time>
      </trkpt>
      <trkpt lat="47.96111" lon="3.24946">
        <ele>132.80000305176</ele>
        <time>2022-07-09T08:52:49Z</time>
      </trkpt>
      <trkpt lat="47.96116" lon="3.24952">
        <ele>132.60000610352</ele>
        <time>2022-07-09T08:52:55Z</time>
      </trkpt>
      <trkpt lat="47.96117" lon="3.24954">
        <ele>132.60000610352</ele>
        <time>2022-07-09T08:52:56Z</time>
      </trkpt>
      <trkpt lat="47.96119" lon="3.24956">
        <ele>132.60000610352</ele>
        <time>2022-07-09T08:52:58Z</time>
      </trkpt>
      <trkpt lat="47.96137" lon="3.24978">
        <ele>132.60000610352</ele>
        <time>2022-07-09T08:53:18Z</time>
      </trkpt>
      <trkpt lat="47.96148" lon="3.24989">
        <ele>132.39999389648</ele>
        <time>2022-07-09T08:53:30Z</time>
      </trkpt>
      <trkpt lat="47.96153" lon="3.24995">
        <ele>132.19999694824</ele>
        <time>2022-07-09T08:53:36Z</time>
      </trkpt>
      <trkpt lat="47.96155" lon="3.24998">
        <ele>132.19999694824</ele>
        <time>2022-07-09T08:53:38Z</time>
      </trkpt>
      <trkpt lat="47.9617" lon="3.25018">
        <ele>131.39999389648</ele>
        <time>2022-07-09T08:53:54Z</time>
      </trkpt>
      <trkpt lat="47.96181" lon="3.25031">
        <ele>130.80000305176</ele>
        <time>2022-07-09T08:54:05Z</time>
      </trkpt>
      <trkpt lat="47.96199" lon="3.25052">
        <ele>129.39999389648</ele>
        <time>2022-07-09T08:54:23Z</time>
      </trkpt>
      <trkpt lat="47.96211" lon="3.25069">
        <ele>128.39999389648</ele>
        <time>2022-07-09T08:54:37Z</time>
      </trkpt>
      <trkpt lat="47.96234" lon="3.25105">
        <ele>126.40000152588</ele>
        <time>2022-07-09T08:55:04Z</time>
      </trkpt>
      <trkpt lat="47.96235" lon="3.25106">
        <ele>126.40000152588</ele>
        <time>2022-07-09T08:55:05Z</time>
      </trkpt>
      <trkpt lat="47.96249" lon="3.25124">
        <ele>126</ele>
        <time>2022-07-09T08:55:20Z</time>
      </trkpt>
      <trkpt lat="47.9625" lon="3.25126">
        <ele>126</ele>
        <time>2022-07-09T08:55:21Z</time>
      </trkpt>
      <trkpt lat="47.96251" lon="3.25127">
        <ele>126</ele>
        <time>2022-07-09T08:55:22Z</time>
      </trkpt>
      <trkpt lat="47.96255" lon="3.25132">
        <ele>126</ele>
        <time>2022-07-09T08:55:26Z</time>
      </trkpt>
      <trkpt lat="47.96265" lon="3.25146">
        <ele>125.80000305176</ele>
        <time>2022-07-09T08:55:37Z</time>
      </trkpt>
      <trkpt lat="47.96266" lon="3.25147">
        <ele>125.80000305176</ele>
        <time>2022-07-09T08:55:38Z</time>
      </trkpt>
      <trkpt lat="47.96267" lon="3.25149">
        <ele>125.80000305176</ele>
        <time>2022-07-09T08:55:39Z</time>
      </trkpt>
      <trkpt lat="47.96268" lon="3.2515">
        <ele>125.80000305176</ele>
        <time>2022-07-09T08:55:40Z</time>
      </trkpt>
      <trkpt lat="47.96269" lon="3.25152">
        <ele>125.80000305176</ele>
        <time>2022-07-09T08:55:41Z</time>
      </trkpt>
      <trkpt lat="47.96272" lon="3.25155">
        <ele>125.80000305176</ele>
        <time>2022-07-09T08:55:43Z</time>
      </trkpt>
      <trkpt lat="47.96285" lon="3.25173">
        <ele>125.80000305176</ele>
        <time>2022-07-09T08:56:00Z</time>
      </trkpt>
      <trkpt lat="47.96304" lon="3.25202">
        <ele>125.80000305176</ele>
        <time>2022-07-09T08:56:23Z</time>
      </trkpt>
      <trkpt lat="47.96304" lon="3.25203">
        <ele>125.80000305176</ele>
        <time>2022-07-09T08:56:24Z</time>
      </trkpt>
      <trkpt lat="47.96305" lon="3.25204">
        <ele>125.80000305176</ele>
        <time>2022-07-09T08:56:25Z</time>
      </trkpt>
      <trkpt lat="47.96306" lon="3.25205">
        <ele>125.80000305176</ele>
        <time>2022-07-09T08:56:26Z</time>
      </trkpt>
      <trkpt lat="47.96307" lon="3.25206">
        <ele>125.80000305176</ele>
        <time>2022-07-09T08:56:27Z</time>
      </trkpt>
      <trkpt lat="47.96312" lon="3.25209">
        <ele>125.80000305176</ele>
        <time>2022-07-09T08:56:32Z</time>
      </trkpt>
      <trkpt lat="47.96313" lon="3.2521">
        <ele>125.80000305176</ele>
        <time>2022-07-09T08:56:33Z</time>
      </trkpt>
      <trkpt lat="47.96317" lon="3.25219">
        <ele>125.80000305176</ele>
        <time>2022-07-09T08:56:40Z</time>
      </trkpt>
      <trkpt lat="47.96321" lon="3.25224">
        <ele>126</ele>
        <time>2022-07-09T08:56:45Z</time>
      </trkpt>
      <trkpt lat="47.96322" lon="3.25224">
        <ele>126</ele>
        <time>2022-07-09T08:56:46Z</time>
      </trkpt>
      <trkpt lat="47.9634" lon="3.25245">
        <ele>126</ele>
        <time>2022-07-09T08:57:04Z</time>
      </trkpt>
      <trkpt lat="47.96347" lon="3.25252">
        <ele>126</ele>
        <time>2022-07-09T08:57:11Z</time>
      </trkpt>
      <trkpt lat="47.96371" lon="3.25281">
        <ele>126.19999694824</ele>
        <time>2022-07-09T08:57:34Z</time>
      </trkpt>
      <trkpt lat="47.96393" lon="3.2531">
        <ele>126.59999847412</ele>
        <time>2022-07-09T08:57:57Z</time>
      </trkpt>
      <trkpt lat="47.96398" lon="3.25319">
        <ele>126.80000305176</ele>
        <time>2022-07-09T08:58:06Z</time>
      </trkpt>
      <trkpt lat="47.96413" lon="3.25337">
        <ele>126.59999847412</ele>
        <time>2022-07-09T08:58:26Z</time>
      </trkpt>
      <trkpt lat="47.96422" lon="3.25355">
        <ele>127</ele>
        <time>2022-07-09T08:58:46Z</time>
      </trkpt>
      <trkpt lat="47.96427" lon="3.25371">
        <ele>127</ele>
        <time>2022-07-09T08:59:14Z</time>
      </trkpt>
      <trkpt lat="47.96435" lon="3.25382">
        <ele>126.59999847412</ele>
        <time>2022-07-09T08:59:40Z</time>
      </trkpt>
      <trkpt lat="47.96436" lon="3.25385">
        <ele>127.40000152588</ele>
        <time>2022-07-09T09:00:04Z</time>
      </trkpt>
      <trkpt lat="47.96438" lon="3.25385">
        <ele>127.40000152588</ele>
        <time>2022-07-09T09:00:27Z</time>
      </trkpt>
      <trkpt lat="47.96437" lon="3.25384">
        <ele>127.19999694824</ele>
        <time>2022-07-09T09:00:51Z</time>
      </trkpt>
      <trkpt lat="47.96435" lon="3.25387">
        <ele>127.19999694824</ele>
        <time>2022-07-09T09:01:32Z</time>
      </trkpt>
      <trkpt lat="47.96436" lon="3.25384">
        <ele>127.19999694824</ele>
        <time>2022-07-09T09:01:40Z</time>
      </trkpt>
      <trkpt lat="47.96441" lon="3.25384">
        <ele>127.59999847412</ele>
        <time>2022-07-09T09:02:05Z</time>
      </trkpt>
      <trkpt lat="47.96439" lon="3.25385">
        <ele>124.59999847412</ele>
        <time>2022-07-09T09:02:23Z</time>
      </trkpt>
      <trkpt lat="47.96439" lon="3.25387">
        <ele>127</ele>
        <time>2022-07-09T09:02:29Z</time>
      </trkpt>
      <trkpt lat="47.96438" lon="3.25387">
        <ele>127.59999847412</ele>
        <time>2022-07-09T09:02:56Z</time>
      </trkpt>
      <trkpt lat="47.9644" lon="3.25387">
        <ele>127.59999847412</ele>
        <time>2022-07-09T09:03:25Z</time>
      </trkpt>
      <trkpt lat="47.96437" lon="3.25386">
        <ele>128.19999694824</ele>
        <time>2022-07-09T09:03:52Z</time>
      </trkpt>
      <trkpt lat="47.9644" lon="3.25386">
        <ele>127.59999847412</ele>
        <time>2022-07-09T09:04:24Z</time>
      </trkpt>
      <trkpt lat="47.9644" lon="3.25385">
        <ele>127.59999847412</ele>
        <time>2022-07-09T09:04:54Z</time>
      </trkpt>
      <trkpt lat="47.96439" lon="3.25383">
        <ele>127.40000152588</ele>
        <time>2022-07-09T09:05:23Z</time>
      </trkpt>
      <trkpt lat="47.96438" lon="3.25382">
        <ele>126</ele>
        <time>2022-07-09T09:05:30Z</time>
      </trkpt>
      <trkpt lat="47.96439" lon="3.25388">
        <ele>127.40000152588</ele>
        <time>2022-07-09T09:07:22Z</time>
      </trkpt>
      <trkpt lat="47.9644" lon="3.25387">
        <ele>127.40000152588</ele>
        <time>2022-07-09T09:07:51Z</time>
      </trkpt>
      <trkpt lat="47.9644" lon="3.25388">
        <ele>127.40000152588</ele>
        <time>2022-07-09T09:08:23Z</time>
      </trkpt>
      <trkpt lat="47.9644" lon="3.25389">
        <ele>127.40000152588</ele>
        <time>2022-07-09T09:08:53Z</time>
      </trkpt>
      <trkpt lat="47.96438" lon="3.25386">
        <ele>127.40000152588</ele>
        <time>2022-07-09T09:09:19Z</time>
      </trkpt>
      <trkpt lat="47.96437" lon="3.25383">
        <ele>127.40000152588</ele>
        <time>2022-07-09T09:09:48Z</time>
      </trkpt>
      <trkpt lat="47.96436" lon="3.25383">
        <ele>127.40000152588</ele>
        <time>2022-07-09T09:10:16Z</time>
      </trkpt>
      <trkpt lat="47.96445" lon="3.25391">
        <ele>127.40000152588</ele>
        <time>2022-07-09T09:10:32Z</time>
      </trkpt>
      <trkpt lat="47.96453" lon="3.25401">
        <ele>126.80000305176</ele>
        <time>2022-07-09T09:10:44Z</time>
      </trkpt>
      <trkpt lat="47.9646" lon="3.25414">
        <ele>127.40000152588</ele>
        <time>2022-07-09T09:10:56Z</time>
      </trkpt>
      <trkpt lat="47.96468" lon="3.25427">
        <ele>127.80000305176</ele>
        <time>2022-07-09T09:11:07Z</time>
      </trkpt>
      <trkpt lat="47.96475" lon="3.25441">
        <ele>128</ele>
        <time>2022-07-09T09:11:18Z</time>
      </trkpt>
      <trkpt lat="47.96483" lon="3.25455">
        <ele>128.80000305176</ele>
        <time>2022-07-09T09:11:29Z</time>
      </trkpt>
      <trkpt lat="47.9649" lon="3.25465">
        <ele>129.19999694824</ele>
        <time>2022-07-09T09:11:39Z</time>
      </trkpt>
      <trkpt lat="47.96497" lon="3.25476">
        <ele>129.39999389648</ele>
        <time>2022-07-09T09:11:49Z</time>
      </trkpt>
      <trkpt lat="47.96502" lon="3.25486">
        <ele>129.60000610352</ele>
        <time>2022-07-09T09:11:59Z</time>
      </trkpt>
      <trkpt lat="47.96513" lon="3.25501">
        <ele>129.60000610352</ele>
        <time>2022-07-09T09:12:10Z</time>
      </trkpt>
      <trkpt lat="47.96522" lon="3.25516">
        <ele>129.80000305176</ele>
        <time>2022-07-09T09:12:22Z</time>
      </trkpt>
      <trkpt lat="47.9653" lon="3.25531">
        <ele>130</ele>
        <time>2022-07-09T09:12:34Z</time>
      </trkpt>
      <trkpt lat="47.96539" lon="3.25547">
        <ele>130.39999389648</ele>
        <time>2022-07-09T09:12:45Z</time>
      </trkpt>
      <trkpt lat="47.96546" lon="3.25558">
        <ele>130.60000610352</ele>
        <time>2022-07-09T09:12:54Z</time>
      </trkpt>
      <trkpt lat="47.96553" lon="3.25571">
        <ele>130.80000305176</ele>
        <time>2022-07-09T09:13:05Z</time>
      </trkpt>
      <trkpt lat="47.9656" lon="3.25582">
        <ele>131</ele>
        <time>2022-07-09T09:13:15Z</time>
      </trkpt>
      <trkpt lat="47.96569" lon="3.25594">
        <ele>131.39999389648</ele>
        <time>2022-07-09T09:13:24Z</time>
      </trkpt>
      <trkpt lat="47.96578" lon="3.25614">
        <ele>131.60000610352</ele>
        <time>2022-07-09T09:13:36Z</time>
      </trkpt>
      <trkpt lat="47.96587" lon="3.25631">
        <ele>131.39999389648</ele>
        <time>2022-07-09T09:13:47Z</time>
      </trkpt>
      <trkpt lat="47.96594" lon="3.25639">
        <ele>131.39999389648</ele>
        <time>2022-07-09T09:13:54Z</time>
      </trkpt>
      <trkpt lat="47.96602" lon="3.25648">
        <ele>131</ele>
        <time>2022-07-09T09:14:04Z</time>
      </trkpt>
      <trkpt lat="47.96613" lon="3.25664">
        <ele>130.80000305176</ele>
        <time>2022-07-09T09:14:15Z</time>
      </trkpt>
      <trkpt lat="47.96623" lon="3.25675">
        <ele>130.80000305176</ele>
        <time>2022-07-09T09:14:24Z</time>
      </trkpt>
      <trkpt lat="47.96636" lon="3.25689">
        <ele>130.80000305176</ele>
        <time>2022-07-09T09:14:36Z</time>
      </trkpt>
      <trkpt lat="47.96646" lon="3.25701">
        <ele>130.80000305176</ele>
        <time>2022-07-09T09:14:48Z</time>
      </trkpt>
      <trkpt lat="47.96647" lon="3.25704">
        <ele>130.80000305176</ele>
        <time>2022-07-09T09:14:50Z</time>
      </trkpt>
      <trkpt lat="47.96649" lon="3.25707">
        <ele>130.80000305176</ele>
        <time>2022-07-09T09:14:53Z</time>
      </trkpt>
      <trkpt lat="47.9665" lon="3.25709">
        <ele>130.80000305176</ele>
        <time>2022-07-09T09:14:54Z</time>
      </trkpt>
      <trkpt lat="47.96653" lon="3.25713">
        <ele>130.80000305176</ele>
        <time>2022-07-09T09:14:57Z</time>
      </trkpt>
      <trkpt lat="47.96654" lon="3.25713">
        <ele>130.80000305176</ele>
        <time>2022-07-09T09:14:58Z</time>
      </trkpt>
      <trkpt lat="47.96656" lon="3.25715">
        <ele>130.80000305176</ele>
        <time>2022-07-09T09:15:00Z</time>
      </trkpt>
      <trkpt lat="47.96663" lon="3.25727">
        <ele>131</ele>
        <time>2022-07-09T09:15:09Z</time>
      </trkpt>
      <trkpt lat="47.96676" lon="3.25743">
        <ele>130.80000305176</ele>
        <time>2022-07-09T09:15:23Z</time>
      </trkpt>
      <trkpt lat="47.96685" lon="3.25755">
        <ele>131</ele>
        <time>2022-07-09T09:15:33Z</time>
      </trkpt>
      <trkpt lat="47.96696" lon="3.25769">
        <ele>130.80000305176</ele>
        <time>2022-07-09T09:15:44Z</time>
      </trkpt>
      <trkpt lat="47.96706" lon="3.25782">
        <ele>130.60000610352</ele>
        <time>2022-07-09T09:15:54Z</time>
      </trkpt>
      <trkpt lat="47.96718" lon="3.25796">
        <ele>130</ele>
        <time>2022-07-09T09:16:06Z</time>
      </trkpt>
      <trkpt lat="47.96719" lon="3.25797">
        <ele>130</ele>
        <time>2022-07-09T09:16:07Z</time>
      </trkpt>
      <trkpt lat="47.96731" lon="3.25807">
        <ele>129.80000305176</ele>
        <time>2022-07-09T09:16:19Z</time>
      </trkpt>
      <trkpt lat="47.96738" lon="3.25816">
        <ele>129.60000610352</ele>
        <time>2022-07-09T09:16:26Z</time>
      </trkpt>
      <trkpt lat="47.96745" lon="3.25827">
        <ele>129.39999389648</ele>
        <time>2022-07-09T09:16:36Z</time>
      </trkpt>
      <trkpt lat="47.96752" lon="3.25839">
        <ele>129.39999389648</ele>
        <time>2022-07-09T09:16:45Z</time>
      </trkpt>
      <trkpt lat="47.96762" lon="3.25854">
        <ele>129.39999389648</ele>
        <time>2022-07-09T09:16:56Z</time>
      </trkpt>
      <trkpt lat="47.9677" lon="3.25871">
        <ele>129.39999389648</ele>
        <time>2022-07-09T09:17:07Z</time>
      </trkpt>
      <trkpt lat="47.96771" lon="3.25874">
        <ele>129.39999389648</ele>
        <time>2022-07-09T09:17:09Z</time>
      </trkpt>
      <trkpt lat="47.96772" lon="3.25875">
        <ele>129.39999389648</ele>
        <time>2022-07-09T09:17:10Z</time>
      </trkpt>
      <trkpt lat="47.96773" lon="3.25877">
        <ele>129.39999389648</ele>
        <time>2022-07-09T09:17:11Z</time>
      </trkpt>
      <trkpt lat="47.96779" lon="3.25893">
        <ele>129.60000610352</ele>
        <time>2022-07-09T09:17:23Z</time>
      </trkpt>
      <trkpt lat="47.96782" lon="3.25898">
        <ele>129.60000610352</ele>
        <time>2022-07-09T09:17:26Z</time>
      </trkpt>
      <trkpt lat="47.96783" lon="3.259">
        <ele>129.60000610352</ele>
        <time>2022-07-09T09:17:27Z</time>
      </trkpt>
      <trkpt lat="47.9679" lon="3.25914">
        <ele>129.80000305176</ele>
        <time>2022-07-09T09:17:37Z</time>
      </trkpt>
      <trkpt lat="47.96796" lon="3.25929">
        <ele>129.60000610352</ele>
        <time>2022-07-09T09:17:48Z</time>
      </trkpt>
      <trkpt lat="47.96806" lon="3.25945">
        <ele>129.19999694824</ele>
        <time>2022-07-09T09:18:00Z</time>
      </trkpt>
      <trkpt lat="47.96812" lon="3.25951">
        <ele>129.19999694824</ele>
        <time>2022-07-09T09:18:09Z</time>
      </trkpt>
      <trkpt lat="47.96817" lon="3.25961">
        <ele>129</ele>
        <time>2022-07-09T09:18:28Z</time>
      </trkpt>
      <trkpt lat="47.96829" lon="3.25979">
        <ele>128.60000610352</ele>
        <time>2022-07-09T09:18:40Z</time>
      </trkpt>
      <trkpt lat="47.96836" lon="3.25992">
        <ele>128.60000610352</ele>
        <time>2022-07-09T09:18:51Z</time>
      </trkpt>
      <trkpt lat="47.9684" lon="3.25995">
        <ele>128.39999389648</ele>
        <time>2022-07-09T09:18:54Z</time>
      </trkpt>
      <trkpt lat="47.96849" lon="3.26003">
        <ele>128.19999694824</ele>
        <time>2022-07-09T09:19:03Z</time>
      </trkpt>
      <trkpt lat="47.96853" lon="3.2601">
        <ele>128.19999694824</ele>
        <time>2022-07-09T09:19:08Z</time>
      </trkpt>
      <trkpt lat="47.96854" lon="3.26011">
        <ele>128.19999694824</ele>
        <time>2022-07-09T09:19:09Z</time>
      </trkpt>
      <trkpt lat="47.96861" lon="3.2602">
        <ele>128.19999694824</ele>
        <time>2022-07-09T09:19:16Z</time>
      </trkpt>
      <trkpt lat="47.96873" lon="3.26035">
        <ele>128.60000610352</ele>
        <time>2022-07-09T09:19:28Z</time>
      </trkpt>
      <trkpt lat="47.96884" lon="3.26049">
        <ele>128.80000305176</ele>
        <time>2022-07-09T09:19:42Z</time>
      </trkpt>
      <trkpt lat="47.96893" lon="3.26058">
        <ele>129.39999389648</ele>
        <time>2022-07-09T09:19:53Z</time>
      </trkpt>
      <trkpt lat="47.96898" lon="3.26065">
        <ele>129.60000610352</ele>
        <time>2022-07-09T09:19:59Z</time>
      </trkpt>
      <trkpt lat="47.969" lon="3.26066">
        <ele>129.60000610352</ele>
        <time>2022-07-09T09:20:00Z</time>
      </trkpt>
      <trkpt lat="47.96902" lon="3.26067">
        <ele>129.80000305176</ele>
        <time>2022-07-09T09:20:01Z</time>
      </trkpt>
      <trkpt lat="47.96906" lon="3.2607">
        <ele>129.80000305176</ele>
        <time>2022-07-09T09:20:05Z</time>
      </trkpt>
      <trkpt lat="47.96916" lon="3.26081">
        <ele>130.39999389648</ele>
        <time>2022-07-09T09:20:17Z</time>
      </trkpt>
      <trkpt lat="47.9693" lon="3.26095">
        <ele>131</ele>
        <time>2022-07-09T09:20:33Z</time>
      </trkpt>
      <trkpt lat="47.96937" lon="3.26102">
        <ele>131.19999694824</ele>
        <time>2022-07-09T09:20:41Z</time>
      </trkpt>
      <trkpt lat="47.96947" lon="3.26112">
        <ele>131.19999694824</ele>
        <time>2022-07-09T09:20:51Z</time>
      </trkpt>
      <trkpt lat="47.9696" lon="3.26123">
        <ele>131.39999389648</ele>
        <time>2022-07-09T09:21:04Z</time>
      </trkpt>
      <trkpt lat="47.96965" lon="3.26127">
        <ele>131.39999389648</ele>
        <time>2022-07-09T09:21:08Z</time>
      </trkpt>
      <trkpt lat="47.96975" lon="3.26133">
        <ele>131.39999389648</ele>
        <time>2022-07-09T09:21:18Z</time>
      </trkpt>
      <trkpt lat="47.96985" lon="3.26144">
        <ele>131.39999389648</ele>
        <time>2022-07-09T09:21:29Z</time>
      </trkpt>
      <trkpt lat="47.96997" lon="3.26153">
        <ele>131.19999694824</ele>
        <time>2022-07-09T09:21:41Z</time>
      </trkpt>
      <trkpt lat="47.97007" lon="3.26164">
        <ele>131</ele>
        <time>2022-07-09T09:21:53Z</time>
      </trkpt>
      <trkpt lat="47.97016" lon="3.26173">
        <ele>131</ele>
        <time>2022-07-09T09:22:02Z</time>
      </trkpt>
      <trkpt lat="47.97025" lon="3.26181">
        <ele>131</ele>
        <time>2022-07-09T09:22:10Z</time>
      </trkpt>
      <trkpt lat="47.97035" lon="3.26191">
        <ele>131</ele>
        <time>2022-07-09T09:22:20Z</time>
      </trkpt>
      <trkpt lat="47.97044" lon="3.26202">
        <ele>131.19999694824</ele>
        <time>2022-07-09T09:22:30Z</time>
      </trkpt>
      <trkpt lat="47.97054" lon="3.26212">
        <ele>131.39999389648</ele>
        <time>2022-07-09T09:22:41Z</time>
      </trkpt>
      <trkpt lat="47.97063" lon="3.26228">
        <ele>131.39999389648</ele>
        <time>2022-07-09T09:22:53Z</time>
      </trkpt>
      <trkpt lat="47.97075" lon="3.26242">
        <ele>131.39999389648</ele>
        <time>2022-07-09T09:23:05Z</time>
      </trkpt>
      <trkpt lat="47.97088" lon="3.26255">
        <ele>131.39999389648</ele>
        <time>2022-07-09T09:23:16Z</time>
      </trkpt>
      <trkpt lat="47.97096" lon="3.26264">
        <ele>131.19999694824</ele>
        <time>2022-07-09T09:23:25Z</time>
      </trkpt>
      <trkpt lat="47.97096" lon="3.26265">
        <ele>131.19999694824</ele>
        <time>2022-07-09T09:23:26Z</time>
      </trkpt>
      <trkpt lat="47.97104" lon="3.26273">
        <ele>131</ele>
        <time>2022-07-09T09:23:35Z</time>
      </trkpt>
      <trkpt lat="47.97116" lon="3.26285">
        <ele>131</ele>
        <time>2022-07-09T09:23:47Z</time>
      </trkpt>
      <trkpt lat="47.97125" lon="3.26295">
        <ele>130.39999389648</ele>
        <time>2022-07-09T09:23:56Z</time>
      </trkpt>
      <trkpt lat="47.9714" lon="3.26307">
        <ele>130.39999389648</ele>
        <time>2022-07-09T09:24:08Z</time>
      </trkpt>
      <trkpt lat="47.9715" lon="3.26314">
        <ele>130</ele>
        <time>2022-07-09T09:24:17Z</time>
      </trkpt>
      <trkpt lat="47.97162" lon="3.26323">
        <ele>129.60000610352</ele>
        <time>2022-07-09T09:24:28Z</time>
      </trkpt>
      <trkpt lat="47.97175" lon="3.26332">
        <ele>129</ele>
        <time>2022-07-09T09:24:38Z</time>
      </trkpt>
      <trkpt lat="47.97185" lon="3.26336">
        <ele>128.39999389648</ele>
        <time>2022-07-09T09:24:47Z</time>
      </trkpt>
      <trkpt lat="47.97188" lon="3.26338">
        <ele>128.19999694824</ele>
        <time>2022-07-09T09:24:49Z</time>
      </trkpt>
      <trkpt lat="47.97189" lon="3.26338">
        <ele>128.19999694824</ele>
        <time>2022-07-09T09:24:50Z</time>
      </trkpt>
      <trkpt lat="47.97198" lon="3.26341">
        <ele>127.40000152588</ele>
        <time>2022-07-09T09:24:58Z</time>
      </trkpt>
      <trkpt lat="47.972" lon="3.26341">
        <ele>127.19999694824</ele>
        <time>2022-07-09T09:24:59Z</time>
      </trkpt>
      <trkpt lat="47.97201" lon="3.26342">
        <ele>127.19999694824</ele>
        <time>2022-07-09T09:25:00Z</time>
      </trkpt>
      <trkpt lat="47.97204" lon="3.26342">
        <ele>127</ele>
        <time>2022-07-09T09:25:02Z</time>
      </trkpt>
      <trkpt lat="47.97213" lon="3.26346">
        <ele>126.40000152588</ele>
        <time>2022-07-09T09:25:11Z</time>
      </trkpt>
      <trkpt lat="47.97226" lon="3.26353">
        <ele>125.80000305176</ele>
        <time>2022-07-09T09:25:23Z</time>
      </trkpt>
      <trkpt lat="47.97239" lon="3.26359">
        <ele>125</ele>
        <time>2022-07-09T09:25:35Z</time>
      </trkpt>
      <trkpt lat="47.97254" lon="3.26367">
        <ele>124</ele>
        <time>2022-07-09T09:25:47Z</time>
      </trkpt>
      <trkpt lat="47.97255" lon="3.26368">
        <ele>124</ele>
        <time>2022-07-09T09:25:48Z</time>
      </trkpt>
      <trkpt lat="47.97258" lon="3.26369">
        <ele>123.80000305176</ele>
        <time>2022-07-09T09:25:50Z</time>
      </trkpt>
      <trkpt lat="47.97269" lon="3.26376">
        <ele>123.40000152588</ele>
        <time>2022-07-09T09:25:58Z</time>
      </trkpt>
      <trkpt lat="47.97273" lon="3.26377">
        <ele>123.19999694824</ele>
        <time>2022-07-09T09:26:01Z</time>
      </trkpt>
      <trkpt lat="47.97278" lon="3.26379">
        <ele>123</ele>
        <time>2022-07-09T09:26:05Z</time>
      </trkpt>
      <trkpt lat="47.97283" lon="3.26383">
        <ele>122.59999847412</ele>
        <time>2022-07-09T09:26:09Z</time>
      </trkpt>
      <trkpt lat="47.97284" lon="3.26383">
        <ele>122.40000152588</ele>
        <time>2022-07-09T09:26:10Z</time>
      </trkpt>
      <trkpt lat="47.97298" lon="3.26395">
        <ele>121.59999847412</ele>
        <time>2022-07-09T09:26:22Z</time>
      </trkpt>
      <trkpt lat="47.9731" lon="3.26406">
        <ele>120.80000305176</ele>
        <time>2022-07-09T09:26:34Z</time>
      </trkpt>
      <trkpt lat="47.9732" lon="3.26416">
        <ele>120.19999694824</ele>
        <time>2022-07-09T09:26:44Z</time>
      </trkpt>
      <trkpt lat="47.97331" lon="3.26425">
        <ele>120.19999694824</ele>
        <time>2022-07-09T09:26:53Z</time>
      </trkpt>
      <trkpt lat="47.97342" lon="3.26438">
        <ele>119.80000305176</ele>
        <time>2022-07-09T09:27:04Z</time>
      </trkpt>
      <trkpt lat="47.97349" lon="3.26451">
        <ele>119</ele>
        <time>2022-07-09T09:27:13Z</time>
      </trkpt>
      <trkpt lat="47.97357" lon="3.26464">
        <ele>119</ele>
        <time>2022-07-09T09:27:23Z</time>
      </trkpt>
      <trkpt lat="47.97371" lon="3.26479">
        <ele>119</ele>
        <time>2022-07-09T09:27:34Z</time>
      </trkpt>
      <trkpt lat="47.97383" lon="3.26494">
        <ele>119.19999694824</ele>
        <time>2022-07-09T09:27:45Z</time>
      </trkpt>
      <trkpt lat="47.9739" lon="3.26508">
        <ele>119.19999694824</ele>
        <time>2022-07-09T09:27:55Z</time>
      </trkpt>
      <trkpt lat="47.974" lon="3.26516">
        <ele>119</ele>
        <time>2022-07-09T09:28:06Z</time>
      </trkpt>
      <trkpt lat="47.97408" lon="3.26529">
        <ele>118.80000305176</ele>
        <time>2022-07-09T09:28:17Z</time>
      </trkpt>
      <trkpt lat="47.97417" lon="3.2654">
        <ele>118.80000305176</ele>
        <time>2022-07-09T09:28:25Z</time>
      </trkpt>
      <trkpt lat="47.97424" lon="3.26553">
        <ele>118.80000305176</ele>
        <time>2022-07-09T09:28:34Z</time>
      </trkpt>
      <trkpt lat="47.9743" lon="3.2656">
        <ele>118.80000305176</ele>
        <time>2022-07-09T09:28:40Z</time>
      </trkpt>
      <trkpt lat="47.97443" lon="3.26578">
        <ele>118.59999847412</ele>
        <time>2022-07-09T09:28:56Z</time>
      </trkpt>
      <trkpt lat="47.97452" lon="3.26589">
        <ele>118.40000152588</ele>
        <time>2022-07-09T09:29:05Z</time>
      </trkpt>
      <trkpt lat="47.97461" lon="3.26605">
        <ele>118.19999694824</ele>
        <time>2022-07-09T09:29:16Z</time>
      </trkpt>
      <trkpt lat="47.97469" lon="3.2662">
        <ele>118</ele>
        <time>2022-07-09T09:29:25Z</time>
      </trkpt>
      <trkpt lat="47.9748" lon="3.26642">
        <ele>117.80000305176</ele>
        <time>2022-07-09T09:29:36Z</time>
      </trkpt>
      <trkpt lat="47.9749" lon="3.26659">
        <ele>117.80000305176</ele>
        <time>2022-07-09T09:29:46Z</time>
      </trkpt>
      <trkpt lat="47.97499" lon="3.26673">
        <ele>117.80000305176</ele>
        <time>2022-07-09T09:29:58Z</time>
      </trkpt>
      <trkpt lat="47.97509" lon="3.26689">
        <ele>117.59999847412</ele>
        <time>2022-07-09T09:30:09Z</time>
      </trkpt>
      <trkpt lat="47.9752" lon="3.26704">
        <ele>117.80000305176</ele>
        <time>2022-07-09T09:30:19Z</time>
      </trkpt>
      <trkpt lat="47.97532" lon="3.26723">
        <ele>118</ele>
        <time>2022-07-09T09:30:33Z</time>
      </trkpt>
      <trkpt lat="47.9754" lon="3.26734">
        <ele>118.19999694824</ele>
        <time>2022-07-09T09:30:42Z</time>
      </trkpt>
      <trkpt lat="47.97556" lon="3.26749">
        <ele>118.19999694824</ele>
        <time>2022-07-09T09:30:55Z</time>
      </trkpt>
      <trkpt lat="47.97564" lon="3.26761">
        <ele>118.19999694824</ele>
        <time>2022-07-09T09:31:04Z</time>
      </trkpt>
      <trkpt lat="47.97575" lon="3.26775">
        <ele>117.80000305176</ele>
        <time>2022-07-09T09:31:16Z</time>
      </trkpt>
      <trkpt lat="47.97586" lon="3.26791">
        <ele>117.59999847412</ele>
        <time>2022-07-09T09:31:27Z</time>
      </trkpt>
      <trkpt lat="47.97595" lon="3.26802">
        <ele>117.40000152588</ele>
        <time>2022-07-09T09:31:36Z</time>
      </trkpt>
      <trkpt lat="47.97604" lon="3.26813">
        <ele>117.59999847412</ele>
        <time>2022-07-09T09:31:45Z</time>
      </trkpt>
      <trkpt lat="47.97613" lon="3.26827">
        <ele>117.40000152588</ele>
        <time>2022-07-09T09:31:55Z</time>
      </trkpt>
      <trkpt lat="47.97621" lon="3.2684">
        <ele>117.19999694824</ele>
        <time>2022-07-09T09:32:03Z</time>
      </trkpt>
      <trkpt lat="47.9763" lon="3.26851">
        <ele>117.40000152588</ele>
        <time>2022-07-09T09:32:12Z</time>
      </trkpt>
      <trkpt lat="47.97637" lon="3.26861">
        <ele>117.40000152588</ele>
        <time>2022-07-09T09:32:22Z</time>
      </trkpt>
      <trkpt lat="47.97643" lon="3.26868">
        <ele>117.40000152588</ele>
        <time>2022-07-09T09:32:30Z</time>
      </trkpt>
      <trkpt lat="47.9765" lon="3.2688">
        <ele>117.80000305176</ele>
        <time>2022-07-09T09:32:43Z</time>
      </trkpt>
      <trkpt lat="47.97662" lon="3.26908">
        <ele>118</ele>
        <time>2022-07-09T09:33:04Z</time>
      </trkpt>
      <trkpt lat="47.9767" lon="3.26922">
        <ele>118</ele>
        <time>2022-07-09T09:33:15Z</time>
      </trkpt>
      <trkpt lat="47.97679" lon="3.26934">
        <ele>118.19999694824</ele>
        <time>2022-07-09T09:33:27Z</time>
      </trkpt>
      <trkpt lat="47.97683" lon="3.26941">
        <ele>118.19999694824</ele>
        <time>2022-07-09T09:33:34Z</time>
      </trkpt>
      <trkpt lat="47.97697" lon="3.26973">
        <ele>118.40000152588</ele>
        <time>2022-07-09T09:34:00Z</time>
      </trkpt>
      <trkpt lat="47.97738" lon="3.27064">
        <ele>117.59999847412</ele>
        <time>2022-07-09T09:34:54Z</time>
      </trkpt>
      <trkpt lat="47.97746" lon="3.27077">
        <ele>117.19999694824</ele>
        <time>2022-07-09T09:35:05Z</time>
      </trkpt>
      <trkpt lat="47.97755" lon="3.27094">
        <ele>116.80000305176</ele>
        <time>2022-07-09T09:35:18Z</time>
      </trkpt>
      <trkpt lat="47.97769" lon="3.27107">
        <ele>116.59999847412</ele>
        <time>2022-07-09T09:35:29Z</time>
      </trkpt>
      <trkpt lat="47.9778" lon="3.27123">
        <ele>116.80000305176</ele>
        <time>2022-07-09T09:35:39Z</time>
      </trkpt>
      <trkpt lat="47.97791" lon="3.27148">
        <ele>116.19999694824</ele>
        <time>2022-07-09T09:35:54Z</time>
      </trkpt>
      <trkpt lat="47.97798" lon="3.27165">
        <ele>116</ele>
        <time>2022-07-09T09:36:04Z</time>
      </trkpt>
      <trkpt lat="47.97805" lon="3.27183">
        <ele>116</ele>
        <time>2022-07-09T09:36:15Z</time>
      </trkpt>
      <trkpt lat="47.97812" lon="3.27204">
        <ele>116.19999694824</ele>
        <time>2022-07-09T09:36:27Z</time>
      </trkpt>
      <trkpt lat="47.97819" lon="3.27222">
        <ele>116.19999694824</ele>
        <time>2022-07-09T09:36:38Z</time>
      </trkpt>
      <trkpt lat="47.97827" lon="3.27245">
        <ele>116</ele>
        <time>2022-07-09T09:36:51Z</time>
      </trkpt>
      <trkpt lat="47.97834" lon="3.27262">
        <ele>115.80000305176</ele>
        <time>2022-07-09T09:37:02Z</time>
      </trkpt>
      <trkpt lat="47.97841" lon="3.27279">
        <ele>115.80000305176</ele>
        <time>2022-07-09T09:37:13Z</time>
      </trkpt>
      <trkpt lat="47.97844" lon="3.27288">
        <ele>115.80000305176</ele>
        <time>2022-07-09T09:37:19Z</time>
      </trkpt>
      <trkpt lat="47.97845" lon="3.2729">
        <ele>116</ele>
        <time>2022-07-09T09:37:20Z</time>
      </trkpt>
      <trkpt lat="47.97852" lon="3.27305">
        <ele>115.80000305176</ele>
        <time>2022-07-09T09:37:29Z</time>
      </trkpt>
      <trkpt lat="47.97861" lon="3.2732">
        <ele>115.59999847412</ele>
        <time>2022-07-09T09:37:39Z</time>
      </trkpt>
      <trkpt lat="47.97866" lon="3.27332">
        <ele>115.40000152588</ele>
        <time>2022-07-09T09:37:48Z</time>
      </trkpt>
      <trkpt lat="47.97872" lon="3.27348">
        <ele>115.40000152588</ele>
        <time>2022-07-09T09:37:58Z</time>
      </trkpt>
      <trkpt lat="47.97879" lon="3.27362">
        <ele>115.19999694824</ele>
        <time>2022-07-09T09:38:09Z</time>
      </trkpt>
      <trkpt lat="47.97886" lon="3.27382">
        <ele>115.40000152588</ele>
        <time>2022-07-09T09:38:20Z</time>
      </trkpt>
      <trkpt lat="47.97891" lon="3.27393">
        <ele>115.59999847412</ele>
        <time>2022-07-09T09:38:28Z</time>
      </trkpt>
      <trkpt lat="47.97891" lon="3.27395">
        <ele>115.59999847412</ele>
        <time>2022-07-09T09:38:29Z</time>
      </trkpt>
      <trkpt lat="47.97891" lon="3.27397">
        <ele>115.59999847412</ele>
        <time>2022-07-09T09:38:30Z</time>
      </trkpt>
      <trkpt lat="47.97891" lon="3.274">
        <ele>115.59999847412</ele>
        <time>2022-07-09T09:38:31Z</time>
      </trkpt>
      <trkpt lat="47.97892" lon="3.27418">
        <ele>115.80000305176</ele>
        <time>2022-07-09T09:38:41Z</time>
      </trkpt>
      <trkpt lat="47.97895" lon="3.27442">
        <ele>116</ele>
        <time>2022-07-09T09:38:51Z</time>
      </trkpt>
      <trkpt lat="47.97898" lon="3.27468">
        <ele>116.40000152588</ele>
        <time>2022-07-09T09:39:03Z</time>
      </trkpt>
      <trkpt lat="47.97905" lon="3.27497">
        <ele>116.80000305176</ele>
        <time>2022-07-09T09:39:18Z</time>
      </trkpt>
      <trkpt lat="47.9791" lon="3.27524">
        <ele>116.80000305176</ele>
        <time>2022-07-09T09:39:31Z</time>
      </trkpt>
      <trkpt lat="47.97918" lon="3.27546">
        <ele>117</ele>
        <time>2022-07-09T09:39:43Z</time>
      </trkpt>
      <trkpt lat="47.97923" lon="3.27566">
        <ele>117.19999694824</ele>
        <time>2022-07-09T09:39:55Z</time>
      </trkpt>
      <trkpt lat="47.97928" lon="3.27582">
        <ele>117.19999694824</ele>
        <time>2022-07-09T09:40:06Z</time>
      </trkpt>
      <trkpt lat="47.97933" lon="3.27595">
        <ele>117.19999694824</ele>
        <time>2022-07-09T09:40:14Z</time>
      </trkpt>
      <trkpt lat="47.97938" lon="3.27613">
        <ele>117</ele>
        <time>2022-07-09T09:40:24Z</time>
      </trkpt>
      <trkpt lat="47.97944" lon="3.27628">
        <ele>117</ele>
        <time>2022-07-09T09:40:34Z</time>
      </trkpt>
      <trkpt lat="47.97946" lon="3.27632">
        <ele>116.80000305176</ele>
        <time>2022-07-09T09:40:37Z</time>
      </trkpt>
      <trkpt lat="47.97953" lon="3.27652">
        <ele>116.80000305176</ele>
        <time>2022-07-09T09:40:48Z</time>
      </trkpt>
      <trkpt lat="47.97957" lon="3.27665">
        <ele>116.80000305176</ele>
        <time>2022-07-09T09:40:55Z</time>
      </trkpt>
      <trkpt lat="47.9796" lon="3.27673">
        <ele>116.80000305176</ele>
        <time>2022-07-09T09:41:01Z</time>
      </trkpt>
      <trkpt lat="47.97965" lon="3.27687">
        <ele>116.80000305176</ele>
        <time>2022-07-09T09:41:10Z</time>
      </trkpt>
      <trkpt lat="47.97974" lon="3.27708">
        <ele>116.80000305176</ele>
        <time>2022-07-09T09:41:22Z</time>
      </trkpt>
      <trkpt lat="47.97977" lon="3.27712">
        <ele>116.59999847412</ele>
        <time>2022-07-09T09:41:25Z</time>
      </trkpt>
      <trkpt lat="47.97983" lon="3.27729">
        <ele>116.59999847412</ele>
        <time>2022-07-09T09:41:37Z</time>
      </trkpt>
      <trkpt lat="47.97984" lon="3.2773">
        <ele>116.59999847412</ele>
        <time>2022-07-09T09:41:38Z</time>
      </trkpt>
      <trkpt lat="47.97993" lon="3.27757">
        <ele>116.19999694824</ele>
        <time>2022-07-09T09:41:51Z</time>
      </trkpt>
      <trkpt lat="47.98" lon="3.27771">
        <ele>115.59999847412</ele>
        <time>2022-07-09T09:42:01Z</time>
      </trkpt>
      <trkpt lat="47.98002" lon="3.27775">
        <ele>115.40000152588</ele>
        <time>2022-07-09T09:42:04Z</time>
      </trkpt>
      <trkpt lat="47.98008" lon="3.2779">
        <ele>114.40000152588</ele>
        <time>2022-07-09T09:42:18Z</time>
      </trkpt>
      <trkpt lat="47.98015" lon="3.2783">
        <ele>113.80000305176</ele>
        <time>2022-07-09T09:42:37Z</time>
      </trkpt>
      <trkpt lat="47.98016" lon="3.27857">
        <ele>113.40000152588</ele>
        <time>2022-07-09T09:42:50Z</time>
      </trkpt>
      <trkpt lat="47.9802" lon="3.27884">
        <ele>113.40000152588</ele>
        <time>2022-07-09T09:43:04Z</time>
      </trkpt>
      <trkpt lat="47.98027" lon="3.27892">
        <ele>113</ele>
        <time>2022-07-09T09:43:15Z</time>
      </trkpt>
      <trkpt lat="47.98028" lon="3.27912">
        <ele>112.80000305176</ele>
        <time>2022-07-09T09:43:24Z</time>
      </trkpt>
      <trkpt lat="47.98028" lon="3.27939">
        <ele>112.59999847412</ele>
        <time>2022-07-09T09:43:34Z</time>
      </trkpt>
      <trkpt lat="47.9803" lon="3.27968">
        <ele>112.40000152588</ele>
        <time>2022-07-09T09:43:45Z</time>
      </trkpt>
      <trkpt lat="47.98033" lon="3.2799">
        <ele>112.40000152588</ele>
        <time>2022-07-09T09:43:57Z</time>
      </trkpt>
      <trkpt lat="47.98037" lon="3.2801">
        <ele>112.80000305176</ele>
        <time>2022-07-09T09:44:09Z</time>
      </trkpt>
      <trkpt lat="47.9804" lon="3.28034">
        <ele>112.59999847412</ele>
        <time>2022-07-09T09:44:22Z</time>
      </trkpt>
      <trkpt lat="47.98041" lon="3.28053">
        <ele>112.40000152588</ele>
        <time>2022-07-09T09:44:33Z</time>
      </trkpt>
      <trkpt lat="47.98043" lon="3.28071">
        <ele>112.40000152588</ele>
        <time>2022-07-09T09:44:47Z</time>
      </trkpt>
      <trkpt lat="47.98045" lon="3.28096">
        <ele>112.40000152588</ele>
        <time>2022-07-09T09:45:01Z</time>
      </trkpt>
      <trkpt lat="47.98053" lon="3.28176">
        <ele>112.59999847412</ele>
        <time>2022-07-09T09:45:44Z</time>
      </trkpt>
      <trkpt lat="47.98055" lon="3.28196">
        <ele>112.59999847412</ele>
        <time>2022-07-09T09:45:57Z</time>
      </trkpt>
      <trkpt lat="47.98062" lon="3.28243">
        <ele>113</ele>
        <time>2022-07-09T09:46:20Z</time>
      </trkpt>
      <trkpt lat="47.98074" lon="3.28307">
        <ele>113.40000152588</ele>
        <time>2022-07-09T09:46:55Z</time>
      </trkpt>
      <trkpt lat="47.98077" lon="3.28337">
        <ele>113.40000152588</ele>
        <time>2022-07-09T09:47:11Z</time>
      </trkpt>
      <trkpt lat="47.98075" lon="3.28392">
        <ele>114</ele>
        <time>2022-07-09T09:47:59Z</time>
      </trkpt>
      <trkpt lat="47.98073" lon="3.28402">
        <ele>114</ele>
        <time>2022-07-09T09:48:43Z</time>
      </trkpt>
      <trkpt lat="47.9807" lon="3.28397">
        <ele>114</ele>
        <time>2022-07-09T09:49:54Z</time>
      </trkpt>
      <trkpt lat="47.98072" lon="3.28407">
        <ele>114</ele>
        <time>2022-07-09T09:50:25Z</time>
      </trkpt>
      <trkpt lat="47.98082" lon="3.28442">
        <ele>114</ele>
        <time>2022-07-09T09:50:50Z</time>
      </trkpt>
      <trkpt lat="47.98085" lon="3.28489">
        <ele>114.40000152588</ele>
        <time>2022-07-09T09:51:17Z</time>
      </trkpt>
      <trkpt lat="47.98078" lon="3.28538">
        <ele>114.80000305176</ele>
        <time>2022-07-09T09:51:51Z</time>
      </trkpt>
      <trkpt lat="47.9808" lon="3.28544">
        <ele>114</ele>
        <time>2022-07-09T09:52:16Z</time>
      </trkpt>
      <trkpt lat="47.98081" lon="3.28544">
        <ele>116.80000305176</ele>
        <time>2022-07-09T09:52:20Z</time>
      </trkpt>
      <trkpt lat="47.98085" lon="3.28547">
        <ele>114.59999847412</ele>
        <time>2022-07-09T09:52:45Z</time>
      </trkpt>
      <trkpt lat="47.98085" lon="3.28548">
        <ele>114.59999847412</ele>
        <time>2022-07-09T09:52:46Z</time>
      </trkpt>
      <trkpt lat="47.9809" lon="3.28575">
        <ele>114.59999847412</ele>
        <time>2022-07-09T09:53:21Z</time>
      </trkpt>
      <trkpt lat="47.98092" lon="3.28574">
        <ele>114.19999694824</ele>
        <time>2022-07-09T09:53:35Z</time>
      </trkpt>
      <trkpt lat="47.98089" lon="3.28557">
        <ele>114.19999694824</ele>
        <time>2022-07-09T09:53:48Z</time>
      </trkpt>
      <trkpt lat="47.98091" lon="3.28545">
        <ele>114.19999694824</ele>
        <time>2022-07-09T09:53:59Z</time>
      </trkpt>
      <trkpt lat="47.98081" lon="3.28539">
        <ele>113</ele>
        <time>2022-07-09T09:54:34Z</time>
      </trkpt>
      <trkpt lat="47.98074" lon="3.28541">
        <ele>116.19999694824</ele>
        <time>2022-07-09T09:54:59Z</time>
      </trkpt>
      <trkpt lat="47.98079" lon="3.28546">
        <ele>116.19999694824</ele>
        <time>2022-07-09T09:55:03Z</time>
      </trkpt>
      <trkpt lat="47.98079" lon="3.28548">
        <ele>116</ele>
        <time>2022-07-09T09:55:04Z</time>
      </trkpt>
      <trkpt lat="47.98081" lon="3.28549">
        <ele>116</ele>
        <time>2022-07-09T09:55:25Z</time>
      </trkpt>
      <trkpt lat="47.9808" lon="3.28553">
        <ele>111.80000305176</ele>
        <time>2022-07-09T09:55:29Z</time>
      </trkpt>
      <trkpt lat="47.98079" lon="3.28555">
        <ele>110.19999694824</ele>
        <time>2022-07-09T09:55:30Z</time>
      </trkpt>
      <trkpt lat="47.98086" lon="3.28549">
        <ele>113.80000305176</ele>
        <time>2022-07-09T09:55:35Z</time>
      </trkpt>
      <trkpt lat="47.98087" lon="3.28549">
        <ele>117.80000305176</ele>
        <time>2022-07-09T09:55:37Z</time>
      </trkpt>
      <trkpt lat="47.98088" lon="3.28548">
        <ele>119</ele>
        <time>2022-07-09T09:55:39Z</time>
      </trkpt>
      <trkpt lat="47.9809" lon="3.28548">
        <ele>115.80000305176</ele>
        <time>2022-07-09T09:55:43Z</time>
      </trkpt>
      <trkpt lat="47.98089" lon="3.28545">
        <ele>114.19999694824</ele>
        <time>2022-07-09T09:56:23Z</time>
      </trkpt>
      <trkpt lat="47.98089" lon="3.28545">
        <ele>114.19999694824</ele>
        <time>2022-07-09T09:57:14Z</time>
      </trkpt>
      <trkpt lat="47.98089" lon="3.28547">
        <ele>114.19999694824</ele>
        <time>2022-07-09T09:57:46Z</time>
      </trkpt>
      <trkpt lat="47.98093" lon="3.28547">
        <ele>114.19999694824</ele>
        <time>2022-07-09T09:58:22Z</time>
      </trkpt>
      <trkpt lat="47.9809" lon="3.28548">
        <ele>114.19999694824</ele>
        <time>2022-07-09T09:58:56Z</time>
      </trkpt>
      <trkpt lat="47.9809" lon="3.28547">
        <ele>114.19999694824</ele>
        <time>2022-07-09T09:59:30Z</time>
      </trkpt>
      <trkpt lat="47.9809" lon="3.28543">
        <ele>114.19999694824</ele>
        <time>2022-07-09T10:00:10Z</time>
      </trkpt>
      <trkpt lat="47.98089" lon="3.28541">
        <ele>114.19999694824</ele>
        <time>2022-07-09T10:00:46Z</time>
      </trkpt>
      <trkpt lat="47.98087" lon="3.2854">
        <ele>114.19999694824</ele>
        <time>2022-07-09T10:01:22Z</time>
      </trkpt>
      <trkpt lat="47.98087" lon="3.28542">
        <ele>114.19999694824</ele>
        <time>2022-07-09T10:01:55Z</time>
      </trkpt>
      <trkpt lat="47.98088" lon="3.28541">
        <ele>114.19999694824</ele>
        <time>2022-07-09T10:02:27Z</time>
      </trkpt>
      <trkpt lat="47.98089" lon="3.28542">
        <ele>114.19999694824</ele>
        <time>2022-07-09T10:03:05Z</time>
      </trkpt>
      <trkpt lat="47.98087" lon="3.28543">
        <ele>114.19999694824</ele>
        <time>2022-07-09T10:03:39Z</time>
      </trkpt>
      <trkpt lat="47.98089" lon="3.2854">
        <ele>114.19999694824</ele>
        <time>2022-07-09T10:04:24Z</time>
      </trkpt>
      <trkpt lat="47.98089" lon="3.28543">
        <ele>114.19999694824</ele>
        <time>2022-07-09T10:05:31Z</time>
      </trkpt>
      <trkpt lat="47.98087" lon="3.28545">
        <ele>114.19999694824</ele>
        <time>2022-07-09T10:06:07Z</time>
      </trkpt>
      <trkpt lat="47.98086" lon="3.28546">
        <ele>114.19999694824</ele>
        <time>2022-07-09T10:06:40Z</time>
      </trkpt>
      <trkpt lat="47.98088" lon="3.28545">
        <ele>114.19999694824</ele>
        <time>2022-07-09T10:07:16Z</time>
      </trkpt>
      <trkpt lat="47.98088" lon="3.28545">
        <ele>114.19999694824</ele>
        <time>2022-07-09T10:07:57Z</time>
      </trkpt>
      <trkpt lat="47.98087" lon="3.28544">
        <ele>114.19999694824</ele>
        <time>2022-07-09T10:08:32Z</time>
      </trkpt>
      <trkpt lat="47.98086" lon="3.28543">
        <ele>114.19999694824</ele>
        <time>2022-07-09T10:10:23Z</time>
      </trkpt>
      <trkpt lat="47.98088" lon="3.28542">
        <ele>114.19999694824</ele>
        <time>2022-07-09T10:11:07Z</time>
      </trkpt>
      <trkpt lat="47.98089" lon="3.28543">
        <ele>114.19999694824</ele>
        <time>2022-07-09T10:11:46Z</time>
      </trkpt>
      <trkpt lat="47.98087" lon="3.28545">
        <ele>114.19999694824</ele>
        <time>2022-07-09T10:12:36Z</time>
      </trkpt>
      <trkpt lat="47.98087" lon="3.28546">
        <ele>114.19999694824</ele>
        <time>2022-07-09T10:13:22Z</time>
      </trkpt>
      <trkpt lat="47.98086" lon="3.28547">
        <ele>114.19999694824</ele>
        <time>2022-07-09T10:14:03Z</time>
      </trkpt>
      <trkpt lat="47.98088" lon="3.28543">
        <ele>114.19999694824</ele>
        <time>2022-07-09T10:15:18Z</time>
      </trkpt>
      <trkpt lat="47.98084" lon="3.28542">
        <ele>114.19999694824</ele>
        <time>2022-07-09T10:16:42Z</time>
      </trkpt>
      <trkpt lat="47.98086" lon="3.28542">
        <ele>114.19999694824</ele>
        <time>2022-07-09T10:17:35Z</time>
      </trkpt>
      <trkpt lat="47.98086" lon="3.28543">
        <ele>114.19999694824</ele>
        <time>2022-07-09T10:18:10Z</time>
      </trkpt>
      <trkpt lat="47.98087" lon="3.28546">
        <ele>114.19999694824</ele>
        <time>2022-07-09T10:18:44Z</time>
      </trkpt>
      <trkpt lat="47.98085" lon="3.28544">
        <ele>114.19999694824</ele>
        <time>2022-07-09T10:19:26Z</time>
      </trkpt>
      <trkpt lat="47.98087" lon="3.28543">
        <ele>114.19999694824</ele>
        <time>2022-07-09T10:20:01Z</time>
      </trkpt>
      <trkpt lat="47.98083" lon="3.2854">
        <ele>114.19999694824</ele>
        <time>2022-07-09T10:20:47Z</time>
      </trkpt>
      <trkpt lat="47.98085" lon="3.2854">
        <ele>114.19999694824</ele>
        <time>2022-07-09T10:21:19Z</time>
      </trkpt>
      <trkpt lat="47.98088" lon="3.2854">
        <ele>114.19999694824</ele>
        <time>2022-07-09T10:21:55Z</time>
      </trkpt>
      <trkpt lat="47.98089" lon="3.28542">
        <ele>114.19999694824</ele>
        <time>2022-07-09T10:22:30Z</time>
      </trkpt>
      <trkpt lat="47.98088" lon="3.28541">
        <ele>114.19999694824</ele>
        <time>2022-07-09T10:23:06Z</time>
      </trkpt>
      <trkpt lat="47.98086" lon="3.28533">
        <ele>114.19999694824</ele>
        <time>2022-07-09T10:23:35Z</time>
      </trkpt>
      <trkpt lat="47.98087" lon="3.28536">
        <ele>114.19999694824</ele>
        <time>2022-07-09T10:23:54Z</time>
      </trkpt>
      <trkpt lat="47.98092" lon="3.28529">
        <ele>115.19999694824</ele>
        <time>2022-07-09T10:24:21Z</time>
      </trkpt>
      <trkpt lat="47.9809" lon="3.28533">
        <ele>114.80000305176</ele>
        <time>2022-07-09T10:24:42Z</time>
      </trkpt>
      <trkpt lat="47.9809" lon="3.28533">
        <ele>115</ele>
        <time>2022-07-09T10:24:55Z</time>
      </trkpt>
      <trkpt lat="47.9809" lon="3.2854">
        <ele>117.19999694824</ele>
        <time>2022-07-09T10:25:04Z</time>
      </trkpt>
      <trkpt lat="47.98092" lon="3.28546">
        <ele>116</ele>
        <time>2022-07-09T10:25:08Z</time>
      </trkpt>
      <trkpt lat="47.98097" lon="3.28565">
        <ele>115</ele>
        <time>2022-07-09T10:25:24Z</time>
      </trkpt>
      <trkpt lat="47.98093" lon="3.2858">
        <ele>115.40000152588</ele>
        <time>2022-07-09T10:25:41Z</time>
      </trkpt>
      <trkpt lat="47.98097" lon="3.28598">
        <ele>115.59999847412</ele>
        <time>2022-07-09T10:25:52Z</time>
      </trkpt>
      <trkpt lat="47.98099" lon="3.28607">
        <ele>115.80000305176</ele>
        <time>2022-07-09T10:25:59Z</time>
      </trkpt>
      <trkpt lat="47.98096" lon="3.28634">
        <ele>116</ele>
        <time>2022-07-09T10:26:16Z</time>
      </trkpt>
      <trkpt lat="47.98095" lon="3.28644">
        <ele>116.59999847412</ele>
        <time>2022-07-09T10:26:37Z</time>
      </trkpt>
      <trkpt lat="47.98095" lon="3.28648">
        <ele>115.19999694824</ele>
        <time>2022-07-09T10:26:52Z</time>
      </trkpt>
      <trkpt lat="47.98084" lon="3.2865">
        <ele>118.40000152588</ele>
        <time>2022-07-09T10:27:47Z</time>
      </trkpt>
      <trkpt lat="47.98095" lon="3.28664">
        <ele>117.19999694824</ele>
        <time>2022-07-09T10:28:02Z</time>
      </trkpt>
      <trkpt lat="47.98101" lon="3.28679">
        <ele>117</ele>
        <time>2022-07-09T10:28:13Z</time>
      </trkpt>
      <trkpt lat="47.98104" lon="3.28694">
        <ele>117.59999847412</ele>
        <time>2022-07-09T10:28:26Z</time>
      </trkpt>
      <trkpt lat="47.9811" lon="3.28726">
        <ele>118.40000152588</ele>
        <time>2022-07-09T10:28:50Z</time>
      </trkpt>
      <trkpt lat="47.98119" lon="3.28748">
        <ele>119</ele>
        <time>2022-07-09T10:29:05Z</time>
      </trkpt>
      <trkpt lat="47.9812" lon="3.28753">
        <ele>119.19999694824</ele>
        <time>2022-07-09T10:29:08Z</time>
      </trkpt>
      <trkpt lat="47.98129" lon="3.28817">
        <ele>120.40000152588</ele>
        <time>2022-07-09T10:29:47Z</time>
      </trkpt>
      <trkpt lat="47.98135" lon="3.28847">
        <ele>121</ele>
        <time>2022-07-09T10:30:03Z</time>
      </trkpt>
      <trkpt lat="47.98137" lon="3.2887">
        <ele>121.19999694824</ele>
        <time>2022-07-09T10:30:16Z</time>
      </trkpt>
      <trkpt lat="47.98141" lon="3.28883">
        <ele>121.40000152588</ele>
        <time>2022-07-09T10:30:29Z</time>
      </trkpt>
      <trkpt lat="47.98145" lon="3.28898">
        <ele>120.80000305176</ele>
        <time>2022-07-09T10:30:39Z</time>
      </trkpt>
      <trkpt lat="47.98147" lon="3.28919">
        <ele>120.40000152588</ele>
        <time>2022-07-09T10:30:49Z</time>
      </trkpt>
      <trkpt lat="47.98147" lon="3.28933">
        <ele>119.80000305176</ele>
        <time>2022-07-09T10:30:58Z</time>
      </trkpt>
      <trkpt lat="47.98151" lon="3.2895">
        <ele>119.19999694824</ele>
        <time>2022-07-09T10:31:09Z</time>
      </trkpt>
      <trkpt lat="47.98156" lon="3.2897">
        <ele>118.40000152588</ele>
        <time>2022-07-09T10:31:21Z</time>
      </trkpt>
      <trkpt lat="47.98159" lon="3.28979">
        <ele>118.19999694824</ele>
        <time>2022-07-09T10:31:25Z</time>
      </trkpt>
      <trkpt lat="47.98162" lon="3.28983">
        <ele>118</ele>
        <time>2022-07-09T10:31:28Z</time>
      </trkpt>
      <trkpt lat="47.98163" lon="3.28984">
        <ele>117.80000305176</ele>
        <time>2022-07-09T10:31:29Z</time>
      </trkpt>
      <trkpt lat="47.98164" lon="3.28986">
        <ele>117.80000305176</ele>
        <time>2022-07-09T10:31:30Z</time>
      </trkpt>
      <trkpt lat="47.98165" lon="3.28987">
        <ele>117.59999847412</ele>
        <time>2022-07-09T10:31:31Z</time>
      </trkpt>
      <trkpt lat="47.98166" lon="3.28988">
        <ele>117.59999847412</ele>
        <time>2022-07-09T10:31:32Z</time>
      </trkpt>
      <trkpt lat="47.98167" lon="3.28989">
        <ele>117.40000152588</ele>
        <time>2022-07-09T10:31:33Z</time>
      </trkpt>
      <trkpt lat="47.98174" lon="3.28994">
        <ele>117</ele>
        <time>2022-07-09T10:31:41Z</time>
      </trkpt>
      <trkpt lat="47.98179" lon="3.28998">
        <ele>116.80000305176</ele>
        <time>2022-07-09T10:31:51Z</time>
      </trkpt>
      <trkpt lat="47.98182" lon="3.29001">
        <ele>116.80000305176</ele>
        <time>2022-07-09T10:31:54Z</time>
      </trkpt>
      <trkpt lat="47.98192" lon="3.29009">
        <ele>116.19999694824</ele>
        <time>2022-07-09T10:32:05Z</time>
      </trkpt>
      <trkpt lat="47.98193" lon="3.2901">
        <ele>116.19999694824</ele>
        <time>2022-07-09T10:32:06Z</time>
      </trkpt>
      <trkpt lat="47.98194" lon="3.29012">
        <ele>116.19999694824</ele>
        <time>2022-07-09T10:32:07Z</time>
      </trkpt>
      <trkpt lat="47.98196" lon="3.29013">
        <ele>116</ele>
        <time>2022-07-09T10:32:08Z</time>
      </trkpt>
      <trkpt lat="47.98206" lon="3.29019">
        <ele>115.19999694824</ele>
        <time>2022-07-09T10:32:17Z</time>
      </trkpt>
      <trkpt lat="47.98217" lon="3.29027">
        <ele>114.59999847412</ele>
        <time>2022-07-09T10:32:27Z</time>
      </trkpt>
      <trkpt lat="47.98218" lon="3.29028">
        <ele>114.59999847412</ele>
        <time>2022-07-09T10:32:28Z</time>
      </trkpt>
      <trkpt lat="47.98219" lon="3.29029">
        <ele>114.59999847412</ele>
        <time>2022-07-09T10:32:29Z</time>
      </trkpt>
      <trkpt lat="47.98221" lon="3.2903">
        <ele>114.59999847412</ele>
        <time>2022-07-09T10:32:30Z</time>
      </trkpt>
      <trkpt lat="47.98222" lon="3.29031">
        <ele>114.59999847412</ele>
        <time>2022-07-09T10:32:31Z</time>
      </trkpt>
      <trkpt lat="47.98225" lon="3.29035">
        <ele>114.40000152588</ele>
        <time>2022-07-09T10:32:34Z</time>
      </trkpt>
      <trkpt lat="47.98226" lon="3.29037">
        <ele>114.19999694824</ele>
        <time>2022-07-09T10:32:35Z</time>
      </trkpt>
      <trkpt lat="47.98227" lon="3.29037">
        <ele>114.19999694824</ele>
        <time>2022-07-09T10:32:36Z</time>
      </trkpt>
      <trkpt lat="47.98228" lon="3.29038">
        <ele>114.19999694824</ele>
        <time>2022-07-09T10:32:37Z</time>
      </trkpt>
      <trkpt lat="47.98232" lon="3.29038">
        <ele>114</ele>
        <time>2022-07-09T10:32:40Z</time>
      </trkpt>
      <trkpt lat="47.98234" lon="3.29039">
        <ele>113.80000305176</ele>
        <time>2022-07-09T10:32:41Z</time>
      </trkpt>
      <trkpt lat="47.98237" lon="3.29039">
        <ele>113.59999847412</ele>
        <time>2022-07-09T10:32:43Z</time>
      </trkpt>
      <trkpt lat="47.98239" lon="3.29041">
        <ele>113.59999847412</ele>
        <time>2022-07-09T10:32:45Z</time>
      </trkpt>
      <trkpt lat="47.9824" lon="3.29043">
        <ele>113.40000152588</ele>
        <time>2022-07-09T10:32:46Z</time>
      </trkpt>
      <trkpt lat="47.98241" lon="3.29044">
        <ele>113.40000152588</ele>
        <time>2022-07-09T10:32:47Z</time>
      </trkpt>
      <trkpt lat="47.98249" lon="3.2905">
        <ele>112.80000305176</ele>
        <time>2022-07-09T10:32:55Z</time>
      </trkpt>
      <trkpt lat="47.98253" lon="3.29056">
        <ele>112.59999847412</ele>
        <time>2022-07-09T10:33:00Z</time>
      </trkpt>
      <trkpt lat="47.98264" lon="3.29072">
        <ele>112.40000152588</ele>
        <time>2022-07-09T10:33:14Z</time>
      </trkpt>
      <trkpt lat="47.98268" lon="3.29075">
        <ele>112.40000152588</ele>
        <time>2022-07-09T10:33:18Z</time>
      </trkpt>
      <trkpt lat="47.98273" lon="3.29077">
        <ele>112.19999694824</ele>
        <time>2022-07-09T10:33:22Z</time>
      </trkpt>
      <trkpt lat="47.98274" lon="3.29077">
        <ele>112.19999694824</ele>
        <time>2022-07-09T10:33:23Z</time>
      </trkpt>
      <trkpt lat="47.98276" lon="3.29078">
        <ele>112.19999694824</ele>
        <time>2022-07-09T10:33:24Z</time>
      </trkpt>
      <trkpt lat="47.98277" lon="3.29079">
        <ele>112</ele>
        <time>2022-07-09T10:33:25Z</time>
      </trkpt>
      <trkpt lat="47.98288" lon="3.29083">
        <ele>111.80000305176</ele>
        <time>2022-07-09T10:33:35Z</time>
      </trkpt>
      <trkpt lat="47.98293" lon="3.29084">
        <ele>111.80000305176</ele>
        <time>2022-07-09T10:33:40Z</time>
      </trkpt>
      <trkpt lat="47.98305" lon="3.29085">
        <ele>111.59999847412</ele>
        <time>2022-07-09T10:33:50Z</time>
      </trkpt>
      <trkpt lat="47.98308" lon="3.29086">
        <ele>111.59999847412</ele>
        <time>2022-07-09T10:33:52Z</time>
      </trkpt>
      <trkpt lat="47.9831" lon="3.29086">
        <ele>111.59999847412</ele>
        <time>2022-07-09T10:33:53Z</time>
      </trkpt>
      <trkpt lat="47.98312" lon="3.29086">
        <ele>111.40000152588</ele>
        <time>2022-07-09T10:33:54Z</time>
      </trkpt>
      <trkpt lat="47.98325" lon="3.29085">
        <ele>111.40000152588</ele>
        <time>2022-07-09T10:34:04Z</time>
      </trkpt>
      <trkpt lat="47.98328" lon="3.29085">
        <ele>111.40000152588</ele>
        <time>2022-07-09T10:34:07Z</time>
      </trkpt>
      <trkpt lat="47.98335" lon="3.29085">
        <ele>111.40000152588</ele>
        <time>2022-07-09T10:34:13Z</time>
      </trkpt>
      <trkpt lat="47.98351" lon="3.29078">
        <ele>111</ele>
        <time>2022-07-09T10:34:25Z</time>
      </trkpt>
      <trkpt lat="47.98371" lon="3.29074">
        <ele>111</ele>
        <time>2022-07-09T10:34:45Z</time>
      </trkpt>
      <trkpt lat="47.98377" lon="3.29075">
        <ele>111</ele>
        <time>2022-07-09T10:34:49Z</time>
      </trkpt>
      <trkpt lat="47.98385" lon="3.29075">
        <ele>110.59999847412</ele>
        <time>2022-07-09T10:34:58Z</time>
      </trkpt>
      <trkpt lat="47.9839" lon="3.29077">
        <ele>110.40000152588</ele>
        <time>2022-07-09T10:35:03Z</time>
      </trkpt>
      <trkpt lat="47.98404" lon="3.29077">
        <ele>110.40000152588</ele>
        <time>2022-07-09T10:35:13Z</time>
      </trkpt>
      <trkpt lat="47.98411" lon="3.2908">
        <ele>110.40000152588</ele>
        <time>2022-07-09T10:35:19Z</time>
      </trkpt>
      <trkpt lat="47.98422" lon="3.29096">
        <ele>110.40000152588</ele>
        <time>2022-07-09T10:35:31Z</time>
      </trkpt>
      <trkpt lat="47.98434" lon="3.29115">
        <ele>110.80000305176</ele>
        <time>2022-07-09T10:35:48Z</time>
      </trkpt>
      <trkpt lat="47.98445" lon="3.29134">
        <ele>110.59999847412</ele>
        <time>2022-07-09T10:36:02Z</time>
      </trkpt>
      <trkpt lat="47.98448" lon="3.29141">
        <ele>110.19999694824</ele>
        <time>2022-07-09T10:36:07Z</time>
      </trkpt>
      <trkpt lat="47.98454" lon="3.29163">
        <ele>110</ele>
        <time>2022-07-09T10:36:19Z</time>
      </trkpt>
      <trkpt lat="47.98458" lon="3.2918">
        <ele>110</ele>
        <time>2022-07-09T10:36:29Z</time>
      </trkpt>
      <trkpt lat="47.98463" lon="3.29191">
        <ele>109.80000305176</ele>
        <time>2022-07-09T10:36:37Z</time>
      </trkpt>
      <trkpt lat="47.98468" lon="3.29206">
        <ele>109.80000305176</ele>
        <time>2022-07-09T10:36:46Z</time>
      </trkpt>
      <trkpt lat="47.98469" lon="3.29207">
        <ele>109.80000305176</ele>
        <time>2022-07-09T10:36:47Z</time>
      </trkpt>
      <trkpt lat="47.98474" lon="3.29217">
        <ele>109.80000305176</ele>
        <time>2022-07-09T10:36:55Z</time>
      </trkpt>
      <trkpt lat="47.98476" lon="3.29222">
        <ele>109.80000305176</ele>
        <time>2022-07-09T10:36:58Z</time>
      </trkpt>
      <trkpt lat="47.98479" lon="3.29231">
        <ele>109.80000305176</ele>
        <time>2022-07-09T10:37:04Z</time>
      </trkpt>
      <trkpt lat="47.9848" lon="3.29232">
        <ele>109.80000305176</ele>
        <time>2022-07-09T10:37:05Z</time>
      </trkpt>
      <trkpt lat="47.98485" lon="3.29249">
        <ele>109.59999847412</ele>
        <time>2022-07-09T10:37:16Z</time>
      </trkpt>
      <trkpt lat="47.98489" lon="3.29258">
        <ele>109.59999847412</ele>
        <time>2022-07-09T10:37:22Z</time>
      </trkpt>
      <trkpt lat="47.98491" lon="3.29265">
        <ele>109.40000152588</ele>
        <time>2022-07-09T10:37:27Z</time>
      </trkpt>
      <trkpt lat="47.98489" lon="3.29286">
        <ele>109.40000152588</ele>
        <time>2022-07-09T10:37:37Z</time>
      </trkpt>
      <trkpt lat="47.98488" lon="3.29295">
        <ele>109.40000152588</ele>
        <time>2022-07-09T10:37:43Z</time>
      </trkpt>
      <trkpt lat="47.98487" lon="3.29301">
        <ele>109.19999694824</ele>
        <time>2022-07-09T10:37:46Z</time>
      </trkpt>
      <trkpt lat="47.98477" lon="3.29316">
        <ele>109.19999694824</ele>
        <time>2022-07-09T10:37:58Z</time>
      </trkpt>
      <trkpt lat="47.98467" lon="3.29328">
        <ele>109.19999694824</ele>
        <time>2022-07-09T10:38:09Z</time>
      </trkpt>
      <trkpt lat="47.98456" lon="3.29342">
        <ele>109.19999694824</ele>
        <time>2022-07-09T10:38:21Z</time>
      </trkpt>
      <trkpt lat="47.98449" lon="3.29352">
        <ele>109.59999847412</ele>
        <time>2022-07-09T10:38:30Z</time>
      </trkpt>
      <trkpt lat="47.98443" lon="3.29358">
        <ele>110</ele>
        <time>2022-07-09T10:38:39Z</time>
      </trkpt>
      <trkpt lat="47.98442" lon="3.29376">
        <ele>110.80000305176</ele>
        <time>2022-07-09T10:38:53Z</time>
      </trkpt>
      <trkpt lat="47.98443" lon="3.29379">
        <ele>110.80000305176</ele>
        <time>2022-07-09T10:38:55Z</time>
      </trkpt>
      <trkpt lat="47.98445" lon="3.29385">
        <ele>110.59999847412</ele>
        <time>2022-07-09T10:38:59Z</time>
      </trkpt>
      <trkpt lat="47.98446" lon="3.29387">
        <ele>110.59999847412</ele>
        <time>2022-07-09T10:39:01Z</time>
      </trkpt>
      <trkpt lat="47.98453" lon="3.29405">
        <ele>110.40000152588</ele>
        <time>2022-07-09T10:39:13Z</time>
      </trkpt>
      <trkpt lat="47.98459" lon="3.29424">
        <ele>111</ele>
        <time>2022-07-09T10:39:26Z</time>
      </trkpt>
      <trkpt lat="47.98461" lon="3.29427">
        <ele>110.80000305176</ele>
        <time>2022-07-09T10:39:28Z</time>
      </trkpt>
      <trkpt lat="47.98475" lon="3.29463">
        <ele>110</ele>
        <time>2022-07-09T10:39:55Z</time>
      </trkpt>
      <trkpt lat="47.98479" lon="3.29468">
        <ele>109.80000305176</ele>
        <time>2022-07-09T10:40:00Z</time>
      </trkpt>
      <trkpt lat="47.98481" lon="3.2947">
        <ele>109.80000305176</ele>
        <time>2022-07-09T10:40:02Z</time>
      </trkpt>
      <trkpt lat="47.98491" lon="3.29498">
        <ele>109.19999694824</ele>
        <time>2022-07-09T10:40:22Z</time>
      </trkpt>
      <trkpt lat="47.98506" lon="3.29535">
        <ele>109.40000152588</ele>
        <time>2022-07-09T10:40:46Z</time>
      </trkpt>
      <trkpt lat="47.98508" lon="3.29557">
        <ele>108.80000305176</ele>
        <time>2022-07-09T10:41:01Z</time>
      </trkpt>
      <trkpt lat="47.98507" lon="3.2958">
        <ele>108.80000305176</ele>
        <time>2022-07-09T10:41:09Z</time>
      </trkpt>
      <trkpt lat="47.9851" lon="3.29602">
        <ele>108.59999847412</ele>
        <time>2022-07-09T10:41:21Z</time>
      </trkpt>
      <trkpt lat="47.98512" lon="3.29619">
        <ele>108.80000305176</ele>
        <time>2022-07-09T10:41:30Z</time>
      </trkpt>
      <trkpt lat="47.98513" lon="3.29627">
        <ele>108.80000305176</ele>
        <time>2022-07-09T10:41:35Z</time>
      </trkpt>
      <trkpt lat="47.98514" lon="3.2963">
        <ele>108.59999847412</ele>
        <time>2022-07-09T10:41:37Z</time>
      </trkpt>
      <trkpt lat="47.98514" lon="3.29647">
        <ele>108.80000305176</ele>
        <time>2022-07-09T10:41:47Z</time>
      </trkpt>
      <trkpt lat="47.98514" lon="3.29674">
        <ele>108.80000305176</ele>
        <time>2022-07-09T10:42:03Z</time>
      </trkpt>
      <trkpt lat="47.98514" lon="3.29677">
        <ele>108.80000305176</ele>
        <time>2022-07-09T10:42:05Z</time>
      </trkpt>
      <trkpt lat="47.98514" lon="3.29699">
        <ele>108.80000305176</ele>
        <time>2022-07-09T10:42:19Z</time>
      </trkpt>
      <trkpt lat="47.98514" lon="3.29723">
        <ele>108.80000305176</ele>
        <time>2022-07-09T10:42:32Z</time>
      </trkpt>
      <trkpt lat="47.98514" lon="3.29725">
        <ele>108.80000305176</ele>
        <time>2022-07-09T10:42:33Z</time>
      </trkpt>
      <trkpt lat="47.98515" lon="3.29756">
        <ele>108.80000305176</ele>
        <time>2022-07-09T10:42:48Z</time>
      </trkpt>
      <trkpt lat="47.98514" lon="3.29775">
        <ele>108.59999847412</ele>
        <time>2022-07-09T10:42:59Z</time>
      </trkpt>
      <trkpt lat="47.98516" lon="3.29793">
        <ele>108.59999847412</ele>
        <time>2022-07-09T10:43:11Z</time>
      </trkpt>
      <trkpt lat="47.98512" lon="3.29828">
        <ele>108.40000152588</ele>
        <time>2022-07-09T10:43:30Z</time>
      </trkpt>
      <trkpt lat="47.98506" lon="3.29847">
        <ele>108.19999694824</ele>
        <time>2022-07-09T10:43:41Z</time>
      </trkpt>
      <trkpt lat="47.985" lon="3.29863">
        <ele>108.19999694824</ele>
        <time>2022-07-09T10:43:51Z</time>
      </trkpt>
      <trkpt lat="47.98496" lon="3.29885">
        <ele>108.59999847412</ele>
        <time>2022-07-09T10:44:05Z</time>
      </trkpt>
      <trkpt lat="47.98497" lon="3.29902">
        <ele>108.59999847412</ele>
        <time>2022-07-09T10:44:15Z</time>
      </trkpt>
      <trkpt lat="47.98497" lon="3.29904">
        <ele>108.59999847412</ele>
        <time>2022-07-09T10:44:16Z</time>
      </trkpt>
      <trkpt lat="47.98495" lon="3.29925">
        <ele>108.59999847412</ele>
        <time>2022-07-09T10:44:28Z</time>
      </trkpt>
      <trkpt lat="47.98495" lon="3.29939">
        <ele>108.59999847412</ele>
        <time>2022-07-09T10:44:40Z</time>
      </trkpt>
      <trkpt lat="47.98492" lon="3.29956">
        <ele>109</ele>
        <time>2022-07-09T10:44:50Z</time>
      </trkpt>
      <trkpt lat="47.98488" lon="3.29979">
        <ele>108.80000305176</ele>
        <time>2022-07-09T10:45:01Z</time>
      </trkpt>
      <trkpt lat="47.98483" lon="3.30001">
        <ele>108.80000305176</ele>
        <time>2022-07-09T10:45:12Z</time>
      </trkpt>
      <trkpt lat="47.98481" lon="3.30022">
        <ele>109</ele>
        <time>2022-07-09T10:45:22Z</time>
      </trkpt>
      <trkpt lat="47.98478" lon="3.30038">
        <ele>109</ele>
        <time>2022-07-09T10:45:30Z</time>
      </trkpt>
      <trkpt lat="47.98474" lon="3.30072">
        <ele>108.59999847412</ele>
        <time>2022-07-09T10:45:47Z</time>
      </trkpt>
      <trkpt lat="47.9847" lon="3.30093">
        <ele>108.80000305176</ele>
        <time>2022-07-09T10:46:00Z</time>
      </trkpt>
      <trkpt lat="47.98468" lon="3.30104">
        <ele>108.80000305176</ele>
        <time>2022-07-09T10:46:08Z</time>
      </trkpt>
      <trkpt lat="47.98459" lon="3.30137">
        <ele>108.59999847412</ele>
        <time>2022-07-09T10:46:25Z</time>
      </trkpt>
      <trkpt lat="47.98457" lon="3.30156">
        <ele>108.40000152588</ele>
        <time>2022-07-09T10:46:36Z</time>
      </trkpt>
      <trkpt lat="47.98453" lon="3.3017">
        <ele>108.59999847412</ele>
        <time>2022-07-09T10:46:47Z</time>
      </trkpt>
      <trkpt lat="47.98453" lon="3.30188">
        <ele>108.19999694824</ele>
        <time>2022-07-09T10:46:57Z</time>
      </trkpt>
      <trkpt lat="47.98453" lon="3.30206">
        <ele>108.59999847412</ele>
        <time>2022-07-09T10:47:08Z</time>
      </trkpt>
      <trkpt lat="47.98452" lon="3.30224">
        <ele>108.59999847412</ele>
        <time>2022-07-09T10:47:18Z</time>
      </trkpt>
      <trkpt lat="47.9845" lon="3.30239">
        <ele>108.59999847412</ele>
        <time>2022-07-09T10:47:27Z</time>
      </trkpt>
      <trkpt lat="47.98449" lon="3.30255">
        <ele>108.59999847412</ele>
        <time>2022-07-09T10:47:36Z</time>
      </trkpt>
      <trkpt lat="47.98448" lon="3.30277">
        <ele>108.80000305176</ele>
        <time>2022-07-09T10:47:49Z</time>
      </trkpt>
      <trkpt lat="47.9845" lon="3.30299">
        <ele>108.59999847412</ele>
        <time>2022-07-09T10:48:03Z</time>
      </trkpt>
      <trkpt lat="47.9845" lon="3.30301">
        <ele>108.59999847412</ele>
        <time>2022-07-09T10:48:04Z</time>
      </trkpt>
      <trkpt lat="47.98451" lon="3.30315">
        <ele>108.59999847412</ele>
        <time>2022-07-09T10:48:12Z</time>
      </trkpt>
      <trkpt lat="47.98452" lon="3.30344">
        <ele>108.80000305176</ele>
        <time>2022-07-09T10:48:30Z</time>
      </trkpt>
      <trkpt lat="47.98452" lon="3.30352">
        <ele>108.40000152588</ele>
        <time>2022-07-09T10:48:36Z</time>
      </trkpt>
      <trkpt lat="47.98452" lon="3.30364">
        <ele>108.40000152588</ele>
        <time>2022-07-09T10:48:43Z</time>
      </trkpt>
      <trkpt lat="47.98455" lon="3.30384">
        <ele>108.40000152588</ele>
        <time>2022-07-09T10:48:55Z</time>
      </trkpt>
      <trkpt lat="47.98458" lon="3.30397">
        <ele>108</ele>
        <time>2022-07-09T10:49:02Z</time>
      </trkpt>
      <trkpt lat="47.98464" lon="3.30419">
        <ele>107.80000305176</ele>
        <time>2022-07-09T10:49:13Z</time>
      </trkpt>
      <trkpt lat="47.98469" lon="3.30439">
        <ele>107.59999847412</ele>
        <time>2022-07-09T10:49:25Z</time>
      </trkpt>
      <trkpt lat="47.98472" lon="3.3047">
        <ele>107.59999847412</ele>
        <time>2022-07-09T10:49:44Z</time>
      </trkpt>
      <trkpt lat="47.98468" lon="3.30496">
        <ele>107.59999847412</ele>
        <time>2022-07-09T10:49:57Z</time>
      </trkpt>
      <trkpt lat="47.98466" lon="3.30529">
        <ele>107.80000305176</ele>
        <time>2022-07-09T10:50:19Z</time>
      </trkpt>
      <trkpt lat="47.98459" lon="3.30549">
        <ele>107.59999847412</ele>
        <time>2022-07-09T10:50:29Z</time>
      </trkpt>
      <trkpt lat="47.98457" lon="3.30574">
        <ele>107.80000305176</ele>
        <time>2022-07-09T10:50:41Z</time>
      </trkpt>
      <trkpt lat="47.98454" lon="3.306">
        <ele>108</ele>
        <time>2022-07-09T10:50:55Z</time>
      </trkpt>
      <trkpt lat="47.98451" lon="3.30618">
        <ele>108.19999694824</ele>
        <time>2022-07-09T10:51:06Z</time>
      </trkpt>
      <trkpt lat="47.98451" lon="3.30634">
        <ele>108</ele>
        <time>2022-07-09T10:51:14Z</time>
      </trkpt>
      <trkpt lat="47.98447" lon="3.30654">
        <ele>107.80000305176</ele>
        <time>2022-07-09T10:51:25Z</time>
      </trkpt>
      <trkpt lat="47.98448" lon="3.30667">
        <ele>107.80000305176</ele>
        <time>2022-07-09T10:51:35Z</time>
      </trkpt>
      <trkpt lat="47.9845" lon="3.3068">
        <ele>108</ele>
        <time>2022-07-09T10:51:44Z</time>
      </trkpt>
      <trkpt lat="47.98447" lon="3.30694">
        <ele>108.19999694824</ele>
        <time>2022-07-09T10:51:52Z</time>
      </trkpt>
      <trkpt lat="47.98447" lon="3.30718">
        <ele>108.40000152588</ele>
        <time>2022-07-09T10:52:04Z</time>
      </trkpt>
      <trkpt lat="47.98448" lon="3.30739">
        <ele>108.19999694824</ele>
        <time>2022-07-09T10:52:15Z</time>
      </trkpt>
      <trkpt lat="47.9845" lon="3.30754">
        <ele>108.19999694824</ele>
        <time>2022-07-09T10:52:21Z</time>
      </trkpt>
      <trkpt lat="47.98447" lon="3.30782">
        <ele>108.19999694824</ele>
        <time>2022-07-09T10:52:36Z</time>
      </trkpt>
      <trkpt lat="47.98446" lon="3.30804">
        <ele>108.19999694824</ele>
        <time>2022-07-09T10:52:47Z</time>
      </trkpt>
      <trkpt lat="47.98445" lon="3.30821">
        <ele>108.19999694824</ele>
        <time>2022-07-09T10:52:55Z</time>
      </trkpt>
      <trkpt lat="47.98445" lon="3.30836">
        <ele>107.80000305176</ele>
        <time>2022-07-09T10:53:03Z</time>
      </trkpt>
      <trkpt lat="47.98449" lon="3.30863">
        <ele>107.40000152588</ele>
        <time>2022-07-09T10:53:17Z</time>
      </trkpt>
      <trkpt lat="47.98449" lon="3.30886">
        <ele>107.40000152588</ele>
        <time>2022-07-09T10:53:29Z</time>
      </trkpt>
      <trkpt lat="47.98451" lon="3.30916">
        <ele>107.40000152588</ele>
        <time>2022-07-09T10:53:46Z</time>
      </trkpt>
      <trkpt lat="47.98453" lon="3.30932">
        <ele>107.40000152588</ele>
        <time>2022-07-09T10:53:55Z</time>
      </trkpt>
      <trkpt lat="47.98453" lon="3.30953">
        <ele>107.40000152588</ele>
        <time>2022-07-09T10:54:06Z</time>
      </trkpt>
      <trkpt lat="47.98453" lon="3.30961">
        <ele>107.40000152588</ele>
        <time>2022-07-09T10:54:11Z</time>
      </trkpt>
      <trkpt lat="47.98454" lon="3.3097">
        <ele>107.40000152588</ele>
        <time>2022-07-09T10:54:15Z</time>
      </trkpt>
      <trkpt lat="47.98456" lon="3.30986">
        <ele>107.40000152588</ele>
        <time>2022-07-09T10:54:22Z</time>
      </trkpt>
      <trkpt lat="47.98456" lon="3.30992">
        <ele>107.19999694824</ele>
        <time>2022-07-09T10:54:26Z</time>
      </trkpt>
      <trkpt lat="47.98459" lon="3.31021">
        <ele>107.59999847412</ele>
        <time>2022-07-09T10:54:41Z</time>
      </trkpt>
      <trkpt lat="47.98463" lon="3.31046">
        <ele>107.40000152588</ele>
        <time>2022-07-09T10:54:53Z</time>
      </trkpt>
      <trkpt lat="47.98465" lon="3.3106">
        <ele>107.40000152588</ele>
        <time>2022-07-09T10:55:02Z</time>
      </trkpt>
      <trkpt lat="47.98467" lon="3.31077">
        <ele>107.59999847412</ele>
        <time>2022-07-09T10:55:12Z</time>
      </trkpt>
      <trkpt lat="47.9847" lon="3.31093">
        <ele>107</ele>
        <time>2022-07-09T10:55:23Z</time>
      </trkpt>
      <trkpt lat="47.98469" lon="3.31108">
        <ele>107.40000152588</ele>
        <time>2022-07-09T10:55:35Z</time>
      </trkpt>
      <trkpt lat="47.98474" lon="3.31133">
        <ele>107.40000152588</ele>
        <time>2022-07-09T10:55:47Z</time>
      </trkpt>
      <trkpt lat="47.98478" lon="3.31156">
        <ele>107.19999694824</ele>
        <time>2022-07-09T10:56:00Z</time>
      </trkpt>
      <trkpt lat="47.98479" lon="3.31168">
        <ele>107.19999694824</ele>
        <time>2022-07-09T10:56:08Z</time>
      </trkpt>
      <trkpt lat="47.98479" lon="3.31172">
        <ele>107.19999694824</ele>
        <time>2022-07-09T10:56:10Z</time>
      </trkpt>
      <trkpt lat="47.98481" lon="3.31183">
        <ele>107</ele>
        <time>2022-07-09T10:56:15Z</time>
      </trkpt>
      <trkpt lat="47.98479" lon="3.31203">
        <ele>107.19999694824</ele>
        <time>2022-07-09T10:56:24Z</time>
      </trkpt>
      <trkpt lat="47.98482" lon="3.31226">
        <ele>107</ele>
        <time>2022-07-09T10:56:35Z</time>
      </trkpt>
      <trkpt lat="47.98483" lon="3.31248">
        <ele>107</ele>
        <time>2022-07-09T10:56:47Z</time>
      </trkpt>
      <trkpt lat="47.98483" lon="3.31265">
        <ele>107</ele>
        <time>2022-07-09T10:56:55Z</time>
      </trkpt>
      <trkpt lat="47.98484" lon="3.31282">
        <ele>107</ele>
        <time>2022-07-09T10:57:05Z</time>
      </trkpt>
      <trkpt lat="47.98488" lon="3.313">
        <ele>107</ele>
        <time>2022-07-09T10:57:16Z</time>
      </trkpt>
      <trkpt lat="47.98492" lon="3.31317">
        <ele>106.59999847412</ele>
        <time>2022-07-09T10:57:28Z</time>
      </trkpt>
      <trkpt lat="47.98497" lon="3.31338">
        <ele>106.19999694824</ele>
        <time>2022-07-09T10:57:42Z</time>
      </trkpt>
      <trkpt lat="47.98498" lon="3.3135">
        <ele>106</ele>
        <time>2022-07-09T10:58:17Z</time>
      </trkpt>
      <trkpt lat="47.98496" lon="3.31344">
        <ele>106</ele>
        <time>2022-07-09T10:58:38Z</time>
      </trkpt>
      <trkpt lat="47.98496" lon="3.31349">
        <ele>106.19999694824</ele>
        <time>2022-07-09T10:59:17Z</time>
      </trkpt>
      <trkpt lat="47.98496" lon="3.31346">
        <ele>106.40000152588</ele>
        <time>2022-07-09T10:59:28Z</time>
      </trkpt>
      <trkpt lat="47.98496" lon="3.31341">
        <ele>106.40000152588</ele>
        <time>2022-07-09T10:59:58Z</time>
      </trkpt>
      <trkpt lat="47.98496" lon="3.31345">
        <ele>106.40000152588</ele>
        <time>2022-07-09T11:00:56Z</time>
      </trkpt>
      <trkpt lat="47.98497" lon="3.31349">
        <ele>107.19999694824</ele>
        <time>2022-07-09T11:01:19Z</time>
      </trkpt>
      <trkpt lat="47.98497" lon="3.3135">
        <ele>107</ele>
        <time>2022-07-09T11:01:20Z</time>
      </trkpt>
      <trkpt lat="47.98498" lon="3.31367">
        <ele>106.40000152588</ele>
        <time>2022-07-09T11:01:29Z</time>
      </trkpt>
      <trkpt lat="47.98503" lon="3.31384">
        <ele>107</ele>
        <time>2022-07-09T11:01:40Z</time>
      </trkpt>
      <trkpt lat="47.98506" lon="3.31394">
        <ele>107</ele>
        <time>2022-07-09T11:01:45Z</time>
      </trkpt>
      <trkpt lat="47.98507" lon="3.31395">
        <ele>106.80000305176</ele>
        <time>2022-07-09T11:01:46Z</time>
      </trkpt>
      <trkpt lat="47.98511" lon="3.31414">
        <ele>106.59999847412</ele>
        <time>2022-07-09T11:02:00Z</time>
      </trkpt>
      <trkpt lat="47.9851" lon="3.31428">
        <ele>106.59999847412</ele>
        <time>2022-07-09T11:02:08Z</time>
      </trkpt>
      <trkpt lat="47.98514" lon="3.31438">
        <ele>106.80000305176</ele>
        <time>2022-07-09T11:02:19Z</time>
      </trkpt>
      <trkpt lat="47.9852" lon="3.31455">
        <ele>106.40000152588</ele>
        <time>2022-07-09T11:02:33Z</time>
      </trkpt>
      <trkpt lat="47.98524" lon="3.31476">
        <ele>106</ele>
        <time>2022-07-09T11:02:45Z</time>
      </trkpt>
      <trkpt lat="47.98523" lon="3.31507">
        <ele>105.80000305176</ele>
        <time>2022-07-09T11:02:59Z</time>
      </trkpt>
      <trkpt lat="47.98526" lon="3.31529">
        <ele>106.19999694824</ele>
        <time>2022-07-09T11:03:13Z</time>
      </trkpt>
      <trkpt lat="47.98524" lon="3.31548">
        <ele>106</ele>
        <time>2022-07-09T11:03:24Z</time>
      </trkpt>
      <trkpt lat="47.98528" lon="3.31575">
        <ele>106.19999694824</ele>
        <time>2022-07-09T11:03:42Z</time>
      </trkpt>
      <trkpt lat="47.98528" lon="3.31582">
        <ele>106.19999694824</ele>
        <time>2022-07-09T11:03:48Z</time>
      </trkpt>
      <trkpt lat="47.98532" lon="3.31618">
        <ele>106.40000152588</ele>
        <time>2022-07-09T11:04:06Z</time>
      </trkpt>
      <trkpt lat="47.9853" lon="3.31639">
        <ele>106.40000152588</ele>
        <time>2022-07-09T11:04:17Z</time>
      </trkpt>
      <trkpt lat="47.98531" lon="3.31641">
        <ele>106</ele>
        <time>2022-07-09T11:04:19Z</time>
      </trkpt>
      <trkpt lat="47.98532" lon="3.31642">
        <ele>106</ele>
        <time>2022-07-09T11:04:20Z</time>
      </trkpt>
      <trkpt lat="47.98532" lon="3.31644">
        <ele>106</ele>
        <time>2022-07-09T11:04:21Z</time>
      </trkpt>
      <trkpt lat="47.98531" lon="3.31661">
        <ele>105.80000305176</ele>
        <time>2022-07-09T11:04:30Z</time>
      </trkpt>
      <trkpt lat="47.98528" lon="3.31682">
        <ele>106</ele>
        <time>2022-07-09T11:04:39Z</time>
      </trkpt>
      <trkpt lat="47.98526" lon="3.31701">
        <ele>106.19999694824</ele>
        <time>2022-07-09T11:04:51Z</time>
      </trkpt>
      <trkpt lat="47.98527" lon="3.31718">
        <ele>106.40000152588</ele>
        <time>2022-07-09T11:05:04Z</time>
      </trkpt>
      <trkpt lat="47.98527" lon="3.31731">
        <ele>106.59999847412</ele>
        <time>2022-07-09T11:05:11Z</time>
      </trkpt>
      <trkpt lat="47.98525" lon="3.31756">
        <ele>106.59999847412</ele>
        <time>2022-07-09T11:05:23Z</time>
      </trkpt>
      <trkpt lat="47.98525" lon="3.31763">
        <ele>106.59999847412</ele>
        <time>2022-07-09T11:05:26Z</time>
      </trkpt>
      <trkpt lat="47.98522" lon="3.31783">
        <ele>106.59999847412</ele>
        <time>2022-07-09T11:05:39Z</time>
      </trkpt>
      <trkpt lat="47.98521" lon="3.31799">
        <ele>106.59999847412</ele>
        <time>2022-07-09T11:05:50Z</time>
      </trkpt>
      <trkpt lat="47.9852" lon="3.3182">
        <ele>106.59999847412</ele>
        <time>2022-07-09T11:05:58Z</time>
      </trkpt>
      <trkpt lat="47.98519" lon="3.31829">
        <ele>106.59999847412</ele>
        <time>2022-07-09T11:06:02Z</time>
      </trkpt>
      <trkpt lat="47.98518" lon="3.31844">
        <ele>106.59999847412</ele>
        <time>2022-07-09T11:06:10Z</time>
      </trkpt>
      <trkpt lat="47.98518" lon="3.31867">
        <ele>106.80000305176</ele>
        <time>2022-07-09T11:06:21Z</time>
      </trkpt>
      <trkpt lat="47.98518" lon="3.31886">
        <ele>106.80000305176</ele>
        <time>2022-07-09T11:06:31Z</time>
      </trkpt>
      <trkpt lat="47.98519" lon="3.3191">
        <ele>106.80000305176</ele>
        <time>2022-07-09T11:06:45Z</time>
      </trkpt>
      <trkpt lat="47.9852" lon="3.31951">
        <ele>106.59999847412</ele>
        <time>2022-07-09T11:07:10Z</time>
      </trkpt>
      <trkpt lat="47.98522" lon="3.31963">
        <ele>106.59999847412</ele>
        <time>2022-07-09T11:07:18Z</time>
      </trkpt>
      <trkpt lat="47.98522" lon="3.31967">
        <ele>106.59999847412</ele>
        <time>2022-07-09T11:07:21Z</time>
      </trkpt>
      <trkpt lat="47.98525" lon="3.31996">
        <ele>106</ele>
        <time>2022-07-09T11:07:37Z</time>
      </trkpt>
      <trkpt lat="47.98528" lon="3.32009">
        <ele>106</ele>
        <time>2022-07-09T11:07:43Z</time>
      </trkpt>
      <trkpt lat="47.98532" lon="3.3203">
        <ele>106.19999694824</ele>
        <time>2022-07-09T11:07:54Z</time>
      </trkpt>
      <trkpt lat="47.98538" lon="3.32054">
        <ele>106.40000152588</ele>
        <time>2022-07-09T11:08:12Z</time>
      </trkpt>
      <trkpt lat="47.9854" lon="3.32087">
        <ele>106.59999847412</ele>
        <time>2022-07-09T11:08:31Z</time>
      </trkpt>
      <trkpt lat="47.98541" lon="3.32111">
        <ele>106.59999847412</ele>
        <time>2022-07-09T11:08:43Z</time>
      </trkpt>
      <trkpt lat="47.98544" lon="3.32131">
        <ele>106.19999694824</ele>
        <time>2022-07-09T11:08:54Z</time>
      </trkpt>
      <trkpt lat="47.98546" lon="3.3215">
        <ele>106.40000152588</ele>
        <time>2022-07-09T11:09:06Z</time>
      </trkpt>
      <trkpt lat="47.98549" lon="3.32162">
        <ele>106.40000152588</ele>
        <time>2022-07-09T11:09:15Z</time>
      </trkpt>
      <trkpt lat="47.98558" lon="3.32178">
        <ele>106.59999847412</ele>
        <time>2022-07-09T11:09:26Z</time>
      </trkpt>
      <trkpt lat="47.9856" lon="3.32197">
        <ele>106.19999694824</ele>
        <time>2022-07-09T11:09:36Z</time>
      </trkpt>
      <trkpt lat="47.98563" lon="3.32214">
        <ele>106.19999694824</ele>
        <time>2022-07-09T11:09:45Z</time>
      </trkpt>
      <trkpt lat="47.98565" lon="3.32236">
        <ele>106.40000152588</ele>
        <time>2022-07-09T11:09:55Z</time>
      </trkpt>
      <trkpt lat="47.98568" lon="3.32246">
        <ele>106.19999694824</ele>
        <time>2022-07-09T11:10:01Z</time>
      </trkpt>
      <trkpt lat="47.98572" lon="3.32248">
        <ele>106.19999694824</ele>
        <time>2022-07-09T11:10:03Z</time>
      </trkpt>
      <trkpt lat="47.98579" lon="3.32256">
        <ele>105.59999847412</ele>
        <time>2022-07-09T11:10:11Z</time>
      </trkpt>
      <trkpt lat="47.98584" lon="3.32276">
        <ele>105.59999847412</ele>
        <time>2022-07-09T11:10:22Z</time>
      </trkpt>
      <trkpt lat="47.9859" lon="3.32297">
        <ele>105.40000152588</ele>
        <time>2022-07-09T11:10:33Z</time>
      </trkpt>
      <trkpt lat="47.98595" lon="3.3231">
        <ele>105.40000152588</ele>
        <time>2022-07-09T11:10:42Z</time>
      </trkpt>
      <trkpt lat="47.986" lon="3.32329">
        <ele>105.40000152588</ele>
        <time>2022-07-09T11:10:55Z</time>
      </trkpt>
      <trkpt lat="47.98606" lon="3.32348">
        <ele>105.19999694824</ele>
        <time>2022-07-09T11:11:05Z</time>
      </trkpt>
      <trkpt lat="47.9861" lon="3.32361">
        <ele>105.19999694824</ele>
        <time>2022-07-09T11:11:13Z</time>
      </trkpt>
      <trkpt lat="47.98612" lon="3.32373">
        <ele>105.19999694824</ele>
        <time>2022-07-09T11:11:20Z</time>
      </trkpt>
      <trkpt lat="47.98617" lon="3.32394">
        <ele>105</ele>
        <time>2022-07-09T11:11:31Z</time>
      </trkpt>
      <trkpt lat="47.98621" lon="3.32411">
        <ele>104.59999847412</ele>
        <time>2022-07-09T11:11:39Z</time>
      </trkpt>
      <trkpt lat="47.98625" lon="3.32426">
        <ele>104.40000152588</ele>
        <time>2022-07-09T11:11:48Z</time>
      </trkpt>
      <trkpt lat="47.98628" lon="3.3244">
        <ele>104.40000152588</ele>
        <time>2022-07-09T11:11:56Z</time>
      </trkpt>
      <trkpt lat="47.98633" lon="3.3246">
        <ele>104.80000305176</ele>
        <time>2022-07-09T11:12:06Z</time>
      </trkpt>
      <trkpt lat="47.98634" lon="3.32462">
        <ele>104.80000305176</ele>
        <time>2022-07-09T11:12:07Z</time>
      </trkpt>
      <trkpt lat="47.98637" lon="3.3248">
        <ele>104.40000152588</ele>
        <time>2022-07-09T11:12:18Z</time>
      </trkpt>
      <trkpt lat="47.98642" lon="3.32502">
        <ele>104</ele>
        <time>2022-07-09T11:12:29Z</time>
      </trkpt>
      <trkpt lat="47.98647" lon="3.32519">
        <ele>104.19999694824</ele>
        <time>2022-07-09T11:12:38Z</time>
      </trkpt>
      <trkpt lat="47.98652" lon="3.32532">
        <ele>104</ele>
        <time>2022-07-09T11:12:47Z</time>
      </trkpt>
      <trkpt lat="47.98657" lon="3.32545">
        <ele>104.19999694824</ele>
        <time>2022-07-09T11:12:56Z</time>
      </trkpt>
      <trkpt lat="47.98661" lon="3.32565">
        <ele>104</ele>
        <time>2022-07-09T11:13:06Z</time>
      </trkpt>
      <trkpt lat="47.98665" lon="3.32581">
        <ele>104.19999694824</ele>
        <time>2022-07-09T11:13:17Z</time>
      </trkpt>
      <trkpt lat="47.98671" lon="3.32603">
        <ele>104.19999694824</ele>
        <time>2022-07-09T11:13:28Z</time>
      </trkpt>
      <trkpt lat="47.98675" lon="3.32622">
        <ele>104.19999694824</ele>
        <time>2022-07-09T11:13:37Z</time>
      </trkpt>
      <trkpt lat="47.98675" lon="3.32623">
        <ele>104.19999694824</ele>
        <time>2022-07-09T11:13:38Z</time>
      </trkpt>
      <trkpt lat="47.98675" lon="3.32626">
        <ele>104.19999694824</ele>
        <time>2022-07-09T11:13:39Z</time>
      </trkpt>
      <trkpt lat="47.98669" lon="3.32636">
        <ele>103.80000305176</ele>
        <time>2022-07-09T11:13:47Z</time>
      </trkpt>
      <trkpt lat="47.98654" lon="3.32652">
        <ele>103.80000305176</ele>
        <time>2022-07-09T11:14:00Z</time>
      </trkpt>
      <trkpt lat="47.98629" lon="3.32667">
        <ele>104</ele>
        <time>2022-07-09T11:14:24Z</time>
      </trkpt>
      <trkpt lat="47.98611" lon="3.32695">
        <ele>104.40000152588</ele>
        <time>2022-07-09T11:14:46Z</time>
      </trkpt>
      <trkpt lat="47.9859" lon="3.32711">
        <ele>104.59999847412</ele>
        <time>2022-07-09T11:15:03Z</time>
      </trkpt>
      <trkpt lat="47.98535" lon="3.32746">
        <ele>107.19999694824</ele>
        <time>2022-07-09T11:15:51Z</time>
      </trkpt>
      <trkpt lat="47.98529" lon="3.32753">
        <ele>107.80000305176</ele>
        <time>2022-07-09T11:16:00Z</time>
      </trkpt>
      <trkpt lat="47.98528" lon="3.32755">
        <ele>108</ele>
        <time>2022-07-09T11:16:02Z</time>
      </trkpt>
      <trkpt lat="47.98528" lon="3.32757">
        <ele>108</ele>
        <time>2022-07-09T11:16:03Z</time>
      </trkpt>
      <trkpt lat="47.98525" lon="3.32771">
        <ele>107.59999847412</ele>
        <time>2022-07-09T11:16:13Z</time>
      </trkpt>
      <trkpt lat="47.98523" lon="3.32802">
        <ele>107.40000152588</ele>
        <time>2022-07-09T11:16:30Z</time>
      </trkpt>
      <trkpt lat="47.98513" lon="3.32838">
        <ele>108</ele>
        <time>2022-07-09T11:16:50Z</time>
      </trkpt>
      <trkpt lat="47.98502" lon="3.32867">
        <ele>107.80000305176</ele>
        <time>2022-07-09T11:17:06Z</time>
      </trkpt>
      <trkpt lat="47.98494" lon="3.32884">
        <ele>108</ele>
        <time>2022-07-09T11:17:16Z</time>
      </trkpt>
      <trkpt lat="47.98488" lon="3.32896">
        <ele>108.19999694824</ele>
        <time>2022-07-09T11:17:25Z</time>
      </trkpt>
      <trkpt lat="47.98487" lon="3.32897">
        <ele>108.19999694824</ele>
        <time>2022-07-09T11:17:26Z</time>
      </trkpt>
      <trkpt lat="47.98486" lon="3.32899">
        <ele>108.19999694824</ele>
        <time>2022-07-09T11:17:27Z</time>
      </trkpt>
      <trkpt lat="47.98475" lon="3.32916">
        <ele>108.59999847412</ele>
        <time>2022-07-09T11:17:40Z</time>
      </trkpt>
      <trkpt lat="47.98463" lon="3.32931">
        <ele>108.19999694824</ele>
        <time>2022-07-09T11:17:51Z</time>
      </trkpt>
      <trkpt lat="47.98457" lon="3.32945">
        <ele>108.19999694824</ele>
        <time>2022-07-09T11:18:01Z</time>
      </trkpt>
      <trkpt lat="47.98446" lon="3.32953">
        <ele>108.40000152588</ele>
        <time>2022-07-09T11:18:11Z</time>
      </trkpt>
      <trkpt lat="47.98437" lon="3.3296">
        <ele>108.40000152588</ele>
        <time>2022-07-09T11:18:22Z</time>
      </trkpt>
      <trkpt lat="47.98425" lon="3.3297">
        <ele>108.59999847412</ele>
        <time>2022-07-09T11:18:34Z</time>
      </trkpt>
      <trkpt lat="47.98414" lon="3.32977">
        <ele>108.40000152588</ele>
        <time>2022-07-09T11:18:42Z</time>
      </trkpt>
      <trkpt lat="47.98395" lon="3.32986">
        <ele>108.80000305176</ele>
        <time>2022-07-09T11:18:57Z</time>
      </trkpt>
      <trkpt lat="47.98383" lon="3.32989">
        <ele>108.59999847412</ele>
        <time>2022-07-09T11:19:06Z</time>
      </trkpt>
      <trkpt lat="47.98375" lon="3.32993">
        <ele>108.59999847412</ele>
        <time>2022-07-09T11:19:12Z</time>
      </trkpt>
      <trkpt lat="47.98374" lon="3.32994">
        <ele>108.59999847412</ele>
        <time>2022-07-09T11:19:13Z</time>
      </trkpt>
      <trkpt lat="47.98375" lon="3.33009">
        <ele>108.59999847412</ele>
        <time>2022-07-09T11:19:24Z</time>
      </trkpt>
      <trkpt lat="47.98382" lon="3.33035">
        <ele>107.80000305176</ele>
        <time>2022-07-09T11:19:38Z</time>
      </trkpt>
      <trkpt lat="47.98387" lon="3.33051">
        <ele>107.80000305176</ele>
        <time>2022-07-09T11:19:47Z</time>
      </trkpt>
      <trkpt lat="47.98388" lon="3.33052">
        <ele>107.80000305176</ele>
        <time>2022-07-09T11:19:48Z</time>
      </trkpt>
      <trkpt lat="47.98389" lon="3.33053">
        <ele>107.59999847412</ele>
        <time>2022-07-09T11:19:49Z</time>
      </trkpt>
      <trkpt lat="47.98396" lon="3.33068">
        <ele>106.59999847412</ele>
        <time>2022-07-09T11:20:00Z</time>
      </trkpt>
      <trkpt lat="47.98403" lon="3.33074">
        <ele>106</ele>
        <time>2022-07-09T11:20:07Z</time>
      </trkpt>
      <trkpt lat="47.98404" lon="3.33076">
        <ele>106</ele>
        <time>2022-07-09T11:20:08Z</time>
      </trkpt>
      <trkpt lat="47.98409" lon="3.33084">
        <ele>105.59999847412</ele>
        <time>2022-07-09T11:20:13Z</time>
      </trkpt>
      <trkpt lat="47.98418" lon="3.33099">
        <ele>104.80000305176</ele>
        <time>2022-07-09T11:20:23Z</time>
      </trkpt>
      <trkpt lat="47.98419" lon="3.331">
        <ele>104.59999847412</ele>
        <time>2022-07-09T11:20:24Z</time>
      </trkpt>
      <trkpt lat="47.9842" lon="3.33101">
        <ele>104.59999847412</ele>
        <time>2022-07-09T11:20:25Z</time>
      </trkpt>
      <trkpt lat="47.98421" lon="3.33102">
        <ele>104.59999847412</ele>
        <time>2022-07-09T11:20:26Z</time>
      </trkpt>
      <trkpt lat="47.98422" lon="3.33103">
        <ele>104.59999847412</ele>
        <time>2022-07-09T11:20:27Z</time>
      </trkpt>
      <trkpt lat="47.98434" lon="3.33117">
        <ele>104.19999694824</ele>
        <time>2022-07-09T11:20:38Z</time>
      </trkpt>
      <trkpt lat="47.98442" lon="3.33125">
        <ele>104</ele>
        <time>2022-07-09T11:20:45Z</time>
      </trkpt>
      <trkpt lat="47.98453" lon="3.33131">
        <ele>104</ele>
        <time>2022-07-09T11:20:53Z</time>
      </trkpt>
      <trkpt lat="47.98464" lon="3.33139">
        <ele>104</ele>
        <time>2022-07-09T11:21:04Z</time>
      </trkpt>
      <trkpt lat="47.98473" lon="3.33144">
        <ele>104.40000152588</ele>
        <time>2022-07-09T11:21:12Z</time>
      </trkpt>
      <trkpt lat="47.98478" lon="3.33147">
        <ele>105</ele>
        <time>2022-07-09T11:21:17Z</time>
      </trkpt>
      <trkpt lat="47.9848" lon="3.33149">
        <ele>105.40000152588</ele>
        <time>2022-07-09T11:21:19Z</time>
      </trkpt>
      <trkpt lat="47.98489" lon="3.33154">
        <ele>104.59999847412</ele>
        <time>2022-07-09T11:21:30Z</time>
      </trkpt>
      <trkpt lat="47.98491" lon="3.33154">
        <ele>104.40000152588</ele>
        <time>2022-07-09T11:21:31Z</time>
      </trkpt>
      <trkpt lat="47.98495" lon="3.33157">
        <ele>104.19999694824</ele>
        <time>2022-07-09T11:21:35Z</time>
      </trkpt>
      <trkpt lat="47.98497" lon="3.33158">
        <ele>104.19999694824</ele>
        <time>2022-07-09T11:21:36Z</time>
      </trkpt>
      <trkpt lat="47.98505" lon="3.33166">
        <ele>104</ele>
        <time>2022-07-09T11:21:45Z</time>
      </trkpt>
      <trkpt lat="47.98514" lon="3.33178">
        <ele>103.80000305176</ele>
        <time>2022-07-09T11:21:56Z</time>
      </trkpt>
      <trkpt lat="47.98521" lon="3.33185">
        <ele>102.59999847412</ele>
        <time>2022-07-09T11:22:06Z</time>
      </trkpt>
      <trkpt lat="47.98526" lon="3.33169">
        <ele>103.59999847412</ele>
        <time>2022-07-09T11:22:34Z</time>
      </trkpt>
      <trkpt lat="47.98538" lon="3.33219">
        <ele>103.59999847412</ele>
        <time>2022-07-09T11:23:28Z</time>
      </trkpt>
      <trkpt lat="47.98549" lon="3.33234">
        <ele>104.19999694824</ele>
        <time>2022-07-09T11:23:41Z</time>
      </trkpt>
      <trkpt lat="47.98551" lon="3.33233">
        <ele>104.40000152588</ele>
        <time>2022-07-09T11:23:42Z</time>
      </trkpt>
      <trkpt lat="47.98561" lon="3.33241">
        <ele>105</ele>
        <time>2022-07-09T11:23:53Z</time>
      </trkpt>
      <trkpt lat="47.98563" lon="3.33245">
        <ele>105</ele>
        <time>2022-07-09T11:23:55Z</time>
      </trkpt>
      <trkpt lat="47.98564" lon="3.33246">
        <ele>105.19999694824</ele>
        <time>2022-07-09T11:23:56Z</time>
      </trkpt>
      <trkpt lat="47.98565" lon="3.33247">
        <ele>105.19999694824</ele>
        <time>2022-07-09T11:23:57Z</time>
      </trkpt>
      <trkpt lat="47.98566" lon="3.33247">
        <ele>105.19999694824</ele>
        <time>2022-07-09T11:23:58Z</time>
      </trkpt>
      <trkpt lat="47.98568" lon="3.33248">
        <ele>105.19999694824</ele>
        <time>2022-07-09T11:23:59Z</time>
      </trkpt>
      <trkpt lat="47.98571" lon="3.33253">
        <ele>105.40000152588</ele>
        <time>2022-07-09T11:24:04Z</time>
      </trkpt>
      <trkpt lat="47.98571" lon="3.33255">
        <ele>105.40000152588</ele>
        <time>2022-07-09T11:24:05Z</time>
      </trkpt>
      <trkpt lat="47.98577" lon="3.33267">
        <ele>106</ele>
        <time>2022-07-09T11:24:17Z</time>
      </trkpt>
      <trkpt lat="47.98586" lon="3.33282">
        <ele>107</ele>
        <time>2022-07-09T11:24:31Z</time>
      </trkpt>
      <trkpt lat="47.98595" lon="3.33295">
        <ele>106.19999694824</ele>
        <time>2022-07-09T11:24:41Z</time>
      </trkpt>
      <trkpt lat="47.98598" lon="3.33299">
        <ele>105.80000305176</ele>
        <time>2022-07-09T11:24:44Z</time>
      </trkpt>
      <trkpt lat="47.98607" lon="3.33305">
        <ele>105.59999847412</ele>
        <time>2022-07-09T11:24:52Z</time>
      </trkpt>
      <trkpt lat="47.98611" lon="3.3331">
        <ele>105.40000152588</ele>
        <time>2022-07-09T11:24:56Z</time>
      </trkpt>
      <trkpt lat="47.98616" lon="3.3332">
        <ele>105.19999694824</ele>
        <time>2022-07-09T11:25:02Z</time>
      </trkpt>
      <trkpt lat="47.98627" lon="3.33341">
        <ele>104.40000152588</ele>
        <time>2022-07-09T11:25:16Z</time>
      </trkpt>
      <trkpt lat="47.98629" lon="3.33346">
        <ele>104.40000152588</ele>
        <time>2022-07-09T11:25:19Z</time>
      </trkpt>
      <trkpt lat="47.9863" lon="3.33349">
        <ele>104.40000152588</ele>
        <time>2022-07-09T11:25:21Z</time>
      </trkpt>
      <trkpt lat="47.98634" lon="3.33357">
        <ele>104</ele>
        <time>2022-07-09T11:25:27Z</time>
      </trkpt>
      <trkpt lat="47.98636" lon="3.3336">
        <ele>104</ele>
        <time>2022-07-09T11:25:29Z</time>
      </trkpt>
      <trkpt lat="47.98638" lon="3.33363">
        <ele>104</ele>
        <time>2022-07-09T11:25:32Z</time>
      </trkpt>
      <trkpt lat="47.98646" lon="3.33375">
        <ele>103.80000305176</ele>
        <time>2022-07-09T11:25:42Z</time>
      </trkpt>
      <trkpt lat="47.98663" lon="3.33399">
        <ele>103.80000305176</ele>
        <time>2022-07-09T11:25:58Z</time>
      </trkpt>
      <trkpt lat="47.98675" lon="3.33416">
        <ele>104</ele>
        <time>2022-07-09T11:26:11Z</time>
      </trkpt>
      <trkpt lat="47.98675" lon="3.33419">
        <ele>104</ele>
        <time>2022-07-09T11:26:13Z</time>
      </trkpt>
      <trkpt lat="47.98676" lon="3.3342">
        <ele>104.19999694824</ele>
        <time>2022-07-09T11:26:14Z</time>
      </trkpt>
      <trkpt lat="47.98677" lon="3.33421">
        <ele>104.19999694824</ele>
        <time>2022-07-09T11:26:15Z</time>
      </trkpt>
      <trkpt lat="47.98678" lon="3.33423">
        <ele>104.40000152588</ele>
        <time>2022-07-09T11:26:16Z</time>
      </trkpt>
      <trkpt lat="47.98681" lon="3.33427">
        <ele>104.40000152588</ele>
        <time>2022-07-09T11:26:20Z</time>
      </trkpt>
      <trkpt lat="47.98681" lon="3.33428">
        <ele>104.40000152588</ele>
        <time>2022-07-09T11:26:21Z</time>
      </trkpt>
      <trkpt lat="47.98685" lon="3.33435">
        <ele>104.40000152588</ele>
        <time>2022-07-09T11:26:26Z</time>
      </trkpt>
      <trkpt lat="47.9869" lon="3.33447">
        <ele>104.59999847412</ele>
        <time>2022-07-09T11:26:35Z</time>
      </trkpt>
      <trkpt lat="47.98694" lon="3.33453">
        <ele>104.80000305176</ele>
        <time>2022-07-09T11:26:40Z</time>
      </trkpt>
      <trkpt lat="47.98698" lon="3.33455">
        <ele>105</ele>
        <time>2022-07-09T11:26:43Z</time>
      </trkpt>
      <trkpt lat="47.98699" lon="3.33458">
        <ele>105</ele>
        <time>2022-07-09T11:26:45Z</time>
      </trkpt>
      <trkpt lat="47.98701" lon="3.3346">
        <ele>105</ele>
        <time>2022-07-09T11:26:47Z</time>
      </trkpt>
      <trkpt lat="47.98715" lon="3.33473">
        <ele>105.59999847412</ele>
        <time>2022-07-09T11:27:01Z</time>
      </trkpt>
      <trkpt lat="47.98715" lon="3.33474">
        <ele>105.80000305176</ele>
        <time>2022-07-09T11:27:02Z</time>
      </trkpt>
      <trkpt lat="47.98718" lon="3.33486">
        <ele>106</ele>
        <time>2022-07-09T11:27:08Z</time>
      </trkpt>
      <trkpt lat="47.98721" lon="3.33491">
        <ele>106</ele>
        <time>2022-07-09T11:27:11Z</time>
      </trkpt>
      <trkpt lat="47.98734" lon="3.33508">
        <ele>106.59999847412</ele>
        <time>2022-07-09T11:27:22Z</time>
      </trkpt>
      <trkpt lat="47.98738" lon="3.33512">
        <ele>106.80000305176</ele>
        <time>2022-07-09T11:27:25Z</time>
      </trkpt>
      <trkpt lat="47.9875" lon="3.33533">
        <ele>107.19999694824</ele>
        <time>2022-07-09T11:27:40Z</time>
      </trkpt>
      <trkpt lat="47.98751" lon="3.33535">
        <ele>107.40000152588</ele>
        <time>2022-07-09T11:27:41Z</time>
      </trkpt>
      <trkpt lat="47.98751" lon="3.33537">
        <ele>107.40000152588</ele>
        <time>2022-07-09T11:27:42Z</time>
      </trkpt>
      <trkpt lat="47.98757" lon="3.33547">
        <ele>107.59999847412</ele>
        <time>2022-07-09T11:27:49Z</time>
      </trkpt>
      <trkpt lat="47.9876" lon="3.33553">
        <ele>108</ele>
        <time>2022-07-09T11:27:53Z</time>
      </trkpt>
      <trkpt lat="47.98767" lon="3.33567">
        <ele>108.40000152588</ele>
        <time>2022-07-09T11:28:04Z</time>
      </trkpt>
      <trkpt lat="47.98775" lon="3.33586">
        <ele>109.40000152588</ele>
        <time>2022-07-09T11:28:17Z</time>
      </trkpt>
      <trkpt lat="47.98779" lon="3.33605">
        <ele>109.59999847412</ele>
        <time>2022-07-09T11:28:29Z</time>
      </trkpt>
      <trkpt lat="47.98784" lon="3.33612">
        <ele>109.40000152588</ele>
        <time>2022-07-09T11:28:38Z</time>
      </trkpt>
      <trkpt lat="47.98784" lon="3.33613">
        <ele>109.40000152588</ele>
        <time>2022-07-09T11:28:39Z</time>
      </trkpt>
      <trkpt lat="47.9879" lon="3.33628">
        <ele>109.19999694824</ele>
        <time>2022-07-09T11:28:48Z</time>
      </trkpt>
      <trkpt lat="47.98793" lon="3.33637">
        <ele>108.80000305176</ele>
        <time>2022-07-09T11:28:59Z</time>
      </trkpt>
      <trkpt lat="47.98798" lon="3.33641">
        <ele>109</ele>
        <time>2022-07-09T11:29:09Z</time>
      </trkpt>
      <trkpt lat="47.98808" lon="3.33651">
        <ele>108.19999694824</ele>
        <time>2022-07-09T11:29:19Z</time>
      </trkpt>
      <trkpt lat="47.98816" lon="3.33656">
        <ele>107.80000305176</ele>
        <time>2022-07-09T11:29:28Z</time>
      </trkpt>
      <trkpt lat="47.98824" lon="3.33655">
        <ele>107.40000152588</ele>
        <time>2022-07-09T11:29:34Z</time>
      </trkpt>
      <trkpt lat="47.98825" lon="3.33655">
        <ele>107.40000152588</ele>
        <time>2022-07-09T11:29:35Z</time>
      </trkpt>
      <trkpt lat="47.98834" lon="3.33651">
        <ele>106.80000305176</ele>
        <time>2022-07-09T11:29:44Z</time>
      </trkpt>
      <trkpt lat="47.98837" lon="3.3365">
        <ele>106.59999847412</ele>
        <time>2022-07-09T11:29:46Z</time>
      </trkpt>
      <trkpt lat="47.98838" lon="3.33648">
        <ele>106.59999847412</ele>
        <time>2022-07-09T11:29:47Z</time>
      </trkpt>
      <trkpt lat="47.9884" lon="3.33647">
        <ele>106.59999847412</ele>
        <time>2022-07-09T11:29:48Z</time>
      </trkpt>
      <trkpt lat="47.98842" lon="3.33645">
        <ele>106.59999847412</ele>
        <time>2022-07-09T11:29:49Z</time>
      </trkpt>
      <trkpt lat="47.98849" lon="3.33641">
        <ele>105.80000305176</ele>
        <time>2022-07-09T11:29:57Z</time>
      </trkpt>
      <trkpt lat="47.98852" lon="3.33639">
        <ele>105.80000305176</ele>
        <time>2022-07-09T11:29:59Z</time>
      </trkpt>
      <trkpt lat="47.98864" lon="3.33634">
        <ele>104.80000305176</ele>
        <time>2022-07-09T11:30:08Z</time>
      </trkpt>
      <trkpt lat="47.98877" lon="3.33631">
        <ele>104.59999847412</ele>
        <time>2022-07-09T11:30:16Z</time>
      </trkpt>
      <trkpt lat="47.98882" lon="3.33631">
        <ele>104.40000152588</ele>
        <time>2022-07-09T11:30:19Z</time>
      </trkpt>
      <trkpt lat="47.98883" lon="3.33632">
        <ele>104.40000152588</ele>
        <time>2022-07-09T11:30:20Z</time>
      </trkpt>
      <trkpt lat="47.98889" lon="3.33631">
        <ele>104.40000152588</ele>
        <time>2022-07-09T11:30:24Z</time>
      </trkpt>
      <trkpt lat="47.9889" lon="3.33631">
        <ele>104.19999694824</ele>
        <time>2022-07-09T11:30:25Z</time>
      </trkpt>
      <trkpt lat="47.98894" lon="3.33632">
        <ele>103.80000305176</ele>
        <time>2022-07-09T11:30:28Z</time>
      </trkpt>
      <trkpt lat="47.98896" lon="3.33632">
        <ele>103.80000305176</ele>
        <time>2022-07-09T11:30:29Z</time>
      </trkpt>
      <trkpt lat="47.98898" lon="3.33633">
        <ele>103.59999847412</ele>
        <time>2022-07-09T11:30:31Z</time>
      </trkpt>
      <trkpt lat="47.98908" lon="3.33639">
        <ele>103.19999694824</ele>
        <time>2022-07-09T11:30:41Z</time>
      </trkpt>
      <trkpt lat="47.98919" lon="3.33656">
        <ele>102.19999694824</ele>
        <time>2022-07-09T11:31:01Z</time>
      </trkpt>
      <trkpt lat="47.98927" lon="3.33674">
        <ele>101.80000305176</ele>
        <time>2022-07-09T11:31:14Z</time>
      </trkpt>
      <trkpt lat="47.98933" lon="3.33683">
        <ele>101.40000152588</ele>
        <time>2022-07-09T11:31:27Z</time>
      </trkpt>
      <trkpt lat="47.98936" lon="3.3369">
        <ele>101.40000152588</ele>
        <time>2022-07-09T11:31:38Z</time>
      </trkpt>
      <trkpt lat="47.98942" lon="3.33703">
        <ele>101.40000152588</ele>
        <time>2022-07-09T11:31:48Z</time>
      </trkpt>
      <trkpt lat="47.98945" lon="3.33711">
        <ele>101</ele>
        <time>2022-07-09T11:31:54Z</time>
      </trkpt>
      <trkpt lat="47.9895" lon="3.33721">
        <ele>101</ele>
        <time>2022-07-09T11:32:01Z</time>
      </trkpt>
      <trkpt lat="47.98956" lon="3.33728">
        <ele>100.80000305176</ele>
        <time>2022-07-09T11:32:09Z</time>
      </trkpt>
      <trkpt lat="47.98961" lon="3.3374">
        <ele>100.80000305176</ele>
        <time>2022-07-09T11:32:16Z</time>
      </trkpt>
      <trkpt lat="47.98967" lon="3.33757">
        <ele>100.80000305176</ele>
        <time>2022-07-09T11:32:24Z</time>
      </trkpt>
      <trkpt lat="47.98974" lon="3.33771">
        <ele>100.80000305176</ele>
        <time>2022-07-09T11:32:33Z</time>
      </trkpt>
      <trkpt lat="47.98975" lon="3.33774">
        <ele>100.80000305176</ele>
        <time>2022-07-09T11:32:34Z</time>
      </trkpt>
      <trkpt lat="47.98976" lon="3.33775">
        <ele>100.59999847412</ele>
        <time>2022-07-09T11:32:35Z</time>
      </trkpt>
      <trkpt lat="47.98977" lon="3.33777">
        <ele>100.59999847412</ele>
        <time>2022-07-09T11:32:36Z</time>
      </trkpt>
      <trkpt lat="47.98978" lon="3.33778">
        <ele>100.59999847412</ele>
        <time>2022-07-09T11:32:37Z</time>
      </trkpt>
      <trkpt lat="47.98982" lon="3.33783">
        <ele>100.59999847412</ele>
        <time>2022-07-09T11:32:40Z</time>
      </trkpt>
      <trkpt lat="47.98989" lon="3.33798">
        <ele>100.80000305176</ele>
        <time>2022-07-09T11:32:49Z</time>
      </trkpt>
      <trkpt lat="47.98993" lon="3.33805">
        <ele>100.80000305176</ele>
        <time>2022-07-09T11:32:53Z</time>
      </trkpt>
      <trkpt lat="47.98994" lon="3.33806">
        <ele>100.80000305176</ele>
        <time>2022-07-09T11:32:54Z</time>
      </trkpt>
      <trkpt lat="47.98995" lon="3.33807">
        <ele>101</ele>
        <time>2022-07-09T11:32:55Z</time>
      </trkpt>
      <trkpt lat="47.98996" lon="3.33808">
        <ele>101</ele>
        <time>2022-07-09T11:32:56Z</time>
      </trkpt>
      <trkpt lat="47.98997" lon="3.33809">
        <ele>100.80000305176</ele>
        <time>2022-07-09T11:32:57Z</time>
      </trkpt>
      <trkpt lat="47.99004" lon="3.33819">
        <ele>100.80000305176</ele>
        <time>2022-07-09T11:33:04Z</time>
      </trkpt>
      <trkpt lat="47.99006" lon="3.33821">
        <ele>100.80000305176</ele>
        <time>2022-07-09T11:33:05Z</time>
      </trkpt>
      <trkpt lat="47.99009" lon="3.33824">
        <ele>100.80000305176</ele>
        <time>2022-07-09T11:33:07Z</time>
      </trkpt>
      <trkpt lat="47.99017" lon="3.33835">
        <ele>101.19999694824</ele>
        <time>2022-07-09T11:33:18Z</time>
      </trkpt>
      <trkpt lat="47.99023" lon="3.33847">
        <ele>101.19999694824</ele>
        <time>2022-07-09T11:33:26Z</time>
      </trkpt>
      <trkpt lat="47.99024" lon="3.33848">
        <ele>101.40000152588</ele>
        <time>2022-07-09T11:33:27Z</time>
      </trkpt>
      <trkpt lat="47.99024" lon="3.3385">
        <ele>101.40000152588</ele>
        <time>2022-07-09T11:33:28Z</time>
      </trkpt>
      <trkpt lat="47.99025" lon="3.33852">
        <ele>101.40000152588</ele>
        <time>2022-07-09T11:33:29Z</time>
      </trkpt>
      <trkpt lat="47.99033" lon="3.33861">
        <ele>101.40000152588</ele>
        <time>2022-07-09T11:33:39Z</time>
      </trkpt>
      <trkpt lat="47.99039" lon="3.33869">
        <ele>101.40000152588</ele>
        <time>2022-07-09T11:33:45Z</time>
      </trkpt>
      <trkpt lat="47.99043" lon="3.33875">
        <ele>101.40000152588</ele>
        <time>2022-07-09T11:33:49Z</time>
      </trkpt>
      <trkpt lat="47.99045" lon="3.3388">
        <ele>101.40000152588</ele>
        <time>2022-07-09T11:33:52Z</time>
      </trkpt>
      <trkpt lat="47.99051" lon="3.33897">
        <ele>101.80000305176</ele>
        <time>2022-07-09T11:34:03Z</time>
      </trkpt>
      <trkpt lat="47.99053" lon="3.339">
        <ele>102</ele>
        <time>2022-07-09T11:34:05Z</time>
      </trkpt>
      <trkpt lat="47.99054" lon="3.33902">
        <ele>102</ele>
        <time>2022-07-09T11:34:06Z</time>
      </trkpt>
      <trkpt lat="47.99059" lon="3.33907">
        <ele>102</ele>
        <time>2022-07-09T11:34:11Z</time>
      </trkpt>
      <trkpt lat="47.99062" lon="3.33909">
        <ele>102.19999694824</ele>
        <time>2022-07-09T11:34:16Z</time>
      </trkpt>
      <trkpt lat="47.99067" lon="3.3392">
        <ele>102.40000152588</ele>
        <time>2022-07-09T11:34:35Z</time>
      </trkpt>
      <trkpt lat="47.99072" lon="3.33929">
        <ele>102.40000152588</ele>
        <time>2022-07-09T11:34:52Z</time>
      </trkpt>
      <trkpt lat="47.99062" lon="3.33929">
        <ele>102.40000152588</ele>
        <time>2022-07-09T11:35:13Z</time>
      </trkpt>
      <trkpt lat="47.99051" lon="3.33932">
        <ele>102.40000152588</ele>
        <time>2022-07-09T11:35:28Z</time>
      </trkpt>
      <trkpt lat="47.99049" lon="3.3394">
        <ele>102</ele>
        <time>2022-07-09T11:35:33Z</time>
      </trkpt>
      <trkpt lat="47.99047" lon="3.33944">
        <ele>101.80000305176</ele>
        <time>2022-07-09T11:35:36Z</time>
      </trkpt>
      <trkpt lat="47.99044" lon="3.33954">
        <ele>101.80000305176</ele>
        <time>2022-07-09T11:35:43Z</time>
      </trkpt>
      <trkpt lat="47.99041" lon="3.33973">
        <ele>101.40000152588</ele>
        <time>2022-07-09T11:35:55Z</time>
      </trkpt>
      <trkpt lat="47.99039" lon="3.33983">
        <ele>101.40000152588</ele>
        <time>2022-07-09T11:36:01Z</time>
      </trkpt>
      <trkpt lat="47.99039" lon="3.33986">
        <ele>101.40000152588</ele>
        <time>2022-07-09T11:36:03Z</time>
      </trkpt>
      <trkpt lat="47.99036" lon="3.34005">
        <ele>101.40000152588</ele>
        <time>2022-07-09T11:36:14Z</time>
      </trkpt>
      <trkpt lat="47.99033" lon="3.34023">
        <ele>101.40000152588</ele>
        <time>2022-07-09T11:36:24Z</time>
      </trkpt>
      <trkpt lat="47.99029" lon="3.34037">
        <ele>101.19999694824</ele>
        <time>2022-07-09T11:36:32Z</time>
      </trkpt>
      <trkpt lat="47.99029" lon="3.34039">
        <ele>101.19999694824</ele>
        <time>2022-07-09T11:36:33Z</time>
      </trkpt>
      <trkpt lat="47.99031" lon="3.34054">
        <ele>101</ele>
        <time>2022-07-09T11:36:40Z</time>
      </trkpt>
      <trkpt lat="47.9903" lon="3.3407">
        <ele>101</ele>
        <time>2022-07-09T11:36:49Z</time>
      </trkpt>
      <trkpt lat="47.99032" lon="3.3408">
        <ele>101</ele>
        <time>2022-07-09T11:36:54Z</time>
      </trkpt>
      <trkpt lat="47.99038" lon="3.34087">
        <ele>101</ele>
        <time>2022-07-09T11:37:01Z</time>
      </trkpt>
      <trkpt lat="47.99041" lon="3.34091">
        <ele>101</ele>
        <time>2022-07-09T11:37:05Z</time>
      </trkpt>
      <trkpt lat="47.99043" lon="3.34093">
        <ele>101</ele>
        <time>2022-07-09T11:37:07Z</time>
      </trkpt>
      <trkpt lat="47.99046" lon="3.34094">
        <ele>101</ele>
        <time>2022-07-09T11:37:09Z</time>
      </trkpt>
      <trkpt lat="47.99048" lon="3.34094">
        <ele>101</ele>
        <time>2022-07-09T11:37:10Z</time>
      </trkpt>
      <trkpt lat="47.99059" lon="3.34101">
        <ele>100.80000305176</ele>
        <time>2022-07-09T11:37:21Z</time>
      </trkpt>
      <trkpt lat="47.99064" lon="3.34113">
        <ele>100.80000305176</ele>
        <time>2022-07-09T11:37:29Z</time>
      </trkpt>
      <trkpt lat="47.99065" lon="3.34115">
        <ele>100.80000305176</ele>
        <time>2022-07-09T11:37:30Z</time>
      </trkpt>
      <trkpt lat="47.99065" lon="3.34116">
        <ele>100.80000305176</ele>
        <time>2022-07-09T11:37:31Z</time>
      </trkpt>
      <trkpt lat="47.99066" lon="3.34117">
        <ele>100.80000305176</ele>
        <time>2022-07-09T11:37:32Z</time>
      </trkpt>
      <trkpt lat="47.99071" lon="3.3412">
        <ele>100.80000305176</ele>
        <time>2022-07-09T11:37:35Z</time>
      </trkpt>
      <trkpt lat="47.99073" lon="3.34119">
        <ele>100.80000305176</ele>
        <time>2022-07-09T11:37:36Z</time>
      </trkpt>
      <trkpt lat="47.99076" lon="3.34121">
        <ele>100.80000305176</ele>
        <time>2022-07-09T11:37:39Z</time>
      </trkpt>
      <trkpt lat="47.99077" lon="3.34122">
        <ele>100.80000305176</ele>
        <time>2022-07-09T11:37:40Z</time>
      </trkpt>
      <trkpt lat="47.99079" lon="3.34126">
        <ele>100.59999847412</ele>
        <time>2022-07-09T11:37:43Z</time>
      </trkpt>
      <trkpt lat="47.99082" lon="3.34128">
        <ele>100.40000152588</ele>
        <time>2022-07-09T11:37:46Z</time>
      </trkpt>
      <trkpt lat="47.99083" lon="3.34128">
        <ele>100.40000152588</ele>
        <time>2022-07-09T11:37:47Z</time>
      </trkpt>
      <trkpt lat="47.99089" lon="3.34132">
        <ele>100</ele>
        <time>2022-07-09T11:37:52Z</time>
      </trkpt>
      <trkpt lat="47.99093" lon="3.34133">
        <ele>100</ele>
        <time>2022-07-09T11:37:55Z</time>
      </trkpt>
      <trkpt lat="47.99095" lon="3.34136">
        <ele>100</ele>
        <time>2022-07-09T11:37:57Z</time>
      </trkpt>
      <trkpt lat="47.99119" lon="3.34153">
        <ele>100</ele>
        <time>2022-07-09T11:38:24Z</time>
      </trkpt>
      <trkpt lat="47.99123" lon="3.34155">
        <ele>99.800003051758</ele>
        <time>2022-07-09T11:38:29Z</time>
      </trkpt>
      <trkpt lat="47.99126" lon="3.34156">
        <ele>99.800003051758</ele>
        <time>2022-07-09T11:38:32Z</time>
      </trkpt>
      <trkpt lat="47.99127" lon="3.34155">
        <ele>99.800003051758</ele>
        <time>2022-07-09T11:38:33Z</time>
      </trkpt>
      <trkpt lat="47.99128" lon="3.34155">
        <ele>100</ele>
        <time>2022-07-09T11:38:34Z</time>
      </trkpt>
      <trkpt lat="47.99138" lon="3.34158">
        <ele>100</ele>
        <time>2022-07-09T11:38:40Z</time>
      </trkpt>
      <trkpt lat="47.99164" lon="3.34159">
        <ele>100.40000152588</ele>
        <time>2022-07-09T11:38:59Z</time>
      </trkpt>
      <trkpt lat="47.99177" lon="3.3416">
        <ele>100.59999847412</ele>
        <time>2022-07-09T11:39:13Z</time>
      </trkpt>
      <trkpt lat="47.99187" lon="3.34156">
        <ele>100.59999847412</ele>
        <time>2022-07-09T11:39:25Z</time>
      </trkpt>
      <trkpt lat="47.99199" lon="3.3416">
        <ele>100.59999847412</ele>
        <time>2022-07-09T11:39:39Z</time>
      </trkpt>
      <trkpt lat="47.99214" lon="3.34153">
        <ele>101</ele>
        <time>2022-07-09T11:39:53Z</time>
      </trkpt>
      <trkpt lat="47.99234" lon="3.3413">
        <ele>101.19999694824</ele>
        <time>2022-07-09T11:40:12Z</time>
      </trkpt>
      <trkpt lat="47.9924" lon="3.3412">
        <ele>101.19999694824</ele>
        <time>2022-07-09T11:40:18Z</time>
      </trkpt>
      <trkpt lat="47.99241" lon="3.34114">
        <ele>100.80000305176</ele>
        <time>2022-07-09T11:40:23Z</time>
      </trkpt>
      <trkpt lat="47.99271" lon="3.34086">
        <ele>102.40000152588</ele>
        <time>2022-07-09T11:41:12Z</time>
      </trkpt>
      <trkpt lat="47.99282" lon="3.34074">
        <ele>102.40000152588</ele>
        <time>2022-07-09T11:41:34Z</time>
      </trkpt>
      <trkpt lat="47.99299" lon="3.34067">
        <ele>102.40000152588</ele>
        <time>2022-07-09T11:42:43Z</time>
      </trkpt>
      <trkpt lat="47.99295" lon="3.34059">
        <ele>102.80000305176</ele>
        <time>2022-07-09T11:42:51Z</time>
      </trkpt>
      <trkpt lat="47.99299" lon="3.34033">
        <ele>102</ele>
        <time>2022-07-09T11:43:31Z</time>
      </trkpt>
      <trkpt lat="47.993" lon="3.34032">
        <ele>101.40000152588</ele>
        <time>2022-07-09T11:43:40Z</time>
      </trkpt>
      <trkpt lat="47.99293" lon="3.34016">
        <ele>101</ele>
        <time>2022-07-09T11:43:50Z</time>
      </trkpt>
      <trkpt lat="47.99309" lon="3.34003">
        <ele>102.19999694824</ele>
        <time>2022-07-09T11:44:23Z</time>
      </trkpt>
      <trkpt lat="47.99305" lon="3.34">
        <ele>102.19999694824</ele>
        <time>2022-07-09T11:44:31Z</time>
      </trkpt>
      <trkpt lat="47.99305" lon="3.34058">
        <ele>102.59999847412</ele>
        <time>2022-07-09T11:45:14Z</time>
      </trkpt>
      <trkpt lat="47.99314" lon="3.34071">
        <ele>103</ele>
        <time>2022-07-09T11:45:43Z</time>
      </trkpt>
      <trkpt lat="47.99321" lon="3.34102">
        <ele>102.80000305176</ele>
        <time>2022-07-09T11:46:15Z</time>
      </trkpt>
      <trkpt lat="47.99305" lon="3.3409">
        <ele>102.40000152588</ele>
        <time>2022-07-09T11:46:44Z</time>
      </trkpt>
      <trkpt lat="47.99295" lon="3.3409">
        <ele>102.80000305176</ele>
        <time>2022-07-09T11:47:17Z</time>
      </trkpt>
      <trkpt lat="47.9929" lon="3.34085">
        <ele>102.80000305176</ele>
        <time>2022-07-09T11:47:37Z</time>
      </trkpt>
      <trkpt lat="47.99297" lon="3.34075">
        <ele>103.40000152588</ele>
        <time>2022-07-09T11:47:56Z</time>
      </trkpt>
      <trkpt lat="47.993" lon="3.34055">
        <ele>103.40000152588</ele>
        <time>2022-07-09T11:48:25Z</time>
      </trkpt>
      <trkpt lat="47.99305" lon="3.34048">
        <ele>103.19999694824</ele>
        <time>2022-07-09T11:48:37Z</time>
      </trkpt>
      <trkpt lat="47.99296" lon="3.34042">
        <ele>102.59999847412</ele>
        <time>2022-07-09T11:49:38Z</time>
      </trkpt>
      <trkpt lat="47.99299" lon="3.34046">
        <ele>102.59999847412</ele>
        <time>2022-07-09T11:49:51Z</time>
      </trkpt>
      <trkpt lat="47.99293" lon="3.34059">
        <ele>102.59999847412</ele>
        <time>2022-07-09T11:50:50Z</time>
      </trkpt>
      <trkpt lat="47.99295" lon="3.34061">
        <ele>102.59999847412</ele>
        <time>2022-07-09T11:50:53Z</time>
      </trkpt>
      <trkpt lat="47.99292" lon="3.34067">
        <ele>103.80000305176</ele>
        <time>2022-07-09T11:51:38Z</time>
      </trkpt>
      <trkpt lat="47.99291" lon="3.34075">
        <ele>103.80000305176</ele>
        <time>2022-07-09T11:51:43Z</time>
      </trkpt>
      <trkpt lat="47.99291" lon="3.34076">
        <ele>103.80000305176</ele>
        <time>2022-07-09T11:51:44Z</time>
      </trkpt>
      <trkpt lat="47.99291" lon="3.34078">
        <ele>103.80000305176</ele>
        <time>2022-07-09T11:51:45Z</time>
      </trkpt>
      <trkpt lat="47.99291" lon="3.34085">
        <ele>103.59999847412</ele>
        <time>2022-07-09T11:51:50Z</time>
      </trkpt>
      <trkpt lat="47.99291" lon="3.34095">
        <ele>103.59999847412</ele>
        <time>2022-07-09T11:51:55Z</time>
      </trkpt>
      <trkpt lat="47.99291" lon="3.34109">
        <ele>103.80000305176</ele>
        <time>2022-07-09T11:52:03Z</time>
      </trkpt>
      <trkpt lat="47.99292" lon="3.34114">
        <ele>103.80000305176</ele>
        <time>2022-07-09T11:52:06Z</time>
      </trkpt>
      <trkpt lat="47.99291" lon="3.34115">
        <ele>103.59999847412</ele>
        <time>2022-07-09T11:52:07Z</time>
      </trkpt>
      <trkpt lat="47.9929" lon="3.34125">
        <ele>103.59999847412</ele>
        <time>2022-07-09T11:52:13Z</time>
      </trkpt>
      <trkpt lat="47.99287" lon="3.34127">
        <ele>103.80000305176</ele>
        <time>2022-07-09T11:52:34Z</time>
      </trkpt>
      <trkpt lat="47.99289" lon="3.34116">
        <ele>104.19999694824</ele>
        <time>2022-07-09T11:52:48Z</time>
      </trkpt>
      <trkpt lat="47.99302" lon="3.33964">
        <ele>101.40000152588</ele>
        <time>2022-07-09T11:54:19Z</time>
      </trkpt>
      <trkpt lat="47.99303" lon="3.33964">
        <ele>101.40000152588</ele>
        <time>2022-07-09T11:54:20Z</time>
      </trkpt>
      <trkpt lat="47.99331" lon="3.33968">
        <ele>100.59999847412</ele>
        <time>2022-07-09T11:54:33Z</time>
      </trkpt>
      <trkpt lat="47.99337" lon="3.33975">
        <ele>100.59999847412</ele>
        <time>2022-07-09T11:54:40Z</time>
      </trkpt>
      <trkpt lat="47.99337" lon="3.33976">
        <ele>100.59999847412</ele>
        <time>2022-07-09T11:54:41Z</time>
      </trkpt>
      <trkpt lat="47.99344" lon="3.33983">
        <ele>100.59999847412</ele>
        <time>2022-07-09T11:54:47Z</time>
      </trkpt>
      <trkpt lat="47.99345" lon="3.33984">
        <ele>100.40000152588</ele>
        <time>2022-07-09T11:54:48Z</time>
      </trkpt>
      <trkpt lat="47.99346" lon="3.33986">
        <ele>100.40000152588</ele>
        <time>2022-07-09T11:54:50Z</time>
      </trkpt>
      <trkpt lat="47.99348" lon="3.33988">
        <ele>100.19999694824</ele>
        <time>2022-07-09T11:54:53Z</time>
      </trkpt>
      <trkpt lat="47.99358" lon="3.33996">
        <ele>100</ele>
        <time>2022-07-09T11:55:03Z</time>
      </trkpt>
      <trkpt lat="47.99361" lon="3.33998">
        <ele>100</ele>
        <time>2022-07-09T11:55:06Z</time>
      </trkpt>
      <trkpt lat="47.99362" lon="3.33999">
        <ele>100</ele>
        <time>2022-07-09T11:55:07Z</time>
      </trkpt>
      <trkpt lat="47.99393" lon="3.34078">
        <ele>100.40000152588</ele>
        <time>2022-07-09T11:55:53Z</time>
      </trkpt>
      <trkpt lat="47.99389" lon="3.34097">
        <ele>100.40000152588</ele>
        <time>2022-07-09T11:56:05Z</time>
      </trkpt>
      <trkpt lat="47.99388" lon="3.34103">
        <ele>100.40000152588</ele>
        <time>2022-07-09T11:56:09Z</time>
      </trkpt>
      <trkpt lat="47.99386" lon="3.3411">
        <ele>100.40000152588</ele>
        <time>2022-07-09T11:56:13Z</time>
      </trkpt>
      <trkpt lat="47.9938" lon="3.34124">
        <ele>100.40000152588</ele>
        <time>2022-07-09T11:56:21Z</time>
      </trkpt>
      <trkpt lat="47.99378" lon="3.34129">
        <ele>100.59999847412</ele>
        <time>2022-07-09T11:56:24Z</time>
      </trkpt>
      <trkpt lat="47.99376" lon="3.34131">
        <ele>100.59999847412</ele>
        <time>2022-07-09T11:56:25Z</time>
      </trkpt>
      <trkpt lat="47.99375" lon="3.34133">
        <ele>100.59999847412</ele>
        <time>2022-07-09T11:56:26Z</time>
      </trkpt>
      <trkpt lat="47.99373" lon="3.34135">
        <ele>100.80000305176</ele>
        <time>2022-07-09T11:56:28Z</time>
      </trkpt>
      <trkpt lat="47.99372" lon="3.3414">
        <ele>100.80000305176</ele>
        <time>2022-07-09T11:56:31Z</time>
      </trkpt>
      <trkpt lat="47.9937" lon="3.34141">
        <ele>100.80000305176</ele>
        <time>2022-07-09T11:56:32Z</time>
      </trkpt>
      <trkpt lat="47.99369" lon="3.34142">
        <ele>100.80000305176</ele>
        <time>2022-07-09T11:56:33Z</time>
      </trkpt>
      <trkpt lat="47.99369" lon="3.34143">
        <ele>100.80000305176</ele>
        <time>2022-07-09T11:56:34Z</time>
      </trkpt>
      <trkpt lat="47.99365" lon="3.34151">
        <ele>100.80000305176</ele>
        <time>2022-07-09T11:56:39Z</time>
      </trkpt>
      <trkpt lat="47.99365" lon="3.34152">
        <ele>100.80000305176</ele>
        <time>2022-07-09T11:56:40Z</time>
      </trkpt>
      <trkpt lat="47.99364" lon="3.34154">
        <ele>100.80000305176</ele>
        <time>2022-07-09T11:56:41Z</time>
      </trkpt>
      <trkpt lat="47.99361" lon="3.34176">
        <ele>100.59999847412</ele>
        <time>2022-07-09T11:56:53Z</time>
      </trkpt>
      <trkpt lat="47.99361" lon="3.34181">
        <ele>100.80000305176</ele>
        <time>2022-07-09T11:56:56Z</time>
      </trkpt>
      <trkpt lat="47.99361" lon="3.34191">
        <ele>101.19999694824</ele>
        <time>2022-07-09T11:57:01Z</time>
      </trkpt>
      <trkpt lat="47.9936" lon="3.34205">
        <ele>101</ele>
        <time>2022-07-09T11:57:10Z</time>
      </trkpt>
      <trkpt lat="47.9936" lon="3.34208">
        <ele>101.19999694824</ele>
        <time>2022-07-09T11:57:12Z</time>
      </trkpt>
      <trkpt lat="47.99359" lon="3.34212">
        <ele>101.59999847412</ele>
        <time>2022-07-09T11:57:15Z</time>
      </trkpt>
      <trkpt lat="47.99357" lon="3.34228">
        <ele>100.80000305176</ele>
        <time>2022-07-09T11:57:28Z</time>
      </trkpt>
      <trkpt lat="47.99352" lon="3.34252">
        <ele>100.80000305176</ele>
        <time>2022-07-09T11:57:42Z</time>
      </trkpt>
      <trkpt lat="47.9935" lon="3.3426">
        <ele>101</ele>
        <time>2022-07-09T11:57:47Z</time>
      </trkpt>
      <trkpt lat="47.99349" lon="3.34263">
        <ele>101</ele>
        <time>2022-07-09T11:57:49Z</time>
      </trkpt>
      <trkpt lat="47.99353" lon="3.34284">
        <ele>101.59999847412</ele>
        <time>2022-07-09T11:58:00Z</time>
      </trkpt>
      <trkpt lat="47.99357" lon="3.34299">
        <ele>102.59999847412</ele>
        <time>2022-07-09T11:58:15Z</time>
      </trkpt>
      <trkpt lat="47.99369" lon="3.34315">
        <ele>103</ele>
        <time>2022-07-09T11:58:27Z</time>
      </trkpt>
      <trkpt lat="47.99377" lon="3.34337">
        <ele>103.59999847412</ele>
        <time>2022-07-09T11:58:39Z</time>
      </trkpt>
      <trkpt lat="47.99378" lon="3.34338">
        <ele>103.59999847412</ele>
        <time>2022-07-09T11:58:40Z</time>
      </trkpt>
      <trkpt lat="47.99381" lon="3.34345">
        <ele>103.80000305176</ele>
        <time>2022-07-09T11:58:44Z</time>
      </trkpt>
      <trkpt lat="47.99392" lon="3.34364">
        <ele>103.80000305176</ele>
        <time>2022-07-09T11:59:00Z</time>
      </trkpt>
      <trkpt lat="47.99398" lon="3.34376">
        <ele>104</ele>
        <time>2022-07-09T11:59:10Z</time>
      </trkpt>
      <trkpt lat="47.99409" lon="3.34397">
        <ele>104.19999694824</ele>
        <time>2022-07-09T11:59:27Z</time>
      </trkpt>
      <trkpt lat="47.99421" lon="3.34419">
        <ele>104</ele>
        <time>2022-07-09T11:59:50Z</time>
      </trkpt>
      <trkpt lat="47.99423" lon="3.34423">
        <ele>103.80000305176</ele>
        <time>2022-07-09T11:59:54Z</time>
      </trkpt>
      <trkpt lat="47.99433" lon="3.34434">
        <ele>103.40000152588</ele>
        <time>2022-07-09T12:00:06Z</time>
      </trkpt>
      <trkpt lat="47.99434" lon="3.34437">
        <ele>103.40000152588</ele>
        <time>2022-07-09T12:00:09Z</time>
      </trkpt>
      <trkpt lat="47.99431" lon="3.34449">
        <ele>102.80000305176</ele>
        <time>2022-07-09T12:00:40Z</time>
      </trkpt>
      <trkpt lat="47.99399" lon="3.34449">
        <ele>99.800003051758</ele>
        <time>2022-07-09T12:01:03Z</time>
      </trkpt>
      <trkpt lat="47.99394" lon="3.34453">
        <ele>99.199996948242</ele>
        <time>2022-07-09T12:01:08Z</time>
      </trkpt>
      <trkpt lat="47.99392" lon="3.34455">
        <ele>99.199996948242</ele>
        <time>2022-07-09T12:01:10Z</time>
      </trkpt>
      <trkpt lat="47.99384" lon="3.34473">
        <ele>99.199996948242</ele>
        <time>2022-07-09T12:01:21Z</time>
      </trkpt>
      <trkpt lat="47.99381" lon="3.34479">
        <ele>99.199996948242</ele>
        <time>2022-07-09T12:01:26Z</time>
      </trkpt>
      <trkpt lat="47.99376" lon="3.3449">
        <ele>99.400001525879</ele>
        <time>2022-07-09T12:01:33Z</time>
      </trkpt>
      <trkpt lat="47.99369" lon="3.34499">
        <ele>99.400001525879</ele>
        <time>2022-07-09T12:01:43Z</time>
      </trkpt>
      <trkpt lat="47.99363" lon="3.34513">
        <ele>99.400001525879</ele>
        <time>2022-07-09T12:01:51Z</time>
      </trkpt>
      <trkpt lat="47.99362" lon="3.34517">
        <ele>99.400001525879</ele>
        <time>2022-07-09T12:01:54Z</time>
      </trkpt>
      <trkpt lat="47.99361" lon="3.3452">
        <ele>99.400001525879</ele>
        <time>2022-07-09T12:01:56Z</time>
      </trkpt>
      <trkpt lat="47.9936" lon="3.34522">
        <ele>99.400001525879</ele>
        <time>2022-07-09T12:01:57Z</time>
      </trkpt>
      <trkpt lat="47.99358" lon="3.34524">
        <ele>99.400001525879</ele>
        <time>2022-07-09T12:01:59Z</time>
      </trkpt>
      <trkpt lat="47.99356" lon="3.34533">
        <ele>99.400001525879</ele>
        <time>2022-07-09T12:02:04Z</time>
      </trkpt>
      <trkpt lat="47.99356" lon="3.34535">
        <ele>99.400001525879</ele>
        <time>2022-07-09T12:02:05Z</time>
      </trkpt>
      <trkpt lat="47.9935" lon="3.34542">
        <ele>99.599998474121</ele>
        <time>2022-07-09T12:02:13Z</time>
      </trkpt>
      <trkpt lat="47.99347" lon="3.34552">
        <ele>99.800003051758</ele>
        <time>2022-07-09T12:02:19Z</time>
      </trkpt>
      <trkpt lat="47.99346" lon="3.34553">
        <ele>99.800003051758</ele>
        <time>2022-07-09T12:02:20Z</time>
      </trkpt>
      <trkpt lat="47.99345" lon="3.34555">
        <ele>99.800003051758</ele>
        <time>2022-07-09T12:02:21Z</time>
      </trkpt>
      <trkpt lat="47.99344" lon="3.34557">
        <ele>99.800003051758</ele>
        <time>2022-07-09T12:02:23Z</time>
      </trkpt>
      <trkpt lat="47.9934" lon="3.34567">
        <ele>100</ele>
        <time>2022-07-09T12:02:29Z</time>
      </trkpt>
      <trkpt lat="47.99339" lon="3.34568">
        <ele>100</ele>
        <time>2022-07-09T12:02:30Z</time>
      </trkpt>
      <trkpt lat="47.99338" lon="3.34569">
        <ele>100</ele>
        <time>2022-07-09T12:02:31Z</time>
      </trkpt>
      <trkpt lat="47.99329" lon="3.34592">
        <ele>99.800003051758</ele>
        <time>2022-07-09T12:02:47Z</time>
      </trkpt>
      <trkpt lat="47.99326" lon="3.34604">
        <ele>100</ele>
        <time>2022-07-09T12:02:54Z</time>
      </trkpt>
      <trkpt lat="47.99324" lon="3.3461">
        <ele>100</ele>
        <time>2022-07-09T12:03:13Z</time>
      </trkpt>
      <trkpt lat="47.99318" lon="3.34618">
        <ele>100</ele>
        <time>2022-07-09T12:03:28Z</time>
      </trkpt>
      <trkpt lat="47.99313" lon="3.34631">
        <ele>100</ele>
        <time>2022-07-09T12:03:40Z</time>
      </trkpt>
      <trkpt lat="47.99299" lon="3.34648">
        <ele>100</ele>
        <time>2022-07-09T12:03:55Z</time>
      </trkpt>
      <trkpt lat="47.99294" lon="3.34659">
        <ele>99.800003051758</ele>
        <time>2022-07-09T12:04:01Z</time>
      </trkpt>
      <trkpt lat="47.99293" lon="3.34661">
        <ele>99.800003051758</ele>
        <time>2022-07-09T12:04:02Z</time>
      </trkpt>
      <trkpt lat="47.99293" lon="3.34663">
        <ele>99.800003051758</ele>
        <time>2022-07-09T12:04:03Z</time>
      </trkpt>
      <trkpt lat="47.99292" lon="3.34664">
        <ele>99.800003051758</ele>
        <time>2022-07-09T12:04:04Z</time>
      </trkpt>
      <trkpt lat="47.99291" lon="3.34665">
        <ele>99.800003051758</ele>
        <time>2022-07-09T12:04:05Z</time>
      </trkpt>
      <trkpt lat="47.99289" lon="3.34668">
        <ele>100</ele>
        <time>2022-07-09T12:04:07Z</time>
      </trkpt>
      <trkpt lat="47.99285" lon="3.34682">
        <ele>100</ele>
        <time>2022-07-09T12:04:16Z</time>
      </trkpt>
      <trkpt lat="47.99283" lon="3.34686">
        <ele>100</ele>
        <time>2022-07-09T12:04:19Z</time>
      </trkpt>
      <trkpt lat="47.99275" lon="3.34703">
        <ele>99.800003051758</ele>
        <time>2022-07-09T12:04:28Z</time>
      </trkpt>
      <trkpt lat="47.99266" lon="3.34719">
        <ele>99.599998474121</ele>
        <time>2022-07-09T12:04:38Z</time>
      </trkpt>
      <trkpt lat="47.99264" lon="3.34723">
        <ele>99.599998474121</ele>
        <time>2022-07-09T12:04:41Z</time>
      </trkpt>
      <trkpt lat="47.99262" lon="3.34727">
        <ele>99.400001525879</ele>
        <time>2022-07-09T12:04:44Z</time>
      </trkpt>
      <trkpt lat="47.99261" lon="3.34728">
        <ele>99.400001525879</ele>
        <time>2022-07-09T12:04:45Z</time>
      </trkpt>
      <trkpt lat="47.99257" lon="3.34734">
        <ele>99.400001525879</ele>
        <time>2022-07-09T12:04:50Z</time>
      </trkpt>
      <trkpt lat="47.99253" lon="3.34738">
        <ele>99.199996948242</ele>
        <time>2022-07-09T12:04:55Z</time>
      </trkpt>
      <trkpt lat="47.9925" lon="3.34741">
        <ele>99.199996948242</ele>
        <time>2022-07-09T12:04:58Z</time>
      </trkpt>
      <trkpt lat="47.99249" lon="3.34744">
        <ele>99.199996948242</ele>
        <time>2022-07-09T12:05:00Z</time>
      </trkpt>
      <trkpt lat="47.99249" lon="3.34745">
        <ele>99.199996948242</ele>
        <time>2022-07-09T12:05:01Z</time>
      </trkpt>
      <trkpt lat="47.99247" lon="3.34749">
        <ele>99.199996948242</ele>
        <time>2022-07-09T12:05:04Z</time>
      </trkpt>
      <trkpt lat="47.99245" lon="3.34754">
        <ele>99.199996948242</ele>
        <time>2022-07-09T12:05:08Z</time>
      </trkpt>
      <trkpt lat="47.99214" lon="3.34783">
        <ele>98.800003051758</ele>
        <time>2022-07-09T12:05:39Z</time>
      </trkpt>
      <trkpt lat="47.99203" lon="3.34792">
        <ele>99</ele>
        <time>2022-07-09T12:05:49Z</time>
      </trkpt>
      <trkpt lat="47.99198" lon="3.34798">
        <ele>99</ele>
        <time>2022-07-09T12:05:54Z</time>
      </trkpt>
      <trkpt lat="47.99189" lon="3.34806">
        <ele>99</ele>
        <time>2022-07-09T12:06:02Z</time>
      </trkpt>
      <trkpt lat="47.99186" lon="3.34809">
        <ele>99</ele>
        <time>2022-07-09T12:06:05Z</time>
      </trkpt>
      <trkpt lat="47.99178" lon="3.3482">
        <ele>99.199996948242</ele>
        <time>2022-07-09T12:06:15Z</time>
      </trkpt>
      <trkpt lat="47.99161" lon="3.34833">
        <ele>99.400001525879</ele>
        <time>2022-07-09T12:06:30Z</time>
      </trkpt>
      <trkpt lat="47.99154" lon="3.34843">
        <ele>99.400001525879</ele>
        <time>2022-07-09T12:06:38Z</time>
      </trkpt>
      <trkpt lat="47.99143" lon="3.34856">
        <ele>99.199996948242</ele>
        <time>2022-07-09T12:06:50Z</time>
      </trkpt>
      <trkpt lat="47.99139" lon="3.34859">
        <ele>99.400001525879</ele>
        <time>2022-07-09T12:06:53Z</time>
      </trkpt>
      <trkpt lat="47.9913" lon="3.34866">
        <ele>99.400001525879</ele>
        <time>2022-07-09T12:07:02Z</time>
      </trkpt>
      <trkpt lat="47.99114" lon="3.34877">
        <ele>99.599998474121</ele>
        <time>2022-07-09T12:07:18Z</time>
      </trkpt>
      <trkpt lat="47.99105" lon="3.34891">
        <ele>99.800003051758</ele>
        <time>2022-07-09T12:07:26Z</time>
      </trkpt>
      <trkpt lat="47.99094" lon="3.349">
        <ele>99.800003051758</ele>
        <time>2022-07-09T12:07:35Z</time>
      </trkpt>
      <trkpt lat="47.99081" lon="3.34913">
        <ele>99.800003051758</ele>
        <time>2022-07-09T12:07:47Z</time>
      </trkpt>
      <trkpt lat="47.99079" lon="3.34916">
        <ele>99.800003051758</ele>
        <time>2022-07-09T12:07:50Z</time>
      </trkpt>
      <trkpt lat="47.99073" lon="3.34926">
        <ele>99.800003051758</ele>
        <time>2022-07-09T12:07:59Z</time>
      </trkpt>
      <trkpt lat="47.99066" lon="3.34933">
        <ele>99.599998474121</ele>
        <time>2022-07-09T12:08:08Z</time>
      </trkpt>
      <trkpt lat="47.99064" lon="3.34935">
        <ele>99.599998474121</ele>
        <time>2022-07-09T12:08:09Z</time>
      </trkpt>
      <trkpt lat="47.99058" lon="3.34942">
        <ele>99.599998474121</ele>
        <time>2022-07-09T12:08:15Z</time>
      </trkpt>
      <trkpt lat="47.99055" lon="3.34947">
        <ele>99.599998474121</ele>
        <time>2022-07-09T12:08:18Z</time>
      </trkpt>
      <trkpt lat="47.99054" lon="3.3495">
        <ele>99.599998474121</ele>
        <time>2022-07-09T12:08:19Z</time>
      </trkpt>
      <trkpt lat="47.99054" lon="3.34952">
        <ele>99.599998474121</ele>
        <time>2022-07-09T12:08:20Z</time>
      </trkpt>
      <trkpt lat="47.99053" lon="3.34954">
        <ele>99.599998474121</ele>
        <time>2022-07-09T12:08:21Z</time>
      </trkpt>
      <trkpt lat="47.99052" lon="3.34955">
        <ele>99.599998474121</ele>
        <time>2022-07-09T12:08:22Z</time>
      </trkpt>
      <trkpt lat="47.9905" lon="3.34957">
        <ele>99.599998474121</ele>
        <time>2022-07-09T12:08:23Z</time>
      </trkpt>
      <trkpt lat="47.99049" lon="3.34958">
        <ele>99.599998474121</ele>
        <time>2022-07-09T12:08:24Z</time>
      </trkpt>
      <trkpt lat="47.99047" lon="3.34959">
        <ele>99.599998474121</ele>
        <time>2022-07-09T12:08:25Z</time>
      </trkpt>
      <trkpt lat="47.99046" lon="3.3496">
        <ele>99.599998474121</ele>
        <time>2022-07-09T12:08:26Z</time>
      </trkpt>
      <trkpt lat="47.99045" lon="3.34962">
        <ele>99.599998474121</ele>
        <time>2022-07-09T12:08:27Z</time>
      </trkpt>
      <trkpt lat="47.99044" lon="3.34963">
        <ele>99.599998474121</ele>
        <time>2022-07-09T12:08:28Z</time>
      </trkpt>
      <trkpt lat="47.99038" lon="3.34974">
        <ele>99.800003051758</ele>
        <time>2022-07-09T12:08:38Z</time>
      </trkpt>
      <trkpt lat="47.99036" lon="3.34977">
        <ele>100</ele>
        <time>2022-07-09T12:08:41Z</time>
      </trkpt>
      <trkpt lat="47.99035" lon="3.34979">
        <ele>100</ele>
        <time>2022-07-09T12:08:43Z</time>
      </trkpt>
      <trkpt lat="47.99031" lon="3.34985">
        <ele>100</ele>
        <time>2022-07-09T12:08:47Z</time>
      </trkpt>
      <trkpt lat="47.9903" lon="3.34987">
        <ele>100</ele>
        <time>2022-07-09T12:08:48Z</time>
      </trkpt>
      <trkpt lat="47.99026" lon="3.34996">
        <ele>99.800003051758</ele>
        <time>2022-07-09T12:08:53Z</time>
      </trkpt>
      <trkpt lat="47.99018" lon="3.35006">
        <ele>99.599998474121</ele>
        <time>2022-07-09T12:09:02Z</time>
      </trkpt>
      <trkpt lat="47.99014" lon="3.35013">
        <ele>99.599998474121</ele>
        <time>2022-07-09T12:09:07Z</time>
      </trkpt>
      <trkpt lat="47.99013" lon="3.35016">
        <ele>99.599998474121</ele>
        <time>2022-07-09T12:09:09Z</time>
      </trkpt>
      <trkpt lat="47.9901" lon="3.35022">
        <ele>99.599998474121</ele>
        <time>2022-07-09T12:09:15Z</time>
      </trkpt>
      <trkpt lat="47.99001" lon="3.35038">
        <ele>99.599998474121</ele>
        <time>2022-07-09T12:09:27Z</time>
      </trkpt>
      <trkpt lat="47.98995" lon="3.35052">
        <ele>99.599998474121</ele>
        <time>2022-07-09T12:09:35Z</time>
      </trkpt>
      <trkpt lat="47.98991" lon="3.3506">
        <ele>99.599998474121</ele>
        <time>2022-07-09T12:09:41Z</time>
      </trkpt>
      <trkpt lat="47.98986" lon="3.3508">
        <ele>99.400001525879</ele>
        <time>2022-07-09T12:09:52Z</time>
      </trkpt>
      <trkpt lat="47.98974" lon="3.35115">
        <ele>99.400001525879</ele>
        <time>2022-07-09T12:10:17Z</time>
      </trkpt>
      <trkpt lat="47.98973" lon="3.35119">
        <ele>99.400001525879</ele>
        <time>2022-07-09T12:10:19Z</time>
      </trkpt>
      <trkpt lat="47.98974" lon="3.3514">
        <ele>99.400001525879</ele>
        <time>2022-07-09T12:10:33Z</time>
      </trkpt>
      <trkpt lat="47.98973" lon="3.35141">
        <ele>99.400001525879</ele>
        <time>2022-07-09T12:10:34Z</time>
      </trkpt>
      <trkpt lat="47.98972" lon="3.35168">
        <ele>99.599998474121</ele>
        <time>2022-07-09T12:10:51Z</time>
      </trkpt>
      <trkpt lat="47.98971" lon="3.35175">
        <ele>99.599998474121</ele>
        <time>2022-07-09T12:10:55Z</time>
      </trkpt>
      <trkpt lat="47.98971" lon="3.35177">
        <ele>99.599998474121</ele>
        <time>2022-07-09T12:10:56Z</time>
      </trkpt>
      <trkpt lat="47.9897" lon="3.35185">
        <ele>99.599998474121</ele>
        <time>2022-07-09T12:11:01Z</time>
      </trkpt>
      <trkpt lat="47.98965" lon="3.35203">
        <ele>100.40000152588</ele>
        <time>2022-07-09T12:11:12Z</time>
      </trkpt>
      <trkpt lat="47.98962" lon="3.35213">
        <ele>101</ele>
        <time>2022-07-09T12:11:19Z</time>
      </trkpt>
      <trkpt lat="47.98958" lon="3.35226">
        <ele>101.19999694824</ele>
        <time>2022-07-09T12:11:28Z</time>
      </trkpt>
      <trkpt lat="47.98957" lon="3.35228">
        <ele>101.19999694824</ele>
        <time>2022-07-09T12:11:29Z</time>
      </trkpt>
      <trkpt lat="47.98954" lon="3.35232">
        <ele>101.19999694824</ele>
        <time>2022-07-09T12:11:32Z</time>
      </trkpt>
      <trkpt lat="47.9895" lon="3.3524">
        <ele>101.19999694824</ele>
        <time>2022-07-09T12:11:39Z</time>
      </trkpt>
      <trkpt lat="47.98941" lon="3.35268">
        <ele>101.40000152588</ele>
        <time>2022-07-09T12:12:02Z</time>
      </trkpt>
      <trkpt lat="47.98936" lon="3.35288">
        <ele>101.19999694824</ele>
        <time>2022-07-09T12:12:12Z</time>
      </trkpt>
      <trkpt lat="47.98931" lon="3.35302">
        <ele>101.40000152588</ele>
        <time>2022-07-09T12:12:21Z</time>
      </trkpt>
      <trkpt lat="47.9893" lon="3.35303">
        <ele>101.40000152588</ele>
        <time>2022-07-09T12:12:22Z</time>
      </trkpt>
      <trkpt lat="47.9893" lon="3.35305">
        <ele>101.40000152588</ele>
        <time>2022-07-09T12:12:23Z</time>
      </trkpt>
      <trkpt lat="47.98929" lon="3.35311">
        <ele>101.19999694824</ele>
        <time>2022-07-09T12:12:27Z</time>
      </trkpt>
      <trkpt lat="47.98916" lon="3.3533">
        <ele>101.19999694824</ele>
        <time>2022-07-09T12:12:43Z</time>
      </trkpt>
      <trkpt lat="47.98912" lon="3.35342">
        <ele>101.19999694824</ele>
        <time>2022-07-09T12:12:51Z</time>
      </trkpt>
      <trkpt lat="47.98907" lon="3.35354">
        <ele>101.40000152588</ele>
        <time>2022-07-09T12:13:00Z</time>
      </trkpt>
      <trkpt lat="47.98906" lon="3.35356">
        <ele>101.40000152588</ele>
        <time>2022-07-09T12:13:01Z</time>
      </trkpt>
      <trkpt lat="47.98905" lon="3.35358">
        <ele>101.40000152588</ele>
        <time>2022-07-09T12:13:02Z</time>
      </trkpt>
      <trkpt lat="47.98904" lon="3.35359">
        <ele>101.40000152588</ele>
        <time>2022-07-09T12:13:03Z</time>
      </trkpt>
      <trkpt lat="47.98904" lon="3.3536">
        <ele>101.40000152588</ele>
        <time>2022-07-09T12:13:04Z</time>
      </trkpt>
      <trkpt lat="47.98893" lon="3.35379">
        <ele>101.59999847412</ele>
        <time>2022-07-09T12:13:19Z</time>
      </trkpt>
      <trkpt lat="47.98885" lon="3.35391">
        <ele>101.40000152588</ele>
        <time>2022-07-09T12:13:29Z</time>
      </trkpt>
      <trkpt lat="47.98874" lon="3.35407">
        <ele>101.40000152588</ele>
        <time>2022-07-09T12:13:42Z</time>
      </trkpt>
      <trkpt lat="47.98873" lon="3.35408">
        <ele>101.40000152588</ele>
        <time>2022-07-09T12:13:43Z</time>
      </trkpt>
      <trkpt lat="47.9887" lon="3.35414">
        <ele>101.40000152588</ele>
        <time>2022-07-09T12:13:48Z</time>
      </trkpt>
      <trkpt lat="47.98861" lon="3.35429">
        <ele>101.40000152588</ele>
        <time>2022-07-09T12:14:01Z</time>
      </trkpt>
      <trkpt lat="47.98854" lon="3.35442">
        <ele>101.59999847412</ele>
        <time>2022-07-09T12:14:09Z</time>
      </trkpt>
      <trkpt lat="47.98846" lon="3.35459">
        <ele>101.59999847412</ele>
        <time>2022-07-09T12:14:20Z</time>
      </trkpt>
      <trkpt lat="47.98846" lon="3.3546">
        <ele>101.59999847412</ele>
        <time>2022-07-09T12:14:21Z</time>
      </trkpt>
      <trkpt lat="47.98837" lon="3.35473">
        <ele>101.59999847412</ele>
        <time>2022-07-09T12:14:34Z</time>
      </trkpt>
      <trkpt lat="47.98826" lon="3.355">
        <ele>102</ele>
        <time>2022-07-09T12:14:52Z</time>
      </trkpt>
      <trkpt lat="47.98814" lon="3.35518">
        <ele>102</ele>
        <time>2022-07-09T12:15:09Z</time>
      </trkpt>
      <trkpt lat="47.98805" lon="3.35533">
        <ele>102</ele>
        <time>2022-07-09T12:15:22Z</time>
      </trkpt>
      <trkpt lat="47.98803" lon="3.35536">
        <ele>102</ele>
        <time>2022-07-09T12:15:24Z</time>
      </trkpt>
      <trkpt lat="47.98802" lon="3.35537">
        <ele>102</ele>
        <time>2022-07-09T12:15:25Z</time>
      </trkpt>
      <trkpt lat="47.98797" lon="3.35543">
        <ele>101.80000305176</ele>
        <time>2022-07-09T12:15:30Z</time>
      </trkpt>
      <trkpt lat="47.98783" lon="3.35558">
        <ele>102</ele>
        <time>2022-07-09T12:15:44Z</time>
      </trkpt>
      <trkpt lat="47.98777" lon="3.35563">
        <ele>102</ele>
        <time>2022-07-09T12:15:50Z</time>
      </trkpt>
      <trkpt lat="47.98766" lon="3.35577">
        <ele>102</ele>
        <time>2022-07-09T12:16:00Z</time>
      </trkpt>
      <trkpt lat="47.98758" lon="3.35587">
        <ele>101.80000305176</ele>
        <time>2022-07-09T12:16:09Z</time>
      </trkpt>
      <trkpt lat="47.98749" lon="3.356">
        <ele>102</ele>
        <time>2022-07-09T12:16:19Z</time>
      </trkpt>
      <trkpt lat="47.98734" lon="3.35615">
        <ele>102</ele>
        <time>2022-07-09T12:16:35Z</time>
      </trkpt>
      <trkpt lat="47.98725" lon="3.35623">
        <ele>102</ele>
        <time>2022-07-09T12:16:43Z</time>
      </trkpt>
      <trkpt lat="47.98724" lon="3.35624">
        <ele>102.19999694824</ele>
        <time>2022-07-09T12:16:44Z</time>
      </trkpt>
      <trkpt lat="47.98723" lon="3.35625">
        <ele>102.19999694824</ele>
        <time>2022-07-09T12:16:45Z</time>
      </trkpt>
      <trkpt lat="47.98722" lon="3.35626">
        <ele>102.19999694824</ele>
        <time>2022-07-09T12:16:46Z</time>
      </trkpt>
      <trkpt lat="47.98721" lon="3.35627">
        <ele>102.19999694824</ele>
        <time>2022-07-09T12:16:47Z</time>
      </trkpt>
      <trkpt lat="47.98711" lon="3.35635">
        <ele>102.19999694824</ele>
        <time>2022-07-09T12:17:00Z</time>
      </trkpt>
      <trkpt lat="47.98701" lon="3.35641">
        <ele>102.19999694824</ele>
        <time>2022-07-09T12:17:11Z</time>
      </trkpt>
      <trkpt lat="47.98687" lon="3.35655">
        <ele>102.40000152588</ele>
        <time>2022-07-09T12:17:27Z</time>
      </trkpt>
      <trkpt lat="47.98677" lon="3.35669">
        <ele>102.19999694824</ele>
        <time>2022-07-09T12:17:41Z</time>
      </trkpt>
      <trkpt lat="47.98665" lon="3.35677">
        <ele>102.40000152588</ele>
        <time>2022-07-09T12:17:52Z</time>
      </trkpt>
      <trkpt lat="47.98644" lon="3.35688">
        <ele>102.59999847412</ele>
        <time>2022-07-09T12:18:11Z</time>
      </trkpt>
      <trkpt lat="47.98634" lon="3.35694">
        <ele>102.80000305176</ele>
        <time>2022-07-09T12:18:21Z</time>
      </trkpt>
      <trkpt lat="47.9862" lon="3.35701">
        <ele>102.80000305176</ele>
        <time>2022-07-09T12:18:38Z</time>
      </trkpt>
      <trkpt lat="47.98615" lon="3.35709">
        <ele>102.59999847412</ele>
        <time>2022-07-09T12:19:16Z</time>
      </trkpt>
      <trkpt lat="47.98616" lon="3.35704">
        <ele>102.59999847412</ele>
        <time>2022-07-09T12:19:57Z</time>
      </trkpt>
      <trkpt lat="47.98616" lon="3.35703">
        <ele>102.59999847412</ele>
        <time>2022-07-09T12:20:33Z</time>
      </trkpt>
      <trkpt lat="47.98615" lon="3.35704">
        <ele>102.59999847412</ele>
        <time>2022-07-09T12:21:08Z</time>
      </trkpt>
      <trkpt lat="47.98615" lon="3.35704">
        <ele>102.59999847412</ele>
        <time>2022-07-09T12:21:41Z</time>
      </trkpt>
      <trkpt lat="47.98618" lon="3.35704">
        <ele>102.59999847412</ele>
        <time>2022-07-09T12:22:12Z</time>
      </trkpt>
      <trkpt lat="47.98618" lon="3.35706">
        <ele>102.59999847412</ele>
        <time>2022-07-09T12:22:36Z</time>
      </trkpt>
      <trkpt lat="47.98612" lon="3.35708">
        <ele>102.59999847412</ele>
        <time>2022-07-09T12:22:47Z</time>
      </trkpt>
      <trkpt lat="47.98597" lon="3.35715">
        <ele>102.80000305176</ele>
        <time>2022-07-09T12:23:00Z</time>
      </trkpt>
      <trkpt lat="47.98596" lon="3.35716">
        <ele>102.80000305176</ele>
        <time>2022-07-09T12:23:01Z</time>
      </trkpt>
      <trkpt lat="47.98586" lon="3.35722">
        <ele>102.40000152588</ele>
        <time>2022-07-09T12:23:12Z</time>
      </trkpt>
      <trkpt lat="47.98575" lon="3.35726">
        <ele>102.80000305176</ele>
        <time>2022-07-09T12:23:24Z</time>
      </trkpt>
      <trkpt lat="47.98571" lon="3.35727">
        <ele>102.59999847412</ele>
        <time>2022-07-09T12:23:27Z</time>
      </trkpt>
      <trkpt lat="47.9856" lon="3.3573">
        <ele>102.40000152588</ele>
        <time>2022-07-09T12:23:37Z</time>
      </trkpt>
      <trkpt lat="47.98559" lon="3.35731">
        <ele>102.19999694824</ele>
        <time>2022-07-09T12:23:38Z</time>
      </trkpt>
      <trkpt lat="47.98549" lon="3.35736">
        <ele>102.59999847412</ele>
        <time>2022-07-09T12:23:48Z</time>
      </trkpt>
      <trkpt lat="47.98541" lon="3.35738">
        <ele>102</ele>
        <time>2022-07-09T12:23:54Z</time>
      </trkpt>
      <trkpt lat="47.98536" lon="3.35739">
        <ele>102</ele>
        <time>2022-07-09T12:23:59Z</time>
      </trkpt>
      <trkpt lat="47.98518" lon="3.35743">
        <ele>101.59999847412</ele>
        <time>2022-07-09T12:24:15Z</time>
      </trkpt>
      <trkpt lat="47.98506" lon="3.35748">
        <ele>101.40000152588</ele>
        <time>2022-07-09T12:24:27Z</time>
      </trkpt>
      <trkpt lat="47.98479" lon="3.35756">
        <ele>102</ele>
        <time>2022-07-09T12:24:50Z</time>
      </trkpt>
      <trkpt lat="47.9847" lon="3.35758">
        <ele>101.80000305176</ele>
        <time>2022-07-09T12:25:00Z</time>
      </trkpt>
      <trkpt lat="47.98469" lon="3.35759">
        <ele>101.80000305176</ele>
        <time>2022-07-09T12:25:01Z</time>
      </trkpt>
      <trkpt lat="47.98464" lon="3.3576">
        <ele>101.80000305176</ele>
        <time>2022-07-09T12:25:05Z</time>
      </trkpt>
      <trkpt lat="47.98462" lon="3.3576">
        <ele>102</ele>
        <time>2022-07-09T12:25:07Z</time>
      </trkpt>
      <trkpt lat="47.98451" lon="3.35764">
        <ele>102</ele>
        <time>2022-07-09T12:25:18Z</time>
      </trkpt>
      <trkpt lat="47.98441" lon="3.35764">
        <ele>102.19999694824</ele>
        <time>2022-07-09T12:25:26Z</time>
      </trkpt>
      <trkpt lat="47.9844" lon="3.35763">
        <ele>102.19999694824</ele>
        <time>2022-07-09T12:25:27Z</time>
      </trkpt>
      <trkpt lat="47.98427" lon="3.35762">
        <ele>103</ele>
        <time>2022-07-09T12:25:35Z</time>
      </trkpt>
      <trkpt lat="47.98413" lon="3.35769">
        <ele>101.59999847412</ele>
        <time>2022-07-09T12:25:52Z</time>
      </trkpt>
      <trkpt lat="47.984" lon="3.35769">
        <ele>102</ele>
        <time>2022-07-09T12:26:09Z</time>
      </trkpt>
      <trkpt lat="47.98391" lon="3.35769">
        <ele>101.80000305176</ele>
        <time>2022-07-09T12:26:16Z</time>
      </trkpt>
      <trkpt lat="47.9837" lon="3.35767">
        <ele>102.19999694824</ele>
        <time>2022-07-09T12:26:36Z</time>
      </trkpt>
      <trkpt lat="47.98358" lon="3.35768">
        <ele>101.80000305176</ele>
        <time>2022-07-09T12:26:46Z</time>
      </trkpt>
      <trkpt lat="47.9834" lon="3.35775">
        <ele>101.40000152588</ele>
        <time>2022-07-09T12:27:00Z</time>
      </trkpt>
      <trkpt lat="47.98323" lon="3.35781">
        <ele>101</ele>
        <time>2022-07-09T12:27:16Z</time>
      </trkpt>
      <trkpt lat="47.98319" lon="3.35781">
        <ele>101</ele>
        <time>2022-07-09T12:27:19Z</time>
      </trkpt>
      <trkpt lat="47.9831" lon="3.35787">
        <ele>101.19999694824</ele>
        <time>2022-07-09T12:27:28Z</time>
      </trkpt>
      <trkpt lat="47.98303" lon="3.35789">
        <ele>100.80000305176</ele>
        <time>2022-07-09T12:27:46Z</time>
      </trkpt>
      <trkpt lat="47.98293" lon="3.35791">
        <ele>101.59999847412</ele>
        <time>2022-07-09T12:27:54Z</time>
      </trkpt>
      <trkpt lat="47.98292" lon="3.35791">
        <ele>101.59999847412</ele>
        <time>2022-07-09T12:27:55Z</time>
      </trkpt>
      <trkpt lat="47.98274" lon="3.35794">
        <ele>101</ele>
        <time>2022-07-09T12:28:11Z</time>
      </trkpt>
      <trkpt lat="47.98252" lon="3.35791">
        <ele>100.80000305176</ele>
        <time>2022-07-09T12:28:31Z</time>
      </trkpt>
      <trkpt lat="47.98236" lon="3.35783">
        <ele>100.59999847412</ele>
        <time>2022-07-09T12:28:49Z</time>
      </trkpt>
      <trkpt lat="47.98232" lon="3.35775">
        <ele>100.80000305176</ele>
        <time>2022-07-09T12:29:02Z</time>
      </trkpt>
      <trkpt lat="47.98232" lon="3.3577">
        <ele>104</ele>
        <time>2022-07-09T12:29:13Z</time>
      </trkpt>
      <trkpt lat="47.98225" lon="3.35761">
        <ele>102.80000305176</ele>
        <time>2022-07-09T12:29:26Z</time>
      </trkpt>
      <trkpt lat="47.98224" lon="3.35761">
        <ele>102.59999847412</ele>
        <time>2022-07-09T12:29:27Z</time>
      </trkpt>
      <trkpt lat="47.98208" lon="3.35756">
        <ele>102.59999847412</ele>
        <time>2022-07-09T12:29:38Z</time>
      </trkpt>
      <trkpt lat="47.98194" lon="3.35755">
        <ele>102.80000305176</ele>
        <time>2022-07-09T12:29:50Z</time>
      </trkpt>
      <trkpt lat="47.98186" lon="3.35758">
        <ele>102.80000305176</ele>
        <time>2022-07-09T12:29:57Z</time>
      </trkpt>
      <trkpt lat="47.98181" lon="3.35759">
        <ele>102.80000305176</ele>
        <time>2022-07-09T12:30:02Z</time>
      </trkpt>
      <trkpt lat="47.98172" lon="3.35759">
        <ele>102.80000305176</ele>
        <time>2022-07-09T12:30:09Z</time>
      </trkpt>
      <trkpt lat="47.98167" lon="3.3576">
        <ele>102.80000305176</ele>
        <time>2022-07-09T12:30:12Z</time>
      </trkpt>
      <trkpt lat="47.98157" lon="3.35762">
        <ele>102.80000305176</ele>
        <time>2022-07-09T12:30:21Z</time>
      </trkpt>
      <trkpt lat="47.98149" lon="3.35764">
        <ele>102.80000305176</ele>
        <time>2022-07-09T12:30:27Z</time>
      </trkpt>
      <trkpt lat="47.98148" lon="3.35765">
        <ele>102.80000305176</ele>
        <time>2022-07-09T12:30:28Z</time>
      </trkpt>
      <trkpt lat="47.98138" lon="3.35772">
        <ele>102.80000305176</ele>
        <time>2022-07-09T12:30:37Z</time>
      </trkpt>
      <trkpt lat="47.98129" lon="3.35776">
        <ele>103.19999694824</ele>
        <time>2022-07-09T12:30:45Z</time>
      </trkpt>
      <trkpt lat="47.98113" lon="3.35782">
        <ele>103.19999694824</ele>
        <time>2022-07-09T12:31:02Z</time>
      </trkpt>
      <trkpt lat="47.9811" lon="3.35787">
        <ele>103.59999847412</ele>
        <time>2022-07-09T12:31:21Z</time>
      </trkpt>
      <trkpt lat="47.98117" lon="3.35788">
        <ele>103</ele>
        <time>2022-07-09T12:31:35Z</time>
      </trkpt>
      <trkpt lat="47.98119" lon="3.3579">
        <ele>103.40000152588</ele>
        <time>2022-07-09T12:31:40Z</time>
      </trkpt>
      <trkpt lat="47.98132" lon="3.35795">
        <ele>102.40000152588</ele>
        <time>2022-07-09T12:31:55Z</time>
      </trkpt>
      <trkpt lat="47.98133" lon="3.35796">
        <ele>102.19999694824</ele>
        <time>2022-07-09T12:31:57Z</time>
      </trkpt>
      <trkpt lat="47.98142" lon="3.35806">
        <ele>102</ele>
        <time>2022-07-09T12:32:07Z</time>
      </trkpt>
      <trkpt lat="47.98154" lon="3.35829">
        <ele>102.19999694824</ele>
        <time>2022-07-09T12:32:22Z</time>
      </trkpt>
      <trkpt lat="47.98162" lon="3.35847">
        <ele>102.40000152588</ele>
        <time>2022-07-09T12:32:32Z</time>
      </trkpt>
      <trkpt lat="47.98165" lon="3.35873">
        <ele>102.59999847412</ele>
        <time>2022-07-09T12:32:48Z</time>
      </trkpt>
      <trkpt lat="47.98169" lon="3.35887">
        <ele>102.59999847412</ele>
        <time>2022-07-09T12:32:57Z</time>
      </trkpt>
      <trkpt lat="47.98171" lon="3.35904">
        <ele>102.59999847412</ele>
        <time>2022-07-09T12:33:07Z</time>
      </trkpt>
      <trkpt lat="47.98176" lon="3.35927">
        <ele>102.59999847412</ele>
        <time>2022-07-09T12:33:22Z</time>
      </trkpt>
      <trkpt lat="47.98181" lon="3.35946">
        <ele>102.40000152588</ele>
        <time>2022-07-09T12:33:35Z</time>
      </trkpt>
      <trkpt lat="47.98183" lon="3.35971">
        <ele>102.19999694824</ele>
        <time>2022-07-09T12:33:49Z</time>
      </trkpt>
      <trkpt lat="47.98185" lon="3.3599">
        <ele>101.80000305176</ele>
        <time>2022-07-09T12:34:01Z</time>
      </trkpt>
      <trkpt lat="47.98186" lon="3.36004">
        <ele>101.80000305176</ele>
        <time>2022-07-09T12:34:09Z</time>
      </trkpt>
      <trkpt lat="47.98185" lon="3.3601">
        <ele>101.80000305176</ele>
        <time>2022-07-09T12:34:12Z</time>
      </trkpt>
      <trkpt lat="47.98185" lon="3.36012">
        <ele>101.80000305176</ele>
        <time>2022-07-09T12:34:13Z</time>
      </trkpt>
      <trkpt lat="47.98187" lon="3.36026">
        <ele>101.80000305176</ele>
        <time>2022-07-09T12:34:22Z</time>
      </trkpt>
      <trkpt lat="47.98189" lon="3.36038">
        <ele>101.80000305176</ele>
        <time>2022-07-09T12:34:31Z</time>
      </trkpt>
      <trkpt lat="47.98192" lon="3.36053">
        <ele>101.80000305176</ele>
        <time>2022-07-09T12:34:40Z</time>
      </trkpt>
      <trkpt lat="47.98191" lon="3.36069">
        <ele>101.80000305176</ele>
        <time>2022-07-09T12:34:54Z</time>
      </trkpt>
      <trkpt lat="47.98189" lon="3.36092">
        <ele>101.80000305176</ele>
        <time>2022-07-09T12:35:06Z</time>
      </trkpt>
      <trkpt lat="47.98191" lon="3.3611">
        <ele>101.59999847412</ele>
        <time>2022-07-09T12:35:19Z</time>
      </trkpt>
      <trkpt lat="47.98195" lon="3.3613">
        <ele>102</ele>
        <time>2022-07-09T12:35:30Z</time>
      </trkpt>
      <trkpt lat="47.98198" lon="3.36144">
        <ele>101.80000305176</ele>
        <time>2022-07-09T12:35:41Z</time>
      </trkpt>
      <trkpt lat="47.98201" lon="3.3616">
        <ele>102</ele>
        <time>2022-07-09T12:35:52Z</time>
      </trkpt>
      <trkpt lat="47.98199" lon="3.36182">
        <ele>102</ele>
        <time>2022-07-09T12:36:04Z</time>
      </trkpt>
      <trkpt lat="47.98194" lon="3.36216">
        <ele>102</ele>
        <time>2022-07-09T12:36:26Z</time>
      </trkpt>
      <trkpt lat="47.98194" lon="3.36218">
        <ele>102</ele>
        <time>2022-07-09T12:36:27Z</time>
      </trkpt>
      <trkpt lat="47.98194" lon="3.36227">
        <ele>102.19999694824</ele>
        <time>2022-07-09T12:36:32Z</time>
      </trkpt>
      <trkpt lat="47.98199" lon="3.36242">
        <ele>102.40000152588</ele>
        <time>2022-07-09T12:36:43Z</time>
      </trkpt>
      <trkpt lat="47.9821" lon="3.36288">
        <ele>102.40000152588</ele>
        <time>2022-07-09T12:37:13Z</time>
      </trkpt>
      <trkpt lat="47.98214" lon="3.3632">
        <ele>102.80000305176</ele>
        <time>2022-07-09T12:37:34Z</time>
      </trkpt>
      <trkpt lat="47.98218" lon="3.36343">
        <ele>102.80000305176</ele>
        <time>2022-07-09T12:37:46Z</time>
      </trkpt>
      <trkpt lat="47.98221" lon="3.36365">
        <ele>102.40000152588</ele>
        <time>2022-07-09T12:37:59Z</time>
      </trkpt>
      <trkpt lat="47.98224" lon="3.36379">
        <ele>102.80000305176</ele>
        <time>2022-07-09T12:38:09Z</time>
      </trkpt>
      <trkpt lat="47.98228" lon="3.36401">
        <ele>102.80000305176</ele>
        <time>2022-07-09T12:38:23Z</time>
      </trkpt>
      <trkpt lat="47.98232" lon="3.36424">
        <ele>102.80000305176</ele>
        <time>2022-07-09T12:38:36Z</time>
      </trkpt>
      <trkpt lat="47.98236" lon="3.36443">
        <ele>102.80000305176</ele>
        <time>2022-07-09T12:38:48Z</time>
      </trkpt>
      <trkpt lat="47.98238" lon="3.36459">
        <ele>102.80000305176</ele>
        <time>2022-07-09T12:38:58Z</time>
      </trkpt>
      <trkpt lat="47.98241" lon="3.36474">
        <ele>102.80000305176</ele>
        <time>2022-07-09T12:39:07Z</time>
      </trkpt>
      <trkpt lat="47.98246" lon="3.36518">
        <ele>103</ele>
        <time>2022-07-09T12:39:31Z</time>
      </trkpt>
      <trkpt lat="47.9825" lon="3.36537">
        <ele>102.80000305176</ele>
        <time>2022-07-09T12:39:43Z</time>
      </trkpt>
      <trkpt lat="47.98254" lon="3.36565">
        <ele>102.80000305176</ele>
        <time>2022-07-09T12:40:01Z</time>
      </trkpt>
      <trkpt lat="47.98262" lon="3.36597">
        <ele>102.80000305176</ele>
        <time>2022-07-09T12:40:21Z</time>
      </trkpt>
      <trkpt lat="47.98268" lon="3.36634">
        <ele>102.59999847412</ele>
        <time>2022-07-09T12:40:42Z</time>
      </trkpt>
      <trkpt lat="47.98272" lon="3.3665">
        <ele>102.80000305176</ele>
        <time>2022-07-09T12:40:51Z</time>
      </trkpt>
      <trkpt lat="47.98277" lon="3.36682">
        <ele>102.80000305176</ele>
        <time>2022-07-09T12:41:10Z</time>
      </trkpt>
      <trkpt lat="47.98283" lon="3.36718">
        <ele>102.59999847412</ele>
        <time>2022-07-09T12:41:30Z</time>
      </trkpt>
      <trkpt lat="47.98287" lon="3.3675">
        <ele>102.40000152588</ele>
        <time>2022-07-09T12:41:49Z</time>
      </trkpt>
      <trkpt lat="47.98293" lon="3.36783">
        <ele>102.59999847412</ele>
        <time>2022-07-09T12:42:09Z</time>
      </trkpt>
      <trkpt lat="47.98296" lon="3.36802">
        <ele>102.59999847412</ele>
        <time>2022-07-09T12:42:20Z</time>
      </trkpt>
      <trkpt lat="47.98302" lon="3.36813">
        <ele>102.59999847412</ele>
        <time>2022-07-09T12:42:28Z</time>
      </trkpt>
      <trkpt lat="47.98313" lon="3.36844">
        <ele>102.80000305176</ele>
        <time>2022-07-09T12:42:50Z</time>
      </trkpt>
      <trkpt lat="47.98319" lon="3.36865">
        <ele>102.59999847412</ele>
        <time>2022-07-09T12:43:03Z</time>
      </trkpt>
      <trkpt lat="47.9832" lon="3.36885">
        <ele>102.59999847412</ele>
        <time>2022-07-09T12:43:18Z</time>
      </trkpt>
      <trkpt lat="47.9832" lon="3.36889">
        <ele>102.59999847412</ele>
        <time>2022-07-09T12:43:21Z</time>
      </trkpt>
      <trkpt lat="47.98316" lon="3.36915">
        <ele>102.40000152588</ele>
        <time>2022-07-09T12:43:38Z</time>
      </trkpt>
      <trkpt lat="47.98316" lon="3.36917">
        <ele>102.40000152588</ele>
        <time>2022-07-09T12:43:39Z</time>
      </trkpt>
      <trkpt lat="47.98307" lon="3.36942">
        <ele>102.40000152588</ele>
        <time>2022-07-09T12:43:55Z</time>
      </trkpt>
      <trkpt lat="47.98299" lon="3.36962">
        <ele>102.59999847412</ele>
        <time>2022-07-09T12:44:08Z</time>
      </trkpt>
      <trkpt lat="47.9829" lon="3.36979">
        <ele>102.59999847412</ele>
        <time>2022-07-09T12:44:20Z</time>
      </trkpt>
      <trkpt lat="47.98289" lon="3.36984">
        <ele>102.59999847412</ele>
        <time>2022-07-09T12:44:23Z</time>
      </trkpt>
      <trkpt lat="47.98287" lon="3.36991">
        <ele>102.40000152588</ele>
        <time>2022-07-09T12:44:27Z</time>
      </trkpt>
      <trkpt lat="47.98281" lon="3.37007">
        <ele>102.59999847412</ele>
        <time>2022-07-09T12:44:40Z</time>
      </trkpt>
      <trkpt lat="47.98269" lon="3.37037">
        <ele>102.59999847412</ele>
        <time>2022-07-09T12:45:01Z</time>
      </trkpt>
      <trkpt lat="47.98262" lon="3.3706">
        <ele>102.80000305176</ele>
        <time>2022-07-09T12:45:16Z</time>
      </trkpt>
      <trkpt lat="47.98258" lon="3.37076">
        <ele>102.80000305176</ele>
        <time>2022-07-09T12:45:26Z</time>
      </trkpt>
      <trkpt lat="47.98259" lon="3.37096">
        <ele>102.19999694824</ele>
        <time>2022-07-09T12:45:37Z</time>
      </trkpt>
      <trkpt lat="47.98271" lon="3.37138">
        <ele>102.40000152588</ele>
        <time>2022-07-09T12:46:05Z</time>
      </trkpt>
      <trkpt lat="47.98273" lon="3.37142">
        <ele>102.40000152588</ele>
        <time>2022-07-09T12:46:08Z</time>
      </trkpt>
      <trkpt lat="47.98277" lon="3.37161">
        <ele>102.80000305176</ele>
        <time>2022-07-09T12:46:19Z</time>
      </trkpt>
      <trkpt lat="47.98275" lon="3.37168">
        <ele>102.80000305176</ele>
        <time>2022-07-09T12:46:23Z</time>
      </trkpt>
      <trkpt lat="47.98274" lon="3.37171">
        <ele>102.80000305176</ele>
        <time>2022-07-09T12:46:24Z</time>
      </trkpt>
      <trkpt lat="47.98273" lon="3.37172">
        <ele>102.80000305176</ele>
        <time>2022-07-09T12:46:25Z</time>
      </trkpt>
      <trkpt lat="47.98272" lon="3.37174">
        <ele>102.80000305176</ele>
        <time>2022-07-09T12:46:26Z</time>
      </trkpt>
      <trkpt lat="47.98272" lon="3.37176">
        <ele>102.80000305176</ele>
        <time>2022-07-09T12:46:27Z</time>
      </trkpt>
      <trkpt lat="47.98266" lon="3.37195">
        <ele>103</ele>
        <time>2022-07-09T12:46:40Z</time>
      </trkpt>
      <trkpt lat="47.9826" lon="3.37214">
        <ele>102.80000305176</ele>
        <time>2022-07-09T12:46:55Z</time>
      </trkpt>
      <trkpt lat="47.98259" lon="3.37219">
        <ele>103</ele>
        <time>2022-07-09T12:46:58Z</time>
      </trkpt>
      <trkpt lat="47.98256" lon="3.37226">
        <ele>103</ele>
        <time>2022-07-09T12:47:02Z</time>
      </trkpt>
      <trkpt lat="47.98253" lon="3.37236">
        <ele>103</ele>
        <time>2022-07-09T12:47:09Z</time>
      </trkpt>
      <trkpt lat="47.98251" lon="3.37241">
        <ele>103.19999694824</ele>
        <time>2022-07-09T12:47:12Z</time>
      </trkpt>
      <trkpt lat="47.9825" lon="3.37246">
        <ele>103.19999694824</ele>
        <time>2022-07-09T12:47:15Z</time>
      </trkpt>
      <trkpt lat="47.98246" lon="3.37261">
        <ele>103.19999694824</ele>
        <time>2022-07-09T12:47:24Z</time>
      </trkpt>
      <trkpt lat="47.98243" lon="3.37275">
        <ele>103.19999694824</ele>
        <time>2022-07-09T12:47:33Z</time>
      </trkpt>
      <trkpt lat="47.98243" lon="3.37282">
        <ele>103.19999694824</ele>
        <time>2022-07-09T12:47:37Z</time>
      </trkpt>
      <trkpt lat="47.98242" lon="3.37287">
        <ele>103.19999694824</ele>
        <time>2022-07-09T12:47:40Z</time>
      </trkpt>
      <trkpt lat="47.98242" lon="3.37294">
        <ele>103.19999694824</ele>
        <time>2022-07-09T12:47:44Z</time>
      </trkpt>
      <trkpt lat="47.98242" lon="3.37299">
        <ele>103.19999694824</ele>
        <time>2022-07-09T12:47:47Z</time>
      </trkpt>
      <trkpt lat="47.98243" lon="3.37317">
        <ele>103.19999694824</ele>
        <time>2022-07-09T12:47:58Z</time>
      </trkpt>
      <trkpt lat="47.98243" lon="3.37323">
        <ele>103.19999694824</ele>
        <time>2022-07-09T12:48:02Z</time>
      </trkpt>
      <trkpt lat="47.98244" lon="3.37332">
        <ele>103.19999694824</ele>
        <time>2022-07-09T12:48:07Z</time>
      </trkpt>
      <trkpt lat="47.98251" lon="3.37365">
        <ele>103.40000152588</ele>
        <time>2022-07-09T12:48:24Z</time>
      </trkpt>
      <trkpt lat="47.98253" lon="3.37385">
        <ele>103.80000305176</ele>
        <time>2022-07-09T12:48:35Z</time>
      </trkpt>
      <trkpt lat="47.98244" lon="3.37408">
        <ele>104.40000152588</ele>
        <time>2022-07-09T12:48:52Z</time>
      </trkpt>
      <trkpt lat="47.98237" lon="3.3743">
        <ele>105</ele>
        <time>2022-07-09T12:49:07Z</time>
      </trkpt>
      <trkpt lat="47.98233" lon="3.37445">
        <ele>105.19999694824</ele>
        <time>2022-07-09T12:49:22Z</time>
      </trkpt>
      <trkpt lat="47.98227" lon="3.3746">
        <ele>105.40000152588</ele>
        <time>2022-07-09T12:49:33Z</time>
      </trkpt>
      <trkpt lat="47.98226" lon="3.37462">
        <ele>105.40000152588</ele>
        <time>2022-07-09T12:49:34Z</time>
      </trkpt>
      <trkpt lat="47.98213" lon="3.37492">
        <ele>106.19999694824</ele>
        <time>2022-07-09T12:49:53Z</time>
      </trkpt>
      <trkpt lat="47.98204" lon="3.37526">
        <ele>107.40000152588</ele>
        <time>2022-07-09T12:50:11Z</time>
      </trkpt>
      <trkpt lat="47.98209" lon="3.37541">
        <ele>108.59999847412</ele>
        <time>2022-07-09T12:50:25Z</time>
      </trkpt>
      <trkpt lat="47.98229" lon="3.37558">
        <ele>109.19999694824</ele>
        <time>2022-07-09T12:50:46Z</time>
      </trkpt>
      <trkpt lat="47.98234" lon="3.37578">
        <ele>108.40000152588</ele>
        <time>2022-07-09T12:50:58Z</time>
      </trkpt>
      <trkpt lat="47.98232" lon="3.37608">
        <ele>107</ele>
        <time>2022-07-09T12:51:20Z</time>
      </trkpt>
      <trkpt lat="47.98225" lon="3.3764">
        <ele>106.19999694824</ele>
        <time>2022-07-09T12:51:34Z</time>
      </trkpt>
      <trkpt lat="47.98222" lon="3.37661">
        <ele>105.80000305176</ele>
        <time>2022-07-09T12:51:45Z</time>
      </trkpt>
      <trkpt lat="47.9822" lon="3.37716">
        <ele>105.40000152588</ele>
        <time>2022-07-09T12:52:09Z</time>
      </trkpt>
      <trkpt lat="47.98219" lon="3.37751">
        <ele>105.40000152588</ele>
        <time>2022-07-09T12:52:27Z</time>
      </trkpt>
      <trkpt lat="47.98221" lon="3.37784">
        <ele>105</ele>
        <time>2022-07-09T12:52:45Z</time>
      </trkpt>
      <trkpt lat="47.98226" lon="3.3782">
        <ele>105.19999694824</ele>
        <time>2022-07-09T12:53:03Z</time>
      </trkpt>
      <trkpt lat="47.9823" lon="3.37833">
        <ele>105</ele>
        <time>2022-07-09T12:53:11Z</time>
      </trkpt>
      <trkpt lat="47.98231" lon="3.37838">
        <ele>104.80000305176</ele>
        <time>2022-07-09T12:53:14Z</time>
      </trkpt>
      <trkpt lat="47.98232" lon="3.37851">
        <ele>105.80000305176</ele>
        <time>2022-07-09T12:53:21Z</time>
      </trkpt>
      <trkpt lat="47.98232" lon="3.37853">
        <ele>105.80000305176</ele>
        <time>2022-07-09T12:53:22Z</time>
      </trkpt>
      <trkpt lat="47.98231" lon="3.37859">
        <ele>105.40000152588</ele>
        <time>2022-07-09T12:53:26Z</time>
      </trkpt>
      <trkpt lat="47.98231" lon="3.37861">
        <ele>105.40000152588</ele>
        <time>2022-07-09T12:53:27Z</time>
      </trkpt>
      <trkpt lat="47.98232" lon="3.3788">
        <ele>105</ele>
        <time>2022-07-09T12:53:45Z</time>
      </trkpt>
      <trkpt lat="47.98238" lon="3.37896">
        <ele>104.59999847412</ele>
        <time>2022-07-09T12:53:57Z</time>
      </trkpt>
      <trkpt lat="47.98243" lon="3.37912">
        <ele>105.19999694824</ele>
        <time>2022-07-09T12:54:08Z</time>
      </trkpt>
      <trkpt lat="47.98251" lon="3.37931">
        <ele>105.19999694824</ele>
        <time>2022-07-09T12:54:22Z</time>
      </trkpt>
      <trkpt lat="47.98256" lon="3.3795">
        <ele>105</ele>
        <time>2022-07-09T12:54:33Z</time>
      </trkpt>
      <trkpt lat="47.98261" lon="3.37969">
        <ele>105</ele>
        <time>2022-07-09T12:54:44Z</time>
      </trkpt>
      <trkpt lat="47.98264" lon="3.37994">
        <ele>105.19999694824</ele>
        <time>2022-07-09T12:54:57Z</time>
      </trkpt>
      <trkpt lat="47.9827" lon="3.38011">
        <ele>105</ele>
        <time>2022-07-09T12:55:07Z</time>
      </trkpt>
      <trkpt lat="47.98276" lon="3.38037">
        <ele>105</ele>
        <time>2022-07-09T12:55:20Z</time>
      </trkpt>
      <trkpt lat="47.98279" lon="3.38057">
        <ele>105</ele>
        <time>2022-07-09T12:55:30Z</time>
      </trkpt>
      <trkpt lat="47.98281" lon="3.38071">
        <ele>105.19999694824</ele>
        <time>2022-07-09T12:55:36Z</time>
      </trkpt>
      <trkpt lat="47.98281" lon="3.38075">
        <ele>105.19999694824</ele>
        <time>2022-07-09T12:55:38Z</time>
      </trkpt>
      <trkpt lat="47.98282" lon="3.38107">
        <ele>105.19999694824</ele>
        <time>2022-07-09T12:55:53Z</time>
      </trkpt>
      <trkpt lat="47.98283" lon="3.38123">
        <ele>105.19999694824</ele>
        <time>2022-07-09T12:56:02Z</time>
      </trkpt>
      <trkpt lat="47.98284" lon="3.38133">
        <ele>105.19999694824</ele>
        <time>2022-07-09T12:56:07Z</time>
      </trkpt>
      <trkpt lat="47.98284" lon="3.38145">
        <ele>105.19999694824</ele>
        <time>2022-07-09T12:56:13Z</time>
      </trkpt>
      <trkpt lat="47.98284" lon="3.38147">
        <ele>105.19999694824</ele>
        <time>2022-07-09T12:56:14Z</time>
      </trkpt>
      <trkpt lat="47.98284" lon="3.38155">
        <ele>105.19999694824</ele>
        <time>2022-07-09T12:56:18Z</time>
      </trkpt>
      <trkpt lat="47.98285" lon="3.38165">
        <ele>105.19999694824</ele>
        <time>2022-07-09T12:56:24Z</time>
      </trkpt>
      <trkpt lat="47.98286" lon="3.38166">
        <ele>105.19999694824</ele>
        <time>2022-07-09T12:56:25Z</time>
      </trkpt>
      <trkpt lat="47.98287" lon="3.38187">
        <ele>105.19999694824</ele>
        <time>2022-07-09T12:56:37Z</time>
      </trkpt>
      <trkpt lat="47.98289" lon="3.38261">
        <ele>105.40000152588</ele>
        <time>2022-07-09T12:57:10Z</time>
      </trkpt>
      <trkpt lat="47.98289" lon="3.38265">
        <ele>105.40000152588</ele>
        <time>2022-07-09T12:57:12Z</time>
      </trkpt>
      <trkpt lat="47.9829" lon="3.38269">
        <ele>105.19999694824</ele>
        <time>2022-07-09T12:57:15Z</time>
      </trkpt>
      <trkpt lat="47.98291" lon="3.38293">
        <ele>105.59999847412</ele>
        <time>2022-07-09T12:57:31Z</time>
      </trkpt>
      <trkpt lat="47.98291" lon="3.38294">
        <ele>105.59999847412</ele>
        <time>2022-07-09T12:57:32Z</time>
      </trkpt>
      <trkpt lat="47.98294" lon="3.38314">
        <ele>105.80000305176</ele>
        <time>2022-07-09T12:57:43Z</time>
      </trkpt>
      <trkpt lat="47.98294" lon="3.38345">
        <ele>105.59999847412</ele>
        <time>2022-07-09T12:57:58Z</time>
      </trkpt>
      <trkpt lat="47.98295" lon="3.38347">
        <ele>105.59999847412</ele>
        <time>2022-07-09T12:57:59Z</time>
      </trkpt>
      <trkpt lat="47.98295" lon="3.38348">
        <ele>105.59999847412</ele>
        <time>2022-07-09T12:58:00Z</time>
      </trkpt>
      <trkpt lat="47.98295" lon="3.3835">
        <ele>105.59999847412</ele>
        <time>2022-07-09T12:58:01Z</time>
      </trkpt>
      <trkpt lat="47.98295" lon="3.38351">
        <ele>105.59999847412</ele>
        <time>2022-07-09T12:58:02Z</time>
      </trkpt>
      <trkpt lat="47.98297" lon="3.3836">
        <ele>105.59999847412</ele>
        <time>2022-07-09T12:58:07Z</time>
      </trkpt>
      <trkpt lat="47.98298" lon="3.38396">
        <ele>105.80000305176</ele>
        <time>2022-07-09T12:58:25Z</time>
      </trkpt>
      <trkpt lat="47.98299" lon="3.38399">
        <ele>105.80000305176</ele>
        <time>2022-07-09T12:58:27Z</time>
      </trkpt>
      <trkpt lat="47.98302" lon="3.38406">
        <ele>106.19999694824</ele>
        <time>2022-07-09T12:58:32Z</time>
      </trkpt>
      <trkpt lat="47.98303" lon="3.38411">
        <ele>106.19999694824</ele>
        <time>2022-07-09T12:58:35Z</time>
      </trkpt>
      <trkpt lat="47.98305" lon="3.38436">
        <ele>106.59999847412</ele>
        <time>2022-07-09T12:58:48Z</time>
      </trkpt>
      <trkpt lat="47.98308" lon="3.3846">
        <ele>106.80000305176</ele>
        <time>2022-07-09T12:59:00Z</time>
      </trkpt>
      <trkpt lat="47.9831" lon="3.3847">
        <ele>107</ele>
        <time>2022-07-09T12:59:05Z</time>
      </trkpt>
      <trkpt lat="47.98311" lon="3.38476">
        <ele>107</ele>
        <time>2022-07-09T12:59:08Z</time>
      </trkpt>
      <trkpt lat="47.98311" lon="3.38481">
        <ele>107</ele>
        <time>2022-07-09T12:59:11Z</time>
      </trkpt>
      <trkpt lat="47.98312" lon="3.38484">
        <ele>107</ele>
        <time>2022-07-09T12:59:13Z</time>
      </trkpt>
      <trkpt lat="47.98312" lon="3.38486">
        <ele>107</ele>
        <time>2022-07-09T12:59:14Z</time>
      </trkpt>
      <trkpt lat="47.98314" lon="3.38506">
        <ele>107.40000152588</ele>
        <time>2022-07-09T12:59:27Z</time>
      </trkpt>
      <trkpt lat="47.98315" lon="3.38517">
        <ele>107.40000152588</ele>
        <time>2022-07-09T12:59:34Z</time>
      </trkpt>
      <trkpt lat="47.98316" lon="3.38531">
        <ele>107.59999847412</ele>
        <time>2022-07-09T12:59:43Z</time>
      </trkpt>
      <trkpt lat="47.98318" lon="3.38545">
        <ele>107.80000305176</ele>
        <time>2022-07-09T12:59:51Z</time>
      </trkpt>
      <trkpt lat="47.98318" lon="3.38546">
        <ele>107.80000305176</ele>
        <time>2022-07-09T12:59:52Z</time>
      </trkpt>
      <trkpt lat="47.98318" lon="3.38564">
        <ele>108.19999694824</ele>
        <time>2022-07-09T13:00:03Z</time>
      </trkpt>
      <trkpt lat="47.98321" lon="3.38583">
        <ele>108</ele>
        <time>2022-07-09T13:00:15Z</time>
      </trkpt>
      <trkpt lat="47.98318" lon="3.38602">
        <ele>108.19999694824</ele>
        <time>2022-07-09T13:00:25Z</time>
      </trkpt>
      <trkpt lat="47.98315" lon="3.38626">
        <ele>108.80000305176</ele>
        <time>2022-07-09T13:00:37Z</time>
      </trkpt>
      <trkpt lat="47.98315" lon="3.38639">
        <ele>108.80000305176</ele>
        <time>2022-07-09T13:00:44Z</time>
      </trkpt>
      <trkpt lat="47.98318" lon="3.38656">
        <ele>108.80000305176</ele>
        <time>2022-07-09T13:00:53Z</time>
      </trkpt>
      <trkpt lat="47.9832" lon="3.38676">
        <ele>108.80000305176</ele>
        <time>2022-07-09T13:01:04Z</time>
      </trkpt>
      <trkpt lat="47.9832" lon="3.38678">
        <ele>108.80000305176</ele>
        <time>2022-07-09T13:01:05Z</time>
      </trkpt>
      <trkpt lat="47.9832" lon="3.38685">
        <ele>109</ele>
        <time>2022-07-09T13:01:08Z</time>
      </trkpt>
      <trkpt lat="47.98319" lon="3.38696">
        <ele>109.40000152588</ele>
        <time>2022-07-09T13:01:14Z</time>
      </trkpt>
      <trkpt lat="47.98318" lon="3.38704">
        <ele>109.80000305176</ele>
        <time>2022-07-09T13:01:18Z</time>
      </trkpt>
      <trkpt lat="47.98316" lon="3.38729">
        <ele>110.19999694824</ele>
        <time>2022-07-09T13:01:30Z</time>
      </trkpt>
      <trkpt lat="47.98316" lon="3.38737">
        <ele>110.40000152588</ele>
        <time>2022-07-09T13:01:35Z</time>
      </trkpt>
      <trkpt lat="47.98318" lon="3.38752">
        <ele>111</ele>
        <time>2022-07-09T13:01:45Z</time>
      </trkpt>
      <trkpt lat="47.98318" lon="3.38772">
        <ele>111.40000152588</ele>
        <time>2022-07-09T13:02:00Z</time>
      </trkpt>
      <trkpt lat="47.98312" lon="3.3879">
        <ele>111</ele>
        <time>2022-07-09T13:02:23Z</time>
      </trkpt>
      <trkpt lat="47.98312" lon="3.38801">
        <ele>111</ele>
        <time>2022-07-09T13:02:31Z</time>
      </trkpt>
      <trkpt lat="47.98311" lon="3.38815">
        <ele>110.80000305176</ele>
        <time>2022-07-09T13:02:40Z</time>
      </trkpt>
      <trkpt lat="47.9831" lon="3.38836">
        <ele>110.80000305176</ele>
        <time>2022-07-09T13:02:52Z</time>
      </trkpt>
      <trkpt lat="47.98306" lon="3.3886">
        <ele>110.40000152588</ele>
        <time>2022-07-09T13:03:02Z</time>
      </trkpt>
      <trkpt lat="47.98301" lon="3.3888">
        <ele>110</ele>
        <time>2022-07-09T13:03:10Z</time>
      </trkpt>
      <trkpt lat="47.98299" lon="3.38893">
        <ele>110</ele>
        <time>2022-07-09T13:03:16Z</time>
      </trkpt>
      <trkpt lat="47.98299" lon="3.38895">
        <ele>110</ele>
        <time>2022-07-09T13:03:17Z</time>
      </trkpt>
      <trkpt lat="47.98299" lon="3.38896">
        <ele>110</ele>
        <time>2022-07-09T13:03:18Z</time>
      </trkpt>
      <trkpt lat="47.98299" lon="3.38898">
        <ele>110</ele>
        <time>2022-07-09T13:03:19Z</time>
      </trkpt>
      <trkpt lat="47.98297" lon="3.38906">
        <ele>110</ele>
        <time>2022-07-09T13:03:23Z</time>
      </trkpt>
      <trkpt lat="47.98312" lon="3.38919">
        <ele>109.59999847412</ele>
        <time>2022-07-09T13:03:46Z</time>
      </trkpt>
      <trkpt lat="47.98315" lon="3.38956">
        <ele>109.59999847412</ele>
        <time>2022-07-09T13:04:02Z</time>
      </trkpt>
      <trkpt lat="47.98313" lon="3.38971">
        <ele>110</ele>
        <time>2022-07-09T13:04:19Z</time>
      </trkpt>
      <trkpt lat="47.98318" lon="3.38973">
        <ele>110.80000305176</ele>
        <time>2022-07-09T13:05:12Z</time>
      </trkpt>
      <trkpt lat="47.98309" lon="3.3898">
        <ele>110.80000305176</ele>
        <time>2022-07-09T13:06:00Z</time>
      </trkpt>
      <trkpt lat="47.98317" lon="3.38984">
        <ele>110.80000305176</ele>
        <time>2022-07-09T13:06:19Z</time>
      </trkpt>
      <trkpt lat="47.98322" lon="3.38983">
        <ele>110.80000305176</ele>
        <time>2022-07-09T13:06:24Z</time>
      </trkpt>
      <trkpt lat="47.98323" lon="3.38982">
        <ele>111</ele>
        <time>2022-07-09T13:06:25Z</time>
      </trkpt>
      <trkpt lat="47.98324" lon="3.38981">
        <ele>111.19999694824</ele>
        <time>2022-07-09T13:06:26Z</time>
      </trkpt>
      <trkpt lat="47.98328" lon="3.39">
        <ele>114.19999694824</ele>
        <time>2022-07-09T13:06:45Z</time>
      </trkpt>
      <trkpt lat="47.9833" lon="3.39178">
        <ele>113</ele>
        <time>2022-07-09T13:08:22Z</time>
      </trkpt>
      <trkpt lat="47.98346" lon="3.39369">
        <ele>116</ele>
        <time>2022-07-09T13:10:00Z</time>
      </trkpt>
      <trkpt lat="47.98343" lon="3.39393">
        <ele>116.19999694824</ele>
        <time>2022-07-09T13:10:12Z</time>
      </trkpt>
      <trkpt lat="47.98344" lon="3.39407">
        <ele>116.59999847412</ele>
        <time>2022-07-09T13:10:20Z</time>
      </trkpt>
      <trkpt lat="47.98342" lon="3.39412">
        <ele>117</ele>
        <time>2022-07-09T13:10:23Z</time>
      </trkpt>
      <trkpt lat="47.98329" lon="3.39492">
        <ele>120</ele>
        <time>2022-07-09T13:11:31Z</time>
      </trkpt>
      <trkpt lat="47.98329" lon="3.39493">
        <ele>120</ele>
        <time>2022-07-09T13:11:46Z</time>
      </trkpt>
      <trkpt lat="47.9833" lon="3.39497">
        <ele>119.80000305176</ele>
        <time>2022-07-09T13:11:51Z</time>
      </trkpt>
      <trkpt lat="47.98335" lon="3.39514">
        <ele>121.40000152588</ele>
        <time>2022-07-09T13:12:30Z</time>
      </trkpt>
      <trkpt lat="47.98338" lon="3.39513">
        <ele>122</ele>
        <time>2022-07-09T13:12:47Z</time>
      </trkpt>
      <trkpt lat="47.98334" lon="3.3951">
        <ele>121.40000152588</ele>
        <time>2022-07-09T13:12:59Z</time>
      </trkpt>
      <trkpt lat="47.98333" lon="3.39511">
        <ele>121.19999694824</ele>
        <time>2022-07-09T13:13:01Z</time>
      </trkpt>
      <trkpt lat="47.98323" lon="3.39495">
        <ele>120.19999694824</ele>
        <time>2022-07-09T13:13:58Z</time>
      </trkpt>
      <trkpt lat="47.98322" lon="3.395">
        <ele>120.19999694824</ele>
        <time>2022-07-09T13:14:02Z</time>
      </trkpt>
      <trkpt lat="47.98322" lon="3.39501">
        <ele>120.19999694824</ele>
        <time>2022-07-09T13:14:03Z</time>
      </trkpt>
      <trkpt lat="47.98317" lon="3.39512">
        <ele>120.19999694824</ele>
        <time>2022-07-09T13:14:10Z</time>
      </trkpt>
      <trkpt lat="47.98303" lon="3.3953">
        <ele>120</ele>
        <time>2022-07-09T13:14:25Z</time>
      </trkpt>
      <trkpt lat="47.98307" lon="3.39514">
        <ele>120</ele>
        <time>2022-07-09T13:15:05Z</time>
      </trkpt>
      <trkpt lat="47.9839" lon="3.39558">
        <ele>120</ele>
        <time>2022-07-09T13:15:52Z</time>
      </trkpt>
      <trkpt lat="47.984" lon="3.39565">
        <ele>120</ele>
        <time>2022-07-09T13:15:55Z</time>
      </trkpt>
      <trkpt lat="47.98336" lon="3.39548">
        <ele>120</ele>
        <time>2022-07-09T13:16:04Z</time>
      </trkpt>
      <trkpt lat="47.98277" lon="3.39593">
        <ele>120.19999694824</ele>
        <time>2022-07-09T13:17:01Z</time>
      </trkpt>
      <trkpt lat="47.9833" lon="3.39487">
        <ele>120.19999694824</ele>
        <time>2022-07-09T13:18:08Z</time>
      </trkpt>
      <trkpt lat="47.98341" lon="3.39494">
        <ele>120</ele>
        <time>2022-07-09T13:18:18Z</time>
      </trkpt>
      <trkpt lat="47.98328" lon="3.39498">
        <ele>120.19999694824</ele>
        <time>2022-07-09T13:19:10Z</time>
      </trkpt>
      <trkpt lat="47.98316" lon="3.39523">
        <ele>120.80000305176</ele>
        <time>2022-07-09T13:19:37Z</time>
      </trkpt>
      <trkpt lat="47.98314" lon="3.39526">
        <ele>120.80000305176</ele>
        <time>2022-07-09T13:19:38Z</time>
      </trkpt>
      <trkpt lat="47.98319" lon="3.39568">
        <ele>121.19999694824</ele>
        <time>2022-07-09T13:19:57Z</time>
      </trkpt>
      <trkpt lat="47.98317" lon="3.39555">
        <ele>121</ele>
        <time>2022-07-09T13:20:09Z</time>
      </trkpt>
      <trkpt lat="47.98313" lon="3.39551">
        <ele>120.40000152588</ele>
        <time>2022-07-09T13:20:20Z</time>
      </trkpt>
      <trkpt lat="47.98314" lon="3.39551">
        <ele>120.40000152588</ele>
        <time>2022-07-09T13:20:21Z</time>
      </trkpt>
      <trkpt lat="47.98316" lon="3.39583">
        <ele>123.59999847412</ele>
        <time>2022-07-09T13:20:42Z</time>
      </trkpt>
      <trkpt lat="47.98326" lon="3.39593">
        <ele>124.40000152588</ele>
        <time>2022-07-09T13:20:47Z</time>
      </trkpt>
      <trkpt lat="47.98327" lon="3.39593">
        <ele>124.59999847412</ele>
        <time>2022-07-09T13:20:48Z</time>
      </trkpt>
      <trkpt lat="47.98321" lon="3.396">
        <ele>125.40000152588</ele>
        <time>2022-07-09T13:21:14Z</time>
      </trkpt>
      <trkpt lat="47.98319" lon="3.39616">
        <ele>125</ele>
        <time>2022-07-09T13:21:36Z</time>
      </trkpt>
      <trkpt lat="47.98326" lon="3.39651">
        <ele>127.19999694824</ele>
        <time>2022-07-09T13:22:14Z</time>
      </trkpt>
      <trkpt lat="47.98324" lon="3.3967">
        <ele>128.80000305176</ele>
        <time>2022-07-09T13:22:27Z</time>
      </trkpt>
      <trkpt lat="47.98321" lon="3.39673">
        <ele>129</ele>
        <time>2022-07-09T13:22:31Z</time>
      </trkpt>
      <trkpt lat="47.98303" lon="3.39722">
        <ele>132.19999694824</ele>
        <time>2022-07-09T13:23:03Z</time>
      </trkpt>
      <trkpt lat="47.98301" lon="3.39726">
        <ele>132.39999389648</ele>
        <time>2022-07-09T13:23:07Z</time>
      </trkpt>
      <trkpt lat="47.98293" lon="3.39735">
        <ele>133.39999389648</ele>
        <time>2022-07-09T13:23:20Z</time>
      </trkpt>
      <trkpt lat="47.98291" lon="3.39738">
        <ele>133.39999389648</ele>
        <time>2022-07-09T13:23:22Z</time>
      </trkpt>
      <trkpt lat="47.98291" lon="3.3974">
        <ele>133.60000610352</ele>
        <time>2022-07-09T13:23:23Z</time>
      </trkpt>
      <trkpt lat="47.98292" lon="3.39754">
        <ele>134.80000305176</ele>
        <time>2022-07-09T13:23:33Z</time>
      </trkpt>
      <trkpt lat="47.98286" lon="3.39763">
        <ele>135.19999694824</ele>
        <time>2022-07-09T13:23:42Z</time>
      </trkpt>
      <trkpt lat="47.98284" lon="3.39768">
        <ele>137.19999694824</ele>
        <time>2022-07-09T13:24:13Z</time>
      </trkpt>
      <trkpt lat="47.98281" lon="3.39773">
        <ele>137</ele>
        <time>2022-07-09T13:24:23Z</time>
      </trkpt>
      <trkpt lat="47.98279" lon="3.39786">
        <ele>137.39999389648</ele>
        <time>2022-07-09T13:24:30Z</time>
      </trkpt>
      <trkpt lat="47.98281" lon="3.39812">
        <ele>140.39999389648</ele>
        <time>2022-07-09T13:24:49Z</time>
      </trkpt>
      <trkpt lat="47.98295" lon="3.39786">
        <ele>141</ele>
        <time>2022-07-09T13:25:48Z</time>
      </trkpt>
      <trkpt lat="47.98296" lon="3.39808">
        <ele>141.19999694824</ele>
        <time>2022-07-09T13:27:00Z</time>
      </trkpt>
      <trkpt lat="47.98297" lon="3.39795">
        <ele>141.39999389648</ele>
        <time>2022-07-09T13:27:16Z</time>
      </trkpt>
      <trkpt lat="47.98292" lon="3.39844">
        <ele>141.39999389648</ele>
        <time>2022-07-09T13:28:04Z</time>
      </trkpt>
      <trkpt lat="47.983" lon="3.39837">
        <ele>141.39999389648</ele>
        <time>2022-07-09T13:28:07Z</time>
      </trkpt>
      <trkpt lat="47.98304" lon="3.39835">
        <ele>141.39999389648</ele>
        <time>2022-07-09T13:28:09Z</time>
      </trkpt>
      <trkpt lat="47.98306" lon="3.39834">
        <ele>141.39999389648</ele>
        <time>2022-07-09T13:28:10Z</time>
      </trkpt>
      <trkpt lat="47.98308" lon="3.39832">
        <ele>141.19999694824</ele>
        <time>2022-07-09T13:28:12Z</time>
      </trkpt>
      <trkpt lat="47.9831" lon="3.39831">
        <ele>141.19999694824</ele>
        <time>2022-07-09T13:28:13Z</time>
      </trkpt>
      <trkpt lat="47.98311" lon="3.39829">
        <ele>141.19999694824</ele>
        <time>2022-07-09T13:28:14Z</time>
      </trkpt>
      <trkpt lat="47.98315" lon="3.39822">
        <ele>141.39999389648</ele>
        <time>2022-07-09T13:28:22Z</time>
      </trkpt>
      <trkpt lat="47.98314" lon="3.39825">
        <ele>141.39999389648</ele>
        <time>2022-07-09T13:28:24Z</time>
      </trkpt>
      <trkpt lat="47.98317" lon="3.39831">
        <ele>141.39999389648</ele>
        <time>2022-07-09T13:28:27Z</time>
      </trkpt>
      <trkpt lat="47.98255" lon="3.39856">
        <ele>141.60000610352</ele>
        <time>2022-07-09T13:29:06Z</time>
      </trkpt>
      <trkpt lat="47.98259" lon="3.39857">
        <ele>141.60000610352</ele>
        <time>2022-07-09T13:29:07Z</time>
      </trkpt>
      <trkpt lat="47.98248" lon="3.39866">
        <ele>141.60000610352</ele>
        <time>2022-07-09T13:29:08Z</time>
      </trkpt>
      <trkpt lat="47.98244" lon="3.39867">
        <ele>141.39999389648</ele>
        <time>2022-07-09T13:29:09Z</time>
      </trkpt>
      <trkpt lat="47.9824" lon="3.39868">
        <ele>141.39999389648</ele>
        <time>2022-07-09T13:29:10Z</time>
      </trkpt>
      <trkpt lat="47.98209" lon="3.3987">
        <ele>141.39999389648</ele>
        <time>2022-07-09T13:29:24Z</time>
      </trkpt>
      <trkpt lat="47.98222" lon="3.39852">
        <ele>141.39999389648</ele>
        <time>2022-07-09T13:29:36Z</time>
      </trkpt>
      <trkpt lat="47.98229" lon="3.39852">
        <ele>141.39999389648</ele>
        <time>2022-07-09T13:29:42Z</time>
      </trkpt>
      <trkpt lat="47.9823" lon="3.39853">
        <ele>141.39999389648</ele>
        <time>2022-07-09T13:29:43Z</time>
      </trkpt>
      <trkpt lat="47.98242" lon="3.39852">
        <ele>141.39999389648</ele>
        <time>2022-07-09T13:29:52Z</time>
      </trkpt>
      <trkpt lat="47.98251" lon="3.39846">
        <ele>141.39999389648</ele>
        <time>2022-07-09T13:29:58Z</time>
      </trkpt>
      <trkpt lat="47.98293" lon="3.39807">
        <ele>141.60000610352</ele>
        <time>2022-07-09T13:30:25Z</time>
      </trkpt>
      <trkpt lat="47.98298" lon="3.39815">
        <ele>141.39999389648</ele>
        <time>2022-07-09T13:30:32Z</time>
      </trkpt>
      <trkpt lat="47.98304" lon="3.3982">
        <ele>141.39999389648</ele>
        <time>2022-07-09T13:30:42Z</time>
      </trkpt>
      <trkpt lat="47.98307" lon="3.39819">
        <ele>141.39999389648</ele>
        <time>2022-07-09T13:30:45Z</time>
      </trkpt>
      <trkpt lat="47.98312" lon="3.3982">
        <ele>141.19999694824</ele>
        <time>2022-07-09T13:30:55Z</time>
      </trkpt>
      <trkpt lat="47.98312" lon="3.3982">
        <ele>141.19999694824</ele>
        <time>2022-07-09T13:30:56Z</time>
      </trkpt>
      <trkpt lat="47.98312" lon="3.3982">
        <ele>141.39999389648</ele>
        <time>2022-07-09T13:30:57Z</time>
      </trkpt>
      <trkpt lat="47.98312" lon="3.3982">
        <ele>141.39999389648</ele>
        <time>2022-07-09T13:30:58Z</time>
      </trkpt>
      <trkpt lat="47.98345" lon="3.3982">
        <ele>141.39999389648</ele>
        <time>2022-07-09T13:31:05Z</time>
      </trkpt>
      <trkpt lat="47.98353" lon="3.39818">
        <ele>141.39999389648</ele>
        <time>2022-07-09T13:31:06Z</time>
      </trkpt>
      <trkpt lat="47.98362" lon="3.39816">
        <ele>141.39999389648</ele>
        <time>2022-07-09T13:31:07Z</time>
      </trkpt>
      <trkpt lat="47.9837" lon="3.39813">
        <ele>141.39999389648</ele>
        <time>2022-07-09T13:31:08Z</time>
      </trkpt>
      <trkpt lat="47.98377" lon="3.39814">
        <ele>141.39999389648</ele>
        <time>2022-07-09T13:31:09Z</time>
      </trkpt>
      <trkpt lat="47.9838" lon="3.39813">
        <ele>141.39999389648</ele>
        <time>2022-07-09T13:31:10Z</time>
      </trkpt>
      <trkpt lat="47.98359" lon="3.39819">
        <ele>141.39999389648</ele>
        <time>2022-07-09T13:31:19Z</time>
      </trkpt>
      <trkpt lat="47.98322" lon="3.39832">
        <ele>141.39999389648</ele>
        <time>2022-07-09T13:31:22Z</time>
      </trkpt>
      <trkpt lat="47.98321" lon="3.39826">
        <ele>141.39999389648</ele>
        <time>2022-07-09T13:31:23Z</time>
      </trkpt>
      <trkpt lat="47.98317" lon="3.39818">
        <ele>141.39999389648</ele>
        <time>2022-07-09T13:31:24Z</time>
      </trkpt>
      <trkpt lat="47.9831" lon="3.39818">
        <ele>141.39999389648</ele>
        <time>2022-07-09T13:31:25Z</time>
      </trkpt>
      <trkpt lat="47.98304" lon="3.39822">
        <ele>141.39999389648</ele>
        <time>2022-07-09T13:31:26Z</time>
      </trkpt>
      <trkpt lat="47.98302" lon="3.39823">
        <ele>141.39999389648</ele>
        <time>2022-07-09T13:31:27Z</time>
      </trkpt>
      <trkpt lat="47.98281" lon="3.3986">
        <ele>141.39999389648</ele>
        <time>2022-07-09T13:31:36Z</time>
      </trkpt>
      <trkpt lat="47.98268" lon="3.39872">
        <ele>141.60000610352</ele>
        <time>2022-07-09T13:31:42Z</time>
      </trkpt>
      <trkpt lat="47.9825" lon="3.39887">
        <ele>141.60000610352</ele>
        <time>2022-07-09T13:31:55Z</time>
      </trkpt>
      <trkpt lat="47.98217" lon="3.39853">
        <ele>141.80000305176</ele>
        <time>2022-07-09T13:32:25Z</time>
      </trkpt>
      <trkpt lat="47.98227" lon="3.39884">
        <ele>142</ele>
        <time>2022-07-09T13:33:46Z</time>
      </trkpt>
      <trkpt lat="47.98269" lon="3.39894">
        <ele>142.19999694824</ele>
        <time>2022-07-09T13:34:05Z</time>
      </trkpt>
      <trkpt lat="47.98276" lon="3.39816">
        <ele>141.80000305176</ele>
        <time>2022-07-09T13:35:11Z</time>
      </trkpt>
      <trkpt lat="47.98309" lon="3.39829">
        <ele>144.80000305176</ele>
        <time>2022-07-09T13:35:54Z</time>
      </trkpt>
      <trkpt lat="47.98344" lon="3.39827">
        <ele>145.80000305176</ele>
        <time>2022-07-09T13:36:32Z</time>
      </trkpt>
      <trkpt lat="47.98366" lon="3.39808">
        <ele>144.80000305176</ele>
        <time>2022-07-09T13:37:09Z</time>
      </trkpt>
      <trkpt lat="47.98368" lon="3.39802">
        <ele>144.60000610352</ele>
        <time>2022-07-09T13:37:13Z</time>
      </trkpt>
      <trkpt lat="47.98368" lon="3.39797">
        <ele>144.39999389648</ele>
        <time>2022-07-09T13:37:16Z</time>
      </trkpt>
      <trkpt lat="47.98352" lon="3.39757">
        <ele>141.19999694824</ele>
        <time>2022-07-09T13:38:02Z</time>
      </trkpt>
      <trkpt lat="47.9837" lon="3.39712">
        <ele>138.19999694824</ele>
        <time>2022-07-09T13:38:40Z</time>
      </trkpt>
      <trkpt lat="47.98371" lon="3.3971">
        <ele>138</ele>
        <time>2022-07-09T13:38:42Z</time>
      </trkpt>
      <trkpt lat="47.98372" lon="3.39694">
        <ele>136.80000305176</ele>
        <time>2022-07-09T13:38:55Z</time>
      </trkpt>
      <trkpt lat="47.98374" lon="3.39671">
        <ele>134.80000305176</ele>
        <time>2022-07-09T13:39:09Z</time>
      </trkpt>
      <trkpt lat="47.98373" lon="3.39668">
        <ele>134.60000610352</ele>
        <time>2022-07-09T13:39:11Z</time>
      </trkpt>
      <trkpt lat="47.98358" lon="3.39635">
        <ele>132</ele>
        <time>2022-07-09T13:40:03Z</time>
      </trkpt>
      <trkpt lat="47.98369" lon="3.39621">
        <ele>129</ele>
        <time>2022-07-09T13:40:32Z</time>
      </trkpt>
      <trkpt lat="47.98364" lon="3.39612">
        <ele>128.39999389648</ele>
        <time>2022-07-09T13:40:40Z</time>
      </trkpt>
      <trkpt lat="47.98362" lon="3.39597">
        <ele>127.80000305176</ele>
        <time>2022-07-09T13:40:49Z</time>
      </trkpt>
      <trkpt lat="47.98362" lon="3.39588">
        <ele>127.59999847412</ele>
        <time>2022-07-09T13:40:53Z</time>
      </trkpt>
      <trkpt lat="47.98355" lon="3.39546">
        <ele>125.59999847412</ele>
        <time>2022-07-09T13:41:26Z</time>
      </trkpt>
      <trkpt lat="47.98349" lon="3.39513">
        <ele>124</ele>
        <time>2022-07-09T13:42:13Z</time>
      </trkpt>
      <trkpt lat="47.98348" lon="3.39509">
        <ele>124</ele>
        <time>2022-07-09T13:42:18Z</time>
      </trkpt>
      <trkpt lat="47.98308" lon="3.39518">
        <ele>122.59999847412</ele>
        <time>2022-07-09T13:43:07Z</time>
      </trkpt>
      <trkpt lat="47.98285" lon="3.3948">
        <ele>122.59999847412</ele>
        <time>2022-07-09T13:46:33Z</time>
      </trkpt>
      <trkpt lat="47.98297" lon="3.39516">
        <ele>122.40000152588</ele>
        <time>2022-07-09T13:46:45Z</time>
      </trkpt>
      <trkpt lat="47.9829" lon="3.39527">
        <ele>123.40000152588</ele>
        <time>2022-07-09T13:47:14Z</time>
      </trkpt>
      <trkpt lat="47.98299" lon="3.39544">
        <ele>122.80000305176</ele>
        <time>2022-07-09T13:47:29Z</time>
      </trkpt>
      <trkpt lat="47.98298" lon="3.39548">
        <ele>122.59999847412</ele>
        <time>2022-07-09T13:47:32Z</time>
      </trkpt>
      <trkpt lat="47.98279" lon="3.39542">
        <ele>120.40000152588</ele>
        <time>2022-07-09T13:48:20Z</time>
      </trkpt>
      <trkpt lat="47.98256" lon="3.39537">
        <ele>117.80000305176</ele>
        <time>2022-07-09T13:48:45Z</time>
      </trkpt>
      <trkpt lat="47.98254" lon="3.39537">
        <ele>117.59999847412</ele>
        <time>2022-07-09T13:48:46Z</time>
      </trkpt>
      <trkpt lat="47.98244" lon="3.39533">
        <ele>116.80000305176</ele>
        <time>2022-07-09T13:48:53Z</time>
      </trkpt>
      <trkpt lat="47.98243" lon="3.39533">
        <ele>116.80000305176</ele>
        <time>2022-07-09T13:48:54Z</time>
      </trkpt>
      <trkpt lat="47.98243" lon="3.39532">
        <ele>116.80000305176</ele>
        <time>2022-07-09T13:48:55Z</time>
      </trkpt>
      <trkpt lat="47.98242" lon="3.39519">
        <ele>115.40000152588</ele>
        <time>2022-07-09T13:49:06Z</time>
      </trkpt>
      <trkpt lat="47.9823" lon="3.39509">
        <ele>113.19999694824</ele>
        <time>2022-07-09T13:49:30Z</time>
      </trkpt>
      <trkpt lat="47.98223" lon="3.39515">
        <ele>112.59999847412</ele>
        <time>2022-07-09T13:49:40Z</time>
      </trkpt>
      <trkpt lat="47.98222" lon="3.39515">
        <ele>112.59999847412</ele>
        <time>2022-07-09T13:49:41Z</time>
      </trkpt>
      <trkpt lat="47.98215" lon="3.39524">
        <ele>113.19999694824</ele>
        <time>2022-07-09T13:50:48Z</time>
      </trkpt>
      <trkpt lat="47.98183" lon="3.39609">
        <ele>113.59999847412</ele>
        <time>2022-07-09T13:51:46Z</time>
      </trkpt>
      <trkpt lat="47.98183" lon="3.39608">
        <ele>113.19999694824</ele>
        <time>2022-07-09T13:52:19Z</time>
      </trkpt>
      <trkpt lat="47.98188" lon="3.396">
        <ele>113.19999694824</ele>
        <time>2022-07-09T13:54:07Z</time>
      </trkpt>
      <trkpt lat="47.98193" lon="3.396">
        <ele>113.19999694824</ele>
        <time>2022-07-09T13:54:33Z</time>
      </trkpt>
      <trkpt lat="47.98194" lon="3.39599">
        <ele>113.19999694824</ele>
        <time>2022-07-09T13:54:45Z</time>
      </trkpt>
      <trkpt lat="47.98192" lon="3.39603">
        <ele>113.19999694824</ele>
        <time>2022-07-09T13:55:29Z</time>
      </trkpt>
      <trkpt lat="47.98188" lon="3.39609">
        <ele>113.19999694824</ele>
        <time>2022-07-09T13:55:57Z</time>
      </trkpt>
      <trkpt lat="47.98187" lon="3.39605">
        <ele>113.19999694824</ele>
        <time>2022-07-09T13:56:26Z</time>
      </trkpt>
      <trkpt lat="47.98182" lon="3.39608">
        <ele>113.19999694824</ele>
        <time>2022-07-09T13:56:58Z</time>
      </trkpt>
      <trkpt lat="47.98183" lon="3.39609">
        <ele>113.19999694824</ele>
        <time>2022-07-09T13:57:23Z</time>
      </trkpt>
      <trkpt lat="47.98183" lon="3.39608">
        <ele>113.19999694824</ele>
        <time>2022-07-09T13:57:42Z</time>
      </trkpt>
      <trkpt lat="47.98194" lon="3.39605">
        <ele>113.19999694824</ele>
        <time>2022-07-09T13:58:42Z</time>
      </trkpt>
      <trkpt lat="47.98196" lon="3.39603">
        <ele>113.19999694824</ele>
        <time>2022-07-09T13:59:01Z</time>
      </trkpt>
      <trkpt lat="47.98201" lon="3.39602">
        <ele>113.19999694824</ele>
        <time>2022-07-09T13:59:28Z</time>
      </trkpt>
      <trkpt lat="47.98197" lon="3.39602">
        <ele>113.19999694824</ele>
        <time>2022-07-09T14:00:13Z</time>
      </trkpt>
      <trkpt lat="47.98203" lon="3.39599">
        <ele>113.19999694824</ele>
        <time>2022-07-09T14:00:51Z</time>
      </trkpt>
      <trkpt lat="47.98192" lon="3.39603">
        <ele>113.19999694824</ele>
        <time>2022-07-09T14:01:49Z</time>
      </trkpt>
      <trkpt lat="47.98184" lon="3.39612">
        <ele>113.19999694824</ele>
        <time>2022-07-09T14:03:26Z</time>
      </trkpt>
      <trkpt lat="47.98192" lon="3.39605">
        <ele>113.59999847412</ele>
        <time>2022-07-09T14:04:29Z</time>
      </trkpt>
      <trkpt lat="47.98193" lon="3.39607">
        <ele>114</ele>
        <time>2022-07-09T14:04:48Z</time>
      </trkpt>
      <trkpt lat="47.9819" lon="3.39601">
        <ele>114</ele>
        <time>2022-07-09T14:05:30Z</time>
      </trkpt>
      <trkpt lat="47.98188" lon="3.39599">
        <ele>114</ele>
        <time>2022-07-09T14:05:58Z</time>
      </trkpt>
      <trkpt lat="47.98188" lon="3.39601">
        <ele>114</ele>
        <time>2022-07-09T14:06:21Z</time>
      </trkpt>
      <trkpt lat="47.98193" lon="3.39596">
        <ele>113.80000305176</ele>
        <time>2022-07-09T14:06:48Z</time>
      </trkpt>
      <trkpt lat="47.98193" lon="3.39604">
        <ele>114</ele>
        <time>2022-07-09T14:07:21Z</time>
      </trkpt>
      <trkpt lat="47.98236" lon="3.39592">
        <ele>114</ele>
        <time>2022-07-09T14:08:12Z</time>
      </trkpt>
      <trkpt lat="47.98267" lon="3.39588">
        <ele>113.59999847412</ele>
        <time>2022-07-09T14:08:35Z</time>
      </trkpt>
      <trkpt lat="47.98237" lon="3.39603">
        <ele>113.59999847412</ele>
        <time>2022-07-09T14:08:51Z</time>
      </trkpt>
      <trkpt lat="47.9821" lon="3.39596">
        <ele>113.59999847412</ele>
        <time>2022-07-09T14:09:18Z</time>
      </trkpt>
      <trkpt lat="47.98192" lon="3.39592">
        <ele>113.80000305176</ele>
        <time>2022-07-09T14:09:48Z</time>
      </trkpt>
      <trkpt lat="47.98189" lon="3.39593">
        <ele>113.40000152588</ele>
        <time>2022-07-09T14:09:53Z</time>
      </trkpt>
      <trkpt lat="47.98185" lon="3.39602">
        <ele>114.19999694824</ele>
        <time>2022-07-09T14:10:13Z</time>
      </trkpt>
      <trkpt lat="47.98183" lon="3.39602">
        <ele>113.40000152588</ele>
        <time>2022-07-09T14:10:33Z</time>
      </trkpt>
      <trkpt lat="47.98221" lon="3.39586">
        <ele>113.59999847412</ele>
        <time>2022-07-09T14:11:05Z</time>
      </trkpt>
      <trkpt lat="47.9822" lon="3.39586">
        <ele>113.19999694824</ele>
        <time>2022-07-09T14:11:14Z</time>
      </trkpt>
      <trkpt lat="47.9819" lon="3.396">
        <ele>113.40000152588</ele>
        <time>2022-07-09T14:11:49Z</time>
      </trkpt>
      <trkpt lat="47.98188" lon="3.39599">
        <ele>113.80000305176</ele>
        <time>2022-07-09T14:12:37Z</time>
      </trkpt>
      <trkpt lat="47.98185" lon="3.396">
        <ele>113.80000305176</ele>
        <time>2022-07-09T14:12:51Z</time>
      </trkpt>
      <trkpt lat="47.98188" lon="3.39602">
        <ele>114</ele>
        <time>2022-07-09T14:13:08Z</time>
      </trkpt>
      <trkpt lat="47.98191" lon="3.396">
        <ele>114</ele>
        <time>2022-07-09T14:13:10Z</time>
      </trkpt>
      <trkpt lat="47.98189" lon="3.39603">
        <ele>114</ele>
        <time>2022-07-09T14:13:25Z</time>
      </trkpt>
      <trkpt lat="47.98182" lon="3.39606">
        <ele>114.19999694824</ele>
        <time>2022-07-09T14:13:45Z</time>
      </trkpt>
      <trkpt lat="47.98183" lon="3.39603">
        <ele>114</ele>
        <time>2022-07-09T14:14:12Z</time>
      </trkpt>
      <trkpt lat="47.98188" lon="3.396">
        <ele>114.19999694824</ele>
        <time>2022-07-09T14:16:33Z</time>
      </trkpt>
      <trkpt lat="47.9818" lon="3.39607">
        <ele>116.80000305176</ele>
        <time>2022-07-09T14:17:11Z</time>
      </trkpt>
      <trkpt lat="47.98189" lon="3.39595">
        <ele>115</ele>
        <time>2022-07-09T14:18:50Z</time>
      </trkpt>
      <trkpt lat="47.98186" lon="3.39601">
        <ele>115.19999694824</ele>
        <time>2022-07-09T14:19:19Z</time>
      </trkpt>
      <trkpt lat="47.98184" lon="3.39605">
        <ele>115.19999694824</ele>
        <time>2022-07-09T14:19:42Z</time>
      </trkpt>
      <trkpt lat="47.98199" lon="3.39646">
        <ele>115.19999694824</ele>
        <time>2022-07-09T14:20:56Z</time>
      </trkpt>
      <trkpt lat="47.98198" lon="3.39647">
        <ele>115.19999694824</ele>
        <time>2022-07-09T14:21:04Z</time>
      </trkpt>
      <trkpt lat="47.98268" lon="3.39706">
        <ele>115.19999694824</ele>
        <time>2022-07-09T14:21:14Z</time>
      </trkpt>
      <trkpt lat="47.98193" lon="3.39606">
        <ele>115.19999694824</ele>
        <time>2022-07-09T14:27:04Z</time>
      </trkpt>
      <trkpt lat="47.98189" lon="3.39603">
        <ele>114.19999694824</ele>
        <time>2022-07-09T14:27:12Z</time>
      </trkpt>
      <trkpt lat="47.9819" lon="3.396">
        <ele>115.80000305176</ele>
        <time>2022-07-09T14:27:54Z</time>
      </trkpt>
      <trkpt lat="47.9819" lon="3.39603">
        <ele>115.19999694824</ele>
        <time>2022-07-09T14:28:34Z</time>
      </trkpt>
      <trkpt lat="47.98192" lon="3.39603">
        <ele>115.19999694824</ele>
        <time>2022-07-09T14:28:36Z</time>
      </trkpt>
      <trkpt lat="47.98193" lon="3.39603">
        <ele>115.19999694824</ele>
        <time>2022-07-09T14:28:37Z</time>
      </trkpt>
      <trkpt lat="47.98195" lon="3.39603">
        <ele>115.19999694824</ele>
        <time>2022-07-09T14:28:38Z</time>
      </trkpt>
      <trkpt lat="47.98198" lon="3.39605">
        <ele>115.40000152588</ele>
        <time>2022-07-09T14:28:58Z</time>
      </trkpt>
      <trkpt lat="47.98203" lon="3.3961">
        <ele>115.59999847412</ele>
        <time>2022-07-09T14:29:24Z</time>
      </trkpt>
      <trkpt lat="47.98197" lon="3.39602">
        <ele>115.59999847412</ele>
        <time>2022-07-09T14:29:52Z</time>
      </trkpt>
      <trkpt lat="47.98187" lon="3.39595">
        <ele>115.19999694824</ele>
        <time>2022-07-09T14:30:24Z</time>
      </trkpt>
      <trkpt lat="47.98182" lon="3.39603">
        <ele>116.19999694824</ele>
        <time>2022-07-09T14:31:29Z</time>
      </trkpt>
      <trkpt lat="47.98195" lon="3.39599">
        <ele>115.59999847412</ele>
        <time>2022-07-09T14:31:49Z</time>
      </trkpt>
      <trkpt lat="47.98185" lon="3.39598">
        <ele>115.19999694824</ele>
        <time>2022-07-09T14:32:19Z</time>
      </trkpt>
      <trkpt lat="47.98174" lon="3.39614">
        <ele>115</ele>
        <time>2022-07-09T14:32:38Z</time>
      </trkpt>
      <trkpt lat="47.98173" lon="3.39615">
        <ele>115</ele>
        <time>2022-07-09T14:32:39Z</time>
      </trkpt>
      <trkpt lat="47.98169" lon="3.39603">
        <ele>115</ele>
        <time>2022-07-09T14:32:51Z</time>
      </trkpt>
      <trkpt lat="47.98162" lon="3.39584">
        <ele>115</ele>
        <time>2022-07-09T14:33:10Z</time>
      </trkpt>
      <trkpt lat="47.98147" lon="3.39578">
        <ele>115</ele>
        <time>2022-07-09T14:33:27Z</time>
      </trkpt>
      <trkpt lat="47.98123" lon="3.39569">
        <ele>115</ele>
        <time>2022-07-09T14:33:51Z</time>
      </trkpt>
      <trkpt lat="47.98116" lon="3.39567">
        <ele>116.40000152588</ele>
        <time>2022-07-09T14:33:59Z</time>
      </trkpt>
      <trkpt lat="47.9809" lon="3.39558">
        <ele>116.19999694824</ele>
        <time>2022-07-09T14:34:26Z</time>
      </trkpt>
      <trkpt lat="47.98062" lon="3.39545">
        <ele>115.40000152588</ele>
        <time>2022-07-09T14:34:53Z</time>
      </trkpt>
      <trkpt lat="47.98046" lon="3.39547">
        <ele>114.80000305176</ele>
        <time>2022-07-09T14:35:14Z</time>
      </trkpt>
      <trkpt lat="47.98037" lon="3.39533">
        <ele>114.80000305176</ele>
        <time>2022-07-09T14:35:26Z</time>
      </trkpt>
      <trkpt lat="47.9802" lon="3.39525">
        <ele>114.80000305176</ele>
        <time>2022-07-09T14:35:44Z</time>
      </trkpt>
      <trkpt lat="47.98006" lon="3.39519">
        <ele>114.40000152588</ele>
        <time>2022-07-09T14:36:01Z</time>
      </trkpt>
      <trkpt lat="47.97994" lon="3.39516">
        <ele>114.40000152588</ele>
        <time>2022-07-09T14:36:12Z</time>
      </trkpt>
      <trkpt lat="47.97981" lon="3.39513">
        <ele>114.19999694824</ele>
        <time>2022-07-09T14:36:24Z</time>
      </trkpt>
      <trkpt lat="47.97976" lon="3.39509">
        <ele>114.19999694824</ele>
        <time>2022-07-09T14:36:29Z</time>
      </trkpt>
      <trkpt lat="47.97963" lon="3.39508">
        <ele>114</ele>
        <time>2022-07-09T14:36:40Z</time>
      </trkpt>
      <trkpt lat="47.97955" lon="3.39507">
        <ele>114</ele>
        <time>2022-07-09T14:36:49Z</time>
      </trkpt>
      <trkpt lat="47.97942" lon="3.39506">
        <ele>114</ele>
        <time>2022-07-09T14:37:01Z</time>
      </trkpt>
      <trkpt lat="47.97929" lon="3.39497">
        <ele>113.80000305176</ele>
        <time>2022-07-09T14:37:20Z</time>
      </trkpt>
      <trkpt lat="47.97916" lon="3.3949">
        <ele>113.59999847412</ele>
        <time>2022-07-09T14:37:34Z</time>
      </trkpt>
      <trkpt lat="47.97902" lon="3.3948">
        <ele>113.80000305176</ele>
        <time>2022-07-09T14:37:47Z</time>
      </trkpt>
      <trkpt lat="47.97894" lon="3.3948">
        <ele>113.80000305176</ele>
        <time>2022-07-09T14:37:56Z</time>
      </trkpt>
      <trkpt lat="47.97893" lon="3.3948">
        <ele>113.59999847412</ele>
        <time>2022-07-09T14:37:57Z</time>
      </trkpt>
      <trkpt lat="47.9785" lon="3.3947">
        <ele>113.40000152588</ele>
        <time>2022-07-09T14:38:35Z</time>
      </trkpt>
      <trkpt lat="47.97835" lon="3.39463">
        <ele>113.19999694824</ele>
        <time>2022-07-09T14:38:50Z</time>
      </trkpt>
      <trkpt lat="47.97818" lon="3.39449">
        <ele>113.19999694824</ele>
        <time>2022-07-09T14:39:09Z</time>
      </trkpt>
      <trkpt lat="47.97803" lon="3.39436">
        <ele>113</ele>
        <time>2022-07-09T14:39:24Z</time>
      </trkpt>
      <trkpt lat="47.97788" lon="3.39428">
        <ele>113</ele>
        <time>2022-07-09T14:39:36Z</time>
      </trkpt>
      <trkpt lat="47.97787" lon="3.39428">
        <ele>113</ele>
        <time>2022-07-09T14:39:37Z</time>
      </trkpt>
      <trkpt lat="47.97779" lon="3.39423">
        <ele>112.80000305176</ele>
        <time>2022-07-09T14:39:48Z</time>
      </trkpt>
      <trkpt lat="47.97776" lon="3.39421">
        <ele>112.80000305176</ele>
        <time>2022-07-09T14:39:50Z</time>
      </trkpt>
      <trkpt lat="47.97764" lon="3.39412">
        <ele>112.80000305176</ele>
        <time>2022-07-09T14:40:02Z</time>
      </trkpt>
      <trkpt lat="47.9775" lon="3.39415">
        <ele>112.59999847412</ele>
        <time>2022-07-09T14:40:15Z</time>
      </trkpt>
      <trkpt lat="47.97736" lon="3.39397">
        <ele>112.59999847412</ele>
        <time>2022-07-09T14:40:35Z</time>
      </trkpt>
      <trkpt lat="47.97735" lon="3.39391">
        <ele>112.59999847412</ele>
        <time>2022-07-09T14:40:39Z</time>
      </trkpt>
      <trkpt lat="47.97727" lon="3.39374">
        <ele>112.59999847412</ele>
        <time>2022-07-09T14:40:51Z</time>
      </trkpt>
      <trkpt lat="47.97712" lon="3.39366">
        <ele>112.59999847412</ele>
        <time>2022-07-09T14:41:03Z</time>
      </trkpt>
      <trkpt lat="47.97711" lon="3.39366">
        <ele>112.59999847412</ele>
        <time>2022-07-09T14:41:04Z</time>
      </trkpt>
      <trkpt lat="47.97709" lon="3.39365">
        <ele>112.59999847412</ele>
        <time>2022-07-09T14:41:05Z</time>
      </trkpt>
      <trkpt lat="47.97693" lon="3.39367">
        <ele>112.80000305176</ele>
        <time>2022-07-09T14:41:20Z</time>
      </trkpt>
      <trkpt lat="47.97684" lon="3.39361">
        <ele>113</ele>
        <time>2022-07-09T14:41:42Z</time>
      </trkpt>
      <trkpt lat="47.97676" lon="3.39354">
        <ele>113</ele>
        <time>2022-07-09T14:41:59Z</time>
      </trkpt>
      <trkpt lat="47.97667" lon="3.39351">
        <ele>112.80000305176</ele>
        <time>2022-07-09T14:42:08Z</time>
      </trkpt>
      <trkpt lat="47.97663" lon="3.39343">
        <ele>112.59999847412</ele>
        <time>2022-07-09T14:42:16Z</time>
      </trkpt>
      <trkpt lat="47.97662" lon="3.39342">
        <ele>112.40000152588</ele>
        <time>2022-07-09T14:42:17Z</time>
      </trkpt>
      <trkpt lat="47.9765" lon="3.39322">
        <ele>113</ele>
        <time>2022-07-09T14:42:31Z</time>
      </trkpt>
      <trkpt lat="47.97638" lon="3.39308">
        <ele>113</ele>
        <time>2022-07-09T14:42:46Z</time>
      </trkpt>
      <trkpt lat="47.97634" lon="3.39304">
        <ele>112.59999847412</ele>
        <time>2022-07-09T14:42:51Z</time>
      </trkpt>
      <trkpt lat="47.97627" lon="3.39299">
        <ele>112.59999847412</ele>
        <time>2022-07-09T14:42:59Z</time>
      </trkpt>
      <trkpt lat="47.97613" lon="3.39284">
        <ele>112.59999847412</ele>
        <time>2022-07-09T14:43:15Z</time>
      </trkpt>
      <trkpt lat="47.97599" lon="3.39266">
        <ele>112.80000305176</ele>
        <time>2022-07-09T14:43:30Z</time>
      </trkpt>
      <trkpt lat="47.97594" lon="3.3926">
        <ele>112.59999847412</ele>
        <time>2022-07-09T14:43:35Z</time>
      </trkpt>
      <trkpt lat="47.9759" lon="3.39254">
        <ele>112.80000305176</ele>
        <time>2022-07-09T14:43:39Z</time>
      </trkpt>
      <trkpt lat="47.97589" lon="3.39252">
        <ele>112.80000305176</ele>
        <time>2022-07-09T14:43:40Z</time>
      </trkpt>
      <trkpt lat="47.97588" lon="3.3925">
        <ele>112.80000305176</ele>
        <time>2022-07-09T14:43:41Z</time>
      </trkpt>
      <trkpt lat="47.9757" lon="3.39232">
        <ele>113</ele>
        <time>2022-07-09T14:43:57Z</time>
      </trkpt>
      <trkpt lat="47.97559" lon="3.39231">
        <ele>113</ele>
        <time>2022-07-09T14:44:21Z</time>
      </trkpt>
      <trkpt lat="47.9753" lon="3.39218">
        <ele>113</ele>
        <time>2022-07-09T14:44:49Z</time>
      </trkpt>
      <trkpt lat="47.97527" lon="3.39204">
        <ele>112.80000305176</ele>
        <time>2022-07-09T14:45:03Z</time>
      </trkpt>
      <trkpt lat="47.97525" lon="3.392">
        <ele>112.80000305176</ele>
        <time>2022-07-09T14:45:12Z</time>
      </trkpt>
      <trkpt lat="47.97516" lon="3.39198">
        <ele>112.80000305176</ele>
        <time>2022-07-09T14:45:23Z</time>
      </trkpt>
      <trkpt lat="47.9751" lon="3.39199">
        <ele>112.19999694824</ele>
        <time>2022-07-09T14:45:29Z</time>
      </trkpt>
      <trkpt lat="47.97492" lon="3.39188">
        <ele>113</ele>
        <time>2022-07-09T14:45:43Z</time>
      </trkpt>
      <trkpt lat="47.97473" lon="3.39191">
        <ele>113.59999847412</ele>
        <time>2022-07-09T14:45:58Z</time>
      </trkpt>
      <trkpt lat="47.97449" lon="3.39194">
        <ele>114.40000152588</ele>
        <time>2022-07-09T14:46:19Z</time>
      </trkpt>
      <trkpt lat="47.9744" lon="3.39195">
        <ele>114.59999847412</ele>
        <time>2022-07-09T14:46:27Z</time>
      </trkpt>
      <trkpt lat="47.97428" lon="3.39206">
        <ele>114.80000305176</ele>
        <time>2022-07-09T14:46:43Z</time>
      </trkpt>
      <trkpt lat="47.97408" lon="3.39224">
        <ele>114.80000305176</ele>
        <time>2022-07-09T14:47:05Z</time>
      </trkpt>
      <trkpt lat="47.9739" lon="3.39228">
        <ele>114.59999847412</ele>
        <time>2022-07-09T14:47:20Z</time>
      </trkpt>
      <trkpt lat="47.97386" lon="3.39251">
        <ele>115</ele>
        <time>2022-07-09T14:47:39Z</time>
      </trkpt>
      <trkpt lat="47.97383" lon="3.39259">
        <ele>115.59999847412</ele>
        <time>2022-07-09T14:47:49Z</time>
      </trkpt>
      <trkpt lat="47.97377" lon="3.39268">
        <ele>115.80000305176</ele>
        <time>2022-07-09T14:48:02Z</time>
      </trkpt>
      <trkpt lat="47.97375" lon="3.39281">
        <ele>115.59999847412</ele>
        <time>2022-07-09T14:48:13Z</time>
      </trkpt>
      <trkpt lat="47.97374" lon="3.39297">
        <ele>115.80000305176</ele>
        <time>2022-07-09T14:48:30Z</time>
      </trkpt>
      <trkpt lat="47.97384" lon="3.39313">
        <ele>115.40000152588</ele>
        <time>2022-07-09T14:49:15Z</time>
      </trkpt>
      <trkpt lat="47.97388" lon="3.39307">
        <ele>112.19999694824</ele>
        <time>2022-07-09T14:50:00Z</time>
      </trkpt>
      <trkpt lat="47.97388" lon="3.39307">
        <ele>113</ele>
        <time>2022-07-09T14:50:27Z</time>
      </trkpt>
      <trkpt lat="47.97361" lon="3.39322">
        <ele>116</ele>
        <time>2022-07-09T14:50:50Z</time>
      </trkpt>
      <trkpt lat="47.97366" lon="3.39333">
        <ele>116</ele>
        <time>2022-07-09T14:50:55Z</time>
      </trkpt>
      <trkpt lat="47.97368" lon="3.39336">
        <ele>115.80000305176</ele>
        <time>2022-07-09T14:51:41Z</time>
      </trkpt>
      <trkpt lat="47.9737" lon="3.39336">
        <ele>116.59999847412</ele>
        <time>2022-07-09T14:52:14Z</time>
      </trkpt>
      <trkpt lat="47.97369" lon="3.39337">
        <ele>116.59999847412</ele>
        <time>2022-07-09T14:52:45Z</time>
      </trkpt>
      <trkpt lat="47.97372" lon="3.39341">
        <ele>116.59999847412</ele>
        <time>2022-07-09T14:53:07Z</time>
      </trkpt>
      <trkpt lat="47.9737" lon="3.39341">
        <ele>116.59999847412</ele>
        <time>2022-07-09T14:53:36Z</time>
      </trkpt>
      <trkpt lat="47.97369" lon="3.39342">
        <ele>116.59999847412</ele>
        <time>2022-07-09T14:54:03Z</time>
      </trkpt>
      <trkpt lat="47.97369" lon="3.39341">
        <ele>116.59999847412</ele>
        <time>2022-07-09T14:54:33Z</time>
      </trkpt>
      <trkpt lat="47.97371" lon="3.39339">
        <ele>116.59999847412</ele>
        <time>2022-07-09T14:55:02Z</time>
      </trkpt>
      <trkpt lat="47.97369" lon="3.39338">
        <ele>116.59999847412</ele>
        <time>2022-07-09T14:55:33Z</time>
      </trkpt>
      <trkpt lat="47.97366" lon="3.39342">
        <ele>116.59999847412</ele>
        <time>2022-07-09T14:56:02Z</time>
      </trkpt>
      <trkpt lat="47.97369" lon="3.39343">
        <ele>116.59999847412</ele>
        <time>2022-07-09T14:56:33Z</time>
      </trkpt>
      <trkpt lat="47.97371" lon="3.3934">
        <ele>116.59999847412</ele>
        <time>2022-07-09T14:57:06Z</time>
      </trkpt>
      <trkpt lat="47.9737" lon="3.39342">
        <ele>116.59999847412</ele>
        <time>2022-07-09T14:57:37Z</time>
      </trkpt>
      <trkpt lat="47.9737" lon="3.39338">
        <ele>116.59999847412</ele>
        <time>2022-07-09T14:58:08Z</time>
      </trkpt>
      <trkpt lat="47.97369" lon="3.39337">
        <ele>116.59999847412</ele>
        <time>2022-07-09T14:58:39Z</time>
      </trkpt>
      <trkpt lat="47.9737" lon="3.39337">
        <ele>116.59999847412</ele>
        <time>2022-07-09T14:59:11Z</time>
      </trkpt>
      <trkpt lat="47.97376" lon="3.39336">
        <ele>116.59999847412</ele>
        <time>2022-07-09T14:59:45Z</time>
      </trkpt>
      <trkpt lat="47.97377" lon="3.39336">
        <ele>116.59999847412</ele>
        <time>2022-07-09T15:00:09Z</time>
      </trkpt>
      <trkpt lat="47.97377" lon="3.39338">
        <ele>116.59999847412</ele>
        <time>2022-07-09T15:00:41Z</time>
      </trkpt>
      <trkpt lat="47.97374" lon="3.3934">
        <ele>116.59999847412</ele>
        <time>2022-07-09T15:01:11Z</time>
      </trkpt>
      <trkpt lat="47.97373" lon="3.39337">
        <ele>116.59999847412</ele>
        <time>2022-07-09T15:01:43Z</time>
      </trkpt>
      <trkpt lat="47.9737" lon="3.39342">
        <ele>116.59999847412</ele>
        <time>2022-07-09T15:02:15Z</time>
      </trkpt>
      <trkpt lat="47.97371" lon="3.39339">
        <ele>116.59999847412</ele>
        <time>2022-07-09T15:02:44Z</time>
      </trkpt>
      <trkpt lat="47.97374" lon="3.39337">
        <ele>116.59999847412</ele>
        <time>2022-07-09T15:03:19Z</time>
      </trkpt>
      <trkpt lat="47.97374" lon="3.39337">
        <ele>116.59999847412</ele>
        <time>2022-07-09T15:03:50Z</time>
      </trkpt>
      <trkpt lat="47.97371" lon="3.39334">
        <ele>116.59999847412</ele>
        <time>2022-07-09T15:04:21Z</time>
      </trkpt>
      <trkpt lat="47.97369" lon="3.39335">
        <ele>116.59999847412</ele>
        <time>2022-07-09T15:04:53Z</time>
      </trkpt>
      <trkpt lat="47.9737" lon="3.39336">
        <ele>116.59999847412</ele>
        <time>2022-07-09T15:05:21Z</time>
      </trkpt>
      <trkpt lat="47.97372" lon="3.39339">
        <ele>116.59999847412</ele>
        <time>2022-07-09T15:05:52Z</time>
      </trkpt>
      <trkpt lat="47.97371" lon="3.39339">
        <ele>116.59999847412</ele>
        <time>2022-07-09T15:06:28Z</time>
      </trkpt>
      <trkpt lat="47.97371" lon="3.39339">
        <ele>116.59999847412</ele>
        <time>2022-07-09T15:07:03Z</time>
      </trkpt>
      <trkpt lat="47.97371" lon="3.39339">
        <ele>116.59999847412</ele>
        <time>2022-07-09T15:07:35Z</time>
      </trkpt>
      <trkpt lat="47.9737" lon="3.39335">
        <ele>116.59999847412</ele>
        <time>2022-07-09T15:08:10Z</time>
      </trkpt>
      <trkpt lat="47.9737" lon="3.39336">
        <ele>116.59999847412</ele>
        <time>2022-07-09T15:08:42Z</time>
      </trkpt>
      <trkpt lat="47.97367" lon="3.39338">
        <ele>116.59999847412</ele>
        <time>2022-07-09T15:09:19Z</time>
      </trkpt>
      <trkpt lat="47.97366" lon="3.39338">
        <ele>116.59999847412</ele>
        <time>2022-07-09T15:09:51Z</time>
      </trkpt>
      <trkpt lat="47.97369" lon="3.39336">
        <ele>116.59999847412</ele>
        <time>2022-07-09T15:10:24Z</time>
      </trkpt>
      <trkpt lat="47.97369" lon="3.39338">
        <ele>116.59999847412</ele>
        <time>2022-07-09T15:10:52Z</time>
      </trkpt>
      <trkpt lat="47.97366" lon="3.39333">
        <ele>116.59999847412</ele>
        <time>2022-07-09T15:11:18Z</time>
      </trkpt>
      <trkpt lat="47.97368" lon="3.39332">
        <ele>116.59999847412</ele>
        <time>2022-07-09T15:11:44Z</time>
      </trkpt>
      <trkpt lat="47.97366" lon="3.39315">
        <ele>117.40000152588</ele>
        <time>2022-07-09T15:12:30Z</time>
      </trkpt>
    </trkseg>
  </trk>
</gpx>